<?xml version="1.0" encoding="UTF-8" standalone="no" ?>
<gpx xmlns="http://www.topografix.com/GPX/1/1" xmlns:xsi="http://www.w3.org/2001/XMLSchema-instance" xsi:schemaLocation="http://www.topografix.com/GPX/1/1 http://www.topografix.com/GPX/1/1/gpx.xsd" version="1.1" creator="VisuGPX - https://www.visugpx.com">
  <metadata>
    <name>Saint-barthélémy en boucle</name>
    <desc><![CDATA[Saint-barthélémy en boucle]]></desc>
  </metadata>
  <trk>
    <name><![CDATA[Saint-barthélémy en boucle_1]]></name>
    <trkseg>
      <trkpt lat="42.79164" lon="1.73263">
        <ele>988.37280273438</ele>
        <time>2012-05-17T07:11:33Z</time>
      </trkpt>
      <trkpt lat="42.79163" lon="1.73263">
        <ele>987.89184570312</ele>
        <time>2012-05-17T07:11:36Z</time>
      </trkpt>
      <trkpt lat="42.79146" lon="1.73256">
        <ele>990.29541015625</ele>
        <time>2012-05-17T07:11:42Z</time>
      </trkpt>
      <trkpt lat="42.79136" lon="1.73248">
        <ele>987.89184570312</ele>
        <time>2012-05-17T07:11:46Z</time>
      </trkpt>
      <trkpt lat="42.79123" lon="1.73232">
        <ele>984.52734375</ele>
        <time>2012-05-17T07:11:52Z</time>
      </trkpt>
      <trkpt lat="42.79116" lon="1.73226">
        <ele>983.56591796875</ele>
        <time>2012-05-17T07:11:55Z</time>
      </trkpt>
      <trkpt lat="42.79107" lon="1.7323">
        <ele>982.1240234375</ele>
        <time>2012-05-17T07:11:59Z</time>
      </trkpt>
      <trkpt lat="42.791" lon="1.7325">
        <ele>978.75952148438</ele>
        <time>2012-05-17T07:12:05Z</time>
      </trkpt>
      <trkpt lat="42.79094" lon="1.73266">
        <ele>975.87548828125</ele>
        <time>2012-05-17T07:12:10Z</time>
      </trkpt>
      <trkpt lat="42.79089" lon="1.73283">
        <ele>972.99169921875</ele>
        <time>2012-05-17T07:12:15Z</time>
      </trkpt>
      <trkpt lat="42.79087" lon="1.73297">
        <ele>971.06884765625</ele>
        <time>2012-05-17T07:12:19Z</time>
      </trkpt>
      <trkpt lat="42.79086" lon="1.73305">
        <ele>970.107421875</ele>
        <time>2012-05-17T07:12:21Z</time>
      </trkpt>
      <trkpt lat="42.79087" lon="1.73328">
        <ele>967.7041015625</ele>
        <time>2012-05-17T07:12:27Z</time>
      </trkpt>
      <trkpt lat="42.79086" lon="1.73347">
        <ele>965.78173828125</ele>
        <time>2012-05-17T07:12:32Z</time>
      </trkpt>
      <trkpt lat="42.79081" lon="1.73354">
        <ele>964.33959960938</ele>
        <time>2012-05-17T07:12:35Z</time>
      </trkpt>
      <trkpt lat="42.79066" lon="1.73357">
        <ele>961.45581054688</ele>
        <time>2012-05-17T07:12:41Z</time>
      </trkpt>
      <trkpt lat="42.79064" lon="1.73358">
        <ele>961.45581054688</ele>
        <time>2012-05-17T07:12:42Z</time>
      </trkpt>
      <trkpt lat="42.79057" lon="1.73353">
        <ele>959.533203125</ele>
        <time>2012-05-17T07:12:48Z</time>
      </trkpt>
      <trkpt lat="42.79054" lon="1.73345">
        <ele>957.61059570312</ele>
        <time>2012-05-17T07:12:52Z</time>
      </trkpt>
      <trkpt lat="42.79051" lon="1.73334">
        <ele>957.1298828125</ele>
        <time>2012-05-17T07:12:58Z</time>
      </trkpt>
    </trkseg>
  </trk>
  <trk>
    <name><![CDATA[Rando-course]]></name>
    <cmt><![CDATA[Saint barthélémy
]]></cmt>
    <trkseg>
      <trkpt lat="42.79049" lon="1.73331">
        <ele>956.16845703125</ele>
        <time>2012-05-17T07:13:01Z</time>
      </trkpt>
      <trkpt lat="42.79045" lon="1.73323">
        <ele>955.68774414062</ele>
        <time>2012-05-17T07:13:08Z</time>
      </trkpt>
      <trkpt lat="42.7904" lon="1.73318">
        <ele>953.76513671875</ele>
        <time>2012-05-17T07:13:14Z</time>
      </trkpt>
      <trkpt lat="42.79033" lon="1.73311">
        <ele>953.76513671875</ele>
        <time>2012-05-17T07:13:19Z</time>
      </trkpt>
      <trkpt lat="42.79031" lon="1.7331">
        <ele>953.76513671875</ele>
        <time>2012-05-17T07:13:21Z</time>
      </trkpt>
      <trkpt lat="42.79031" lon="1.73306">
        <ele>954.24584960938</ele>
        <time>2012-05-17T07:13:27Z</time>
      </trkpt>
      <trkpt lat="42.79031" lon="1.73304">
        <ele>953.76513671875</ele>
        <time>2012-05-17T07:13:28Z</time>
      </trkpt>
      <trkpt lat="42.79031" lon="1.73289">
        <ele>951.84252929688</ele>
        <time>2012-05-17T07:13:33Z</time>
      </trkpt>
      <trkpt lat="42.79024" lon="1.73287">
        <ele>950.88110351562</ele>
        <time>2012-05-17T07:13:37Z</time>
      </trkpt>
      <trkpt lat="42.79015" lon="1.73283">
        <ele>950.88110351562</ele>
        <time>2012-05-17T07:13:41Z</time>
      </trkpt>
      <trkpt lat="42.79009" lon="1.73281">
        <ele>949.43920898438</ele>
        <time>2012-05-17T07:13:46Z</time>
      </trkpt>
      <trkpt lat="42.79005" lon="1.73281">
        <ele>950.40063476562</ele>
        <time>2012-05-17T07:13:53Z</time>
      </trkpt>
      <trkpt lat="42.79005" lon="1.7328">
        <ele>949.919921875</ele>
        <time>2012-05-17T07:13:56Z</time>
      </trkpt>
      <trkpt lat="42.79003" lon="1.73291">
        <ele>949.43920898438</ele>
        <time>2012-05-17T07:14:00Z</time>
      </trkpt>
      <trkpt lat="42.79002" lon="1.73295">
        <ele>949.43920898438</ele>
        <time>2012-05-17T07:14:01Z</time>
      </trkpt>
      <trkpt lat="42.78995" lon="1.73315">
        <ele>950.40063476562</ele>
        <time>2012-05-17T07:14:07Z</time>
      </trkpt>
      <trkpt lat="42.7899" lon="1.73332">
        <ele>951.36181640625</ele>
        <time>2012-05-17T07:14:12Z</time>
      </trkpt>
      <trkpt lat="42.78988" lon="1.73347">
        <ele>949.43920898438</ele>
        <time>2012-05-17T07:14:16Z</time>
      </trkpt>
      <trkpt lat="42.78983" lon="1.73366">
        <ele>948.47778320312</ele>
        <time>2012-05-17T07:14:22Z</time>
      </trkpt>
      <trkpt lat="42.78982" lon="1.73381">
        <ele>948.47778320312</ele>
        <time>2012-05-17T07:14:26Z</time>
      </trkpt>
      <trkpt lat="42.7898" lon="1.73395">
        <ele>947.03588867188</ele>
        <time>2012-05-17T07:14:30Z</time>
      </trkpt>
      <trkpt lat="42.78971" lon="1.73406">
        <ele>946.07470703125</ele>
        <time>2012-05-17T07:14:35Z</time>
      </trkpt>
      <trkpt lat="42.78963" lon="1.73421">
        <ele>944.15209960938</ele>
        <time>2012-05-17T07:14:40Z</time>
      </trkpt>
      <trkpt lat="42.78961" lon="1.73438">
        <ele>941.74877929688</ele>
        <time>2012-05-17T07:14:45Z</time>
      </trkpt>
      <trkpt lat="42.78957" lon="1.73455">
        <ele>937.9033203125</ele>
        <time>2012-05-17T07:14:50Z</time>
      </trkpt>
      <trkpt lat="42.78955" lon="1.73466">
        <ele>935.5</ele>
        <time>2012-05-17T07:14:54Z</time>
      </trkpt>
      <trkpt lat="42.78954" lon="1.7347">
        <ele>935.5</ele>
        <time>2012-05-17T07:14:55Z</time>
      </trkpt>
      <trkpt lat="42.78952" lon="1.73495">
        <ele>933.0966796875</ele>
        <time>2012-05-17T07:15:02Z</time>
      </trkpt>
      <trkpt lat="42.78955" lon="1.73509">
        <ele>932.6162109375</ele>
        <time>2012-05-17T07:15:06Z</time>
      </trkpt>
      <trkpt lat="42.78959" lon="1.73522">
        <ele>931.17431640625</ele>
        <time>2012-05-17T07:15:10Z</time>
      </trkpt>
      <trkpt lat="42.7896" lon="1.7353">
        <ele>929.73217773438</ele>
        <time>2012-05-17T07:15:15Z</time>
      </trkpt>
      <trkpt lat="42.78961" lon="1.73536">
        <ele>927.8095703125</ele>
        <time>2012-05-17T07:15:21Z</time>
      </trkpt>
      <trkpt lat="42.7896" lon="1.73543">
        <ele>925.88696289062</ele>
        <time>2012-05-17T07:15:27Z</time>
      </trkpt>
      <trkpt lat="42.78951" lon="1.73562">
        <ele>924.44506835938</ele>
        <time>2012-05-17T07:15:32Z</time>
      </trkpt>
      <trkpt lat="42.78947" lon="1.73574">
        <ele>922.04150390625</ele>
        <time>2012-05-17T07:15:37Z</time>
      </trkpt>
      <trkpt lat="42.78947" lon="1.73593">
        <ele>919.63842773438</ele>
        <time>2012-05-17T07:15:42Z</time>
      </trkpt>
      <trkpt lat="42.78947" lon="1.73611">
        <ele>916.75439453125</ele>
        <time>2012-05-17T07:15:47Z</time>
      </trkpt>
      <trkpt lat="42.78951" lon="1.73628">
        <ele>914.35107421875</ele>
        <time>2012-05-17T07:15:52Z</time>
      </trkpt>
      <trkpt lat="42.78955" lon="1.73643">
        <ele>911.94799804688</ele>
        <time>2012-05-17T07:15:57Z</time>
      </trkpt>
      <trkpt lat="42.78956" lon="1.73645">
        <ele>911.46728515625</ele>
        <time>2012-05-17T07:15:58Z</time>
      </trkpt>
      <trkpt lat="42.78957" lon="1.73654">
        <ele>910.02514648438</ele>
        <time>2012-05-17T07:16:04Z</time>
      </trkpt>
      <trkpt lat="42.78955" lon="1.73661">
        <ele>910.02514648438</ele>
        <time>2012-05-17T07:16:07Z</time>
      </trkpt>
      <trkpt lat="42.78954" lon="1.73671">
        <ele>910.02514648438</ele>
        <time>2012-05-17T07:16:12Z</time>
      </trkpt>
      <trkpt lat="42.78954" lon="1.73679">
        <ele>908.10278320312</ele>
        <time>2012-05-17T07:16:17Z</time>
      </trkpt>
      <trkpt lat="42.78954" lon="1.73693">
        <ele>905.21850585938</ele>
        <time>2012-05-17T07:16:22Z</time>
      </trkpt>
      <trkpt lat="42.78955" lon="1.73699">
        <ele>905.21850585938</ele>
        <time>2012-05-17T07:16:24Z</time>
      </trkpt>
      <trkpt lat="42.78958" lon="1.73704">
        <ele>903.77661132812</ele>
        <time>2012-05-17T07:16:26Z</time>
      </trkpt>
      <trkpt lat="42.78962" lon="1.73713">
        <ele>901.85400390625</ele>
        <time>2012-05-17T07:16:30Z</time>
      </trkpt>
      <trkpt lat="42.78962" lon="1.7372">
        <ele>901.85400390625</ele>
        <time>2012-05-17T07:16:34Z</time>
      </trkpt>
      <trkpt lat="42.78957" lon="1.7373">
        <ele>900.412109375</ele>
        <time>2012-05-17T07:16:40Z</time>
      </trkpt>
      <trkpt lat="42.78955" lon="1.73734">
        <ele>902.33447265625</ele>
        <time>2012-05-17T07:16:43Z</time>
      </trkpt>
      <trkpt lat="42.78954" lon="1.73737">
        <ele>905.21850585938</ele>
        <time>2012-05-17T07:16:49Z</time>
      </trkpt>
      <trkpt lat="42.78953" lon="1.73738">
        <ele>905.21850585938</ele>
        <time>2012-05-17T07:16:50Z</time>
      </trkpt>
      <trkpt lat="42.78943" lon="1.73756">
        <ele>903.77661132812</ele>
        <time>2012-05-17T07:16:56Z</time>
      </trkpt>
      <trkpt lat="42.78936" lon="1.73779">
        <ele>903.2958984375</ele>
        <time>2012-05-17T07:17:03Z</time>
      </trkpt>
      <trkpt lat="42.78928" lon="1.73797">
        <ele>902.81518554688</ele>
        <time>2012-05-17T07:17:09Z</time>
      </trkpt>
      <trkpt lat="42.78921" lon="1.7381">
        <ele>902.33447265625</ele>
        <time>2012-05-17T07:17:14Z</time>
      </trkpt>
      <trkpt lat="42.78916" lon="1.73821">
        <ele>903.2958984375</ele>
        <time>2012-05-17T07:17:18Z</time>
      </trkpt>
      <trkpt lat="42.78909" lon="1.73832">
        <ele>901.37329101562</ele>
        <time>2012-05-17T07:17:27Z</time>
      </trkpt>
      <trkpt lat="42.78901" lon="1.73838">
        <ele>900.892578125</ele>
        <time>2012-05-17T07:17:34Z</time>
      </trkpt>
      <trkpt lat="42.78897" lon="1.73842">
        <ele>898.96997070312</ele>
        <time>2012-05-17T07:17:40Z</time>
      </trkpt>
      <trkpt lat="42.78892" lon="1.73846">
        <ele>898.96997070312</ele>
        <time>2012-05-17T07:17:47Z</time>
      </trkpt>
      <trkpt lat="42.78886" lon="1.73848">
        <ele>897.52807617188</ele>
        <time>2012-05-17T07:17:52Z</time>
      </trkpt>
      <trkpt lat="42.78879" lon="1.73858">
        <ele>896.08618164062</ele>
        <time>2012-05-17T07:17:56Z</time>
      </trkpt>
      <trkpt lat="42.78871" lon="1.73879">
        <ele>894.16357421875</ele>
        <time>2012-05-17T07:18:01Z</time>
      </trkpt>
      <trkpt lat="42.78866" lon="1.73899">
        <ele>894.16357421875</ele>
        <time>2012-05-17T07:18:07Z</time>
      </trkpt>
      <trkpt lat="42.78859" lon="1.73914">
        <ele>893.68286132812</ele>
        <time>2012-05-17T07:18:12Z</time>
      </trkpt>
      <trkpt lat="42.78852" lon="1.73933">
        <ele>894.16357421875</ele>
        <time>2012-05-17T07:18:18Z</time>
      </trkpt>
      <trkpt lat="42.78846" lon="1.7395">
        <ele>891.76000976562</ele>
        <time>2012-05-17T07:18:23Z</time>
      </trkpt>
      <trkpt lat="42.78841" lon="1.73962">
        <ele>891.76000976562</ele>
        <time>2012-05-17T07:18:27Z</time>
      </trkpt>
      <trkpt lat="42.78835" lon="1.73978">
        <ele>892.24096679688</ele>
        <time>2012-05-17T07:18:32Z</time>
      </trkpt>
      <trkpt lat="42.7883" lon="1.73998">
        <ele>894.16357421875</ele>
        <time>2012-05-17T07:18:38Z</time>
      </trkpt>
      <trkpt lat="42.78823" lon="1.74018">
        <ele>894.16357421875</ele>
        <time>2012-05-17T07:18:45Z</time>
      </trkpt>
      <trkpt lat="42.7882" lon="1.74033">
        <ele>894.64404296875</ele>
        <time>2012-05-17T07:18:52Z</time>
      </trkpt>
      <trkpt lat="42.78815" lon="1.74044">
        <ele>894.16357421875</ele>
        <time>2012-05-17T07:18:57Z</time>
      </trkpt>
      <trkpt lat="42.78812" lon="1.74054">
        <ele>893.68286132812</ele>
        <time>2012-05-17T07:19:04Z</time>
      </trkpt>
      <trkpt lat="42.78811" lon="1.74064">
        <ele>895.12475585938</ele>
        <time>2012-05-17T07:19:11Z</time>
      </trkpt>
      <trkpt lat="42.78807" lon="1.74075">
        <ele>895.60546875</ele>
        <time>2012-05-17T07:19:17Z</time>
      </trkpt>
      <trkpt lat="42.78802" lon="1.74095">
        <ele>896.56689453125</ele>
        <time>2012-05-17T07:19:23Z</time>
      </trkpt>
      <trkpt lat="42.78796" lon="1.74114">
        <ele>897.04736328125</ele>
        <time>2012-05-17T07:19:29Z</time>
      </trkpt>
      <trkpt lat="42.78791" lon="1.74126">
        <ele>898.96997070312</ele>
        <time>2012-05-17T07:19:34Z</time>
      </trkpt>
      <trkpt lat="42.78787" lon="1.74143">
        <ele>898.96997070312</ele>
        <time>2012-05-17T07:19:41Z</time>
      </trkpt>
      <trkpt lat="42.78783" lon="1.74162">
        <ele>899.45068359375</ele>
        <time>2012-05-17T07:19:47Z</time>
      </trkpt>
      <trkpt lat="42.78782" lon="1.74179">
        <ele>898.96997070312</ele>
        <time>2012-05-17T07:19:53Z</time>
      </trkpt>
      <trkpt lat="42.7878" lon="1.74194">
        <ele>899.45068359375</ele>
        <time>2012-05-17T07:19:58Z</time>
      </trkpt>
      <trkpt lat="42.78778" lon="1.74215">
        <ele>898.4892578125</ele>
        <time>2012-05-17T07:20:05Z</time>
      </trkpt>
      <trkpt lat="42.78777" lon="1.74228">
        <ele>898.0087890625</ele>
        <time>2012-05-17T07:20:09Z</time>
      </trkpt>
      <trkpt lat="42.78775" lon="1.74246">
        <ele>896.08618164062</ele>
        <time>2012-05-17T07:20:15Z</time>
      </trkpt>
      <trkpt lat="42.78776" lon="1.74263">
        <ele>895.60546875</ele>
        <time>2012-05-17T07:20:21Z</time>
      </trkpt>
      <trkpt lat="42.78782" lon="1.74277">
        <ele>894.64404296875</ele>
        <time>2012-05-17T07:20:27Z</time>
      </trkpt>
      <trkpt lat="42.78783" lon="1.74279">
        <ele>894.64404296875</ele>
        <time>2012-05-17T07:20:28Z</time>
      </trkpt>
      <trkpt lat="42.7879" lon="1.74289">
        <ele>893.2021484375</ele>
        <time>2012-05-17T07:20:33Z</time>
      </trkpt>
      <trkpt lat="42.78796" lon="1.74301">
        <ele>893.2021484375</ele>
        <time>2012-05-17T07:20:37Z</time>
      </trkpt>
      <trkpt lat="42.788" lon="1.74316">
        <ele>892.7216796875</ele>
        <time>2012-05-17T07:20:42Z</time>
      </trkpt>
      <trkpt lat="42.78802" lon="1.74325">
        <ele>891.76000976562</ele>
        <time>2012-05-17T07:20:46Z</time>
      </trkpt>
      <trkpt lat="42.78808" lon="1.74334">
        <ele>892.7216796875</ele>
        <time>2012-05-17T07:20:53Z</time>
      </trkpt>
      <trkpt lat="42.78809" lon="1.74335">
        <ele>892.7216796875</ele>
        <time>2012-05-17T07:20:54Z</time>
      </trkpt>
      <trkpt lat="42.78811" lon="1.74339">
        <ele>891.76000976562</ele>
        <time>2012-05-17T07:20:57Z</time>
      </trkpt>
      <trkpt lat="42.78806" lon="1.74344">
        <ele>891.76000976562</ele>
        <time>2012-05-17T07:21:01Z</time>
      </trkpt>
      <trkpt lat="42.788" lon="1.74347">
        <ele>895.12475585938</ele>
        <time>2012-05-17T07:21:04Z</time>
      </trkpt>
      <trkpt lat="42.78798" lon="1.7435">
        <ele>897.52807617188</ele>
        <time>2012-05-17T07:21:07Z</time>
      </trkpt>
      <trkpt lat="42.78796" lon="1.74351">
        <ele>897.04736328125</ele>
        <time>2012-05-17T07:21:10Z</time>
      </trkpt>
      <trkpt lat="42.78794" lon="1.74355">
        <ele>894.16357421875</ele>
        <time>2012-05-17T07:21:18Z</time>
      </trkpt>
      <trkpt lat="42.78793" lon="1.74356">
        <ele>892.24096679688</ele>
        <time>2012-05-17T07:21:23Z</time>
      </trkpt>
      <trkpt lat="42.78792" lon="1.74357">
        <ele>891.76000976562</ele>
        <time>2012-05-17T07:21:25Z</time>
      </trkpt>
      <trkpt lat="42.78778" lon="1.74358">
        <ele>891.279296875</ele>
        <time>2012-05-17T07:21:31Z</time>
      </trkpt>
      <trkpt lat="42.78771" lon="1.7436">
        <ele>890.31811523438</ele>
        <time>2012-05-17T07:21:34Z</time>
      </trkpt>
      <trkpt lat="42.78761" lon="1.74358">
        <ele>890.31811523438</ele>
        <time>2012-05-17T07:21:38Z</time>
      </trkpt>
      <trkpt lat="42.78748" lon="1.74354">
        <ele>894.16357421875</ele>
        <time>2012-05-17T07:21:44Z</time>
      </trkpt>
      <trkpt lat="42.78743" lon="1.74352">
        <ele>894.64404296875</ele>
        <time>2012-05-17T07:21:48Z</time>
      </trkpt>
      <trkpt lat="42.78738" lon="1.7435">
        <ele>895.12475585938</ele>
        <time>2012-05-17T07:21:52Z</time>
      </trkpt>
      <trkpt lat="42.78735" lon="1.74348">
        <ele>895.12475585938</ele>
        <time>2012-05-17T07:21:55Z</time>
      </trkpt>
      <trkpt lat="42.7873" lon="1.74345">
        <ele>895.12475585938</ele>
        <time>2012-05-17T07:21:59Z</time>
      </trkpt>
      <trkpt lat="42.78724" lon="1.7434">
        <ele>894.16357421875</ele>
        <time>2012-05-17T07:22:05Z</time>
      </trkpt>
      <trkpt lat="42.78717" lon="1.74338">
        <ele>896.56689453125</ele>
        <time>2012-05-17T07:22:11Z</time>
      </trkpt>
      <trkpt lat="42.78703" lon="1.74337">
        <ele>896.08618164062</ele>
        <time>2012-05-17T07:22:17Z</time>
      </trkpt>
      <trkpt lat="42.78695" lon="1.74335">
        <ele>895.60546875</ele>
        <time>2012-05-17T07:22:21Z</time>
      </trkpt>
      <trkpt lat="42.78687" lon="1.74336">
        <ele>896.08618164062</ele>
        <time>2012-05-17T07:22:27Z</time>
      </trkpt>
      <trkpt lat="42.78686" lon="1.74336">
        <ele>896.56689453125</ele>
        <time>2012-05-17T07:22:28Z</time>
      </trkpt>
      <trkpt lat="42.78678" lon="1.74339">
        <ele>900.412109375</ele>
        <time>2012-05-17T07:22:34Z</time>
      </trkpt>
      <trkpt lat="42.78668" lon="1.74347">
        <ele>898.4892578125</ele>
        <time>2012-05-17T07:22:41Z</time>
      </trkpt>
      <trkpt lat="42.78659" lon="1.74358">
        <ele>897.52807617188</ele>
        <time>2012-05-17T07:22:46Z</time>
      </trkpt>
      <trkpt lat="42.78649" lon="1.7437">
        <ele>896.56689453125</ele>
        <time>2012-05-17T07:22:51Z</time>
      </trkpt>
      <trkpt lat="42.78641" lon="1.74384">
        <ele>896.56689453125</ele>
        <time>2012-05-17T07:22:56Z</time>
      </trkpt>
      <trkpt lat="42.7863" lon="1.74401">
        <ele>896.56689453125</ele>
        <time>2012-05-17T07:23:02Z</time>
      </trkpt>
      <trkpt lat="42.78621" lon="1.74419">
        <ele>897.04736328125</ele>
        <time>2012-05-17T07:23:08Z</time>
      </trkpt>
      <trkpt lat="42.78616" lon="1.74427">
        <ele>897.04736328125</ele>
        <time>2012-05-17T07:23:13Z</time>
      </trkpt>
      <trkpt lat="42.78612" lon="1.74436">
        <ele>897.04736328125</ele>
        <time>2012-05-17T07:23:19Z</time>
      </trkpt>
      <trkpt lat="42.78607" lon="1.74445">
        <ele>898.0087890625</ele>
        <time>2012-05-17T07:23:26Z</time>
      </trkpt>
      <trkpt lat="42.78602" lon="1.74454">
        <ele>898.96997070312</ele>
        <time>2012-05-17T07:23:34Z</time>
      </trkpt>
      <trkpt lat="42.78602" lon="1.74454">
        <ele>898.96997070312</ele>
        <time>2012-05-17T07:23:40Z</time>
      </trkpt>
      <trkpt lat="42.78601" lon="1.74454">
        <ele>898.4892578125</ele>
        <time>2012-05-17T07:23:47Z</time>
      </trkpt>
      <trkpt lat="42.786" lon="1.74457">
        <ele>897.52807617188</ele>
        <time>2012-05-17T07:23:49Z</time>
      </trkpt>
      <trkpt lat="42.78588" lon="1.74469">
        <ele>897.52807617188</ele>
        <time>2012-05-17T07:23:55Z</time>
      </trkpt>
      <trkpt lat="42.7857" lon="1.74482">
        <ele>896.08618164062</ele>
        <time>2012-05-17T07:24:02Z</time>
      </trkpt>
      <trkpt lat="42.78558" lon="1.74497">
        <ele>896.08618164062</ele>
        <time>2012-05-17T07:24:08Z</time>
      </trkpt>
      <trkpt lat="42.78548" lon="1.7452">
        <ele>895.12475585938</ele>
        <time>2012-05-17T07:24:15Z</time>
      </trkpt>
      <trkpt lat="42.78539" lon="1.74544">
        <ele>894.16357421875</ele>
        <time>2012-05-17T07:24:22Z</time>
      </trkpt>
      <trkpt lat="42.78529" lon="1.74567">
        <ele>893.68286132812</ele>
        <time>2012-05-17T07:24:29Z</time>
      </trkpt>
      <trkpt lat="42.7852" lon="1.74587">
        <ele>893.2021484375</ele>
        <time>2012-05-17T07:24:35Z</time>
      </trkpt>
      <trkpt lat="42.7851" lon="1.74611">
        <ele>893.2021484375</ele>
        <time>2012-05-17T07:24:42Z</time>
      </trkpt>
      <trkpt lat="42.785" lon="1.74638">
        <ele>891.279296875</ele>
        <time>2012-05-17T07:24:50Z</time>
      </trkpt>
      <trkpt lat="42.78492" lon="1.7466">
        <ele>892.7216796875</ele>
        <time>2012-05-17T07:24:57Z</time>
      </trkpt>
      <trkpt lat="42.78491" lon="1.74663">
        <ele>893.2021484375</ele>
        <time>2012-05-17T07:24:58Z</time>
      </trkpt>
      <trkpt lat="42.78498" lon="1.74668">
        <ele>893.68286132812</ele>
        <time>2012-05-17T07:25:05Z</time>
      </trkpt>
      <trkpt lat="42.78502" lon="1.7467">
        <ele>893.68286132812</ele>
        <time>2012-05-17T07:25:08Z</time>
      </trkpt>
      <trkpt lat="42.78514" lon="1.74675">
        <ele>892.7216796875</ele>
        <time>2012-05-17T07:25:17Z</time>
      </trkpt>
      <trkpt lat="42.78521" lon="1.74678">
        <ele>892.7216796875</ele>
        <time>2012-05-17T07:25:23Z</time>
      </trkpt>
      <trkpt lat="42.78526" lon="1.74683">
        <ele>890.31811523438</ele>
        <time>2012-05-17T07:25:28Z</time>
      </trkpt>
      <trkpt lat="42.78537" lon="1.7469">
        <ele>890.79858398438</ele>
        <time>2012-05-17T07:25:38Z</time>
      </trkpt>
      <trkpt lat="42.78547" lon="1.74695">
        <ele>888.3955078125</ele>
        <time>2012-05-17T07:25:46Z</time>
      </trkpt>
      <trkpt lat="42.78552" lon="1.74698">
        <ele>886.47290039062</ele>
        <time>2012-05-17T07:25:53Z</time>
      </trkpt>
      <trkpt lat="42.78559" lon="1.74701">
        <ele>888.3955078125</ele>
        <time>2012-05-17T07:25:59Z</time>
      </trkpt>
      <trkpt lat="42.78569" lon="1.74708">
        <ele>895.60546875</ele>
        <time>2012-05-17T07:26:06Z</time>
      </trkpt>
      <trkpt lat="42.78574" lon="1.74715">
        <ele>897.52807617188</ele>
        <time>2012-05-17T07:26:11Z</time>
      </trkpt>
      <trkpt lat="42.78574" lon="1.74716">
        <ele>898.0087890625</ele>
        <time>2012-05-17T07:26:12Z</time>
      </trkpt>
      <trkpt lat="42.7858" lon="1.7473">
        <ele>899.93139648438</ele>
        <time>2012-05-17T07:26:21Z</time>
      </trkpt>
      <trkpt lat="42.78583" lon="1.74741">
        <ele>902.81518554688</ele>
        <time>2012-05-17T07:26:28Z</time>
      </trkpt>
      <trkpt lat="42.78584" lon="1.74748">
        <ele>904.25732421875</ele>
        <time>2012-05-17T07:26:34Z</time>
      </trkpt>
      <trkpt lat="42.78584" lon="1.74758">
        <ele>905.21850585938</ele>
        <time>2012-05-17T07:26:39Z</time>
      </trkpt>
      <trkpt lat="42.78586" lon="1.74769">
        <ele>905.69921875</ele>
        <time>2012-05-17T07:26:45Z</time>
      </trkpt>
      <trkpt lat="42.78589" lon="1.74779">
        <ele>907.14111328125</ele>
        <time>2012-05-17T07:26:51Z</time>
      </trkpt>
      <trkpt lat="42.78591" lon="1.74788">
        <ele>907.14111328125</ele>
        <time>2012-05-17T07:26:56Z</time>
      </trkpt>
      <trkpt lat="42.78593" lon="1.748">
        <ele>910.02514648438</ele>
        <time>2012-05-17T07:27:03Z</time>
      </trkpt>
      <trkpt lat="42.78595" lon="1.74817">
        <ele>911.46728515625</ele>
        <time>2012-05-17T07:27:12Z</time>
      </trkpt>
      <trkpt lat="42.78592" lon="1.74838">
        <ele>912.42846679688</ele>
        <time>2012-05-17T07:27:22Z</time>
      </trkpt>
      <trkpt lat="42.78589" lon="1.74854">
        <ele>911.94799804688</ele>
        <time>2012-05-17T07:27:30Z</time>
      </trkpt>
      <trkpt lat="42.78584" lon="1.74873">
        <ele>910.98657226562</ele>
        <time>2012-05-17T07:27:36Z</time>
      </trkpt>
      <trkpt lat="42.78574" lon="1.74895">
        <ele>910.02514648438</ele>
        <time>2012-05-17T07:27:43Z</time>
      </trkpt>
      <trkpt lat="42.7857" lon="1.74916">
        <ele>909.06396484375</ele>
        <time>2012-05-17T07:27:49Z</time>
      </trkpt>
      <trkpt lat="42.78563" lon="1.7495">
        <ele>907.62182617188</ele>
        <time>2012-05-17T07:27:58Z</time>
      </trkpt>
      <trkpt lat="42.78559" lon="1.74973">
        <ele>905.69921875</ele>
        <time>2012-05-17T07:28:04Z</time>
      </trkpt>
      <trkpt lat="42.78555" lon="1.74995">
        <ele>904.25732421875</ele>
        <time>2012-05-17T07:28:10Z</time>
      </trkpt>
      <trkpt lat="42.78551" lon="1.75023">
        <ele>903.2958984375</ele>
        <time>2012-05-17T07:28:17Z</time>
      </trkpt>
      <trkpt lat="42.78549" lon="1.75043">
        <ele>903.2958984375</ele>
        <time>2012-05-17T07:28:24Z</time>
      </trkpt>
      <trkpt lat="42.78548" lon="1.75054">
        <ele>904.73779296875</ele>
        <time>2012-05-17T07:28:30Z</time>
      </trkpt>
      <trkpt lat="42.78546" lon="1.75072">
        <ele>905.69921875</ele>
        <time>2012-05-17T07:28:37Z</time>
      </trkpt>
      <trkpt lat="42.78542" lon="1.75096">
        <ele>906.1796875</ele>
        <time>2012-05-17T07:28:44Z</time>
      </trkpt>
      <trkpt lat="42.78536" lon="1.7512">
        <ele>907.14111328125</ele>
        <time>2012-05-17T07:28:51Z</time>
      </trkpt>
      <trkpt lat="42.7853" lon="1.75143">
        <ele>908.10278320312</ele>
        <time>2012-05-17T07:28:58Z</time>
      </trkpt>
      <trkpt lat="42.78525" lon="1.75163">
        <ele>907.14111328125</ele>
        <time>2012-05-17T07:29:04Z</time>
      </trkpt>
      <trkpt lat="42.78518" lon="1.75182">
        <ele>907.14111328125</ele>
        <time>2012-05-17T07:29:10Z</time>
      </trkpt>
      <trkpt lat="42.78507" lon="1.75207">
        <ele>906.66040039062</ele>
        <time>2012-05-17T07:29:18Z</time>
      </trkpt>
      <trkpt lat="42.78504" lon="1.75225">
        <ele>906.66040039062</ele>
        <time>2012-05-17T07:29:24Z</time>
      </trkpt>
      <trkpt lat="42.78503" lon="1.75241">
        <ele>906.66040039062</ele>
        <time>2012-05-17T07:29:33Z</time>
      </trkpt>
      <trkpt lat="42.78503" lon="1.75255">
        <ele>906.1796875</ele>
        <time>2012-05-17T07:29:40Z</time>
      </trkpt>
      <trkpt lat="42.78502" lon="1.75273">
        <ele>906.66040039062</ele>
        <time>2012-05-17T07:29:48Z</time>
      </trkpt>
      <trkpt lat="42.78502" lon="1.75292">
        <ele>907.14111328125</ele>
        <time>2012-05-17T07:29:57Z</time>
      </trkpt>
      <trkpt lat="42.78506" lon="1.75311">
        <ele>908.10278320312</ele>
        <time>2012-05-17T07:30:07Z</time>
      </trkpt>
      <trkpt lat="42.78508" lon="1.75323">
        <ele>908.10278320312</ele>
        <time>2012-05-17T07:30:14Z</time>
      </trkpt>
      <trkpt lat="42.78507" lon="1.75338">
        <ele>906.66040039062</ele>
        <time>2012-05-17T07:30:19Z</time>
      </trkpt>
      <trkpt lat="42.78509" lon="1.7536">
        <ele>903.77661132812</ele>
        <time>2012-05-17T07:30:25Z</time>
      </trkpt>
      <trkpt lat="42.78513" lon="1.75381">
        <ele>901.85400390625</ele>
        <time>2012-05-17T07:30:31Z</time>
      </trkpt>
      <trkpt lat="42.78518" lon="1.75407">
        <ele>899.93139648438</ele>
        <time>2012-05-17T07:30:38Z</time>
      </trkpt>
      <trkpt lat="42.78519" lon="1.75428">
        <ele>898.0087890625</ele>
        <time>2012-05-17T07:30:44Z</time>
      </trkpt>
      <trkpt lat="42.7852" lon="1.7545">
        <ele>897.04736328125</ele>
        <time>2012-05-17T07:30:50Z</time>
      </trkpt>
      <trkpt lat="42.78519" lon="1.75468">
        <ele>897.52807617188</ele>
        <time>2012-05-17T07:30:55Z</time>
      </trkpt>
      <trkpt lat="42.78519" lon="1.75481">
        <ele>898.0087890625</ele>
        <time>2012-05-17T07:31:01Z</time>
      </trkpt>
      <trkpt lat="42.78517" lon="1.75497">
        <ele>897.52807617188</ele>
        <time>2012-05-17T07:31:10Z</time>
      </trkpt>
      <trkpt lat="42.78517" lon="1.75513">
        <ele>897.04736328125</ele>
        <time>2012-05-17T07:31:19Z</time>
      </trkpt>
      <trkpt lat="42.78516" lon="1.75516">
        <ele>897.04736328125</ele>
        <time>2012-05-17T07:31:25Z</time>
      </trkpt>
      <trkpt lat="42.78518" lon="1.75517">
        <ele>896.56689453125</ele>
        <time>2012-05-17T07:31:35Z</time>
      </trkpt>
      <trkpt lat="42.78515" lon="1.75519">
        <ele>898.4892578125</ele>
        <time>2012-05-17T07:31:40Z</time>
      </trkpt>
      <trkpt lat="42.78503" lon="1.75526">
        <ele>899.93139648438</ele>
        <time>2012-05-17T07:31:50Z</time>
      </trkpt>
      <trkpt lat="42.78492" lon="1.75532">
        <ele>899.45068359375</ele>
        <time>2012-05-17T07:31:55Z</time>
      </trkpt>
      <trkpt lat="42.78477" lon="1.75542">
        <ele>901.85400390625</ele>
        <time>2012-05-17T07:32:01Z</time>
      </trkpt>
      <trkpt lat="42.78466" lon="1.75552">
        <ele>901.85400390625</ele>
        <time>2012-05-17T07:32:06Z</time>
      </trkpt>
      <trkpt lat="42.78459" lon="1.75564">
        <ele>900.892578125</ele>
        <time>2012-05-17T07:32:10Z</time>
      </trkpt>
      <trkpt lat="42.7845" lon="1.75579">
        <ele>900.412109375</ele>
        <time>2012-05-17T07:32:16Z</time>
      </trkpt>
      <trkpt lat="42.78448" lon="1.75585">
        <ele>900.412109375</ele>
        <time>2012-05-17T07:32:20Z</time>
      </trkpt>
      <trkpt lat="42.78448" lon="1.75589">
        <ele>901.37329101562</ele>
        <time>2012-05-17T07:32:24Z</time>
      </trkpt>
      <trkpt lat="42.7845" lon="1.75601">
        <ele>904.25732421875</ele>
        <time>2012-05-17T07:32:32Z</time>
      </trkpt>
      <trkpt lat="42.78451" lon="1.75606">
        <ele>905.69921875</ele>
        <time>2012-05-17T07:32:35Z</time>
      </trkpt>
      <trkpt lat="42.78451" lon="1.75617">
        <ele>907.62182617188</ele>
        <time>2012-05-17T07:32:42Z</time>
      </trkpt>
      <trkpt lat="42.7845" lon="1.75631">
        <ele>909.54467773438</ele>
        <time>2012-05-17T07:32:50Z</time>
      </trkpt>
      <trkpt lat="42.7845" lon="1.75632">
        <ele>909.54467773438</ele>
        <time>2012-05-17T07:32:51Z</time>
      </trkpt>
      <trkpt lat="42.7845" lon="1.75642">
        <ele>909.54467773438</ele>
        <time>2012-05-17T07:32:58Z</time>
      </trkpt>
      <trkpt lat="42.7845" lon="1.75644">
        <ele>909.54467773438</ele>
        <time>2012-05-17T07:32:59Z</time>
      </trkpt>
      <trkpt lat="42.7845" lon="1.75656">
        <ele>910.02514648438</ele>
        <time>2012-05-17T07:33:07Z</time>
      </trkpt>
      <trkpt lat="42.7845" lon="1.75665">
        <ele>910.98657226562</ele>
        <time>2012-05-17T07:33:13Z</time>
      </trkpt>
      <trkpt lat="42.78449" lon="1.75676">
        <ele>911.46728515625</ele>
        <time>2012-05-17T07:33:20Z</time>
      </trkpt>
      <trkpt lat="42.7845" lon="1.75689">
        <ele>912.9091796875</ele>
        <time>2012-05-17T07:33:28Z</time>
      </trkpt>
      <trkpt lat="42.7845" lon="1.75691">
        <ele>912.9091796875</ele>
        <time>2012-05-17T07:33:29Z</time>
      </trkpt>
      <trkpt lat="42.78451" lon="1.75696">
        <ele>913.87036132812</ele>
        <time>2012-05-17T07:33:35Z</time>
      </trkpt>
      <trkpt lat="42.78456" lon="1.75701">
        <ele>914.83178710938</ele>
        <time>2012-05-17T07:33:42Z</time>
      </trkpt>
      <trkpt lat="42.78461" lon="1.75706">
        <ele>915.3125</ele>
        <time>2012-05-17T07:33:48Z</time>
      </trkpt>
      <trkpt lat="42.78465" lon="1.7571">
        <ele>915.79321289062</ele>
        <time>2012-05-17T07:33:54Z</time>
      </trkpt>
      <trkpt lat="42.78469" lon="1.75714">
        <ele>917.71557617188</ele>
        <time>2012-05-17T07:34:01Z</time>
      </trkpt>
      <trkpt lat="42.78474" lon="1.75718">
        <ele>918.1962890625</ele>
        <time>2012-05-17T07:34:06Z</time>
      </trkpt>
      <trkpt lat="42.78477" lon="1.75721">
        <ele>919.15771484375</ele>
        <time>2012-05-17T07:34:09Z</time>
      </trkpt>
      <trkpt lat="42.78481" lon="1.75727">
        <ele>920.11889648438</ele>
        <time>2012-05-17T07:34:15Z</time>
      </trkpt>
      <trkpt lat="42.78485" lon="1.75733">
        <ele>921.08032226562</ele>
        <time>2012-05-17T07:34:21Z</time>
      </trkpt>
      <trkpt lat="42.78485" lon="1.75734">
        <ele>921.08032226562</ele>
        <time>2012-05-17T07:34:22Z</time>
      </trkpt>
      <trkpt lat="42.78489" lon="1.75742">
        <ele>922.52221679688</ele>
        <time>2012-05-17T07:34:29Z</time>
      </trkpt>
      <trkpt lat="42.78491" lon="1.75747">
        <ele>922.52221679688</ele>
        <time>2012-05-17T07:34:33Z</time>
      </trkpt>
      <trkpt lat="42.78493" lon="1.75753">
        <ele>923.96411132812</ele>
        <time>2012-05-17T07:34:38Z</time>
      </trkpt>
      <trkpt lat="42.78495" lon="1.75759">
        <ele>925.40625</ele>
        <time>2012-05-17T07:34:44Z</time>
      </trkpt>
      <trkpt lat="42.78497" lon="1.75763">
        <ele>927.3291015625</ele>
        <time>2012-05-17T07:34:50Z</time>
      </trkpt>
      <trkpt lat="42.78499" lon="1.75765">
        <ele>929.25146484375</ele>
        <time>2012-05-17T07:34:56Z</time>
      </trkpt>
      <trkpt lat="42.78503" lon="1.75762">
        <ele>930.212890625</ele>
        <time>2012-05-17T07:35:02Z</time>
      </trkpt>
      <trkpt lat="42.78506" lon="1.7576">
        <ele>932.6162109375</ele>
        <time>2012-05-17T07:35:07Z</time>
      </trkpt>
      <trkpt lat="42.78508" lon="1.75762">
        <ele>933.0966796875</ele>
        <time>2012-05-17T07:35:12Z</time>
      </trkpt>
      <trkpt lat="42.7851" lon="1.75765">
        <ele>934.05810546875</ele>
        <time>2012-05-17T07:35:16Z</time>
      </trkpt>
      <trkpt lat="42.78512" lon="1.75771">
        <ele>935.01953125</ele>
        <time>2012-05-17T07:35:21Z</time>
      </trkpt>
      <trkpt lat="42.78514" lon="1.75775">
        <ele>935.98071289062</ele>
        <time>2012-05-17T07:35:27Z</time>
      </trkpt>
      <trkpt lat="42.78516" lon="1.75778">
        <ele>937.9033203125</ele>
        <time>2012-05-17T07:35:34Z</time>
      </trkpt>
      <trkpt lat="42.7852" lon="1.75778">
        <ele>938.86474609375</ele>
        <time>2012-05-17T07:35:38Z</time>
      </trkpt>
      <trkpt lat="42.78526" lon="1.75778">
        <ele>939.34521484375</ele>
        <time>2012-05-17T07:35:44Z</time>
      </trkpt>
      <trkpt lat="42.7853" lon="1.75775">
        <ele>941.74877929688</ele>
        <time>2012-05-17T07:35:51Z</time>
      </trkpt>
      <trkpt lat="42.78532" lon="1.75774">
        <ele>942.71020507812</ele>
        <time>2012-05-17T07:35:56Z</time>
      </trkpt>
      <trkpt lat="42.78537" lon="1.75771">
        <ele>944.63256835938</ele>
        <time>2012-05-17T07:36:04Z</time>
      </trkpt>
      <trkpt lat="42.7854" lon="1.75768">
        <ele>945.59399414062</ele>
        <time>2012-05-17T07:36:10Z</time>
      </trkpt>
      <trkpt lat="42.78545" lon="1.75763">
        <ele>946.55541992188</ele>
        <time>2012-05-17T07:36:16Z</time>
      </trkpt>
      <trkpt lat="42.78552" lon="1.75757">
        <ele>947.5166015625</ele>
        <time>2012-05-17T07:36:23Z</time>
      </trkpt>
      <trkpt lat="42.78558" lon="1.75749">
        <ele>948.95849609375</ele>
        <time>2012-05-17T07:36:30Z</time>
      </trkpt>
      <trkpt lat="42.78565" lon="1.75743">
        <ele>949.43920898438</ele>
        <time>2012-05-17T07:36:37Z</time>
      </trkpt>
      <trkpt lat="42.78572" lon="1.7574">
        <ele>948.95849609375</ele>
        <time>2012-05-17T07:36:44Z</time>
      </trkpt>
      <trkpt lat="42.78577" lon="1.75734">
        <ele>948.95849609375</ele>
        <time>2012-05-17T07:36:48Z</time>
      </trkpt>
      <trkpt lat="42.78583" lon="1.75728">
        <ele>947.99731445312</ele>
        <time>2012-05-17T07:36:54Z</time>
      </trkpt>
      <trkpt lat="42.7859" lon="1.75722">
        <ele>947.99731445312</ele>
        <time>2012-05-17T07:37:00Z</time>
      </trkpt>
      <trkpt lat="42.78596" lon="1.75716">
        <ele>949.43920898438</ele>
        <time>2012-05-17T07:37:06Z</time>
      </trkpt>
      <trkpt lat="42.78604" lon="1.75714">
        <ele>950.40063476562</ele>
        <time>2012-05-17T07:37:13Z</time>
      </trkpt>
      <trkpt lat="42.78605" lon="1.75714">
        <ele>950.40063476562</ele>
        <time>2012-05-17T07:37:14Z</time>
      </trkpt>
      <trkpt lat="42.78607" lon="1.75718">
        <ele>949.919921875</ele>
        <time>2012-05-17T07:37:20Z</time>
      </trkpt>
      <trkpt lat="42.78609" lon="1.75719">
        <ele>949.43920898438</ele>
        <time>2012-05-17T07:37:22Z</time>
      </trkpt>
      <trkpt lat="42.78614" lon="1.75727">
        <ele>948.47778320312</ele>
        <time>2012-05-17T07:37:28Z</time>
      </trkpt>
      <trkpt lat="42.78617" lon="1.75733">
        <ele>949.43920898438</ele>
        <time>2012-05-17T07:37:33Z</time>
      </trkpt>
      <trkpt lat="42.78622" lon="1.75741">
        <ele>949.919921875</ele>
        <time>2012-05-17T07:37:40Z</time>
      </trkpt>
      <trkpt lat="42.78626" lon="1.75744">
        <ele>951.84252929688</ele>
        <time>2012-05-17T07:37:44Z</time>
      </trkpt>
      <trkpt lat="42.78628" lon="1.75746">
        <ele>951.84252929688</ele>
        <time>2012-05-17T07:37:47Z</time>
      </trkpt>
      <trkpt lat="42.78636" lon="1.75749">
        <ele>954.24584960938</ele>
        <time>2012-05-17T07:37:55Z</time>
      </trkpt>
      <trkpt lat="42.7864" lon="1.75753">
        <ele>953.76513671875</ele>
        <time>2012-05-17T07:38:00Z</time>
      </trkpt>
      <trkpt lat="42.78644" lon="1.75759">
        <ele>954.72631835938</ele>
        <time>2012-05-17T07:38:06Z</time>
      </trkpt>
      <trkpt lat="42.78645" lon="1.75762">
        <ele>955.68774414062</ele>
        <time>2012-05-17T07:38:10Z</time>
      </trkpt>
      <trkpt lat="42.7865" lon="1.75769">
        <ele>956.16845703125</ele>
        <time>2012-05-17T07:38:17Z</time>
      </trkpt>
      <trkpt lat="42.78653" lon="1.75773">
        <ele>957.61059570312</ele>
        <time>2012-05-17T07:38:21Z</time>
      </trkpt>
      <trkpt lat="42.78656" lon="1.75776">
        <ele>959.533203125</ele>
        <time>2012-05-17T07:38:27Z</time>
      </trkpt>
      <trkpt lat="42.78659" lon="1.75785">
        <ele>959.05249023438</ele>
        <time>2012-05-17T07:38:35Z</time>
      </trkpt>
      <trkpt lat="42.78661" lon="1.75789">
        <ele>959.533203125</ele>
        <time>2012-05-17T07:38:40Z</time>
      </trkpt>
      <trkpt lat="42.78662" lon="1.75794">
        <ele>959.533203125</ele>
        <time>2012-05-17T07:38:45Z</time>
      </trkpt>
      <trkpt lat="42.78666" lon="1.75798">
        <ele>959.533203125</ele>
        <time>2012-05-17T07:38:49Z</time>
      </trkpt>
      <trkpt lat="42.78669" lon="1.75802">
        <ele>961.9365234375</ele>
        <time>2012-05-17T07:38:53Z</time>
      </trkpt>
      <trkpt lat="42.78674" lon="1.75807">
        <ele>962.4169921875</ele>
        <time>2012-05-17T07:39:00Z</time>
      </trkpt>
      <trkpt lat="42.78681" lon="1.75808">
        <ele>962.4169921875</ele>
        <time>2012-05-17T07:39:07Z</time>
      </trkpt>
      <trkpt lat="42.78686" lon="1.75806">
        <ele>963.37841796875</ele>
        <time>2012-05-17T07:39:13Z</time>
      </trkpt>
      <trkpt lat="42.78691" lon="1.75809">
        <ele>963.85888671875</ele>
        <time>2012-05-17T07:39:18Z</time>
      </trkpt>
      <trkpt lat="42.78696" lon="1.7581">
        <ele>967.7041015625</ele>
        <time>2012-05-17T07:39:24Z</time>
      </trkpt>
      <trkpt lat="42.78702" lon="1.7581">
        <ele>970.58813476562</ele>
        <time>2012-05-17T07:39:32Z</time>
      </trkpt>
      <trkpt lat="42.78708" lon="1.75809">
        <ele>972.0302734375</ele>
        <time>2012-05-17T07:39:38Z</time>
      </trkpt>
      <trkpt lat="42.78711" lon="1.75808">
        <ele>971.54931640625</ele>
        <time>2012-05-17T07:39:41Z</time>
      </trkpt>
      <trkpt lat="42.78715" lon="1.75805">
        <ele>972.99169921875</ele>
        <time>2012-05-17T07:39:47Z</time>
      </trkpt>
      <trkpt lat="42.7872" lon="1.75803">
        <ele>977.79809570312</ele>
        <time>2012-05-17T07:39:52Z</time>
      </trkpt>
      <trkpt lat="42.78723" lon="1.75797">
        <ele>983.08520507812</ele>
        <time>2012-05-17T07:39:58Z</time>
      </trkpt>
      <trkpt lat="42.78725" lon="1.75794">
        <ele>985.00805664062</ele>
        <time>2012-05-17T07:40:02Z</time>
      </trkpt>
      <trkpt lat="42.78728" lon="1.75788">
        <ele>987.89184570312</ele>
        <time>2012-05-17T07:40:07Z</time>
      </trkpt>
      <trkpt lat="42.78733" lon="1.75785">
        <ele>990.29541015625</ele>
        <time>2012-05-17T07:40:13Z</time>
      </trkpt>
      <trkpt lat="42.78738" lon="1.75786">
        <ele>993.65991210938</ele>
        <time>2012-05-17T07:40:19Z</time>
      </trkpt>
      <trkpt lat="42.78743" lon="1.75787">
        <ele>993.65991210938</ele>
        <time>2012-05-17T07:40:25Z</time>
      </trkpt>
      <trkpt lat="42.78747" lon="1.75787">
        <ele>994.140625</ele>
        <time>2012-05-17T07:40:32Z</time>
      </trkpt>
      <trkpt lat="42.78751" lon="1.75789">
        <ele>993.65991210938</ele>
        <time>2012-05-17T07:40:37Z</time>
      </trkpt>
      <trkpt lat="42.78754" lon="1.75791">
        <ele>994.62109375</ele>
        <time>2012-05-17T07:40:42Z</time>
      </trkpt>
      <trkpt lat="42.78758" lon="1.75794">
        <ele>996.06323242188</ele>
        <time>2012-05-17T07:40:48Z</time>
      </trkpt>
      <trkpt lat="42.78763" lon="1.75794">
        <ele>997.50512695312</ele>
        <time>2012-05-17T07:40:55Z</time>
      </trkpt>
      <trkpt lat="42.78765" lon="1.75794">
        <ele>999.90844726562</ele>
        <time>2012-05-17T07:41:00Z</time>
      </trkpt>
      <trkpt lat="42.7877" lon="1.75795">
        <ele>1003.2729492188</ele>
        <time>2012-05-17T07:41:06Z</time>
      </trkpt>
      <trkpt lat="42.78774" lon="1.75794">
        <ele>1006.6376953125</ele>
        <time>2012-05-17T07:41:12Z</time>
      </trkpt>
      <trkpt lat="42.78778" lon="1.75792">
        <ele>1010.4829101562</ele>
        <time>2012-05-17T07:41:18Z</time>
      </trkpt>
      <trkpt lat="42.78781" lon="1.75792">
        <ele>1012.8862304688</ele>
        <time>2012-05-17T07:41:23Z</time>
      </trkpt>
      <trkpt lat="42.78785" lon="1.75791">
        <ele>1013.3669433594</ele>
        <time>2012-05-17T07:41:28Z</time>
      </trkpt>
      <trkpt lat="42.78788" lon="1.7579">
        <ele>1013.8474121094</ele>
        <time>2012-05-17T07:41:33Z</time>
      </trkpt>
      <trkpt lat="42.78792" lon="1.75788">
        <ele>1016.2507324219</ele>
        <time>2012-05-17T07:41:39Z</time>
      </trkpt>
      <trkpt lat="42.78798" lon="1.75782">
        <ele>1017.2121582031</ele>
        <time>2012-05-17T07:41:47Z</time>
      </trkpt>
      <trkpt lat="42.78804" lon="1.75772">
        <ele>1018.1733398438</ele>
        <time>2012-05-17T07:41:55Z</time>
      </trkpt>
      <trkpt lat="42.78804" lon="1.75771">
        <ele>1018.6540527344</ele>
        <time>2012-05-17T07:41:56Z</time>
      </trkpt>
      <trkpt lat="42.78809" lon="1.75765">
        <ele>1019.6154785156</ele>
        <time>2012-05-17T07:42:03Z</time>
      </trkpt>
      <trkpt lat="42.78814" lon="1.75759">
        <ele>1020.5769042969</ele>
        <time>2012-05-17T07:42:09Z</time>
      </trkpt>
      <trkpt lat="42.78815" lon="1.75757">
        <ele>1020.5769042969</ele>
        <time>2012-05-17T07:42:10Z</time>
      </trkpt>
      <trkpt lat="42.7882" lon="1.75752">
        <ele>1021.5380859375</ele>
        <time>2012-05-17T07:42:16Z</time>
      </trkpt>
      <trkpt lat="42.78825" lon="1.7575">
        <ele>1021.0576171875</ele>
        <time>2012-05-17T07:42:21Z</time>
      </trkpt>
      <trkpt lat="42.78831" lon="1.75745">
        <ele>1021.5380859375</ele>
        <time>2012-05-17T07:42:28Z</time>
      </trkpt>
      <trkpt lat="42.78836" lon="1.75741">
        <ele>1022.9802246094</ele>
        <time>2012-05-17T07:42:33Z</time>
      </trkpt>
      <trkpt lat="42.78841" lon="1.75737">
        <ele>1024.9028320312</ele>
        <time>2012-05-17T07:42:39Z</time>
      </trkpt>
      <trkpt lat="42.78844" lon="1.75732">
        <ele>1026.3447265625</ele>
        <time>2012-05-17T07:42:44Z</time>
      </trkpt>
      <trkpt lat="42.7885" lon="1.75729">
        <ele>1027.7866210938</ele>
        <time>2012-05-17T07:42:50Z</time>
      </trkpt>
      <trkpt lat="42.78856" lon="1.75729">
        <ele>1029.228515625</ele>
        <time>2012-05-17T07:42:56Z</time>
      </trkpt>
      <trkpt lat="42.78861" lon="1.75733">
        <ele>1029.7092285156</ele>
        <time>2012-05-17T07:43:02Z</time>
      </trkpt>
      <trkpt lat="42.78864" lon="1.75736">
        <ele>1030.6706542969</ele>
        <time>2012-05-17T07:43:07Z</time>
      </trkpt>
      <trkpt lat="42.78868" lon="1.7574">
        <ele>1032.1125488281</ele>
        <time>2012-05-17T07:43:13Z</time>
      </trkpt>
      <trkpt lat="42.78872" lon="1.75742">
        <ele>1033.0737304688</ele>
        <time>2012-05-17T07:43:18Z</time>
      </trkpt>
      <trkpt lat="42.78876" lon="1.75745">
        <ele>1034.5158691406</ele>
        <time>2012-05-17T07:43:24Z</time>
      </trkpt>
      <trkpt lat="42.7888" lon="1.75746">
        <ele>1035.9577636719</ele>
        <time>2012-05-17T07:43:29Z</time>
      </trkpt>
      <trkpt lat="42.78886" lon="1.75749">
        <ele>1037.8806152344</ele>
        <time>2012-05-17T07:43:37Z</time>
      </trkpt>
      <trkpt lat="42.78891" lon="1.75751">
        <ele>1038.361328125</ele>
        <time>2012-05-17T07:43:43Z</time>
      </trkpt>
      <trkpt lat="42.78896" lon="1.75753">
        <ele>1038.8420410156</ele>
        <time>2012-05-17T07:43:49Z</time>
      </trkpt>
      <trkpt lat="42.78899" lon="1.75755">
        <ele>1040.2839355469</ele>
        <time>2012-05-17T07:43:55Z</time>
      </trkpt>
      <trkpt lat="42.78904" lon="1.75758">
        <ele>1043.1677246094</ele>
        <time>2012-05-17T07:44:01Z</time>
      </trkpt>
      <trkpt lat="42.78908" lon="1.7576">
        <ele>1044.6096191406</ele>
        <time>2012-05-17T07:44:06Z</time>
      </trkpt>
      <trkpt lat="42.78912" lon="1.75761">
        <ele>1046.0517578125</ele>
        <time>2012-05-17T07:44:10Z</time>
      </trkpt>
      <trkpt lat="42.78919" lon="1.75762">
        <ele>1048.4548339844</ele>
        <time>2012-05-17T07:44:18Z</time>
      </trkpt>
      <trkpt lat="42.78924" lon="1.75762">
        <ele>1049.4162597656</ele>
        <time>2012-05-17T07:44:23Z</time>
      </trkpt>
      <trkpt lat="42.78929" lon="1.7576">
        <ele>1051.3388671875</ele>
        <time>2012-05-17T07:44:29Z</time>
      </trkpt>
      <trkpt lat="42.78934" lon="1.75758">
        <ele>1052.3002929688</ele>
        <time>2012-05-17T07:44:35Z</time>
      </trkpt>
      <trkpt lat="42.78938" lon="1.75757">
        <ele>1053.26171875</ele>
        <time>2012-05-17T07:44:42Z</time>
      </trkpt>
      <trkpt lat="42.78942" lon="1.75758">
        <ele>1055.1843261719</ele>
        <time>2012-05-17T07:44:47Z</time>
      </trkpt>
      <trkpt lat="42.78945" lon="1.7576">
        <ele>1056.6262207031</ele>
        <time>2012-05-17T07:44:52Z</time>
      </trkpt>
      <trkpt lat="42.78949" lon="1.75764">
        <ele>1058.068359375</ele>
        <time>2012-05-17T07:44:59Z</time>
      </trkpt>
      <trkpt lat="42.78953" lon="1.75767">
        <ele>1059.0295410156</ele>
        <time>2012-05-17T07:45:04Z</time>
      </trkpt>
      <trkpt lat="42.78954" lon="1.7577">
        <ele>1057.5876464844</ele>
        <time>2012-05-17T07:45:07Z</time>
      </trkpt>
      <trkpt lat="42.78956" lon="1.75773">
        <ele>1058.068359375</ele>
        <time>2012-05-17T07:45:11Z</time>
      </trkpt>
      <trkpt lat="42.78959" lon="1.75775">
        <ele>1058.548828125</ele>
        <time>2012-05-17T07:45:16Z</time>
      </trkpt>
      <trkpt lat="42.78962" lon="1.75777">
        <ele>1059.0295410156</ele>
        <time>2012-05-17T07:45:20Z</time>
      </trkpt>
      <trkpt lat="42.78966" lon="1.75779">
        <ele>1060.9521484375</ele>
        <time>2012-05-17T07:45:26Z</time>
      </trkpt>
      <trkpt lat="42.7897" lon="1.7578">
        <ele>1063.35546875</ele>
        <time>2012-05-17T07:45:31Z</time>
      </trkpt>
      <trkpt lat="42.78974" lon="1.7578">
        <ele>1063.8359375</ele>
        <time>2012-05-17T07:45:36Z</time>
      </trkpt>
      <trkpt lat="42.78979" lon="1.75782">
        <ele>1064.3166503906</ele>
        <time>2012-05-17T07:45:43Z</time>
      </trkpt>
      <trkpt lat="42.78979" lon="1.75788">
        <ele>1065.2780761719</ele>
        <time>2012-05-17T07:45:49Z</time>
      </trkpt>
      <trkpt lat="42.78979" lon="1.75792">
        <ele>1067.6811523438</ele>
        <time>2012-05-17T07:45:54Z</time>
      </trkpt>
      <trkpt lat="42.78976" lon="1.75795">
        <ele>1070.0847167969</ele>
        <time>2012-05-17T07:46:00Z</time>
      </trkpt>
      <trkpt lat="42.78973" lon="1.75798">
        <ele>1072.4880371094</ele>
        <time>2012-05-17T07:46:05Z</time>
      </trkpt>
      <trkpt lat="42.78968" lon="1.75801">
        <ele>1072.96875</ele>
        <time>2012-05-17T07:46:11Z</time>
      </trkpt>
      <trkpt lat="42.78963" lon="1.75802">
        <ele>1073.9299316406</ele>
        <time>2012-05-17T07:46:18Z</time>
      </trkpt>
      <trkpt lat="42.78957" lon="1.75805">
        <ele>1074.8913574219</ele>
        <time>2012-05-17T07:46:24Z</time>
      </trkpt>
      <trkpt lat="42.78955" lon="1.7581">
        <ele>1076.3332519531</ele>
        <time>2012-05-17T07:46:31Z</time>
      </trkpt>
      <trkpt lat="42.78954" lon="1.75817">
        <ele>1077.2946777344</ele>
        <time>2012-05-17T07:46:37Z</time>
      </trkpt>
      <trkpt lat="42.78953" lon="1.75822">
        <ele>1078.7365722656</ele>
        <time>2012-05-17T07:46:42Z</time>
      </trkpt>
      <trkpt lat="42.78951" lon="1.75826">
        <ele>1080.1784667969</ele>
        <time>2012-05-17T07:46:47Z</time>
      </trkpt>
      <trkpt lat="42.78949" lon="1.75832">
        <ele>1081.6203613281</ele>
        <time>2012-05-17T07:46:52Z</time>
      </trkpt>
      <trkpt lat="42.78947" lon="1.75837">
        <ele>1082.1010742188</ele>
        <time>2012-05-17T07:46:57Z</time>
      </trkpt>
      <trkpt lat="42.78946" lon="1.75844">
        <ele>1083.54296875</ele>
        <time>2012-05-17T07:47:02Z</time>
      </trkpt>
      <trkpt lat="42.78947" lon="1.75851">
        <ele>1084.9853515625</ele>
        <time>2012-05-17T07:47:08Z</time>
      </trkpt>
      <trkpt lat="42.78947" lon="1.75859">
        <ele>1085.9465332031</ele>
        <time>2012-05-17T07:47:14Z</time>
      </trkpt>
      <trkpt lat="42.78947" lon="1.75865">
        <ele>1087.3884277344</ele>
        <time>2012-05-17T07:47:19Z</time>
      </trkpt>
      <trkpt lat="42.78945" lon="1.75875">
        <ele>1088.8305664062</ele>
        <time>2012-05-17T07:47:27Z</time>
      </trkpt>
      <trkpt lat="42.78944" lon="1.75882">
        <ele>1090.7529296875</ele>
        <time>2012-05-17T07:47:34Z</time>
      </trkpt>
      <trkpt lat="42.78941" lon="1.7589">
        <ele>1092.1950683594</ele>
        <time>2012-05-17T07:47:41Z</time>
      </trkpt>
      <trkpt lat="42.78941" lon="1.75898">
        <ele>1094.1176757812</ele>
        <time>2012-05-17T07:47:48Z</time>
      </trkpt>
      <trkpt lat="42.78941" lon="1.75907">
        <ele>1095.0788574219</ele>
        <time>2012-05-17T07:47:55Z</time>
      </trkpt>
      <trkpt lat="42.78942" lon="1.75914">
        <ele>1096.5209960938</ele>
        <time>2012-05-17T07:48:01Z</time>
      </trkpt>
      <trkpt lat="42.78942" lon="1.75921">
        <ele>1097.4821777344</ele>
        <time>2012-05-17T07:48:06Z</time>
      </trkpt>
      <trkpt lat="42.78941" lon="1.75929">
        <ele>1099.4047851562</ele>
        <time>2012-05-17T07:48:13Z</time>
      </trkpt>
      <trkpt lat="42.7894" lon="1.75936">
        <ele>1100.8469238281</ele>
        <time>2012-05-17T07:48:20Z</time>
      </trkpt>
      <trkpt lat="42.78939" lon="1.75941">
        <ele>1101.8083496094</ele>
        <time>2012-05-17T07:48:25Z</time>
      </trkpt>
      <trkpt lat="42.78938" lon="1.75947">
        <ele>1102.76953125</ele>
        <time>2012-05-17T07:48:30Z</time>
      </trkpt>
      <trkpt lat="42.78937" lon="1.75953">
        <ele>1104.2116699219</ele>
        <time>2012-05-17T07:48:36Z</time>
      </trkpt>
      <trkpt lat="42.78936" lon="1.75958">
        <ele>1105.6535644531</ele>
        <time>2012-05-17T07:48:41Z</time>
      </trkpt>
      <trkpt lat="42.78934" lon="1.75964">
        <ele>1106.6147460938</ele>
        <time>2012-05-17T07:48:45Z</time>
      </trkpt>
      <trkpt lat="42.78932" lon="1.75969">
        <ele>1108.5373535156</ele>
        <time>2012-05-17T07:48:51Z</time>
      </trkpt>
      <trkpt lat="42.7893" lon="1.75976">
        <ele>1109.4987792969</ele>
        <time>2012-05-17T07:48:57Z</time>
      </trkpt>
      <trkpt lat="42.78927" lon="1.75983">
        <ele>1110.9406738281</ele>
        <time>2012-05-17T07:49:03Z</time>
      </trkpt>
      <trkpt lat="42.78926" lon="1.75989">
        <ele>1112.3825683594</ele>
        <time>2012-05-17T07:49:09Z</time>
      </trkpt>
      <trkpt lat="42.78925" lon="1.75997">
        <ele>1114.3051757812</ele>
        <time>2012-05-17T07:49:16Z</time>
      </trkpt>
      <trkpt lat="42.78925" lon="1.76002">
        <ele>1115.7473144531</ele>
        <time>2012-05-17T07:49:21Z</time>
      </trkpt>
      <trkpt lat="42.78926" lon="1.76009">
        <ele>1117.669921875</ele>
        <time>2012-05-17T07:49:28Z</time>
      </trkpt>
      <trkpt lat="42.7893" lon="1.76011">
        <ele>1119.1120605469</ele>
        <time>2012-05-17T07:49:35Z</time>
      </trkpt>
      <trkpt lat="42.78934" lon="1.76009">
        <ele>1121.5151367188</ele>
        <time>2012-05-17T07:49:41Z</time>
      </trkpt>
      <trkpt lat="42.78939" lon="1.76007">
        <ele>1123.4379882812</ele>
        <time>2012-05-17T07:49:48Z</time>
      </trkpt>
      <trkpt lat="42.78944" lon="1.76005">
        <ele>1124.3991699219</ele>
        <time>2012-05-17T07:49:54Z</time>
      </trkpt>
      <trkpt lat="42.78945" lon="1.76004">
        <ele>1124.8798828125</ele>
        <time>2012-05-17T07:50:00Z</time>
      </trkpt>
      <trkpt lat="42.78948" lon="1.76002">
        <ele>1126.3217773438</ele>
        <time>2012-05-17T07:50:10Z</time>
      </trkpt>
      <trkpt lat="42.78954" lon="1.75998">
        <ele>1128.7250976562</ele>
        <time>2012-05-17T07:50:18Z</time>
      </trkpt>
      <trkpt lat="42.78959" lon="1.75994">
        <ele>1129.6862792969</ele>
        <time>2012-05-17T07:50:24Z</time>
      </trkpt>
      <trkpt lat="42.78963" lon="1.75991">
        <ele>1131.1284179688</ele>
        <time>2012-05-17T07:50:30Z</time>
      </trkpt>
      <trkpt lat="42.78969" lon="1.75988">
        <ele>1132.08984375</ele>
        <time>2012-05-17T07:50:37Z</time>
      </trkpt>
      <trkpt lat="42.78973" lon="1.75986">
        <ele>1133.5317382812</ele>
        <time>2012-05-17T07:50:42Z</time>
      </trkpt>
      <trkpt lat="42.78981" lon="1.75987">
        <ele>1134.9738769531</ele>
        <time>2012-05-17T07:50:50Z</time>
      </trkpt>
      <trkpt lat="42.78986" lon="1.75985">
        <ele>1136.4157714844</ele>
        <time>2012-05-17T07:50:56Z</time>
      </trkpt>
      <trkpt lat="42.78991" lon="1.75984">
        <ele>1137.8576660156</ele>
        <time>2012-05-17T07:51:02Z</time>
      </trkpt>
      <trkpt lat="42.78996" lon="1.75983">
        <ele>1139.2995605469</ele>
        <time>2012-05-17T07:51:09Z</time>
      </trkpt>
      <trkpt lat="42.79" lon="1.75983">
        <ele>1140.2609863281</ele>
        <time>2012-05-17T07:51:13Z</time>
      </trkpt>
      <trkpt lat="42.79006" lon="1.75981">
        <ele>1141.7028808594</ele>
        <time>2012-05-17T07:51:20Z</time>
      </trkpt>
      <trkpt lat="42.79011" lon="1.7598">
        <ele>1142.6643066406</ele>
        <time>2012-05-17T07:51:26Z</time>
      </trkpt>
      <trkpt lat="42.79015" lon="1.7598">
        <ele>1144.1062011719</ele>
        <time>2012-05-17T07:51:31Z</time>
      </trkpt>
      <trkpt lat="42.7902" lon="1.75979">
        <ele>1145.0673828125</ele>
        <time>2012-05-17T07:51:38Z</time>
      </trkpt>
      <trkpt lat="42.79026" lon="1.75977">
        <ele>1146.5095214844</ele>
        <time>2012-05-17T07:51:46Z</time>
      </trkpt>
      <trkpt lat="42.79032" lon="1.75975">
        <ele>1148.4321289062</ele>
        <time>2012-05-17T07:51:53Z</time>
      </trkpt>
      <trkpt lat="42.79036" lon="1.75974">
        <ele>1149.8742675781</ele>
        <time>2012-05-17T07:51:59Z</time>
      </trkpt>
      <trkpt lat="42.79039" lon="1.75973">
        <ele>1150.8354492188</ele>
        <time>2012-05-17T07:52:03Z</time>
      </trkpt>
      <trkpt lat="42.79042" lon="1.75972">
        <ele>1151.796875</ele>
        <time>2012-05-17T07:52:08Z</time>
      </trkpt>
      <trkpt lat="42.79047" lon="1.7597">
        <ele>1152.7580566406</ele>
        <time>2012-05-17T07:52:14Z</time>
      </trkpt>
      <trkpt lat="42.79051" lon="1.75969">
        <ele>1155.6420898438</ele>
        <time>2012-05-17T07:52:21Z</time>
      </trkpt>
      <trkpt lat="42.79057" lon="1.75967">
        <ele>1158.0454101562</ele>
        <time>2012-05-17T07:52:28Z</time>
      </trkpt>
      <trkpt lat="42.79062" lon="1.75965">
        <ele>1159.9677734375</ele>
        <time>2012-05-17T07:52:34Z</time>
      </trkpt>
      <trkpt lat="42.79067" lon="1.75962">
        <ele>1162.8518066406</ele>
        <time>2012-05-17T07:52:42Z</time>
      </trkpt>
      <trkpt lat="42.79072" lon="1.75961">
        <ele>1164.7746582031</ele>
        <time>2012-05-17T07:52:49Z</time>
      </trkpt>
      <trkpt lat="42.79076" lon="1.75961">
        <ele>1165.7360839844</ele>
        <time>2012-05-17T07:52:54Z</time>
      </trkpt>
      <trkpt lat="42.7908" lon="1.75959">
        <ele>1167.1779785156</ele>
        <time>2012-05-17T07:53:00Z</time>
      </trkpt>
      <trkpt lat="42.79086" lon="1.75957">
        <ele>1169.1005859375</ele>
        <time>2012-05-17T07:53:07Z</time>
      </trkpt>
      <trkpt lat="42.79089" lon="1.75955">
        <ele>1170.5424804688</ele>
        <time>2012-05-17T07:53:12Z</time>
      </trkpt>
      <trkpt lat="42.79094" lon="1.75951">
        <ele>1171.984375</ele>
        <time>2012-05-17T07:53:19Z</time>
      </trkpt>
      <trkpt lat="42.79096" lon="1.75951">
        <ele>1171.0231933594</ele>
        <time>2012-05-17T07:53:24Z</time>
      </trkpt>
      <trkpt lat="42.79097" lon="1.75953">
        <ele>1168.6198730469</ele>
        <time>2012-05-17T07:53:40Z</time>
      </trkpt>
      <trkpt lat="42.79097" lon="1.75953">
        <ele>1168.1391601562</ele>
        <time>2012-05-17T07:53:48Z</time>
      </trkpt>
      <trkpt lat="42.79097" lon="1.75952">
        <ele>1168.6198730469</ele>
        <time>2012-05-17T07:53:58Z</time>
      </trkpt>
      <trkpt lat="42.79099" lon="1.75954">
        <ele>1166.697265625</ele>
        <time>2012-05-17T07:54:10Z</time>
      </trkpt>
      <trkpt lat="42.79099" lon="1.75955">
        <ele>1166.2165527344</ele>
        <time>2012-05-17T07:54:17Z</time>
      </trkpt>
      <trkpt lat="42.79099" lon="1.75954">
        <ele>1166.2165527344</ele>
        <time>2012-05-17T07:54:26Z</time>
      </trkpt>
      <trkpt lat="42.791" lon="1.75954">
        <ele>1166.2165527344</ele>
        <time>2012-05-17T07:54:36Z</time>
      </trkpt>
      <trkpt lat="42.791" lon="1.75954">
        <ele>1166.2165527344</ele>
        <time>2012-05-17T07:54:51Z</time>
      </trkpt>
      <trkpt lat="42.791" lon="1.75953">
        <ele>1166.697265625</ele>
        <time>2012-05-17T07:54:57Z</time>
      </trkpt>
      <trkpt lat="42.791" lon="1.75953">
        <ele>1166.697265625</ele>
        <time>2012-05-17T07:55:03Z</time>
      </trkpt>
      <trkpt lat="42.791" lon="1.75952">
        <ele>1166.2165527344</ele>
        <time>2012-05-17T07:55:10Z</time>
      </trkpt>
      <trkpt lat="42.791" lon="1.75951">
        <ele>1166.2165527344</ele>
        <time>2012-05-17T07:55:19Z</time>
      </trkpt>
      <trkpt lat="42.791" lon="1.75952">
        <ele>1164.7746582031</ele>
        <time>2012-05-17T07:55:28Z</time>
      </trkpt>
      <trkpt lat="42.791" lon="1.75952">
        <ele>1165.7360839844</ele>
        <time>2012-05-17T07:55:39Z</time>
      </trkpt>
      <trkpt lat="42.791" lon="1.75952">
        <ele>1165.2553710938</ele>
        <time>2012-05-17T07:55:47Z</time>
      </trkpt>
      <trkpt lat="42.79103" lon="1.7595">
        <ele>1165.2553710938</ele>
        <time>2012-05-17T07:55:53Z</time>
      </trkpt>
      <trkpt lat="42.79108" lon="1.75948">
        <ele>1166.2165527344</ele>
        <time>2012-05-17T07:56:00Z</time>
      </trkpt>
      <trkpt lat="42.79115" lon="1.75946">
        <ele>1167.6584472656</ele>
        <time>2012-05-17T07:56:08Z</time>
      </trkpt>
      <trkpt lat="42.79116" lon="1.75945">
        <ele>1168.6198730469</ele>
        <time>2012-05-17T07:56:15Z</time>
      </trkpt>
      <trkpt lat="42.7912" lon="1.75943">
        <ele>1169.5812988281</ele>
        <time>2012-05-17T07:56:22Z</time>
      </trkpt>
      <trkpt lat="42.79127" lon="1.75939">
        <ele>1170.5424804688</ele>
        <time>2012-05-17T07:56:29Z</time>
      </trkpt>
      <trkpt lat="42.79134" lon="1.75937">
        <ele>1171.5036621094</ele>
        <time>2012-05-17T07:56:35Z</time>
      </trkpt>
      <trkpt lat="42.79142" lon="1.75932">
        <ele>1172.9458007812</ele>
        <time>2012-05-17T07:56:43Z</time>
      </trkpt>
      <trkpt lat="42.79147" lon="1.75927">
        <ele>1174.3876953125</ele>
        <time>2012-05-17T07:56:49Z</time>
      </trkpt>
      <trkpt lat="42.79155" lon="1.75924">
        <ele>1175.8295898438</ele>
        <time>2012-05-17T07:56:57Z</time>
      </trkpt>
      <trkpt lat="42.7916" lon="1.75921">
        <ele>1177.2717285156</ele>
        <time>2012-05-17T07:57:03Z</time>
      </trkpt>
      <trkpt lat="42.79165" lon="1.75916">
        <ele>1179.1940917969</ele>
        <time>2012-05-17T07:57:09Z</time>
      </trkpt>
      <trkpt lat="42.79169" lon="1.75913">
        <ele>1180.1557617188</ele>
        <time>2012-05-17T07:57:14Z</time>
      </trkpt>
      <trkpt lat="42.79176" lon="1.7591">
        <ele>1181.59765625</ele>
        <time>2012-05-17T07:57:21Z</time>
      </trkpt>
      <trkpt lat="42.79182" lon="1.75906">
        <ele>1183.0395507812</ele>
        <time>2012-05-17T07:57:27Z</time>
      </trkpt>
      <trkpt lat="42.79187" lon="1.75903">
        <ele>1184.0009765625</ele>
        <time>2012-05-17T07:57:33Z</time>
      </trkpt>
      <trkpt lat="42.79192" lon="1.75903">
        <ele>1185.4428710938</ele>
        <time>2012-05-17T07:57:39Z</time>
      </trkpt>
      <trkpt lat="42.79197" lon="1.75902">
        <ele>1186.884765625</ele>
        <time>2012-05-17T07:57:45Z</time>
      </trkpt>
      <trkpt lat="42.79202" lon="1.75902">
        <ele>1187.8461914062</ele>
        <time>2012-05-17T07:57:51Z</time>
      </trkpt>
      <trkpt lat="42.79206" lon="1.75903">
        <ele>1188.8076171875</ele>
        <time>2012-05-17T07:57:58Z</time>
      </trkpt>
      <trkpt lat="42.79209" lon="1.75904">
        <ele>1189.2880859375</ele>
        <time>2012-05-17T07:58:05Z</time>
      </trkpt>
      <trkpt lat="42.79211" lon="1.75903">
        <ele>1189.2880859375</ele>
        <time>2012-05-17T07:58:13Z</time>
      </trkpt>
      <trkpt lat="42.79215" lon="1.75902">
        <ele>1190.2495117188</ele>
        <time>2012-05-17T07:58:20Z</time>
      </trkpt>
      <trkpt lat="42.79223" lon="1.75901">
        <ele>1191.2106933594</ele>
        <time>2012-05-17T07:58:28Z</time>
      </trkpt>
      <trkpt lat="42.79229" lon="1.759">
        <ele>1192.6528320312</ele>
        <time>2012-05-17T07:58:35Z</time>
      </trkpt>
      <trkpt lat="42.79233" lon="1.75899">
        <ele>1194.5751953125</ele>
        <time>2012-05-17T07:58:41Z</time>
      </trkpt>
      <trkpt lat="42.7924" lon="1.75898">
        <ele>1195.5366210938</ele>
        <time>2012-05-17T07:58:48Z</time>
      </trkpt>
      <trkpt lat="42.79242" lon="1.75899">
        <ele>1196.4982910156</ele>
        <time>2012-05-17T07:58:55Z</time>
      </trkpt>
      <trkpt lat="42.79243" lon="1.759">
        <ele>1196.9787597656</ele>
        <time>2012-05-17T07:59:04Z</time>
      </trkpt>
      <trkpt lat="42.79242" lon="1.759">
        <ele>1197.4594726562</ele>
        <time>2012-05-17T07:59:11Z</time>
      </trkpt>
      <trkpt lat="42.79247" lon="1.759">
        <ele>1197.9401855469</ele>
        <time>2012-05-17T07:59:17Z</time>
      </trkpt>
      <trkpt lat="42.79251" lon="1.75901">
        <ele>1199.8627929688</ele>
        <time>2012-05-17T07:59:23Z</time>
      </trkpt>
      <trkpt lat="42.79256" lon="1.75903">
        <ele>1201.7854003906</ele>
        <time>2012-05-17T07:59:29Z</time>
      </trkpt>
      <trkpt lat="42.79259" lon="1.75909">
        <ele>1202.7465820312</ele>
        <time>2012-05-17T07:59:35Z</time>
      </trkpt>
      <trkpt lat="42.79262" lon="1.75914">
        <ele>1203.7080078125</ele>
        <time>2012-05-17T07:59:41Z</time>
      </trkpt>
      <trkpt lat="42.79266" lon="1.75922">
        <ele>1205.6306152344</ele>
        <time>2012-05-17T07:59:49Z</time>
      </trkpt>
      <trkpt lat="42.79267" lon="1.75926">
        <ele>1207.0725097656</ele>
        <time>2012-05-17T07:59:53Z</time>
      </trkpt>
      <trkpt lat="42.7927" lon="1.75929">
        <ele>1207.5532226562</ele>
        <time>2012-05-17T07:59:58Z</time>
      </trkpt>
      <trkpt lat="42.79273" lon="1.75933">
        <ele>1208.5144042969</ele>
        <time>2012-05-17T08:00:03Z</time>
      </trkpt>
      <trkpt lat="42.79277" lon="1.75937">
        <ele>1208.9951171875</ele>
        <time>2012-05-17T08:00:09Z</time>
      </trkpt>
      <trkpt lat="42.79281" lon="1.75938">
        <ele>1209.9562988281</ele>
        <time>2012-05-17T08:00:14Z</time>
      </trkpt>
      <trkpt lat="42.79285" lon="1.75939">
        <ele>1211.8791503906</ele>
        <time>2012-05-17T08:00:20Z</time>
      </trkpt>
      <trkpt lat="42.79292" lon="1.75941">
        <ele>1213.3212890625</ele>
        <time>2012-05-17T08:00:28Z</time>
      </trkpt>
      <trkpt lat="42.79295" lon="1.75941">
        <ele>1214.7631835938</ele>
        <time>2012-05-17T08:00:34Z</time>
      </trkpt>
      <trkpt lat="42.79301" lon="1.75942">
        <ele>1215.724609375</ele>
        <time>2012-05-17T08:00:40Z</time>
      </trkpt>
      <trkpt lat="42.79304" lon="1.75943">
        <ele>1217.1665039062</ele>
        <time>2012-05-17T08:00:45Z</time>
      </trkpt>
      <trkpt lat="42.79308" lon="1.75944">
        <ele>1218.1276855469</ele>
        <time>2012-05-17T08:00:51Z</time>
      </trkpt>
      <trkpt lat="42.79313" lon="1.75944">
        <ele>1220.0502929688</ele>
        <time>2012-05-17T08:00:57Z</time>
      </trkpt>
      <trkpt lat="42.79317" lon="1.75945">
        <ele>1221.4921875</ele>
        <time>2012-05-17T08:01:02Z</time>
      </trkpt>
      <trkpt lat="42.79321" lon="1.75946">
        <ele>1222.9343261719</ele>
        <time>2012-05-17T08:01:08Z</time>
      </trkpt>
      <trkpt lat="42.79326" lon="1.75947">
        <ele>1224.3762207031</ele>
        <time>2012-05-17T08:01:14Z</time>
      </trkpt>
      <trkpt lat="42.79329" lon="1.75948">
        <ele>1225.3374023438</ele>
        <time>2012-05-17T08:01:19Z</time>
      </trkpt>
      <trkpt lat="42.79332" lon="1.75949">
        <ele>1226.298828125</ele>
        <time>2012-05-17T08:01:23Z</time>
      </trkpt>
      <trkpt lat="42.79337" lon="1.75949">
        <ele>1227.7407226562</ele>
        <time>2012-05-17T08:01:29Z</time>
      </trkpt>
      <trkpt lat="42.7934" lon="1.75951">
        <ele>1228.7023925781</ele>
        <time>2012-05-17T08:01:34Z</time>
      </trkpt>
      <trkpt lat="42.79345" lon="1.75952">
        <ele>1230.1442871094</ele>
        <time>2012-05-17T08:01:39Z</time>
      </trkpt>
      <trkpt lat="42.79349" lon="1.75954">
        <ele>1231.1057128906</ele>
        <time>2012-05-17T08:01:44Z</time>
      </trkpt>
      <trkpt lat="42.79353" lon="1.75956">
        <ele>1232.5476074219</ele>
        <time>2012-05-17T08:01:49Z</time>
      </trkpt>
      <trkpt lat="42.79358" lon="1.7596">
        <ele>1232.5476074219</ele>
        <time>2012-05-17T08:01:56Z</time>
      </trkpt>
      <trkpt lat="42.79363" lon="1.75961">
        <ele>1232.5476074219</ele>
        <time>2012-05-17T08:02:02Z</time>
      </trkpt>
      <trkpt lat="42.79369" lon="1.75963">
        <ele>1233.0280761719</ele>
        <time>2012-05-17T08:02:10Z</time>
      </trkpt>
      <trkpt lat="42.79375" lon="1.75968">
        <ele>1233.9895019531</ele>
        <time>2012-05-17T08:02:17Z</time>
      </trkpt>
      <trkpt lat="42.79378" lon="1.75971">
        <ele>1234.4702148438</ele>
        <time>2012-05-17T08:02:21Z</time>
      </trkpt>
      <trkpt lat="42.79383" lon="1.75975">
        <ele>1233.5087890625</ele>
        <time>2012-05-17T08:02:26Z</time>
      </trkpt>
      <trkpt lat="42.79387" lon="1.75977">
        <ele>1234.9509277344</ele>
        <time>2012-05-17T08:02:31Z</time>
      </trkpt>
      <trkpt lat="42.79392" lon="1.75979">
        <ele>1234.9509277344</ele>
        <time>2012-05-17T08:02:36Z</time>
      </trkpt>
      <trkpt lat="42.79399" lon="1.75979">
        <ele>1237.3540039062</ele>
        <time>2012-05-17T08:02:42Z</time>
      </trkpt>
      <trkpt lat="42.79404" lon="1.7598">
        <ele>1237.8347167969</ele>
        <time>2012-05-17T08:02:49Z</time>
      </trkpt>
      <trkpt lat="42.7941" lon="1.75981">
        <ele>1239.2766113281</ele>
        <time>2012-05-17T08:02:56Z</time>
      </trkpt>
      <trkpt lat="42.79417" lon="1.75986">
        <ele>1235.4313964844</ele>
        <time>2012-05-17T08:03:03Z</time>
      </trkpt>
      <trkpt lat="42.79422" lon="1.75988">
        <ele>1237.3540039062</ele>
        <time>2012-05-17T08:03:09Z</time>
      </trkpt>
      <trkpt lat="42.79426" lon="1.75988">
        <ele>1238.7961425781</ele>
        <time>2012-05-17T08:03:15Z</time>
      </trkpt>
      <trkpt lat="42.7943" lon="1.75989">
        <ele>1239.7573242188</ele>
        <time>2012-05-17T08:03:20Z</time>
      </trkpt>
      <trkpt lat="42.79437" lon="1.75989">
        <ele>1244.5639648438</ele>
        <time>2012-05-17T08:03:26Z</time>
      </trkpt>
      <trkpt lat="42.7944" lon="1.7599">
        <ele>1247.4479980469</ele>
        <time>2012-05-17T08:03:31Z</time>
      </trkpt>
      <trkpt lat="42.79445" lon="1.75993">
        <ele>1248.4091796875</ele>
        <time>2012-05-17T08:03:35Z</time>
      </trkpt>
      <trkpt lat="42.79451" lon="1.75994">
        <ele>1252.2543945312</ele>
        <time>2012-05-17T08:03:41Z</time>
      </trkpt>
      <trkpt lat="42.79452" lon="1.75995">
        <ele>1252.2543945312</ele>
        <time>2012-05-17T08:03:42Z</time>
      </trkpt>
      <trkpt lat="42.79456" lon="1.75994">
        <ele>1252.2543945312</ele>
        <time>2012-05-17T08:03:49Z</time>
      </trkpt>
      <trkpt lat="42.79459" lon="1.75993">
        <ele>1251.2932128906</ele>
        <time>2012-05-17T08:03:56Z</time>
      </trkpt>
      <trkpt lat="42.79461" lon="1.75994">
        <ele>1248.8898925781</ele>
        <time>2012-05-17T08:04:04Z</time>
      </trkpt>
      <trkpt lat="42.79462" lon="1.75994">
        <ele>1252.2543945312</ele>
        <time>2012-05-17T08:04:09Z</time>
      </trkpt>
      <trkpt lat="42.79462" lon="1.75989">
        <ele>1256.5803222656</ele>
        <time>2012-05-17T08:04:16Z</time>
      </trkpt>
      <trkpt lat="42.79464" lon="1.7598">
        <ele>1258.0224609375</ele>
        <time>2012-05-17T08:04:24Z</time>
      </trkpt>
      <trkpt lat="42.79464" lon="1.75972">
        <ele>1260.9064941406</ele>
        <time>2012-05-17T08:04:31Z</time>
      </trkpt>
      <trkpt lat="42.79462" lon="1.75965">
        <ele>1261.3872070312</ele>
        <time>2012-05-17T08:04:37Z</time>
      </trkpt>
      <trkpt lat="42.79463" lon="1.75954">
        <ele>1261.3872070312</ele>
        <time>2012-05-17T08:04:46Z</time>
      </trkpt>
      <trkpt lat="42.79462" lon="1.7595">
        <ele>1258.0224609375</ele>
        <time>2012-05-17T08:04:51Z</time>
      </trkpt>
      <trkpt lat="42.79461" lon="1.75943">
        <ele>1258.0224609375</ele>
        <time>2012-05-17T08:04:57Z</time>
      </trkpt>
      <trkpt lat="42.79457" lon="1.75934">
        <ele>1258.0224609375</ele>
        <time>2012-05-17T08:05:04Z</time>
      </trkpt>
      <trkpt lat="42.79455" lon="1.75927">
        <ele>1258.5029296875</ele>
        <time>2012-05-17T08:05:10Z</time>
      </trkpt>
      <trkpt lat="42.79453" lon="1.75921">
        <ele>1258.9836425781</ele>
        <time>2012-05-17T08:05:16Z</time>
      </trkpt>
      <trkpt lat="42.79451" lon="1.75914">
        <ele>1261.3872070312</ele>
        <time>2012-05-17T08:05:22Z</time>
      </trkpt>
      <trkpt lat="42.79453" lon="1.75907">
        <ele>1262.3483886719</ele>
        <time>2012-05-17T08:05:28Z</time>
      </trkpt>
      <trkpt lat="42.79457" lon="1.75902">
        <ele>1263.3098144531</ele>
        <time>2012-05-17T08:05:33Z</time>
      </trkpt>
      <trkpt lat="42.79462" lon="1.75897">
        <ele>1264.2709960938</ele>
        <time>2012-05-17T08:05:40Z</time>
      </trkpt>
      <trkpt lat="42.79467" lon="1.75894">
        <ele>1265.7131347656</ele>
        <time>2012-05-17T08:05:46Z</time>
      </trkpt>
      <trkpt lat="42.79472" lon="1.75894">
        <ele>1266.6743164062</ele>
        <time>2012-05-17T08:05:52Z</time>
      </trkpt>
      <trkpt lat="42.79476" lon="1.75894">
        <ele>1267.6354980469</ele>
        <time>2012-05-17T08:05:57Z</time>
      </trkpt>
      <trkpt lat="42.7948" lon="1.75896">
        <ele>1269.0776367188</ele>
        <time>2012-05-17T08:06:03Z</time>
      </trkpt>
      <trkpt lat="42.79486" lon="1.759">
        <ele>1270.0388183594</ele>
        <time>2012-05-17T08:06:10Z</time>
      </trkpt>
      <trkpt lat="42.79489" lon="1.75902">
        <ele>1271.0002441406</ele>
        <time>2012-05-17T08:06:15Z</time>
      </trkpt>
      <trkpt lat="42.79493" lon="1.75902">
        <ele>1272.4421386719</ele>
        <time>2012-05-17T08:06:20Z</time>
      </trkpt>
      <trkpt lat="42.795" lon="1.759">
        <ele>1274.8454589844</ele>
        <time>2012-05-17T08:06:29Z</time>
      </trkpt>
      <trkpt lat="42.79504" lon="1.75899">
        <ele>1276.2875976562</ele>
        <time>2012-05-17T08:06:34Z</time>
      </trkpt>
      <trkpt lat="42.79509" lon="1.75899">
        <ele>1277.7294921875</ele>
        <time>2012-05-17T08:06:40Z</time>
      </trkpt>
      <trkpt lat="42.79511" lon="1.75901">
        <ele>1278.6909179688</ele>
        <time>2012-05-17T08:06:44Z</time>
      </trkpt>
      <trkpt lat="42.79515" lon="1.759">
        <ele>1279.6520996094</ele>
        <time>2012-05-17T08:06:49Z</time>
      </trkpt>
      <trkpt lat="42.79519" lon="1.759">
        <ele>1280.1328125</ele>
        <time>2012-05-17T08:06:53Z</time>
      </trkpt>
      <trkpt lat="42.79522" lon="1.75902">
        <ele>1280.6135253906</ele>
        <time>2012-05-17T08:06:58Z</time>
      </trkpt>
      <trkpt lat="42.79526" lon="1.75906">
        <ele>1283.0166015625</ele>
        <time>2012-05-17T08:07:04Z</time>
      </trkpt>
      <trkpt lat="42.7953" lon="1.75907">
        <ele>1284.939453125</ele>
        <time>2012-05-17T08:07:10Z</time>
      </trkpt>
      <trkpt lat="42.79532" lon="1.75911">
        <ele>1285.9006347656</ele>
        <time>2012-05-17T08:07:16Z</time>
      </trkpt>
      <trkpt lat="42.79535" lon="1.75915">
        <ele>1289.2651367188</ele>
        <time>2012-05-17T08:07:23Z</time>
      </trkpt>
      <trkpt lat="42.79535" lon="1.75919">
        <ele>1290.70703125</ele>
        <time>2012-05-17T08:07:28Z</time>
      </trkpt>
      <trkpt lat="42.79535" lon="1.75924">
        <ele>1290.70703125</ele>
        <time>2012-05-17T08:07:34Z</time>
      </trkpt>
      <trkpt lat="42.79534" lon="1.75927">
        <ele>1292.1494140625</ele>
        <time>2012-05-17T08:07:38Z</time>
      </trkpt>
      <trkpt lat="42.79533" lon="1.75932">
        <ele>1294.0720214844</ele>
        <time>2012-05-17T08:07:44Z</time>
      </trkpt>
      <trkpt lat="42.79533" lon="1.75936">
        <ele>1294.5524902344</ele>
        <time>2012-05-17T08:07:49Z</time>
      </trkpt>
      <trkpt lat="42.79532" lon="1.7594">
        <ele>1294.5524902344</ele>
        <time>2012-05-17T08:07:53Z</time>
      </trkpt>
      <trkpt lat="42.79531" lon="1.75945">
        <ele>1295.9946289062</ele>
        <time>2012-05-17T08:07:58Z</time>
      </trkpt>
      <trkpt lat="42.79531" lon="1.7595">
        <ele>1297.9172363281</ele>
        <time>2012-05-17T08:08:04Z</time>
      </trkpt>
      <trkpt lat="42.79531" lon="1.75956">
        <ele>1299.83984375</ele>
        <time>2012-05-17T08:08:11Z</time>
      </trkpt>
      <trkpt lat="42.79533" lon="1.75963">
        <ele>1299.83984375</ele>
        <time>2012-05-17T08:08:19Z</time>
      </trkpt>
      <trkpt lat="42.79531" lon="1.75969">
        <ele>1300.8010253906</ele>
        <time>2012-05-17T08:08:29Z</time>
      </trkpt>
      <trkpt lat="42.79535" lon="1.75972">
        <ele>1305.6076660156</ele>
        <time>2012-05-17T08:08:36Z</time>
      </trkpt>
      <trkpt lat="42.7953" lon="1.75971">
        <ele>1307.0495605469</ele>
        <time>2012-05-17T08:08:43Z</time>
      </trkpt>
      <trkpt lat="42.79531" lon="1.75971">
        <ele>1305.6076660156</ele>
        <time>2012-05-17T08:08:51Z</time>
      </trkpt>
      <trkpt lat="42.79532" lon="1.75973">
        <ele>1303.6850585938</ele>
        <time>2012-05-17T08:08:55Z</time>
      </trkpt>
      <trkpt lat="42.79536" lon="1.75976">
        <ele>1303.2043457031</ele>
        <time>2012-05-17T08:09:00Z</time>
      </trkpt>
      <trkpt lat="42.79538" lon="1.75982">
        <ele>1303.2043457031</ele>
        <time>2012-05-17T08:09:06Z</time>
      </trkpt>
      <trkpt lat="42.79543" lon="1.75986">
        <ele>1304.1657714844</ele>
        <time>2012-05-17T08:09:12Z</time>
      </trkpt>
      <trkpt lat="42.79548" lon="1.75991">
        <ele>1305.126953125</ele>
        <time>2012-05-17T08:09:19Z</time>
      </trkpt>
      <trkpt lat="42.79551" lon="1.75994">
        <ele>1306.0881347656</ele>
        <time>2012-05-17T08:09:24Z</time>
      </trkpt>
      <trkpt lat="42.79556" lon="1.75999">
        <ele>1308.4916992188</ele>
        <time>2012-05-17T08:09:32Z</time>
      </trkpt>
      <trkpt lat="42.79557" lon="1.76004">
        <ele>1308.0112304688</ele>
        <time>2012-05-17T08:09:37Z</time>
      </trkpt>
      <trkpt lat="42.7956" lon="1.76008">
        <ele>1309.453125</ele>
        <time>2012-05-17T08:09:43Z</time>
      </trkpt>
      <trkpt lat="42.79563" lon="1.76013">
        <ele>1310.8950195312</ele>
        <time>2012-05-17T08:09:48Z</time>
      </trkpt>
      <trkpt lat="42.79565" lon="1.76017">
        <ele>1310.4143066406</ele>
        <time>2012-05-17T08:09:53Z</time>
      </trkpt>
      <trkpt lat="42.79568" lon="1.7602">
        <ele>1309.93359375</ele>
        <time>2012-05-17T08:09:58Z</time>
      </trkpt>
      <trkpt lat="42.79571" lon="1.76023">
        <ele>1310.8950195312</ele>
        <time>2012-05-17T08:10:03Z</time>
      </trkpt>
      <trkpt lat="42.79573" lon="1.76023">
        <ele>1313.2983398438</ele>
        <time>2012-05-17T08:10:10Z</time>
      </trkpt>
      <trkpt lat="42.79573" lon="1.76021">
        <ele>1316.6628417969</ele>
        <time>2012-05-17T08:10:18Z</time>
      </trkpt>
      <trkpt lat="42.79574" lon="1.76015">
        <ele>1316.1821289062</ele>
        <time>2012-05-17T08:10:24Z</time>
      </trkpt>
      <trkpt lat="42.79576" lon="1.7601">
        <ele>1317.1435546875</ele>
        <time>2012-05-17T08:10:30Z</time>
      </trkpt>
      <trkpt lat="42.7958" lon="1.76005">
        <ele>1319.0661621094</ele>
        <time>2012-05-17T08:10:37Z</time>
      </trkpt>
      <trkpt lat="42.79583" lon="1.76">
        <ele>1318.5854492188</ele>
        <time>2012-05-17T08:10:43Z</time>
      </trkpt>
      <trkpt lat="42.79588" lon="1.75995">
        <ele>1320.5080566406</ele>
        <time>2012-05-17T08:10:50Z</time>
      </trkpt>
      <trkpt lat="42.79592" lon="1.75996">
        <ele>1321.9499511719</ele>
        <time>2012-05-17T08:10:57Z</time>
      </trkpt>
      <trkpt lat="42.79595" lon="1.75997">
        <ele>1322.9113769531</ele>
        <time>2012-05-17T08:11:02Z</time>
      </trkpt>
      <trkpt lat="42.79598" lon="1.75998">
        <ele>1324.353515625</ele>
        <time>2012-05-17T08:11:07Z</time>
      </trkpt>
      <trkpt lat="42.79601" lon="1.75997">
        <ele>1325.3146972656</ele>
        <time>2012-05-17T08:11:12Z</time>
      </trkpt>
      <trkpt lat="42.79604" lon="1.75997">
        <ele>1326.7568359375</ele>
        <time>2012-05-17T08:11:17Z</time>
      </trkpt>
      <trkpt lat="42.79606" lon="1.76001">
        <ele>1327.2375488281</ele>
        <time>2012-05-17T08:11:23Z</time>
      </trkpt>
      <trkpt lat="42.79607" lon="1.76005">
        <ele>1327.7180175781</ele>
        <time>2012-05-17T08:11:29Z</time>
      </trkpt>
      <trkpt lat="42.79608" lon="1.76008">
        <ele>1328.6794433594</ele>
        <time>2012-05-17T08:11:34Z</time>
      </trkpt>
      <trkpt lat="42.7961" lon="1.76013">
        <ele>1329.640625</ele>
        <time>2012-05-17T08:11:40Z</time>
      </trkpt>
      <trkpt lat="42.79611" lon="1.76016">
        <ele>1330.1213378906</ele>
        <time>2012-05-17T08:11:45Z</time>
      </trkpt>
      <trkpt lat="42.79612" lon="1.76019">
        <ele>1330.6020507812</ele>
        <time>2012-05-17T08:11:50Z</time>
      </trkpt>
      <trkpt lat="42.79615" lon="1.76022">
        <ele>1332.0439453125</ele>
        <time>2012-05-17T08:11:56Z</time>
      </trkpt>
      <trkpt lat="42.79617" lon="1.76024">
        <ele>1333.0051269531</ele>
        <time>2012-05-17T08:12:02Z</time>
      </trkpt>
      <trkpt lat="42.79618" lon="1.76028">
        <ele>1333.9665527344</ele>
        <time>2012-05-17T08:12:07Z</time>
      </trkpt>
      <trkpt lat="42.79619" lon="1.7603">
        <ele>1334.9279785156</ele>
        <time>2012-05-17T08:12:11Z</time>
      </trkpt>
      <trkpt lat="42.7962" lon="1.76033">
        <ele>1335.4084472656</ele>
        <time>2012-05-17T08:12:16Z</time>
      </trkpt>
      <trkpt lat="42.7962" lon="1.7604">
        <ele>1336.8503417969</ele>
        <time>2012-05-17T08:12:24Z</time>
      </trkpt>
      <trkpt lat="42.79621" lon="1.76043">
        <ele>1336.8503417969</ele>
        <time>2012-05-17T08:12:29Z</time>
      </trkpt>
      <trkpt lat="42.79623" lon="1.76047">
        <ele>1336.3698730469</ele>
        <time>2012-05-17T08:12:37Z</time>
      </trkpt>
      <trkpt lat="42.79624" lon="1.76049">
        <ele>1336.8503417969</ele>
        <time>2012-05-17T08:12:41Z</time>
      </trkpt>
      <trkpt lat="42.79628" lon="1.76051">
        <ele>1340.2153320312</ele>
        <time>2012-05-17T08:12:49Z</time>
      </trkpt>
      <trkpt lat="42.79629" lon="1.76053">
        <ele>1341.1765136719</ele>
        <time>2012-05-17T08:12:53Z</time>
      </trkpt>
      <trkpt lat="42.79629" lon="1.76057">
        <ele>1342.1379394531</ele>
        <time>2012-05-17T08:12:59Z</time>
      </trkpt>
      <trkpt lat="42.7963" lon="1.7606">
        <ele>1342.6186523438</ele>
        <time>2012-05-17T08:13:03Z</time>
      </trkpt>
      <trkpt lat="42.79631" lon="1.76062">
        <ele>1344.541015625</ele>
        <time>2012-05-17T08:13:09Z</time>
      </trkpt>
      <trkpt lat="42.7963" lon="1.76065">
        <ele>1345.9831542969</ele>
        <time>2012-05-17T08:13:17Z</time>
      </trkpt>
      <trkpt lat="42.79631" lon="1.7607">
        <ele>1345.9831542969</ele>
        <time>2012-05-17T08:13:24Z</time>
      </trkpt>
      <trkpt lat="42.79633" lon="1.76073">
        <ele>1347.9057617188</ele>
        <time>2012-05-17T08:13:34Z</time>
      </trkpt>
      <trkpt lat="42.79635" lon="1.76071">
        <ele>1349.8283691406</ele>
        <time>2012-05-17T08:13:39Z</time>
      </trkpt>
      <trkpt lat="42.79639" lon="1.76068">
        <ele>1348.3862304688</ele>
        <time>2012-05-17T08:13:45Z</time>
      </trkpt>
      <trkpt lat="42.79643" lon="1.76065">
        <ele>1347.9057617188</ele>
        <time>2012-05-17T08:13:51Z</time>
      </trkpt>
      <trkpt lat="42.79648" lon="1.76061">
        <ele>1349.34765625</ele>
        <time>2012-05-17T08:13:57Z</time>
      </trkpt>
      <trkpt lat="42.7965" lon="1.76058">
        <ele>1350.3090820312</ele>
        <time>2012-05-17T08:14:02Z</time>
      </trkpt>
      <trkpt lat="42.79654" lon="1.76054">
        <ele>1350.7895507812</ele>
        <time>2012-05-17T08:14:08Z</time>
      </trkpt>
      <trkpt lat="42.79657" lon="1.76051">
        <ele>1351.7509765625</ele>
        <time>2012-05-17T08:14:14Z</time>
      </trkpt>
      <trkpt lat="42.79661" lon="1.76047">
        <ele>1354.154296875</ele>
        <time>2012-05-17T08:14:21Z</time>
      </trkpt>
      <trkpt lat="42.79664" lon="1.76045">
        <ele>1355.1154785156</ele>
        <time>2012-05-17T08:14:25Z</time>
      </trkpt>
      <trkpt lat="42.79668" lon="1.76043">
        <ele>1356.5576171875</ele>
        <time>2012-05-17T08:14:31Z</time>
      </trkpt>
      <trkpt lat="42.7967" lon="1.76041">
        <ele>1357.9997558594</ele>
        <time>2012-05-17T08:14:34Z</time>
      </trkpt>
      <trkpt lat="42.79672" lon="1.76039">
        <ele>1358.9609375</ele>
        <time>2012-05-17T08:14:40Z</time>
      </trkpt>
      <trkpt lat="42.79676" lon="1.76038">
        <ele>1359.9221191406</ele>
        <time>2012-05-17T08:14:46Z</time>
      </trkpt>
      <trkpt lat="42.79679" lon="1.76036">
        <ele>1361.3642578125</ele>
        <time>2012-05-17T08:14:50Z</time>
      </trkpt>
      <trkpt lat="42.79682" lon="1.76035">
        <ele>1361.8449707031</ele>
        <time>2012-05-17T08:14:54Z</time>
      </trkpt>
      <trkpt lat="42.79686" lon="1.76034">
        <ele>1362.3254394531</ele>
        <time>2012-05-17T08:15:00Z</time>
      </trkpt>
      <trkpt lat="42.79689" lon="1.76029">
        <ele>1364.248046875</ele>
        <time>2012-05-17T08:15:06Z</time>
      </trkpt>
      <trkpt lat="42.79696" lon="1.76026">
        <ele>1365.2094726562</ele>
        <time>2012-05-17T08:15:15Z</time>
      </trkpt>
      <trkpt lat="42.79702" lon="1.76025">
        <ele>1368.5739746094</ele>
        <time>2012-05-17T08:15:23Z</time>
      </trkpt>
      <trkpt lat="42.79706" lon="1.76022">
        <ele>1372.4194335938</ele>
        <time>2012-05-17T08:15:29Z</time>
      </trkpt>
      <trkpt lat="42.79708" lon="1.76021">
        <ele>1372.9001464844</ele>
        <time>2012-05-17T08:15:33Z</time>
      </trkpt>
      <trkpt lat="42.79712" lon="1.7602">
        <ele>1372.9001464844</ele>
        <time>2012-05-17T08:15:38Z</time>
      </trkpt>
      <trkpt lat="42.79715" lon="1.76019">
        <ele>1374.3420410156</ele>
        <time>2012-05-17T08:15:43Z</time>
      </trkpt>
      <trkpt lat="42.7972" lon="1.7602">
        <ele>1374.3420410156</ele>
        <time>2012-05-17T08:15:48Z</time>
      </trkpt>
      <trkpt lat="42.79724" lon="1.7602">
        <ele>1374.8227539062</ele>
        <time>2012-05-17T08:15:53Z</time>
      </trkpt>
      <trkpt lat="42.79728" lon="1.76021">
        <ele>1375.7839355469</ele>
        <time>2012-05-17T08:15:59Z</time>
      </trkpt>
      <trkpt lat="42.79731" lon="1.76021">
        <ele>1377.7065429688</ele>
        <time>2012-05-17T08:16:04Z</time>
      </trkpt>
      <trkpt lat="42.79734" lon="1.76021">
        <ele>1378.66796875</ele>
        <time>2012-05-17T08:16:11Z</time>
      </trkpt>
      <trkpt lat="42.79736" lon="1.76023">
        <ele>1379.1484375</ele>
        <time>2012-05-17T08:16:15Z</time>
      </trkpt>
      <trkpt lat="42.7974" lon="1.76025">
        <ele>1380.1098632812</ele>
        <time>2012-05-17T08:16:20Z</time>
      </trkpt>
      <trkpt lat="42.79742" lon="1.76026">
        <ele>1381.0712890625</ele>
        <time>2012-05-17T08:16:25Z</time>
      </trkpt>
      <trkpt lat="42.79747" lon="1.76026">
        <ele>1382.0324707031</ele>
        <time>2012-05-17T08:16:32Z</time>
      </trkpt>
      <trkpt lat="42.79752" lon="1.76025">
        <ele>1383.4743652344</ele>
        <time>2012-05-17T08:16:39Z</time>
      </trkpt>
      <trkpt lat="42.79755" lon="1.76023">
        <ele>1384.9165039062</ele>
        <time>2012-05-17T08:16:45Z</time>
      </trkpt>
      <trkpt lat="42.79759" lon="1.76023">
        <ele>1385.3969726562</ele>
        <time>2012-05-17T08:16:50Z</time>
      </trkpt>
      <trkpt lat="42.79764" lon="1.76022">
        <ele>1386.8388671875</ele>
        <time>2012-05-17T08:16:57Z</time>
      </trkpt>
      <trkpt lat="42.79769" lon="1.76022">
        <ele>1388.28125</ele>
        <time>2012-05-17T08:17:03Z</time>
      </trkpt>
      <trkpt lat="42.79771" lon="1.76023">
        <ele>1389.2424316406</ele>
        <time>2012-05-17T08:17:09Z</time>
      </trkpt>
      <trkpt lat="42.79773" lon="1.76022">
        <ele>1389.7231445312</ele>
        <time>2012-05-17T08:17:15Z</time>
      </trkpt>
      <trkpt lat="42.79777" lon="1.76022">
        <ele>1390.2038574219</ele>
        <time>2012-05-17T08:17:21Z</time>
      </trkpt>
      <trkpt lat="42.79781" lon="1.76024">
        <ele>1391.1650390625</ele>
        <time>2012-05-17T08:17:26Z</time>
      </trkpt>
      <trkpt lat="42.79786" lon="1.76022">
        <ele>1393.568359375</ele>
        <time>2012-05-17T08:17:33Z</time>
      </trkpt>
      <trkpt lat="42.79791" lon="1.76021">
        <ele>1395.0102539062</ele>
        <time>2012-05-17T08:17:40Z</time>
      </trkpt>
      <trkpt lat="42.79795" lon="1.76022">
        <ele>1395.4909667969</ele>
        <time>2012-05-17T08:17:46Z</time>
      </trkpt>
      <trkpt lat="42.79799" lon="1.76022">
        <ele>1396.4523925781</ele>
        <time>2012-05-17T08:17:51Z</time>
      </trkpt>
      <trkpt lat="42.79802" lon="1.76022">
        <ele>1397.8942871094</ele>
        <time>2012-05-17T08:17:56Z</time>
      </trkpt>
      <trkpt lat="42.79806" lon="1.76022">
        <ele>1398.3747558594</ele>
        <time>2012-05-17T08:18:02Z</time>
      </trkpt>
      <trkpt lat="42.79809" lon="1.76021">
        <ele>1399.3361816406</ele>
        <time>2012-05-17T08:18:08Z</time>
      </trkpt>
      <trkpt lat="42.79812" lon="1.76022">
        <ele>1399.3361816406</ele>
        <time>2012-05-17T08:18:13Z</time>
      </trkpt>
      <trkpt lat="42.79816" lon="1.76021">
        <ele>1399.8168945312</ele>
        <time>2012-05-17T08:18:18Z</time>
      </trkpt>
      <trkpt lat="42.79821" lon="1.76021">
        <ele>1401.2587890625</ele>
        <time>2012-05-17T08:18:23Z</time>
      </trkpt>
      <trkpt lat="42.79827" lon="1.76019">
        <ele>1402.2199707031</ele>
        <time>2012-05-17T08:18:30Z</time>
      </trkpt>
      <trkpt lat="42.79831" lon="1.76015">
        <ele>1404.1430664062</ele>
        <time>2012-05-17T08:18:35Z</time>
      </trkpt>
      <trkpt lat="42.79839" lon="1.76011">
        <ele>1407.5075683594</ele>
        <time>2012-05-17T08:18:42Z</time>
      </trkpt>
      <trkpt lat="42.79845" lon="1.76008">
        <ele>1408.46875</ele>
        <time>2012-05-17T08:18:49Z</time>
      </trkpt>
      <trkpt lat="42.7985" lon="1.76008">
        <ele>1409.4301757812</ele>
        <time>2012-05-17T08:18:55Z</time>
      </trkpt>
      <trkpt lat="42.79855" lon="1.76007">
        <ele>1409.9106445312</ele>
        <time>2012-05-17T08:19:01Z</time>
      </trkpt>
      <trkpt lat="42.79859" lon="1.76007">
        <ele>1410.3913574219</ele>
        <time>2012-05-17T08:19:06Z</time>
      </trkpt>
      <trkpt lat="42.79863" lon="1.76008">
        <ele>1411.3527832031</ele>
        <time>2012-05-17T08:19:12Z</time>
      </trkpt>
      <trkpt lat="42.79867" lon="1.76007">
        <ele>1412.3139648438</ele>
        <time>2012-05-17T08:19:17Z</time>
      </trkpt>
      <trkpt lat="42.79869" lon="1.76006">
        <ele>1414.7172851562</ele>
        <time>2012-05-17T08:19:22Z</time>
      </trkpt>
      <trkpt lat="42.79872" lon="1.76004">
        <ele>1417.1206054688</ele>
        <time>2012-05-17T08:19:26Z</time>
      </trkpt>
      <trkpt lat="42.79877" lon="1.76001">
        <ele>1413.275390625</ele>
        <time>2012-05-17T08:19:33Z</time>
      </trkpt>
      <trkpt lat="42.79882" lon="1.75998">
        <ele>1414.2365722656</ele>
        <time>2012-05-17T08:19:37Z</time>
      </trkpt>
      <trkpt lat="42.79887" lon="1.75994">
        <ele>1417.1206054688</ele>
        <time>2012-05-17T08:19:42Z</time>
      </trkpt>
      <trkpt lat="42.7989" lon="1.75989">
        <ele>1418.5625</ele>
        <time>2012-05-17T08:19:46Z</time>
      </trkpt>
      <trkpt lat="42.79894" lon="1.75986">
        <ele>1421.9272460938</ele>
        <time>2012-05-17T08:19:50Z</time>
      </trkpt>
      <trkpt lat="42.79895" lon="1.75982">
        <ele>1424.3305664062</ele>
        <time>2012-05-17T08:19:57Z</time>
      </trkpt>
      <trkpt lat="42.79899" lon="1.75978">
        <ele>1428.17578125</ele>
        <time>2012-05-17T08:20:02Z</time>
      </trkpt>
      <trkpt lat="42.79903" lon="1.75976">
        <ele>1425.7724609375</ele>
        <time>2012-05-17T08:20:08Z</time>
      </trkpt>
      <trkpt lat="42.79907" lon="1.75972">
        <ele>1427.2145996094</ele>
        <time>2012-05-17T08:20:13Z</time>
      </trkpt>
      <trkpt lat="42.79911" lon="1.75967">
        <ele>1425.7724609375</ele>
        <time>2012-05-17T08:20:19Z</time>
      </trkpt>
      <trkpt lat="42.79915" lon="1.75962">
        <ele>1427.6950683594</ele>
        <time>2012-05-17T08:20:24Z</time>
      </trkpt>
      <trkpt lat="42.79916" lon="1.7596">
        <ele>1428.17578125</ele>
        <time>2012-05-17T08:20:26Z</time>
      </trkpt>
      <trkpt lat="42.79922" lon="1.75952">
        <ele>1427.2145996094</ele>
        <time>2012-05-17T08:20:33Z</time>
      </trkpt>
      <trkpt lat="42.79926" lon="1.75949">
        <ele>1428.6564941406</ele>
        <time>2012-05-17T08:20:37Z</time>
      </trkpt>
      <trkpt lat="42.79931" lon="1.75946">
        <ele>1428.6564941406</ele>
        <time>2012-05-17T08:20:44Z</time>
      </trkpt>
      <trkpt lat="42.79936" lon="1.75942">
        <ele>1427.6950683594</ele>
        <time>2012-05-17T08:20:51Z</time>
      </trkpt>
      <trkpt lat="42.79939" lon="1.75938">
        <ele>1427.2145996094</ele>
        <time>2012-05-17T08:20:56Z</time>
      </trkpt>
      <trkpt lat="42.79943" lon="1.75932">
        <ele>1429.6176757812</ele>
        <time>2012-05-17T08:21:02Z</time>
      </trkpt>
      <trkpt lat="42.79945" lon="1.75931">
        <ele>1429.1369628906</ele>
        <time>2012-05-17T08:21:03Z</time>
      </trkpt>
      <trkpt lat="42.79947" lon="1.7593">
        <ele>1430.5791015625</ele>
        <time>2012-05-17T08:21:05Z</time>
      </trkpt>
      <trkpt lat="42.79949" lon="1.75925">
        <ele>1433.462890625</ele>
        <time>2012-05-17T08:21:10Z</time>
      </trkpt>
      <trkpt lat="42.79952" lon="1.75919">
        <ele>1435.8662109375</ele>
        <time>2012-05-17T08:21:16Z</time>
      </trkpt>
      <trkpt lat="42.79956" lon="1.75914">
        <ele>1434.9050292969</ele>
        <time>2012-05-17T08:21:21Z</time>
      </trkpt>
      <trkpt lat="42.79962" lon="1.75909">
        <ele>1433.462890625</ele>
        <time>2012-05-17T08:21:29Z</time>
      </trkpt>
      <trkpt lat="42.79967" lon="1.75905">
        <ele>1434.9050292969</ele>
        <time>2012-05-17T08:21:35Z</time>
      </trkpt>
      <trkpt lat="42.79971" lon="1.75902">
        <ele>1435.3854980469</ele>
        <time>2012-05-17T08:21:39Z</time>
      </trkpt>
      <trkpt lat="42.79976" lon="1.759">
        <ele>1435.8662109375</ele>
        <time>2012-05-17T08:21:45Z</time>
      </trkpt>
      <trkpt lat="42.79981" lon="1.75897">
        <ele>1436.8276367188</ele>
        <time>2012-05-17T08:21:51Z</time>
      </trkpt>
      <trkpt lat="42.79985" lon="1.75895">
        <ele>1436.3471679688</ele>
        <time>2012-05-17T08:21:58Z</time>
      </trkpt>
      <trkpt lat="42.79989" lon="1.75894">
        <ele>1435.8662109375</ele>
        <time>2012-05-17T08:22:04Z</time>
      </trkpt>
      <trkpt lat="42.79993" lon="1.75894">
        <ele>1434.4243164062</ele>
        <time>2012-05-17T08:22:11Z</time>
      </trkpt>
      <trkpt lat="42.79995" lon="1.75892">
        <ele>1432.5017089844</ele>
        <time>2012-05-17T08:22:19Z</time>
      </trkpt>
      <trkpt lat="42.80001" lon="1.75886">
        <ele>1438.7504882812</ele>
        <time>2012-05-17T08:22:28Z</time>
      </trkpt>
      <trkpt lat="42.80004" lon="1.75879">
        <ele>1447.4020996094</ele>
        <time>2012-05-17T08:22:35Z</time>
      </trkpt>
      <trkpt lat="42.80011" lon="1.75874">
        <ele>1446.9213867188</ele>
        <time>2012-05-17T08:22:44Z</time>
      </trkpt>
      <trkpt lat="42.80014" lon="1.75875">
        <ele>1444.9987792969</ele>
        <time>2012-05-17T08:22:49Z</time>
      </trkpt>
      <trkpt lat="42.80017" lon="1.75873">
        <ele>1446.4409179688</ele>
        <time>2012-05-17T08:22:54Z</time>
      </trkpt>
      <trkpt lat="42.80022" lon="1.75872">
        <ele>1445.9602050781</ele>
        <time>2012-05-17T08:23:00Z</time>
      </trkpt>
      <trkpt lat="42.80027" lon="1.75867">
        <ele>1442.595703125</ele>
        <time>2012-05-17T08:23:05Z</time>
      </trkpt>
      <trkpt lat="42.80032" lon="1.75866">
        <ele>1441.6342773438</ele>
        <time>2012-05-17T08:23:10Z</time>
      </trkpt>
      <trkpt lat="42.8004" lon="1.7586">
        <ele>1443.5568847656</ele>
        <time>2012-05-17T08:23:16Z</time>
      </trkpt>
      <trkpt lat="42.80041" lon="1.75859">
        <ele>1444.5180664062</ele>
        <time>2012-05-17T08:23:18Z</time>
      </trkpt>
      <trkpt lat="42.80043" lon="1.75855">
        <ele>1447.4020996094</ele>
        <time>2012-05-17T08:23:22Z</time>
      </trkpt>
      <trkpt lat="42.80045" lon="1.75852">
        <ele>1448.36328125</ele>
        <time>2012-05-17T08:23:25Z</time>
      </trkpt>
      <trkpt lat="42.80051" lon="1.75845">
        <ele>1445.4794921875</ele>
        <time>2012-05-17T08:23:32Z</time>
      </trkpt>
      <trkpt lat="42.80054" lon="1.75842">
        <ele>1447.8828125</ele>
        <time>2012-05-17T08:23:38Z</time>
      </trkpt>
      <trkpt lat="42.80059" lon="1.75842">
        <ele>1447.4020996094</ele>
        <time>2012-05-17T08:23:44Z</time>
      </trkpt>
      <trkpt lat="42.80066" lon="1.75832">
        <ele>1453.1701660156</ele>
        <time>2012-05-17T08:23:51Z</time>
      </trkpt>
      <trkpt lat="42.80071" lon="1.75827">
        <ele>1451.7280273438</ele>
        <time>2012-05-17T08:23:57Z</time>
      </trkpt>
      <trkpt lat="42.80076" lon="1.75827">
        <ele>1453.1701660156</ele>
        <time>2012-05-17T08:24:03Z</time>
      </trkpt>
      <trkpt lat="42.80082" lon="1.7583">
        <ele>1452.689453125</ele>
        <time>2012-05-17T08:24:09Z</time>
      </trkpt>
      <trkpt lat="42.80087" lon="1.75831">
        <ele>1454.6120605469</ele>
        <time>2012-05-17T08:24:14Z</time>
      </trkpt>
      <trkpt lat="42.80093" lon="1.75829">
        <ele>1454.6120605469</ele>
        <time>2012-05-17T08:24:21Z</time>
      </trkpt>
      <trkpt lat="42.80096" lon="1.75833">
        <ele>1450.2861328125</ele>
        <time>2012-05-17T08:24:26Z</time>
      </trkpt>
      <trkpt lat="42.801" lon="1.75835">
        <ele>1451.7280273438</ele>
        <time>2012-05-17T08:24:31Z</time>
      </trkpt>
      <trkpt lat="42.80103" lon="1.75834">
        <ele>1457.0153808594</ele>
        <time>2012-05-17T08:24:36Z</time>
      </trkpt>
      <trkpt lat="42.80107" lon="1.75834">
        <ele>1461.3413085938</ele>
        <time>2012-05-17T08:24:41Z</time>
      </trkpt>
      <trkpt lat="42.80113" lon="1.75831">
        <ele>1462.3024902344</ele>
        <time>2012-05-17T08:24:49Z</time>
      </trkpt>
      <trkpt lat="42.80115" lon="1.75829">
        <ele>1464.7058105469</ele>
        <time>2012-05-17T08:24:53Z</time>
      </trkpt>
      <trkpt lat="42.80117" lon="1.75827">
        <ele>1464.2250976562</ele>
        <time>2012-05-17T08:24:57Z</time>
      </trkpt>
      <trkpt lat="42.8012" lon="1.75825">
        <ele>1467.1091308594</ele>
        <time>2012-05-17T08:25:02Z</time>
      </trkpt>
      <trkpt lat="42.80124" lon="1.75823">
        <ele>1471.4350585938</ele>
        <time>2012-05-17T08:25:07Z</time>
      </trkpt>
      <trkpt lat="42.80127" lon="1.75817">
        <ele>1479.1254882812</ele>
        <time>2012-05-17T08:25:13Z</time>
      </trkpt>
      <trkpt lat="42.80132" lon="1.75815">
        <ele>1481.5288085938</ele>
        <time>2012-05-17T08:25:18Z</time>
      </trkpt>
      <trkpt lat="42.80136" lon="1.75813">
        <ele>1484.4130859375</ele>
        <time>2012-05-17T08:25:23Z</time>
      </trkpt>
      <trkpt lat="42.80143" lon="1.75813">
        <ele>1485.8549804688</ele>
        <time>2012-05-17T08:25:30Z</time>
      </trkpt>
      <trkpt lat="42.80152" lon="1.75815">
        <ele>1478.1643066406</ele>
        <time>2012-05-17T08:25:37Z</time>
      </trkpt>
      <trkpt lat="42.80159" lon="1.75816">
        <ele>1474.3190917969</ele>
        <time>2012-05-17T08:25:43Z</time>
      </trkpt>
      <trkpt lat="42.80166" lon="1.75817">
        <ele>1469.9931640625</ele>
        <time>2012-05-17T08:25:51Z</time>
      </trkpt>
      <trkpt lat="42.8017" lon="1.75815">
        <ele>1470.4738769531</ele>
        <time>2012-05-17T08:25:57Z</time>
      </trkpt>
      <trkpt lat="42.80176" lon="1.75813">
        <ele>1470.9545898438</ele>
        <time>2012-05-17T08:26:03Z</time>
      </trkpt>
      <trkpt lat="42.80179" lon="1.75812">
        <ele>1474.7998046875</ele>
        <time>2012-05-17T08:26:08Z</time>
      </trkpt>
      <trkpt lat="42.80184" lon="1.7581">
        <ele>1473.8383789062</ele>
        <time>2012-05-17T08:26:15Z</time>
      </trkpt>
      <trkpt lat="42.80189" lon="1.75808">
        <ele>1470.4738769531</ele>
        <time>2012-05-17T08:26:20Z</time>
      </trkpt>
      <trkpt lat="42.80191" lon="1.75809">
        <ele>1469.5126953125</ele>
        <time>2012-05-17T08:26:24Z</time>
      </trkpt>
      <trkpt lat="42.80196" lon="1.75809">
        <ele>1469.9931640625</ele>
        <time>2012-05-17T08:26:30Z</time>
      </trkpt>
      <trkpt lat="42.802" lon="1.75807">
        <ele>1470.4738769531</ele>
        <time>2012-05-17T08:26:36Z</time>
      </trkpt>
      <trkpt lat="42.80205" lon="1.75804">
        <ele>1472.396484375</ele>
        <time>2012-05-17T08:26:43Z</time>
      </trkpt>
      <trkpt lat="42.80207" lon="1.75802">
        <ele>1473.3579101562</ele>
        <time>2012-05-17T08:26:47Z</time>
      </trkpt>
      <trkpt lat="42.8021" lon="1.75801">
        <ele>1474.7998046875</ele>
        <time>2012-05-17T08:26:52Z</time>
      </trkpt>
      <trkpt lat="42.80213" lon="1.75799">
        <ele>1475.7609863281</ele>
        <time>2012-05-17T08:26:57Z</time>
      </trkpt>
      <trkpt lat="42.80216" lon="1.758">
        <ele>1476.7224121094</ele>
        <time>2012-05-17T08:27:02Z</time>
      </trkpt>
      <trkpt lat="42.80219" lon="1.75796">
        <ele>1478.6450195312</ele>
        <time>2012-05-17T08:27:07Z</time>
      </trkpt>
      <trkpt lat="42.80223" lon="1.75794">
        <ele>1479.6062011719</ele>
        <time>2012-05-17T08:27:13Z</time>
      </trkpt>
      <trkpt lat="42.80227" lon="1.7579">
        <ele>1481.0483398438</ele>
        <time>2012-05-17T08:27:18Z</time>
      </trkpt>
      <trkpt lat="42.80229" lon="1.75786">
        <ele>1482.970703125</ele>
        <time>2012-05-17T08:27:22Z</time>
      </trkpt>
      <trkpt lat="42.80233" lon="1.75788">
        <ele>1483.4514160156</ele>
        <time>2012-05-17T08:27:26Z</time>
      </trkpt>
      <trkpt lat="42.80238" lon="1.75789">
        <ele>1482.970703125</ele>
        <time>2012-05-17T08:27:31Z</time>
      </trkpt>
      <trkpt lat="42.80245" lon="1.75794">
        <ele>1482.970703125</ele>
        <time>2012-05-17T08:27:38Z</time>
      </trkpt>
      <trkpt lat="42.80252" lon="1.75795">
        <ele>1482.970703125</ele>
        <time>2012-05-17T08:27:44Z</time>
      </trkpt>
      <trkpt lat="42.80258" lon="1.75796">
        <ele>1483.4514160156</ele>
        <time>2012-05-17T08:27:50Z</time>
      </trkpt>
      <trkpt lat="42.80261" lon="1.75797">
        <ele>1483.9321289062</ele>
        <time>2012-05-17T08:27:54Z</time>
      </trkpt>
      <trkpt lat="42.80265" lon="1.75795">
        <ele>1484.4130859375</ele>
        <time>2012-05-17T08:27:59Z</time>
      </trkpt>
      <trkpt lat="42.8027" lon="1.75797">
        <ele>1485.3742675781</ele>
        <time>2012-05-17T08:28:05Z</time>
      </trkpt>
      <trkpt lat="42.80274" lon="1.75799">
        <ele>1485.8549804688</ele>
        <time>2012-05-17T08:28:09Z</time>
      </trkpt>
      <trkpt lat="42.80279" lon="1.75798">
        <ele>1488.2583007812</ele>
        <time>2012-05-17T08:28:14Z</time>
      </trkpt>
      <trkpt lat="42.80283" lon="1.75798">
        <ele>1490.1809082031</ele>
        <time>2012-05-17T08:28:20Z</time>
      </trkpt>
      <trkpt lat="42.80287" lon="1.75797">
        <ele>1490.6613769531</ele>
        <time>2012-05-17T08:28:25Z</time>
      </trkpt>
      <trkpt lat="42.80289" lon="1.75795">
        <ele>1491.6228027344</ele>
        <time>2012-05-17T08:28:29Z</time>
      </trkpt>
      <trkpt lat="42.80293" lon="1.75792">
        <ele>1492.5842285156</ele>
        <time>2012-05-17T08:28:33Z</time>
      </trkpt>
      <trkpt lat="42.803" lon="1.75792">
        <ele>1496.4294433594</ele>
        <time>2012-05-17T08:28:40Z</time>
      </trkpt>
      <trkpt lat="42.80303" lon="1.75793">
        <ele>1496.4294433594</ele>
        <time>2012-05-17T08:28:43Z</time>
      </trkpt>
      <trkpt lat="42.80309" lon="1.7579">
        <ele>1496.4294433594</ele>
        <time>2012-05-17T08:28:50Z</time>
      </trkpt>
      <trkpt lat="42.8031" lon="1.7579">
        <ele>1495.9487304688</ele>
        <time>2012-05-17T08:28:51Z</time>
      </trkpt>
      <trkpt lat="42.80314" lon="1.75787">
        <ele>1497.390625</ele>
        <time>2012-05-17T08:28:57Z</time>
      </trkpt>
      <trkpt lat="42.80318" lon="1.75786">
        <ele>1496.9099121094</ele>
        <time>2012-05-17T08:29:03Z</time>
      </trkpt>
      <trkpt lat="42.8032" lon="1.75784">
        <ele>1497.390625</ele>
        <time>2012-05-17T08:29:07Z</time>
      </trkpt>
      <trkpt lat="42.80323" lon="1.75779">
        <ele>1499.3132324219</ele>
        <time>2012-05-17T08:29:12Z</time>
      </trkpt>
      <trkpt lat="42.8033" lon="1.75776">
        <ele>1500.7553710938</ele>
        <time>2012-05-17T08:29:19Z</time>
      </trkpt>
      <trkpt lat="42.80332" lon="1.75778">
        <ele>1502.6779785156</ele>
        <time>2012-05-17T08:29:23Z</time>
      </trkpt>
      <trkpt lat="42.80334" lon="1.75776">
        <ele>1505.5620117188</ele>
        <time>2012-05-17T08:29:28Z</time>
      </trkpt>
      <trkpt lat="42.80336" lon="1.75772">
        <ele>1510.8491210938</ele>
        <time>2012-05-17T08:29:33Z</time>
      </trkpt>
      <trkpt lat="42.8034" lon="1.7577">
        <ele>1512.7717285156</ele>
        <time>2012-05-17T08:29:38Z</time>
      </trkpt>
      <trkpt lat="42.80342" lon="1.75767">
        <ele>1512.7717285156</ele>
        <time>2012-05-17T08:29:43Z</time>
      </trkpt>
      <trkpt lat="42.8035" lon="1.7576">
        <ele>1508.4458007812</ele>
        <time>2012-05-17T08:29:51Z</time>
      </trkpt>
      <trkpt lat="42.80355" lon="1.75758">
        <ele>1503.1586914062</ele>
        <time>2012-05-17T08:29:58Z</time>
      </trkpt>
      <trkpt lat="42.80357" lon="1.7576">
        <ele>1501.716796875</ele>
        <time>2012-05-17T08:30:02Z</time>
      </trkpt>
      <trkpt lat="42.80362" lon="1.75757">
        <ele>1501.716796875</ele>
        <time>2012-05-17T08:30:07Z</time>
      </trkpt>
      <trkpt lat="42.80365" lon="1.75755">
        <ele>1504.1201171875</ele>
        <time>2012-05-17T08:30:11Z</time>
      </trkpt>
      <trkpt lat="42.8037" lon="1.75753">
        <ele>1507.9653320312</ele>
        <time>2012-05-17T08:30:18Z</time>
      </trkpt>
      <trkpt lat="42.80375" lon="1.75749">
        <ele>1511.810546875</ele>
        <time>2012-05-17T08:30:26Z</time>
      </trkpt>
      <trkpt lat="42.80378" lon="1.75746">
        <ele>1513.2524414062</ele>
        <time>2012-05-17T08:30:32Z</time>
      </trkpt>
      <trkpt lat="42.80381" lon="1.75744">
        <ele>1512.7717285156</ele>
        <time>2012-05-17T08:30:34Z</time>
      </trkpt>
      <trkpt lat="42.80385" lon="1.75743">
        <ele>1512.7717285156</ele>
        <time>2012-05-17T08:30:40Z</time>
      </trkpt>
      <trkpt lat="42.80389" lon="1.75742">
        <ele>1513.2524414062</ele>
        <time>2012-05-17T08:30:44Z</time>
      </trkpt>
      <trkpt lat="42.80392" lon="1.7574">
        <ele>1514.2136230469</ele>
        <time>2012-05-17T08:30:49Z</time>
      </trkpt>
      <trkpt lat="42.80397" lon="1.75739">
        <ele>1513.7329101562</ele>
        <time>2012-05-17T08:30:55Z</time>
      </trkpt>
      <trkpt lat="42.80403" lon="1.75738">
        <ele>1511.3298339844</ele>
        <time>2012-05-17T08:31:01Z</time>
      </trkpt>
      <trkpt lat="42.80406" lon="1.75734">
        <ele>1509.8876953125</ele>
        <time>2012-05-17T08:31:06Z</time>
      </trkpt>
      <trkpt lat="42.8041" lon="1.75732">
        <ele>1508.4458007812</ele>
        <time>2012-05-17T08:31:11Z</time>
      </trkpt>
      <trkpt lat="42.80412" lon="1.75728">
        <ele>1510.3684082031</ele>
        <time>2012-05-17T08:31:16Z</time>
      </trkpt>
      <trkpt lat="42.80413" lon="1.75724">
        <ele>1517.5783691406</ele>
        <time>2012-05-17T08:31:20Z</time>
      </trkpt>
      <trkpt lat="42.80415" lon="1.75721">
        <ele>1521.4235839844</ele>
        <time>2012-05-17T08:31:25Z</time>
      </trkpt>
      <trkpt lat="42.80417" lon="1.75717">
        <ele>1524.7883300781</ele>
        <time>2012-05-17T08:31:29Z</time>
      </trkpt>
      <trkpt lat="42.8042" lon="1.75714">
        <ele>1528.1528320312</ele>
        <time>2012-05-17T08:31:34Z</time>
      </trkpt>
      <trkpt lat="42.80423" lon="1.75712">
        <ele>1530.5561523438</ele>
        <time>2012-05-17T08:31:38Z</time>
      </trkpt>
      <trkpt lat="42.80429" lon="1.75713">
        <ele>1528.6335449219</ele>
        <time>2012-05-17T08:31:43Z</time>
      </trkpt>
      <trkpt lat="42.80433" lon="1.75713">
        <ele>1527.6721191406</ele>
        <time>2012-05-17T08:31:47Z</time>
      </trkpt>
      <trkpt lat="42.80439" lon="1.75715">
        <ele>1527.6721191406</ele>
        <time>2012-05-17T08:31:54Z</time>
      </trkpt>
      <trkpt lat="42.80443" lon="1.75714">
        <ele>1528.1528320312</ele>
        <time>2012-05-17T08:32:00Z</time>
      </trkpt>
      <trkpt lat="42.80448" lon="1.7571">
        <ele>1534.4016113281</ele>
        <time>2012-05-17T08:32:06Z</time>
      </trkpt>
      <trkpt lat="42.80452" lon="1.75708">
        <ele>1535.8435058594</ele>
        <time>2012-05-17T08:32:10Z</time>
      </trkpt>
      <trkpt lat="42.80457" lon="1.75706">
        <ele>1535.8435058594</ele>
        <time>2012-05-17T08:32:14Z</time>
      </trkpt>
      <trkpt lat="42.80464" lon="1.75698">
        <ele>1531.998046875</ele>
        <time>2012-05-17T08:32:22Z</time>
      </trkpt>
      <trkpt lat="42.80466" lon="1.75694">
        <ele>1534.4016113281</ele>
        <time>2012-05-17T08:32:27Z</time>
      </trkpt>
      <trkpt lat="42.80467" lon="1.75691">
        <ele>1536.8046875</ele>
        <time>2012-05-17T08:32:32Z</time>
      </trkpt>
      <trkpt lat="42.80469" lon="1.75685">
        <ele>1538.7275390625</ele>
        <time>2012-05-17T08:32:38Z</time>
      </trkpt>
      <trkpt lat="42.80469" lon="1.75677">
        <ele>1541.1306152344</ele>
        <time>2012-05-17T08:32:44Z</time>
      </trkpt>
      <trkpt lat="42.8047" lon="1.75669">
        <ele>1542.0920410156</ele>
        <time>2012-05-17T08:32:50Z</time>
      </trkpt>
      <trkpt lat="42.80473" lon="1.75666">
        <ele>1545.9372558594</ele>
        <time>2012-05-17T08:32:55Z</time>
      </trkpt>
      <trkpt lat="42.80478" lon="1.75664">
        <ele>1546.8984375</ele>
        <time>2012-05-17T08:33:00Z</time>
      </trkpt>
      <trkpt lat="42.80481" lon="1.75664">
        <ele>1544.0146484375</ele>
        <time>2012-05-17T08:33:05Z</time>
      </trkpt>
      <trkpt lat="42.80486" lon="1.75665">
        <ele>1539.6887207031</ele>
        <time>2012-05-17T08:33:11Z</time>
      </trkpt>
      <trkpt lat="42.80489" lon="1.75665">
        <ele>1538.7275390625</ele>
        <time>2012-05-17T08:33:16Z</time>
      </trkpt>
      <trkpt lat="42.80494" lon="1.75664">
        <ele>1540.1694335938</ele>
        <time>2012-05-17T08:33:21Z</time>
      </trkpt>
      <trkpt lat="42.80499" lon="1.75661">
        <ele>1544.0146484375</ele>
        <time>2012-05-17T08:33:29Z</time>
      </trkpt>
      <trkpt lat="42.80503" lon="1.75661">
        <ele>1544.9758300781</ele>
        <time>2012-05-17T08:33:34Z</time>
      </trkpt>
      <trkpt lat="42.80507" lon="1.75658">
        <ele>1545.9372558594</ele>
        <time>2012-05-17T08:33:40Z</time>
      </trkpt>
      <trkpt lat="42.80508" lon="1.75653">
        <ele>1550.2634277344</ele>
        <time>2012-05-17T08:33:45Z</time>
      </trkpt>
      <trkpt lat="42.80511" lon="1.75649">
        <ele>1552.1857910156</ele>
        <time>2012-05-17T08:33:50Z</time>
      </trkpt>
      <trkpt lat="42.80513" lon="1.75644">
        <ele>1555.0698242188</ele>
        <time>2012-05-17T08:33:55Z</time>
      </trkpt>
      <trkpt lat="42.80517" lon="1.75642">
        <ele>1556.0310058594</ele>
        <time>2012-05-17T08:34:00Z</time>
      </trkpt>
      <trkpt lat="42.80522" lon="1.75643">
        <ele>1554.1086425781</ele>
        <time>2012-05-17T08:34:06Z</time>
      </trkpt>
      <trkpt lat="42.80525" lon="1.75647">
        <ele>1553.6279296875</ele>
        <time>2012-05-17T08:34:09Z</time>
      </trkpt>
      <trkpt lat="42.80532" lon="1.75652">
        <ele>1552.1857910156</ele>
        <time>2012-05-17T08:34:15Z</time>
      </trkpt>
      <trkpt lat="42.80537" lon="1.75656">
        <ele>1555.0698242188</ele>
        <time>2012-05-17T08:34:19Z</time>
      </trkpt>
      <trkpt lat="42.80542" lon="1.75659">
        <ele>1556.0310058594</ele>
        <time>2012-05-17T08:34:23Z</time>
      </trkpt>
      <trkpt lat="42.80544" lon="1.75662">
        <ele>1554.5891113281</ele>
        <time>2012-05-17T08:34:25Z</time>
      </trkpt>
      <trkpt lat="42.80545" lon="1.75664">
        <ele>1553.1472167969</ele>
        <time>2012-05-17T08:34:27Z</time>
      </trkpt>
      <trkpt lat="42.8055" lon="1.75668">
        <ele>1556.51171875</ele>
        <time>2012-05-17T08:34:32Z</time>
      </trkpt>
      <trkpt lat="42.80552" lon="1.7567">
        <ele>1555.0698242188</ele>
        <time>2012-05-17T08:34:34Z</time>
      </trkpt>
      <trkpt lat="42.80561" lon="1.75672">
        <ele>1551.224609375</ele>
        <time>2012-05-17T08:34:42Z</time>
      </trkpt>
      <trkpt lat="42.80563" lon="1.75672">
        <ele>1550.2634277344</ele>
        <time>2012-05-17T08:34:44Z</time>
      </trkpt>
      <trkpt lat="42.80567" lon="1.75671">
        <ele>1550.2634277344</ele>
        <time>2012-05-17T08:34:48Z</time>
      </trkpt>
      <trkpt lat="42.80571" lon="1.75669">
        <ele>1552.6665039062</ele>
        <time>2012-05-17T08:34:55Z</time>
      </trkpt>
      <trkpt lat="42.80577" lon="1.75667">
        <ele>1556.51171875</ele>
        <time>2012-05-17T08:35:01Z</time>
      </trkpt>
      <trkpt lat="42.80581" lon="1.75663">
        <ele>1557.4731445312</ele>
        <time>2012-05-17T08:35:06Z</time>
      </trkpt>
      <trkpt lat="42.80586" lon="1.75662">
        <ele>1557.9538574219</ele>
        <time>2012-05-17T08:35:10Z</time>
      </trkpt>
      <trkpt lat="42.80588" lon="1.75661">
        <ele>1559.3957519531</ele>
        <time>2012-05-17T08:35:12Z</time>
      </trkpt>
      <trkpt lat="42.80594" lon="1.75662">
        <ele>1558.4343261719</ele>
        <time>2012-05-17T08:35:17Z</time>
      </trkpt>
      <trkpt lat="42.80598" lon="1.7566">
        <ele>1557.9538574219</ele>
        <time>2012-05-17T08:35:20Z</time>
      </trkpt>
      <trkpt lat="42.80608" lon="1.75661">
        <ele>1558.4343261719</ele>
        <time>2012-05-17T08:35:27Z</time>
      </trkpt>
      <trkpt lat="42.80612" lon="1.75664">
        <ele>1557.4731445312</ele>
        <time>2012-05-17T08:35:31Z</time>
      </trkpt>
      <trkpt lat="42.80619" lon="1.75666">
        <ele>1558.9150390625</ele>
        <time>2012-05-17T08:35:38Z</time>
      </trkpt>
      <trkpt lat="42.80623" lon="1.75668">
        <ele>1558.4343261719</ele>
        <time>2012-05-17T08:35:44Z</time>
      </trkpt>
      <trkpt lat="42.80625" lon="1.75677">
        <ele>1559.3957519531</ele>
        <time>2012-05-17T08:35:50Z</time>
      </trkpt>
      <trkpt lat="42.80629" lon="1.75681">
        <ele>1561.318359375</ele>
        <time>2012-05-17T08:35:54Z</time>
      </trkpt>
      <trkpt lat="42.8063" lon="1.75682">
        <ele>1562.2795410156</ele>
        <time>2012-05-17T08:35:56Z</time>
      </trkpt>
      <trkpt lat="42.80634" lon="1.75681">
        <ele>1562.2795410156</ele>
        <time>2012-05-17T08:36:00Z</time>
      </trkpt>
      <trkpt lat="42.80639" lon="1.75677">
        <ele>1561.318359375</ele>
        <time>2012-05-17T08:36:04Z</time>
      </trkpt>
      <trkpt lat="42.80642" lon="1.75672">
        <ele>1563.2409667969</ele>
        <time>2012-05-17T08:36:10Z</time>
      </trkpt>
      <trkpt lat="42.80643" lon="1.7567">
        <ele>1563.2409667969</ele>
        <time>2012-05-17T08:36:12Z</time>
      </trkpt>
      <trkpt lat="42.80648" lon="1.75663">
        <ele>1563.2409667969</ele>
        <time>2012-05-17T08:36:18Z</time>
      </trkpt>
      <trkpt lat="42.80652" lon="1.75656">
        <ele>1566.6057128906</ele>
        <time>2012-05-17T08:36:25Z</time>
      </trkpt>
      <trkpt lat="42.80656" lon="1.75654">
        <ele>1569.4897460938</ele>
        <time>2012-05-17T08:36:31Z</time>
      </trkpt>
      <trkpt lat="42.80659" lon="1.75652">
        <ele>1570.931640625</ele>
        <time>2012-05-17T08:36:37Z</time>
      </trkpt>
      <trkpt lat="42.80663" lon="1.75651">
        <ele>1571.8928222656</ele>
        <time>2012-05-17T08:36:43Z</time>
      </trkpt>
      <trkpt lat="42.80666" lon="1.75649">
        <ele>1573.8154296875</ele>
        <time>2012-05-17T08:36:47Z</time>
      </trkpt>
      <trkpt lat="42.80669" lon="1.75646">
        <ele>1574.7768554688</ele>
        <time>2012-05-17T08:36:52Z</time>
      </trkpt>
      <trkpt lat="42.80671" lon="1.75641">
        <ele>1576.21875</ele>
        <time>2012-05-17T08:36:58Z</time>
      </trkpt>
      <trkpt lat="42.80677" lon="1.75639">
        <ele>1573.8154296875</ele>
        <time>2012-05-17T08:37:05Z</time>
      </trkpt>
      <trkpt lat="42.8068" lon="1.75641">
        <ele>1573.8154296875</ele>
        <time>2012-05-17T08:37:09Z</time>
      </trkpt>
      <trkpt lat="42.80682" lon="1.75642">
        <ele>1573.3349609375</ele>
        <time>2012-05-17T08:37:13Z</time>
      </trkpt>
      <trkpt lat="42.80684" lon="1.75643">
        <ele>1574.7768554688</ele>
        <time>2012-05-17T08:37:17Z</time>
      </trkpt>
      <trkpt lat="42.80688" lon="1.75643">
        <ele>1578.6220703125</ele>
        <time>2012-05-17T08:37:23Z</time>
      </trkpt>
      <trkpt lat="42.80692" lon="1.7564">
        <ele>1579.5832519531</ele>
        <time>2012-05-17T08:37:28Z</time>
      </trkpt>
      <trkpt lat="42.80697" lon="1.75638">
        <ele>1581.9868164062</ele>
        <time>2012-05-17T08:37:33Z</time>
      </trkpt>
      <trkpt lat="42.80701" lon="1.75634">
        <ele>1584.3901367188</ele>
        <time>2012-05-17T08:37:39Z</time>
      </trkpt>
      <trkpt lat="42.80704" lon="1.75632">
        <ele>1586.3127441406</ele>
        <time>2012-05-17T08:37:45Z</time>
      </trkpt>
      <trkpt lat="42.80709" lon="1.7563">
        <ele>1589.6772460938</ele>
        <time>2012-05-17T08:37:51Z</time>
      </trkpt>
      <trkpt lat="42.80713" lon="1.75625">
        <ele>1590.1579589844</ele>
        <time>2012-05-17T08:37:58Z</time>
      </trkpt>
      <trkpt lat="42.80717" lon="1.75624">
        <ele>1588.2353515625</ele>
        <time>2012-05-17T08:38:05Z</time>
      </trkpt>
      <trkpt lat="42.80722" lon="1.75621">
        <ele>1588.2353515625</ele>
        <time>2012-05-17T08:38:11Z</time>
      </trkpt>
      <trkpt lat="42.80729" lon="1.75614">
        <ele>1590.1579589844</ele>
        <time>2012-05-17T08:38:19Z</time>
      </trkpt>
      <trkpt lat="42.80733" lon="1.75611">
        <ele>1586.7932128906</ele>
        <time>2012-05-17T08:38:23Z</time>
      </trkpt>
      <trkpt lat="42.80739" lon="1.75609">
        <ele>1586.7932128906</ele>
        <time>2012-05-17T08:38:30Z</time>
      </trkpt>
      <trkpt lat="42.80743" lon="1.75606">
        <ele>1588.7160644531</ele>
        <time>2012-05-17T08:38:36Z</time>
      </trkpt>
      <trkpt lat="42.80746" lon="1.75603">
        <ele>1592.0805664062</ele>
        <time>2012-05-17T08:38:41Z</time>
      </trkpt>
      <trkpt lat="42.8075" lon="1.75598">
        <ele>1594.0031738281</ele>
        <time>2012-05-17T08:38:47Z</time>
      </trkpt>
      <trkpt lat="42.80754" lon="1.75595">
        <ele>1592.0805664062</ele>
        <time>2012-05-17T08:38:53Z</time>
      </trkpt>
      <trkpt lat="42.80759" lon="1.7559">
        <ele>1593.5224609375</ele>
        <time>2012-05-17T08:38:59Z</time>
      </trkpt>
      <trkpt lat="42.80763" lon="1.75589">
        <ele>1594.0031738281</ele>
        <time>2012-05-17T08:39:04Z</time>
      </trkpt>
      <trkpt lat="42.80767" lon="1.75586">
        <ele>1595.92578125</ele>
        <time>2012-05-17T08:39:10Z</time>
      </trkpt>
      <trkpt lat="42.80771" lon="1.75584">
        <ele>1597.8486328125</ele>
        <time>2012-05-17T08:39:16Z</time>
      </trkpt>
      <trkpt lat="42.80774" lon="1.75583">
        <ele>1598.3291015625</ele>
        <time>2012-05-17T08:39:21Z</time>
      </trkpt>
      <trkpt lat="42.80773" lon="1.75578">
        <ele>1599.7712402344</ele>
        <time>2012-05-17T08:39:27Z</time>
      </trkpt>
      <trkpt lat="42.80775" lon="1.75575">
        <ele>1600.251953125</ele>
        <time>2012-05-17T08:39:31Z</time>
      </trkpt>
      <trkpt lat="42.80775" lon="1.75572">
        <ele>1599.7712402344</ele>
        <time>2012-05-17T08:39:34Z</time>
      </trkpt>
      <trkpt lat="42.80778" lon="1.75568">
        <ele>1601.2131347656</ele>
        <time>2012-05-17T08:39:40Z</time>
      </trkpt>
      <trkpt lat="42.8078" lon="1.75562">
        <ele>1602.6550292969</ele>
        <time>2012-05-17T08:39:46Z</time>
      </trkpt>
      <trkpt lat="42.80783" lon="1.7556">
        <ele>1604.5776367188</ele>
        <time>2012-05-17T08:39:52Z</time>
      </trkpt>
      <trkpt lat="42.80786" lon="1.75559">
        <ele>1605.0583496094</ele>
        <time>2012-05-17T08:39:57Z</time>
      </trkpt>
      <trkpt lat="42.8079" lon="1.75558">
        <ele>1605.5390625</ele>
        <time>2012-05-17T08:40:03Z</time>
      </trkpt>
      <trkpt lat="42.80793" lon="1.75556">
        <ele>1605.5390625</ele>
        <time>2012-05-17T08:40:08Z</time>
      </trkpt>
      <trkpt lat="42.80797" lon="1.75555">
        <ele>1606.9809570312</ele>
        <time>2012-05-17T08:40:14Z</time>
      </trkpt>
      <trkpt lat="42.808" lon="1.75554">
        <ele>1607.9423828125</ele>
        <time>2012-05-17T08:40:19Z</time>
      </trkpt>
      <trkpt lat="42.80802" lon="1.75552">
        <ele>1609.3842773438</ele>
        <time>2012-05-17T08:40:23Z</time>
      </trkpt>
      <trkpt lat="42.80804" lon="1.75548">
        <ele>1610.826171875</ele>
        <time>2012-05-17T08:40:28Z</time>
      </trkpt>
      <trkpt lat="42.80807" lon="1.75548">
        <ele>1611.7875976562</ele>
        <time>2012-05-17T08:40:33Z</time>
      </trkpt>
      <trkpt lat="42.80811" lon="1.75549">
        <ele>1612.7490234375</ele>
        <time>2012-05-17T08:40:39Z</time>
      </trkpt>
      <trkpt lat="42.80814" lon="1.75551">
        <ele>1613.2297363281</ele>
        <time>2012-05-17T08:40:45Z</time>
      </trkpt>
      <trkpt lat="42.80817" lon="1.7555">
        <ele>1614.6716308594</ele>
        <time>2012-05-17T08:40:50Z</time>
      </trkpt>
      <trkpt lat="42.8082" lon="1.7555">
        <ele>1616.1135253906</ele>
        <time>2012-05-17T08:40:55Z</time>
      </trkpt>
      <trkpt lat="42.80822" lon="1.7555">
        <ele>1617.5554199219</ele>
        <time>2012-05-17T08:41:00Z</time>
      </trkpt>
      <trkpt lat="42.80826" lon="1.75552">
        <ele>1618.5168457031</ele>
        <time>2012-05-17T08:41:06Z</time>
      </trkpt>
      <trkpt lat="42.80829" lon="1.75551">
        <ele>1618.9975585938</ele>
        <time>2012-05-17T08:41:10Z</time>
      </trkpt>
      <trkpt lat="42.80833" lon="1.75548">
        <ele>1620.9201660156</ele>
        <time>2012-05-17T08:41:18Z</time>
      </trkpt>
      <trkpt lat="42.80832" lon="1.75549">
        <ele>1620.9201660156</ele>
        <time>2012-05-17T08:41:38Z</time>
      </trkpt>
      <trkpt lat="42.80834" lon="1.75552">
        <ele>1621.4006347656</ele>
        <time>2012-05-17T08:41:59Z</time>
      </trkpt>
      <trkpt lat="42.80841" lon="1.75553">
        <ele>1622.8427734375</ele>
        <time>2012-05-17T08:42:06Z</time>
      </trkpt>
      <trkpt lat="42.80843" lon="1.75553">
        <ele>1623.3234863281</ele>
        <time>2012-05-17T08:42:08Z</time>
      </trkpt>
      <trkpt lat="42.80849" lon="1.75557">
        <ele>1624.2846679688</ele>
        <time>2012-05-17T08:42:14Z</time>
      </trkpt>
      <trkpt lat="42.80851" lon="1.7556">
        <ele>1624.7653808594</ele>
        <time>2012-05-17T08:42:16Z</time>
      </trkpt>
      <trkpt lat="42.80857" lon="1.75564">
        <ele>1626.2072753906</ele>
        <time>2012-05-17T08:42:23Z</time>
      </trkpt>
      <trkpt lat="42.80862" lon="1.75569">
        <ele>1627.6491699219</ele>
        <time>2012-05-17T08:42:29Z</time>
      </trkpt>
      <trkpt lat="42.80867" lon="1.75574">
        <ele>1628.6108398438</ele>
        <time>2012-05-17T08:42:35Z</time>
      </trkpt>
      <trkpt lat="42.8087" lon="1.75581">
        <ele>1630.5334472656</ele>
        <time>2012-05-17T08:42:42Z</time>
      </trkpt>
      <trkpt lat="42.80872" lon="1.75587">
        <ele>1631.9753417969</ele>
        <time>2012-05-17T08:42:48Z</time>
      </trkpt>
      <trkpt lat="42.80874" lon="1.75593">
        <ele>1633.8979492188</ele>
        <time>2012-05-17T08:42:54Z</time>
      </trkpt>
      <trkpt lat="42.80878" lon="1.756">
        <ele>1635.8205566406</ele>
        <time>2012-05-17T08:43:02Z</time>
      </trkpt>
      <trkpt lat="42.8088" lon="1.75604">
        <ele>1637.2624511719</ele>
        <time>2012-05-17T08:43:08Z</time>
      </trkpt>
      <trkpt lat="42.80883" lon="1.75611">
        <ele>1638.7045898438</ele>
        <time>2012-05-17T08:43:16Z</time>
      </trkpt>
      <trkpt lat="42.80886" lon="1.75616">
        <ele>1640.146484375</ele>
        <time>2012-05-17T08:43:24Z</time>
      </trkpt>
      <trkpt lat="42.80888" lon="1.75619">
        <ele>1642.0690917969</ele>
        <time>2012-05-17T08:43:31Z</time>
      </trkpt>
      <trkpt lat="42.80892" lon="1.7562">
        <ele>1643.5109863281</ele>
        <time>2012-05-17T08:43:36Z</time>
      </trkpt>
      <trkpt lat="42.80895" lon="1.75624">
        <ele>1644.4724121094</ele>
        <time>2012-05-17T08:43:42Z</time>
      </trkpt>
      <trkpt lat="42.80895" lon="1.75627">
        <ele>1644.953125</ele>
        <time>2012-05-17T08:43:46Z</time>
      </trkpt>
      <trkpt lat="42.80897" lon="1.75628">
        <ele>1645.4338378906</ele>
        <time>2012-05-17T08:43:53Z</time>
      </trkpt>
      <trkpt lat="42.80901" lon="1.75629">
        <ele>1646.3952636719</ele>
        <time>2012-05-17T08:43:58Z</time>
      </trkpt>
      <trkpt lat="42.80905" lon="1.75632">
        <ele>1646.8757324219</ele>
        <time>2012-05-17T08:44:04Z</time>
      </trkpt>
      <trkpt lat="42.80907" lon="1.75632">
        <ele>1647.3564453125</ele>
        <time>2012-05-17T08:44:11Z</time>
      </trkpt>
      <trkpt lat="42.80911" lon="1.75633">
        <ele>1647.8371582031</ele>
        <time>2012-05-17T08:44:17Z</time>
      </trkpt>
      <trkpt lat="42.80913" lon="1.75634">
        <ele>1647.8371582031</ele>
        <time>2012-05-17T08:44:23Z</time>
      </trkpt>
      <trkpt lat="42.80917" lon="1.75637">
        <ele>1647.3564453125</ele>
        <time>2012-05-17T08:44:29Z</time>
      </trkpt>
      <trkpt lat="42.80917" lon="1.75638">
        <ele>1646.3952636719</ele>
        <time>2012-05-17T08:44:37Z</time>
      </trkpt>
      <trkpt lat="42.8092" lon="1.75641">
        <ele>1648.3176269531</ele>
        <time>2012-05-17T08:44:42Z</time>
      </trkpt>
      <trkpt lat="42.80922" lon="1.75646">
        <ele>1648.7983398438</ele>
        <time>2012-05-17T08:44:47Z</time>
      </trkpt>
      <trkpt lat="42.80924" lon="1.75649">
        <ele>1646.8757324219</ele>
        <time>2012-05-17T08:45:02Z</time>
      </trkpt>
      <trkpt lat="42.80928" lon="1.75652">
        <ele>1643.9916992188</ele>
        <time>2012-05-17T08:45:09Z</time>
      </trkpt>
      <trkpt lat="42.80928" lon="1.75652">
        <ele>1643.9916992188</ele>
        <time>2012-05-17T08:45:10Z</time>
      </trkpt>
      <trkpt lat="42.80927" lon="1.75651">
        <ele>1651.6823730469</ele>
        <time>2012-05-17T08:45:35Z</time>
      </trkpt>
      <trkpt lat="42.80928" lon="1.75652">
        <ele>1650.7209472656</ele>
        <time>2012-05-17T08:45:42Z</time>
      </trkpt>
      <trkpt lat="42.8093" lon="1.75657">
        <ele>1649.759765625</ele>
        <time>2012-05-17T08:45:46Z</time>
      </trkpt>
      <trkpt lat="42.80934" lon="1.75664">
        <ele>1649.759765625</ele>
        <time>2012-05-17T08:45:54Z</time>
      </trkpt>
      <trkpt lat="42.80936" lon="1.75669">
        <ele>1648.7983398438</ele>
        <time>2012-05-17T08:45:59Z</time>
      </trkpt>
      <trkpt lat="42.80937" lon="1.75678">
        <ele>1646.3952636719</ele>
        <time>2012-05-17T08:46:06Z</time>
      </trkpt>
      <trkpt lat="42.8094" lon="1.75686">
        <ele>1644.953125</ele>
        <time>2012-05-17T08:46:12Z</time>
      </trkpt>
      <trkpt lat="42.80941" lon="1.75689">
        <ele>1645.4338378906</ele>
        <time>2012-05-17T08:46:14Z</time>
      </trkpt>
      <trkpt lat="42.80944" lon="1.75698">
        <ele>1644.4724121094</ele>
        <time>2012-05-17T08:46:21Z</time>
      </trkpt>
      <trkpt lat="42.80947" lon="1.75705">
        <ele>1644.953125</ele>
        <time>2012-05-17T08:46:26Z</time>
      </trkpt>
      <trkpt lat="42.8095" lon="1.7571">
        <ele>1644.953125</ele>
        <time>2012-05-17T08:46:30Z</time>
      </trkpt>
      <trkpt lat="42.80949" lon="1.75716">
        <ele>1644.4724121094</ele>
        <time>2012-05-17T08:46:34Z</time>
      </trkpt>
      <trkpt lat="42.80947" lon="1.75725">
        <ele>1644.4724121094</ele>
        <time>2012-05-17T08:46:41Z</time>
      </trkpt>
      <trkpt lat="42.80945" lon="1.75727">
        <ele>1644.4724121094</ele>
        <time>2012-05-17T08:46:43Z</time>
      </trkpt>
      <trkpt lat="42.80944" lon="1.75729">
        <ele>1643.5109863281</ele>
        <time>2012-05-17T08:46:46Z</time>
      </trkpt>
      <trkpt lat="42.80942" lon="1.75737">
        <ele>1642.5498046875</ele>
        <time>2012-05-17T08:46:52Z</time>
      </trkpt>
      <trkpt lat="42.8094" lon="1.75742">
        <ele>1641.1076660156</ele>
        <time>2012-05-17T08:46:58Z</time>
      </trkpt>
      <trkpt lat="42.80935" lon="1.75747">
        <ele>1639.6657714844</ele>
        <time>2012-05-17T08:47:06Z</time>
      </trkpt>
      <trkpt lat="42.80932" lon="1.75754">
        <ele>1639.6657714844</ele>
        <time>2012-05-17T08:47:12Z</time>
      </trkpt>
      <trkpt lat="42.8093" lon="1.75762">
        <ele>1641.1076660156</ele>
        <time>2012-05-17T08:47:19Z</time>
      </trkpt>
      <trkpt lat="42.80927" lon="1.75768">
        <ele>1642.5498046875</ele>
        <time>2012-05-17T08:47:25Z</time>
      </trkpt>
      <trkpt lat="42.80929" lon="1.75775">
        <ele>1643.0302734375</ele>
        <time>2012-05-17T08:47:31Z</time>
      </trkpt>
      <trkpt lat="42.80933" lon="1.75783">
        <ele>1643.5109863281</ele>
        <time>2012-05-17T08:47:39Z</time>
      </trkpt>
      <trkpt lat="42.80938" lon="1.75788">
        <ele>1643.9916992188</ele>
        <time>2012-05-17T08:47:45Z</time>
      </trkpt>
      <trkpt lat="42.80939" lon="1.75792">
        <ele>1644.4724121094</ele>
        <time>2012-05-17T08:47:48Z</time>
      </trkpt>
      <trkpt lat="42.8094" lon="1.75798">
        <ele>1644.953125</ele>
        <time>2012-05-17T08:47:55Z</time>
      </trkpt>
      <trkpt lat="42.8094" lon="1.75806">
        <ele>1645.4338378906</ele>
        <time>2012-05-17T08:48:01Z</time>
      </trkpt>
      <trkpt lat="42.80942" lon="1.75811">
        <ele>1646.3952636719</ele>
        <time>2012-05-17T08:48:05Z</time>
      </trkpt>
      <trkpt lat="42.80942" lon="1.75818">
        <ele>1647.3564453125</ele>
        <time>2012-05-17T08:48:11Z</time>
      </trkpt>
      <trkpt lat="42.80939" lon="1.75822">
        <ele>1647.3564453125</ele>
        <time>2012-05-17T08:48:17Z</time>
      </trkpt>
      <trkpt lat="42.80939" lon="1.7583">
        <ele>1647.8371582031</ele>
        <time>2012-05-17T08:48:23Z</time>
      </trkpt>
      <trkpt lat="42.80939" lon="1.75836">
        <ele>1648.7983398438</ele>
        <time>2012-05-17T08:48:28Z</time>
      </trkpt>
      <trkpt lat="42.8094" lon="1.75845">
        <ele>1650.7209472656</ele>
        <time>2012-05-17T08:48:35Z</time>
      </trkpt>
      <trkpt lat="42.80941" lon="1.75851">
        <ele>1651.2016601562</ele>
        <time>2012-05-17T08:48:40Z</time>
      </trkpt>
      <trkpt lat="42.80941" lon="1.7586">
        <ele>1653.1242675781</ele>
        <time>2012-05-17T08:48:48Z</time>
      </trkpt>
      <trkpt lat="42.80943" lon="1.75868">
        <ele>1654.5661621094</ele>
        <time>2012-05-17T08:48:55Z</time>
      </trkpt>
      <trkpt lat="42.80943" lon="1.75874">
        <ele>1655.5275878906</ele>
        <time>2012-05-17T08:49:01Z</time>
      </trkpt>
      <trkpt lat="42.80943" lon="1.7588">
        <ele>1656.9694824219</ele>
        <time>2012-05-17T08:49:07Z</time>
      </trkpt>
      <trkpt lat="42.80941" lon="1.75887">
        <ele>1658.4113769531</ele>
        <time>2012-05-17T08:49:14Z</time>
      </trkpt>
      <trkpt lat="42.80941" lon="1.75894">
        <ele>1659.8532714844</ele>
        <time>2012-05-17T08:49:21Z</time>
      </trkpt>
      <trkpt lat="42.8094" lon="1.75897">
        <ele>1660.3342285156</ele>
        <time>2012-05-17T08:49:26Z</time>
      </trkpt>
      <trkpt lat="42.80939" lon="1.75902">
        <ele>1661.2956542969</ele>
        <time>2012-05-17T08:49:32Z</time>
      </trkpt>
      <trkpt lat="42.80938" lon="1.75906">
        <ele>1662.2568359375</ele>
        <time>2012-05-17T08:49:38Z</time>
      </trkpt>
      <trkpt lat="42.80938" lon="1.75913">
        <ele>1664.1794433594</ele>
        <time>2012-05-17T08:49:46Z</time>
      </trkpt>
      <trkpt lat="42.80938" lon="1.75919">
        <ele>1665.6215820312</ele>
        <time>2012-05-17T08:49:53Z</time>
      </trkpt>
      <trkpt lat="42.80936" lon="1.75923">
        <ele>1665.6215820312</ele>
        <time>2012-05-17T08:49:59Z</time>
      </trkpt>
      <trkpt lat="42.80933" lon="1.75929">
        <ele>1667.0634765625</ele>
        <time>2012-05-17T08:50:08Z</time>
      </trkpt>
      <trkpt lat="42.80931" lon="1.75932">
        <ele>1667.5439453125</ele>
        <time>2012-05-17T08:50:13Z</time>
      </trkpt>
      <trkpt lat="42.80929" lon="1.75936">
        <ele>1668.9860839844</ele>
        <time>2012-05-17T08:50:19Z</time>
      </trkpt>
      <trkpt lat="42.80928" lon="1.75937">
        <ele>1669.466796875</ele>
        <time>2012-05-17T08:50:23Z</time>
      </trkpt>
      <trkpt lat="42.80924" lon="1.75937">
        <ele>1669.466796875</ele>
        <time>2012-05-17T08:50:29Z</time>
      </trkpt>
      <trkpt lat="42.80919" lon="1.75936">
        <ele>1669.947265625</ele>
        <time>2012-05-17T08:50:36Z</time>
      </trkpt>
      <trkpt lat="42.80913" lon="1.75937">
        <ele>1671.3891601562</ele>
        <time>2012-05-17T08:50:44Z</time>
      </trkpt>
      <trkpt lat="42.80911" lon="1.7594">
        <ele>1671.8698730469</ele>
        <time>2012-05-17T08:50:48Z</time>
      </trkpt>
      <trkpt lat="42.8091" lon="1.75943">
        <ele>1673.3120117188</ele>
        <time>2012-05-17T08:50:53Z</time>
      </trkpt>
      <trkpt lat="42.8091" lon="1.75946">
        <ele>1674.2731933594</ele>
        <time>2012-05-17T08:50:57Z</time>
      </trkpt>
      <trkpt lat="42.8091" lon="1.7595">
        <ele>1675.7150878906</ele>
        <time>2012-05-17T08:51:03Z</time>
      </trkpt>
      <trkpt lat="42.80907" lon="1.75953">
        <ele>1676.6767578125</ele>
        <time>2012-05-17T08:51:09Z</time>
      </trkpt>
      <trkpt lat="42.80904" lon="1.75955">
        <ele>1678.1186523438</ele>
        <time>2012-05-17T08:51:14Z</time>
      </trkpt>
      <trkpt lat="42.80901" lon="1.75957">
        <ele>1678.5993652344</ele>
        <time>2012-05-17T08:51:19Z</time>
      </trkpt>
      <trkpt lat="42.80896" lon="1.75958">
        <ele>1679.560546875</ele>
        <time>2012-05-17T08:51:25Z</time>
      </trkpt>
      <trkpt lat="42.80895" lon="1.75959">
        <ele>1679.560546875</ele>
        <time>2012-05-17T08:51:38Z</time>
      </trkpt>
      <trkpt lat="42.80891" lon="1.7596">
        <ele>1680.0412597656</ele>
        <time>2012-05-17T08:51:44Z</time>
      </trkpt>
      <trkpt lat="42.80886" lon="1.75962">
        <ele>1680.0412597656</ele>
        <time>2012-05-17T08:51:50Z</time>
      </trkpt>
      <trkpt lat="42.80881" lon="1.75963">
        <ele>1681.0026855469</ele>
        <time>2012-05-17T08:51:58Z</time>
      </trkpt>
      <trkpt lat="42.80874" lon="1.75968">
        <ele>1682.4445800781</ele>
        <time>2012-05-17T08:52:05Z</time>
      </trkpt>
      <trkpt lat="42.80871" lon="1.75969">
        <ele>1682.4445800781</ele>
        <time>2012-05-17T08:52:09Z</time>
      </trkpt>
      <trkpt lat="42.80865" lon="1.75971">
        <ele>1683.4057617188</ele>
        <time>2012-05-17T08:52:17Z</time>
      </trkpt>
      <trkpt lat="42.80857" lon="1.75972">
        <ele>1684.8479003906</ele>
        <time>2012-05-17T08:52:26Z</time>
      </trkpt>
      <trkpt lat="42.80857" lon="1.75971">
        <ele>1684.8479003906</ele>
        <time>2012-05-17T08:52:33Z</time>
      </trkpt>
      <trkpt lat="42.80854" lon="1.75972">
        <ele>1684.8479003906</ele>
        <time>2012-05-17T08:52:40Z</time>
      </trkpt>
      <trkpt lat="42.80853" lon="1.75973">
        <ele>1686.2897949219</ele>
        <time>2012-05-17T08:52:49Z</time>
      </trkpt>
      <trkpt lat="42.80851" lon="1.75972">
        <ele>1686.2897949219</ele>
        <time>2012-05-17T08:52:58Z</time>
      </trkpt>
      <trkpt lat="42.80846" lon="1.75973">
        <ele>1686.7702636719</ele>
        <time>2012-05-17T08:53:05Z</time>
      </trkpt>
      <trkpt lat="42.80844" lon="1.75974">
        <ele>1687.2509765625</ele>
        <time>2012-05-17T08:53:12Z</time>
      </trkpt>
      <trkpt lat="42.80842" lon="1.75974">
        <ele>1687.7316894531</ele>
        <time>2012-05-17T08:53:19Z</time>
      </trkpt>
      <trkpt lat="42.80841" lon="1.75974">
        <ele>1688.2124023438</ele>
        <time>2012-05-17T08:53:27Z</time>
      </trkpt>
      <trkpt lat="42.80837" lon="1.75978">
        <ele>1689.1735839844</ele>
        <time>2012-05-17T08:53:33Z</time>
      </trkpt>
      <trkpt lat="42.80829" lon="1.75981">
        <ele>1690.6154785156</ele>
        <time>2012-05-17T08:53:42Z</time>
      </trkpt>
      <trkpt lat="42.80825" lon="1.75982">
        <ele>1691.0961914062</ele>
        <time>2012-05-17T08:53:48Z</time>
      </trkpt>
      <trkpt lat="42.80817" lon="1.7599">
        <ele>1691.0961914062</ele>
        <time>2012-05-17T08:53:58Z</time>
      </trkpt>
      <trkpt lat="42.80811" lon="1.75991">
        <ele>1690.6154785156</ele>
        <time>2012-05-17T08:54:04Z</time>
      </trkpt>
      <trkpt lat="42.80803" lon="1.75993">
        <ele>1690.6154785156</ele>
        <time>2012-05-17T08:54:12Z</time>
      </trkpt>
      <trkpt lat="42.80797" lon="1.75996">
        <ele>1691.5769042969</ele>
        <time>2012-05-17T08:54:18Z</time>
      </trkpt>
      <trkpt lat="42.80794" lon="1.75998">
        <ele>1692.0578613281</ele>
        <time>2012-05-17T08:54:21Z</time>
      </trkpt>
      <trkpt lat="42.8079" lon="1.75999">
        <ele>1692.5385742188</ele>
        <time>2012-05-17T08:54:25Z</time>
      </trkpt>
      <trkpt lat="42.80783" lon="1.76002">
        <ele>1693.4997558594</ele>
        <time>2012-05-17T08:54:32Z</time>
      </trkpt>
      <trkpt lat="42.80781" lon="1.76003">
        <ele>1694.4609375</ele>
        <time>2012-05-17T08:54:34Z</time>
      </trkpt>
      <trkpt lat="42.80775" lon="1.76004">
        <ele>1696.3837890625</ele>
        <time>2012-05-17T08:54:42Z</time>
      </trkpt>
      <trkpt lat="42.80769" lon="1.76009">
        <ele>1697.3449707031</ele>
        <time>2012-05-17T08:54:49Z</time>
      </trkpt>
      <trkpt lat="42.80764" lon="1.76013">
        <ele>1698.3061523438</ele>
        <time>2012-05-17T08:54:56Z</time>
      </trkpt>
      <trkpt lat="42.80759" lon="1.76016">
        <ele>1699.267578125</ele>
        <time>2012-05-17T08:55:02Z</time>
      </trkpt>
      <trkpt lat="42.80753" lon="1.76018">
        <ele>1699.7482910156</ele>
        <time>2012-05-17T08:55:09Z</time>
      </trkpt>
      <trkpt lat="42.80745" lon="1.7602">
        <ele>1701.1901855469</ele>
        <time>2012-05-17T08:55:17Z</time>
      </trkpt>
      <trkpt lat="42.80737" lon="1.76022">
        <ele>1702.6320800781</ele>
        <time>2012-05-17T08:55:25Z</time>
      </trkpt>
      <trkpt lat="42.80729" lon="1.76024">
        <ele>1704.07421875</ele>
        <time>2012-05-17T08:55:32Z</time>
      </trkpt>
      <trkpt lat="42.80723" lon="1.76027">
        <ele>1705.5161132812</ele>
        <time>2012-05-17T08:55:40Z</time>
      </trkpt>
      <trkpt lat="42.80717" lon="1.7603">
        <ele>1705.9965820312</ele>
        <time>2012-05-17T08:55:46Z</time>
      </trkpt>
      <trkpt lat="42.80713" lon="1.76031">
        <ele>1706.4772949219</ele>
        <time>2012-05-17T08:55:50Z</time>
      </trkpt>
      <trkpt lat="42.80706" lon="1.76038">
        <ele>1707.9194335938</ele>
        <time>2012-05-17T08:55:59Z</time>
      </trkpt>
      <trkpt lat="42.807" lon="1.76042">
        <ele>1708.880859375</ele>
        <time>2012-05-17T08:56:06Z</time>
      </trkpt>
      <trkpt lat="42.80693" lon="1.76048">
        <ele>1709.8420410156</ele>
        <time>2012-05-17T08:56:14Z</time>
      </trkpt>
      <trkpt lat="42.80688" lon="1.76054">
        <ele>1709.8420410156</ele>
        <time>2012-05-17T08:56:22Z</time>
      </trkpt>
      <trkpt lat="42.80681" lon="1.76061">
        <ele>1709.8420410156</ele>
        <time>2012-05-17T08:56:30Z</time>
      </trkpt>
      <trkpt lat="42.80674" lon="1.76067">
        <ele>1709.8420410156</ele>
        <time>2012-05-17T08:56:37Z</time>
      </trkpt>
      <trkpt lat="42.80668" lon="1.76075">
        <ele>1710.3227539062</ele>
        <time>2012-05-17T08:56:45Z</time>
      </trkpt>
      <trkpt lat="42.80663" lon="1.76083">
        <ele>1710.8034667969</ele>
        <time>2012-05-17T08:56:52Z</time>
      </trkpt>
      <trkpt lat="42.80662" lon="1.76083">
        <ele>1710.8034667969</ele>
        <time>2012-05-17T08:56:53Z</time>
      </trkpt>
      <trkpt lat="42.80658" lon="1.76093">
        <ele>1712.7260742188</ele>
        <time>2012-05-17T08:57:01Z</time>
      </trkpt>
      <trkpt lat="42.80655" lon="1.761">
        <ele>1713.6872558594</ele>
        <time>2012-05-17T08:57:07Z</time>
      </trkpt>
      <trkpt lat="42.80652" lon="1.76106">
        <ele>1714.6486816406</ele>
        <time>2012-05-17T08:57:12Z</time>
      </trkpt>
      <trkpt lat="42.80648" lon="1.76115">
        <ele>1715.6101074219</ele>
        <time>2012-05-17T08:57:20Z</time>
      </trkpt>
      <trkpt lat="42.80648" lon="1.76119">
        <ele>1716.0905761719</ele>
        <time>2012-05-17T08:57:25Z</time>
      </trkpt>
      <trkpt lat="42.80644" lon="1.76126">
        <ele>1716.0905761719</ele>
        <time>2012-05-17T08:57:31Z</time>
      </trkpt>
      <trkpt lat="42.80639" lon="1.76134">
        <ele>1716.5712890625</ele>
        <time>2012-05-17T08:57:38Z</time>
      </trkpt>
      <trkpt lat="42.80637" lon="1.76141">
        <ele>1717.5324707031</ele>
        <time>2012-05-17T08:57:43Z</time>
      </trkpt>
      <trkpt lat="42.80635" lon="1.76147">
        <ele>1718.974609375</ele>
        <time>2012-05-17T08:57:48Z</time>
      </trkpt>
      <trkpt lat="42.8063" lon="1.76158">
        <ele>1719.9357910156</ele>
        <time>2012-05-17T08:57:57Z</time>
      </trkpt>
      <trkpt lat="42.80626" lon="1.76166">
        <ele>1720.8972167969</ele>
        <time>2012-05-17T08:58:05Z</time>
      </trkpt>
      <trkpt lat="42.80624" lon="1.7617">
        <ele>1720.8972167969</ele>
        <time>2012-05-17T08:58:10Z</time>
      </trkpt>
      <trkpt lat="42.8062" lon="1.76177">
        <ele>1720.8972167969</ele>
        <time>2012-05-17T08:58:16Z</time>
      </trkpt>
      <trkpt lat="42.80616" lon="1.76183">
        <ele>1720.4165039062</ele>
        <time>2012-05-17T08:58:22Z</time>
      </trkpt>
      <trkpt lat="42.8061" lon="1.76194">
        <ele>1720.4165039062</ele>
        <time>2012-05-17T08:58:30Z</time>
      </trkpt>
      <trkpt lat="42.80605" lon="1.76203">
        <ele>1720.8972167969</ele>
        <time>2012-05-17T08:58:37Z</time>
      </trkpt>
      <trkpt lat="42.80601" lon="1.76211">
        <ele>1721.3776855469</ele>
        <time>2012-05-17T08:58:44Z</time>
      </trkpt>
      <trkpt lat="42.80601" lon="1.76216">
        <ele>1722.8198242188</ele>
        <time>2012-05-17T08:58:49Z</time>
      </trkpt>
      <trkpt lat="42.80601" lon="1.76221">
        <ele>1723.3005371094</ele>
        <time>2012-05-17T08:58:54Z</time>
      </trkpt>
      <trkpt lat="42.80599" lon="1.76228">
        <ele>1724.7426757812</ele>
        <time>2012-05-17T08:59:00Z</time>
      </trkpt>
      <trkpt lat="42.80597" lon="1.76234">
        <ele>1725.2231445312</ele>
        <time>2012-05-17T08:59:06Z</time>
      </trkpt>
      <trkpt lat="42.80595" lon="1.76242">
        <ele>1727.1459960938</ele>
        <time>2012-05-17T08:59:13Z</time>
      </trkpt>
      <trkpt lat="42.80593" lon="1.76247">
        <ele>1727.6264648438</ele>
        <time>2012-05-17T08:59:18Z</time>
      </trkpt>
      <trkpt lat="42.80592" lon="1.76253">
        <ele>1728.587890625</ele>
        <time>2012-05-17T08:59:24Z</time>
      </trkpt>
      <trkpt lat="42.80592" lon="1.76258">
        <ele>1729.5490722656</ele>
        <time>2012-05-17T08:59:30Z</time>
      </trkpt>
      <trkpt lat="42.8059" lon="1.76264">
        <ele>1730.0297851562</ele>
        <time>2012-05-17T08:59:36Z</time>
      </trkpt>
      <trkpt lat="42.80588" lon="1.76272">
        <ele>1730.9912109375</ele>
        <time>2012-05-17T08:59:44Z</time>
      </trkpt>
      <trkpt lat="42.80589" lon="1.76275">
        <ele>1731.9523925781</ele>
        <time>2012-05-17T08:59:49Z</time>
      </trkpt>
      <trkpt lat="42.80587" lon="1.76281">
        <ele>1732.9135742188</ele>
        <time>2012-05-17T08:59:54Z</time>
      </trkpt>
      <trkpt lat="42.80587" lon="1.76286">
        <ele>1732.9135742188</ele>
        <time>2012-05-17T09:00:00Z</time>
      </trkpt>
      <trkpt lat="42.80589" lon="1.76289">
        <ele>1734.3557128906</ele>
        <time>2012-05-17T09:00:06Z</time>
      </trkpt>
      <trkpt lat="42.80587" lon="1.76293">
        <ele>1735.3168945312</ele>
        <time>2012-05-17T09:00:11Z</time>
      </trkpt>
      <trkpt lat="42.80587" lon="1.76297">
        <ele>1736.2783203125</ele>
        <time>2012-05-17T09:00:17Z</time>
      </trkpt>
      <trkpt lat="42.80585" lon="1.76304">
        <ele>1737.2395019531</ele>
        <time>2012-05-17T09:00:24Z</time>
      </trkpt>
      <trkpt lat="42.80585" lon="1.76309">
        <ele>1737.2395019531</ele>
        <time>2012-05-17T09:00:29Z</time>
      </trkpt>
      <trkpt lat="42.80586" lon="1.76313">
        <ele>1738.681640625</ele>
        <time>2012-05-17T09:00:35Z</time>
      </trkpt>
      <trkpt lat="42.80588" lon="1.76316">
        <ele>1740.6042480469</ele>
        <time>2012-05-17T09:00:41Z</time>
      </trkpt>
      <trkpt lat="42.80589" lon="1.7632">
        <ele>1742.0463867188</ele>
        <time>2012-05-17T09:00:47Z</time>
      </trkpt>
      <trkpt lat="42.80589" lon="1.76325">
        <ele>1743.9689941406</ele>
        <time>2012-05-17T09:00:53Z</time>
      </trkpt>
      <trkpt lat="42.80591" lon="1.76328">
        <ele>1743.9689941406</ele>
        <time>2012-05-17T09:00:59Z</time>
      </trkpt>
      <trkpt lat="42.80592" lon="1.76332">
        <ele>1744.9301757812</ele>
        <time>2012-05-17T09:01:04Z</time>
      </trkpt>
      <trkpt lat="42.80593" lon="1.76336">
        <ele>1745.4108886719</ele>
        <time>2012-05-17T09:01:10Z</time>
      </trkpt>
      <trkpt lat="42.80593" lon="1.76342">
        <ele>1746.3723144531</ele>
        <time>2012-05-17T09:01:17Z</time>
      </trkpt>
      <trkpt lat="42.80592" lon="1.76348">
        <ele>1747.8142089844</ele>
        <time>2012-05-17T09:01:24Z</time>
      </trkpt>
      <trkpt lat="42.80593" lon="1.76351">
        <ele>1747.8142089844</ele>
        <time>2012-05-17T09:01:28Z</time>
      </trkpt>
      <trkpt lat="42.80595" lon="1.76355">
        <ele>1748.775390625</ele>
        <time>2012-05-17T09:01:34Z</time>
      </trkpt>
      <trkpt lat="42.80595" lon="1.76359">
        <ele>1749.7368164062</ele>
        <time>2012-05-17T09:01:39Z</time>
      </trkpt>
      <trkpt lat="42.80595" lon="1.76364">
        <ele>1750.6979980469</ele>
        <time>2012-05-17T09:01:44Z</time>
      </trkpt>
      <trkpt lat="42.80599" lon="1.76365">
        <ele>1751.6594238281</ele>
        <time>2012-05-17T09:01:52Z</time>
      </trkpt>
      <trkpt lat="42.80602" lon="1.76365">
        <ele>1754.0627441406</ele>
        <time>2012-05-17T09:01:59Z</time>
      </trkpt>
      <trkpt lat="42.80603" lon="1.76367">
        <ele>1755.0239257812</ele>
        <time>2012-05-17T09:02:04Z</time>
      </trkpt>
      <trkpt lat="42.80604" lon="1.76372">
        <ele>1755.9851074219</ele>
        <time>2012-05-17T09:02:11Z</time>
      </trkpt>
      <trkpt lat="42.80606" lon="1.76377">
        <ele>1757.4274902344</ele>
        <time>2012-05-17T09:02:17Z</time>
      </trkpt>
      <trkpt lat="42.80608" lon="1.76379">
        <ele>1758.388671875</ele>
        <time>2012-05-17T09:02:23Z</time>
      </trkpt>
      <trkpt lat="42.80611" lon="1.76379">
        <ele>1759.3500976562</ele>
        <time>2012-05-17T09:02:28Z</time>
      </trkpt>
      <trkpt lat="42.80614" lon="1.76381">
        <ele>1760.3112792969</ele>
        <time>2012-05-17T09:02:33Z</time>
      </trkpt>
      <trkpt lat="42.80615" lon="1.76385">
        <ele>1761.2727050781</ele>
        <time>2012-05-17T09:02:38Z</time>
      </trkpt>
      <trkpt lat="42.80619" lon="1.7639">
        <ele>1761.7534179688</ele>
        <time>2012-05-17T09:02:45Z</time>
      </trkpt>
      <trkpt lat="42.80621" lon="1.76395">
        <ele>1762.7145996094</ele>
        <time>2012-05-17T09:02:52Z</time>
      </trkpt>
      <trkpt lat="42.80622" lon="1.76395">
        <ele>1763.1953125</ele>
        <time>2012-05-17T09:03:01Z</time>
      </trkpt>
      <trkpt lat="42.80622" lon="1.76395">
        <ele>1763.67578125</ele>
        <time>2012-05-17T09:03:11Z</time>
      </trkpt>
      <trkpt lat="42.80623" lon="1.76397">
        <ele>1763.67578125</ele>
        <time>2012-05-17T09:03:18Z</time>
      </trkpt>
      <trkpt lat="42.80623" lon="1.76403">
        <ele>1764.6372070312</ele>
        <time>2012-05-17T09:03:23Z</time>
      </trkpt>
      <trkpt lat="42.80627" lon="1.7641">
        <ele>1766.0791015625</ele>
        <time>2012-05-17T09:03:30Z</time>
      </trkpt>
      <trkpt lat="42.80632" lon="1.76414">
        <ele>1767.0405273438</ele>
        <time>2012-05-17T09:03:36Z</time>
      </trkpt>
      <trkpt lat="42.80636" lon="1.76418">
        <ele>1768.0017089844</ele>
        <time>2012-05-17T09:03:42Z</time>
      </trkpt>
      <trkpt lat="42.80641" lon="1.76417">
        <ele>1769.4438476562</ele>
        <time>2012-05-17T09:03:48Z</time>
      </trkpt>
      <trkpt lat="42.80642" lon="1.76417">
        <ele>1769.4438476562</ele>
        <time>2012-05-17T09:03:54Z</time>
      </trkpt>
      <trkpt lat="42.80645" lon="1.76415">
        <ele>1769.9243164062</ele>
        <time>2012-05-17T09:04:05Z</time>
      </trkpt>
      <trkpt lat="42.80649" lon="1.76411">
        <ele>1772.3278808594</ele>
        <time>2012-05-17T09:04:12Z</time>
      </trkpt>
      <trkpt lat="42.80653" lon="1.76409">
        <ele>1773.7697753906</ele>
        <time>2012-05-17T09:04:18Z</time>
      </trkpt>
      <trkpt lat="42.80658" lon="1.76407">
        <ele>1775.2116699219</ele>
        <time>2012-05-17T09:04:25Z</time>
      </trkpt>
      <trkpt lat="42.80661" lon="1.76407">
        <ele>1776.1730957031</ele>
        <time>2012-05-17T09:04:30Z</time>
      </trkpt>
      <trkpt lat="42.80663" lon="1.76411">
        <ele>1776.1730957031</ele>
        <time>2012-05-17T09:04:36Z</time>
      </trkpt>
      <trkpt lat="42.80664" lon="1.76415">
        <ele>1777.1345214844</ele>
        <time>2012-05-17T09:04:42Z</time>
      </trkpt>
      <trkpt lat="42.80665" lon="1.76422">
        <ele>1777.6149902344</ele>
        <time>2012-05-17T09:04:48Z</time>
      </trkpt>
      <trkpt lat="42.80666" lon="1.76427">
        <ele>1778.5764160156</ele>
        <time>2012-05-17T09:04:54Z</time>
      </trkpt>
      <trkpt lat="42.80665" lon="1.76433">
        <ele>1779.0568847656</ele>
        <time>2012-05-17T09:04:59Z</time>
      </trkpt>
      <trkpt lat="42.80665" lon="1.76437">
        <ele>1779.5375976562</ele>
        <time>2012-05-17T09:05:04Z</time>
      </trkpt>
      <trkpt lat="42.80664" lon="1.76443">
        <ele>1780.0183105469</ele>
        <time>2012-05-17T09:05:10Z</time>
      </trkpt>
      <trkpt lat="42.80664" lon="1.76448">
        <ele>1780.4990234375</ele>
        <time>2012-05-17T09:05:15Z</time>
      </trkpt>
      <trkpt lat="42.80663" lon="1.76453">
        <ele>1781.4602050781</ele>
        <time>2012-05-17T09:05:20Z</time>
      </trkpt>
      <trkpt lat="42.80662" lon="1.76458">
        <ele>1782.4216308594</ele>
        <time>2012-05-17T09:05:25Z</time>
      </trkpt>
      <trkpt lat="42.80661" lon="1.76465">
        <ele>1783.3828125</ele>
        <time>2012-05-17T09:05:31Z</time>
      </trkpt>
      <trkpt lat="42.80659" lon="1.76471">
        <ele>1783.8635253906</ele>
        <time>2012-05-17T09:05:38Z</time>
      </trkpt>
      <trkpt lat="42.8066" lon="1.7648">
        <ele>1785.3054199219</ele>
        <time>2012-05-17T09:05:47Z</time>
      </trkpt>
      <trkpt lat="42.80661" lon="1.76488">
        <ele>1786.7473144531</ele>
        <time>2012-05-17T09:05:55Z</time>
      </trkpt>
      <trkpt lat="42.8066" lon="1.76496">
        <ele>1787.2280273438</ele>
        <time>2012-05-17T09:06:02Z</time>
      </trkpt>
      <trkpt lat="42.80662" lon="1.765">
        <ele>1789.1508789062</ele>
        <time>2012-05-17T09:06:07Z</time>
      </trkpt>
      <trkpt lat="42.80663" lon="1.76505">
        <ele>1790.5927734375</ele>
        <time>2012-05-17T09:06:13Z</time>
      </trkpt>
      <trkpt lat="42.80664" lon="1.76508">
        <ele>1791.0734863281</ele>
        <time>2012-05-17T09:06:17Z</time>
      </trkpt>
      <trkpt lat="42.80666" lon="1.76512">
        <ele>1791.5541992188</ele>
        <time>2012-05-17T09:06:23Z</time>
      </trkpt>
      <trkpt lat="42.80669" lon="1.7651">
        <ele>1792.99609375</ele>
        <time>2012-05-17T09:06:30Z</time>
      </trkpt>
      <trkpt lat="42.80674" lon="1.76512">
        <ele>1794.9187011719</ele>
        <time>2012-05-17T09:06:37Z</time>
      </trkpt>
      <trkpt lat="42.80677" lon="1.76511">
        <ele>1795.8801269531</ele>
        <time>2012-05-17T09:06:42Z</time>
      </trkpt>
      <trkpt lat="42.8068" lon="1.76511">
        <ele>1797.802734375</ele>
        <time>2012-05-17T09:06:49Z</time>
      </trkpt>
      <trkpt lat="42.80684" lon="1.76509">
        <ele>1798.7639160156</ele>
        <time>2012-05-17T09:06:54Z</time>
      </trkpt>
      <trkpt lat="42.80687" lon="1.76508">
        <ele>1800.2060546875</ele>
        <time>2012-05-17T09:06:59Z</time>
      </trkpt>
      <trkpt lat="42.80688" lon="1.76513">
        <ele>1800.6865234375</ele>
        <time>2012-05-17T09:07:04Z</time>
      </trkpt>
      <trkpt lat="42.80688" lon="1.76517">
        <ele>1800.6865234375</ele>
        <time>2012-05-17T09:07:10Z</time>
      </trkpt>
      <trkpt lat="42.80687" lon="1.76521">
        <ele>1800.6865234375</ele>
        <time>2012-05-17T09:07:16Z</time>
      </trkpt>
      <trkpt lat="42.80685" lon="1.76525">
        <ele>1801.6479492188</ele>
        <time>2012-05-17T09:07:22Z</time>
      </trkpt>
      <trkpt lat="42.80685" lon="1.76529">
        <ele>1802.6091308594</ele>
        <time>2012-05-17T09:07:28Z</time>
      </trkpt>
      <trkpt lat="42.80685" lon="1.76534">
        <ele>1805.0126953125</ele>
        <time>2012-05-17T09:07:36Z</time>
      </trkpt>
      <trkpt lat="42.80685" lon="1.76538">
        <ele>1805.9738769531</ele>
        <time>2012-05-17T09:07:42Z</time>
      </trkpt>
      <trkpt lat="42.80685" lon="1.76543">
        <ele>1806.9353027344</ele>
        <time>2012-05-17T09:07:49Z</time>
      </trkpt>
      <trkpt lat="42.80685" lon="1.76547">
        <ele>1807.416015625</ele>
        <time>2012-05-17T09:07:54Z</time>
      </trkpt>
      <trkpt lat="42.80686" lon="1.7655">
        <ele>1808.3771972656</ele>
        <time>2012-05-17T09:08:00Z</time>
      </trkpt>
      <trkpt lat="42.80687" lon="1.76554">
        <ele>1809.3386230469</ele>
        <time>2012-05-17T09:08:05Z</time>
      </trkpt>
      <trkpt lat="42.80687" lon="1.7656">
        <ele>1811.2612304688</ele>
        <time>2012-05-17T09:08:12Z</time>
      </trkpt>
      <trkpt lat="42.80687" lon="1.76564">
        <ele>1812.703125</ele>
        <time>2012-05-17T09:08:20Z</time>
      </trkpt>
      <trkpt lat="42.80686" lon="1.76569">
        <ele>1812.703125</ele>
        <time>2012-05-17T09:08:25Z</time>
      </trkpt>
      <trkpt lat="42.80687" lon="1.76574">
        <ele>1813.6643066406</ele>
        <time>2012-05-17T09:08:31Z</time>
      </trkpt>
      <trkpt lat="42.80687" lon="1.76577">
        <ele>1814.1450195312</ele>
        <time>2012-05-17T09:08:36Z</time>
      </trkpt>
      <trkpt lat="42.80688" lon="1.76582">
        <ele>1815.5871582031</ele>
        <time>2012-05-17T09:08:43Z</time>
      </trkpt>
      <trkpt lat="42.8069" lon="1.76589">
        <ele>1818.9516601562</ele>
        <time>2012-05-17T09:08:51Z</time>
      </trkpt>
      <trkpt lat="42.8069" lon="1.76592">
        <ele>1819.9128417969</ele>
        <time>2012-05-17T09:08:57Z</time>
      </trkpt>
      <trkpt lat="42.8069" lon="1.76595">
        <ele>1820.3937988281</ele>
        <time>2012-05-17T09:09:02Z</time>
      </trkpt>
      <trkpt lat="42.80691" lon="1.76594">
        <ele>1819.9128417969</ele>
        <time>2012-05-17T09:09:21Z</time>
      </trkpt>
      <trkpt lat="42.80691" lon="1.76599">
        <ele>1820.8745117188</ele>
        <time>2012-05-17T09:09:31Z</time>
      </trkpt>
      <trkpt lat="42.80692" lon="1.76606">
        <ele>1822.31640625</ele>
        <time>2012-05-17T09:09:38Z</time>
      </trkpt>
      <trkpt lat="42.80692" lon="1.76612">
        <ele>1822.7971191406</ele>
        <time>2012-05-17T09:09:44Z</time>
      </trkpt>
      <trkpt lat="42.80693" lon="1.76616">
        <ele>1824.2390136719</ele>
        <time>2012-05-17T09:09:50Z</time>
      </trkpt>
      <trkpt lat="42.80695" lon="1.76621">
        <ele>1826.1616210938</ele>
        <time>2012-05-17T09:09:56Z</time>
      </trkpt>
      <trkpt lat="42.80695" lon="1.76625">
        <ele>1826.6423339844</ele>
        <time>2012-05-17T09:10:01Z</time>
      </trkpt>
      <trkpt lat="42.80695" lon="1.76631">
        <ele>1828.5649414062</ele>
        <time>2012-05-17T09:10:07Z</time>
      </trkpt>
      <trkpt lat="42.80695" lon="1.76637">
        <ele>1830.0068359375</ele>
        <time>2012-05-17T09:10:13Z</time>
      </trkpt>
      <trkpt lat="42.80696" lon="1.76641">
        <ele>1830.9682617188</ele>
        <time>2012-05-17T09:10:19Z</time>
      </trkpt>
      <trkpt lat="42.80698" lon="1.76647">
        <ele>1832.41015625</ele>
        <time>2012-05-17T09:10:26Z</time>
      </trkpt>
      <trkpt lat="42.80698" lon="1.76653">
        <ele>1833.8520507812</ele>
        <time>2012-05-17T09:10:33Z</time>
      </trkpt>
      <trkpt lat="42.80697" lon="1.76659">
        <ele>1834.3327636719</ele>
        <time>2012-05-17T09:10:39Z</time>
      </trkpt>
      <trkpt lat="42.80697" lon="1.76666">
        <ele>1835.7746582031</ele>
        <time>2012-05-17T09:10:47Z</time>
      </trkpt>
      <trkpt lat="42.80698" lon="1.7667">
        <ele>1836.7360839844</ele>
        <time>2012-05-17T09:10:52Z</time>
      </trkpt>
      <trkpt lat="42.80698" lon="1.76675">
        <ele>1837.6975097656</ele>
        <time>2012-05-17T09:10:58Z</time>
      </trkpt>
      <trkpt lat="42.80697" lon="1.76679">
        <ele>1838.1782226562</ele>
        <time>2012-05-17T09:11:03Z</time>
      </trkpt>
      <trkpt lat="42.80697" lon="1.76685">
        <ele>1839.1394042969</ele>
        <time>2012-05-17T09:11:09Z</time>
      </trkpt>
      <trkpt lat="42.80698" lon="1.76689">
        <ele>1839.6201171875</ele>
        <time>2012-05-17T09:11:15Z</time>
      </trkpt>
      <trkpt lat="42.80698" lon="1.76695">
        <ele>1840.5812988281</ele>
        <time>2012-05-17T09:11:22Z</time>
      </trkpt>
      <trkpt lat="42.80698" lon="1.767">
        <ele>1842.5041503906</ele>
        <time>2012-05-17T09:11:28Z</time>
      </trkpt>
      <trkpt lat="42.80699" lon="1.76701">
        <ele>1843.9460449219</ele>
        <time>2012-05-17T09:11:35Z</time>
      </trkpt>
      <trkpt lat="42.80699" lon="1.76703">
        <ele>1843.9460449219</ele>
        <time>2012-05-17T09:11:47Z</time>
      </trkpt>
      <trkpt lat="42.80699" lon="1.76709">
        <ele>1844.9072265625</ele>
        <time>2012-05-17T09:11:55Z</time>
      </trkpt>
      <trkpt lat="42.80699" lon="1.76713">
        <ele>1845.3879394531</ele>
        <time>2012-05-17T09:12:00Z</time>
      </trkpt>
      <trkpt lat="42.80699" lon="1.76718">
        <ele>1846.8298339844</ele>
        <time>2012-05-17T09:12:06Z</time>
      </trkpt>
      <trkpt lat="42.807" lon="1.76722">
        <ele>1848.2717285156</ele>
        <time>2012-05-17T09:12:11Z</time>
      </trkpt>
      <trkpt lat="42.807" lon="1.76727">
        <ele>1849.7138671875</ele>
        <time>2012-05-17T09:12:17Z</time>
      </trkpt>
      <trkpt lat="42.80701" lon="1.76732">
        <ele>1851.1557617188</ele>
        <time>2012-05-17T09:12:24Z</time>
      </trkpt>
      <trkpt lat="42.80701" lon="1.76737">
        <ele>1852.1171875</ele>
        <time>2012-05-17T09:12:29Z</time>
      </trkpt>
      <trkpt lat="42.80702" lon="1.76741">
        <ele>1853.5593261719</ele>
        <time>2012-05-17T09:12:35Z</time>
      </trkpt>
      <trkpt lat="42.80702" lon="1.76747">
        <ele>1854.5205078125</ele>
        <time>2012-05-17T09:12:43Z</time>
      </trkpt>
      <trkpt lat="42.80703" lon="1.7675">
        <ele>1855.4819335938</ele>
        <time>2012-05-17T09:12:49Z</time>
      </trkpt>
      <trkpt lat="42.80703" lon="1.76754">
        <ele>1856.4431152344</ele>
        <time>2012-05-17T09:12:54Z</time>
      </trkpt>
      <trkpt lat="42.80703" lon="1.76759">
        <ele>1857.8852539062</ele>
        <time>2012-05-17T09:13:01Z</time>
      </trkpt>
      <trkpt lat="42.80703" lon="1.76764">
        <ele>1858.8464355469</ele>
        <time>2012-05-17T09:13:08Z</time>
      </trkpt>
      <trkpt lat="42.80704" lon="1.76768">
        <ele>1859.3271484375</ele>
        <time>2012-05-17T09:13:13Z</time>
      </trkpt>
      <trkpt lat="42.80705" lon="1.76772">
        <ele>1860.2883300781</ele>
        <time>2012-05-17T09:13:18Z</time>
      </trkpt>
      <trkpt lat="42.80706" lon="1.76776">
        <ele>1861.73046875</ele>
        <time>2012-05-17T09:13:24Z</time>
      </trkpt>
      <trkpt lat="42.80708" lon="1.7678">
        <ele>1862.6916503906</ele>
        <time>2012-05-17T09:13:30Z</time>
      </trkpt>
      <trkpt lat="42.8071" lon="1.7678">
        <ele>1863.6528320312</ele>
        <time>2012-05-17T09:13:36Z</time>
      </trkpt>
      <trkpt lat="42.80713" lon="1.76778">
        <ele>1865.0949707031</ele>
        <time>2012-05-17T09:13:42Z</time>
      </trkpt>
      <trkpt lat="42.80716" lon="1.76776">
        <ele>1866.5368652344</ele>
        <time>2012-05-17T09:13:48Z</time>
      </trkpt>
      <trkpt lat="42.80716" lon="1.76775">
        <ele>1867.017578125</ele>
        <time>2012-05-17T09:13:55Z</time>
      </trkpt>
      <trkpt lat="42.80716" lon="1.76775">
        <ele>1866.5368652344</ele>
        <time>2012-05-17T09:14:08Z</time>
      </trkpt>
      <trkpt lat="42.80717" lon="1.76777">
        <ele>1867.017578125</ele>
        <time>2012-05-17T09:14:19Z</time>
      </trkpt>
      <trkpt lat="42.80719" lon="1.76779">
        <ele>1867.9787597656</ele>
        <time>2012-05-17T09:14:25Z</time>
      </trkpt>
      <trkpt lat="42.80722" lon="1.7678">
        <ele>1869.4211425781</ele>
        <time>2012-05-17T09:14:32Z</time>
      </trkpt>
      <trkpt lat="42.80725" lon="1.76781">
        <ele>1870.8630371094</ele>
        <time>2012-05-17T09:14:41Z</time>
      </trkpt>
      <trkpt lat="42.80728" lon="1.76779">
        <ele>1872.3049316406</ele>
        <time>2012-05-17T09:14:48Z</time>
      </trkpt>
      <trkpt lat="42.8073" lon="1.7678">
        <ele>1873.2663574219</ele>
        <time>2012-05-17T09:14:54Z</time>
      </trkpt>
      <trkpt lat="42.80733" lon="1.76782">
        <ele>1874.2275390625</ele>
        <time>2012-05-17T09:14:59Z</time>
      </trkpt>
      <trkpt lat="42.80735" lon="1.76784">
        <ele>1875.1887207031</ele>
        <time>2012-05-17T09:15:05Z</time>
      </trkpt>
      <trkpt lat="42.80738" lon="1.76785">
        <ele>1876.1501464844</ele>
        <time>2012-05-17T09:15:10Z</time>
      </trkpt>
      <trkpt lat="42.80741" lon="1.76786">
        <ele>1877.1115722656</ele>
        <time>2012-05-17T09:15:15Z</time>
      </trkpt>
      <trkpt lat="42.80744" lon="1.76787">
        <ele>1877.5920410156</ele>
        <time>2012-05-17T09:15:21Z</time>
      </trkpt>
      <trkpt lat="42.80747" lon="1.7679">
        <ele>1879.5146484375</ele>
        <time>2012-05-17T09:15:29Z</time>
      </trkpt>
      <trkpt lat="42.8075" lon="1.7679">
        <ele>1880.9567871094</ele>
        <time>2012-05-17T09:15:35Z</time>
      </trkpt>
      <trkpt lat="42.80754" lon="1.7679">
        <ele>1882.3986816406</ele>
        <time>2012-05-17T09:15:42Z</time>
      </trkpt>
      <trkpt lat="42.80757" lon="1.76788">
        <ele>1884.3215332031</ele>
        <time>2012-05-17T09:15:48Z</time>
      </trkpt>
      <trkpt lat="42.8076" lon="1.76789">
        <ele>1885.7634277344</ele>
        <time>2012-05-17T09:15:56Z</time>
      </trkpt>
      <trkpt lat="42.80761" lon="1.76789">
        <ele>1886.724609375</ele>
        <time>2012-05-17T09:16:10Z</time>
      </trkpt>
      <trkpt lat="42.80765" lon="1.76788">
        <ele>1887.6860351562</ele>
        <time>2012-05-17T09:16:15Z</time>
      </trkpt>
      <trkpt lat="42.80768" lon="1.76788">
        <ele>1889.1279296875</ele>
        <time>2012-05-17T09:16:20Z</time>
      </trkpt>
      <trkpt lat="42.80771" lon="1.76784">
        <ele>1891.0505371094</ele>
        <time>2012-05-17T09:16:26Z</time>
      </trkpt>
      <trkpt lat="42.80773" lon="1.76782">
        <ele>1892.0119628906</ele>
        <time>2012-05-17T09:16:30Z</time>
      </trkpt>
      <trkpt lat="42.80777" lon="1.76781">
        <ele>1893.4538574219</ele>
        <time>2012-05-17T09:16:36Z</time>
      </trkpt>
      <trkpt lat="42.8078" lon="1.76781">
        <ele>1894.8957519531</ele>
        <time>2012-05-17T09:16:42Z</time>
      </trkpt>
      <trkpt lat="42.80782" lon="1.76778">
        <ele>1896.337890625</ele>
        <time>2012-05-17T09:16:47Z</time>
      </trkpt>
      <trkpt lat="42.80784" lon="1.76775">
        <ele>1898.2602539062</ele>
        <time>2012-05-17T09:16:52Z</time>
      </trkpt>
      <trkpt lat="42.80787" lon="1.76772">
        <ele>1899.2216796875</ele>
        <time>2012-05-17T09:16:57Z</time>
      </trkpt>
      <trkpt lat="42.80789" lon="1.76769">
        <ele>1900.6638183594</ele>
        <time>2012-05-17T09:17:02Z</time>
      </trkpt>
      <trkpt lat="42.80794" lon="1.76766">
        <ele>1901.6252441406</ele>
        <time>2012-05-17T09:17:09Z</time>
      </trkpt>
      <trkpt lat="42.80798" lon="1.76763">
        <ele>1902.5864257812</ele>
        <time>2012-05-17T09:17:14Z</time>
      </trkpt>
      <trkpt lat="42.80802" lon="1.76759">
        <ele>1904.0285644531</ele>
        <time>2012-05-17T09:17:20Z</time>
      </trkpt>
      <trkpt lat="42.80807" lon="1.76755">
        <ele>1904.9897460938</ele>
        <time>2012-05-17T09:17:27Z</time>
      </trkpt>
      <trkpt lat="42.80811" lon="1.76751">
        <ele>1906.431640625</ele>
        <time>2012-05-17T09:17:33Z</time>
      </trkpt>
      <trkpt lat="42.80817" lon="1.7675">
        <ele>1906.9123535156</ele>
        <time>2012-05-17T09:17:39Z</time>
      </trkpt>
      <trkpt lat="42.80823" lon="1.76749">
        <ele>1907.3930664062</ele>
        <time>2012-05-17T09:17:46Z</time>
      </trkpt>
      <trkpt lat="42.80827" lon="1.76747">
        <ele>1908.8349609375</ele>
        <time>2012-05-17T09:17:51Z</time>
      </trkpt>
      <trkpt lat="42.80832" lon="1.76746">
        <ele>1910.2768554688</ele>
        <time>2012-05-17T09:17:57Z</time>
      </trkpt>
      <trkpt lat="42.80835" lon="1.76746">
        <ele>1911.23828125</ele>
        <time>2012-05-17T09:18:02Z</time>
      </trkpt>
      <trkpt lat="42.80839" lon="1.76746">
        <ele>1912.1994628906</ele>
        <time>2012-05-17T09:18:08Z</time>
      </trkpt>
      <trkpt lat="42.80843" lon="1.76747">
        <ele>1913.1608886719</ele>
        <time>2012-05-17T09:18:13Z</time>
      </trkpt>
      <trkpt lat="42.80847" lon="1.76747">
        <ele>1914.6027832031</ele>
        <time>2012-05-17T09:18:20Z</time>
      </trkpt>
      <trkpt lat="42.80852" lon="1.76748">
        <ele>1916.5256347656</ele>
        <time>2012-05-17T09:18:28Z</time>
      </trkpt>
      <trkpt lat="42.80857" lon="1.76747">
        <ele>1917.9675292969</ele>
        <time>2012-05-17T09:18:36Z</time>
      </trkpt>
      <trkpt lat="42.8086" lon="1.76747">
        <ele>1918.9289550781</ele>
        <time>2012-05-17T09:18:41Z</time>
      </trkpt>
      <trkpt lat="42.80863" lon="1.76752">
        <ele>1919.4096679688</ele>
        <time>2012-05-17T09:18:47Z</time>
      </trkpt>
      <trkpt lat="42.80865" lon="1.76755">
        <ele>1920.3708496094</ele>
        <time>2012-05-17T09:18:54Z</time>
      </trkpt>
      <trkpt lat="42.80869" lon="1.76758">
        <ele>1922.2934570312</ele>
        <time>2012-05-17T09:19:00Z</time>
      </trkpt>
      <trkpt lat="42.80873" lon="1.76762">
        <ele>1924.2160644531</ele>
        <time>2012-05-17T09:19:08Z</time>
      </trkpt>
      <trkpt lat="42.80876" lon="1.76764">
        <ele>1925.6579589844</ele>
        <time>2012-05-17T09:19:15Z</time>
      </trkpt>
      <trkpt lat="42.8088" lon="1.76767">
        <ele>1927.1000976562</ele>
        <time>2012-05-17T09:19:23Z</time>
      </trkpt>
      <trkpt lat="42.80883" lon="1.76766">
        <ele>1928.5419921875</ele>
        <time>2012-05-17T09:19:29Z</time>
      </trkpt>
      <trkpt lat="42.80886" lon="1.76761">
        <ele>1930.4645996094</ele>
        <time>2012-05-17T09:19:35Z</time>
      </trkpt>
      <trkpt lat="42.8089" lon="1.76754">
        <ele>1932.8679199219</ele>
        <time>2012-05-17T09:19:44Z</time>
      </trkpt>
      <trkpt lat="42.80894" lon="1.76746">
        <ele>1934.7907714844</ele>
        <time>2012-05-17T09:19:53Z</time>
      </trkpt>
      <trkpt lat="42.80898" lon="1.7674">
        <ele>1936.7131347656</ele>
        <time>2012-05-17T09:20:01Z</time>
      </trkpt>
      <trkpt lat="42.80903" lon="1.76733">
        <ele>1938.6359863281</ele>
        <time>2012-05-17T09:20:09Z</time>
      </trkpt>
      <trkpt lat="42.80907" lon="1.76729">
        <ele>1939.5971679688</ele>
        <time>2012-05-17T09:20:16Z</time>
      </trkpt>
      <trkpt lat="42.80914" lon="1.76727">
        <ele>1940.5583496094</ele>
        <time>2012-05-17T09:20:24Z</time>
      </trkpt>
      <trkpt lat="42.8092" lon="1.76727">
        <ele>1942.9616699219</ele>
        <time>2012-05-17T09:20:32Z</time>
      </trkpt>
      <trkpt lat="42.80924" lon="1.76726">
        <ele>1944.4035644531</ele>
        <time>2012-05-17T09:20:39Z</time>
      </trkpt>
      <trkpt lat="42.80927" lon="1.76726">
        <ele>1945.3649902344</ele>
        <time>2012-05-17T09:20:45Z</time>
      </trkpt>
      <trkpt lat="42.80931" lon="1.76727">
        <ele>1945.3649902344</ele>
        <time>2012-05-17T09:20:52Z</time>
      </trkpt>
      <trkpt lat="42.80933" lon="1.76731">
        <ele>1946.8068847656</ele>
        <time>2012-05-17T09:21:00Z</time>
      </trkpt>
      <trkpt lat="42.80937" lon="1.76735">
        <ele>1948.7297363281</ele>
        <time>2012-05-17T09:21:08Z</time>
      </trkpt>
      <trkpt lat="42.80941" lon="1.76737">
        <ele>1951.1330566406</ele>
        <time>2012-05-17T09:21:17Z</time>
      </trkpt>
      <trkpt lat="42.80944" lon="1.7674">
        <ele>1952.5749511719</ele>
        <time>2012-05-17T09:21:24Z</time>
      </trkpt>
      <trkpt lat="42.80946" lon="1.76742">
        <ele>1953.0556640625</ele>
        <time>2012-05-17T09:21:30Z</time>
      </trkpt>
      <trkpt lat="42.80949" lon="1.7674">
        <ele>1954.4975585938</ele>
        <time>2012-05-17T09:21:36Z</time>
      </trkpt>
      <trkpt lat="42.80952" lon="1.76737">
        <ele>1955.939453125</ele>
        <time>2012-05-17T09:21:44Z</time>
      </trkpt>
      <trkpt lat="42.80956" lon="1.76735">
        <ele>1956.9008789062</ele>
        <time>2012-05-17T09:21:50Z</time>
      </trkpt>
      <trkpt lat="42.80959" lon="1.76734">
        <ele>1958.8234863281</ele>
        <time>2012-05-17T09:21:57Z</time>
      </trkpt>
      <trkpt lat="42.80961" lon="1.76738">
        <ele>1960.2653808594</ele>
        <time>2012-05-17T09:22:03Z</time>
      </trkpt>
      <trkpt lat="42.80964" lon="1.76742">
        <ele>1961.2268066406</ele>
        <time>2012-05-17T09:22:09Z</time>
      </trkpt>
      <trkpt lat="42.80967" lon="1.76741">
        <ele>1962.1879882812</ele>
        <time>2012-05-17T09:22:16Z</time>
      </trkpt>
      <trkpt lat="42.8097" lon="1.76745">
        <ele>1963.6298828125</ele>
        <time>2012-05-17T09:22:24Z</time>
      </trkpt>
      <trkpt lat="42.80972" lon="1.7675">
        <ele>1965.5529785156</ele>
        <time>2012-05-17T09:22:32Z</time>
      </trkpt>
      <trkpt lat="42.80973" lon="1.7675">
        <ele>1966.9948730469</ele>
        <time>2012-05-17T09:22:38Z</time>
      </trkpt>
      <trkpt lat="42.80974" lon="1.7675">
        <ele>1966.0334472656</ele>
        <time>2012-05-17T09:22:57Z</time>
      </trkpt>
      <trkpt lat="42.80977" lon="1.7675">
        <ele>1966.9948730469</ele>
        <time>2012-05-17T09:23:03Z</time>
      </trkpt>
      <trkpt lat="42.80981" lon="1.76747">
        <ele>1968.9174804688</ele>
        <time>2012-05-17T09:23:10Z</time>
      </trkpt>
      <trkpt lat="42.80984" lon="1.76748">
        <ele>1970.8400878906</ele>
        <time>2012-05-17T09:23:16Z</time>
      </trkpt>
      <trkpt lat="42.80986" lon="1.76752">
        <ele>1972.7626953125</ele>
        <time>2012-05-17T09:23:23Z</time>
      </trkpt>
      <trkpt lat="42.80989" lon="1.76755">
        <ele>1975.1657714844</ele>
        <time>2012-05-17T09:23:30Z</time>
      </trkpt>
      <trkpt lat="42.80994" lon="1.76755">
        <ele>1976.6079101562</ele>
        <time>2012-05-17T09:23:37Z</time>
      </trkpt>
      <trkpt lat="42.80997" lon="1.76755">
        <ele>1977.5690917969</ele>
        <time>2012-05-17T09:23:43Z</time>
      </trkpt>
      <trkpt lat="42.80998" lon="1.76756">
        <ele>1979.0109863281</ele>
        <time>2012-05-17T09:23:49Z</time>
      </trkpt>
      <trkpt lat="42.81001" lon="1.76757">
        <ele>1979.9724121094</ele>
        <time>2012-05-17T09:23:54Z</time>
      </trkpt>
      <trkpt lat="42.81005" lon="1.76755">
        <ele>1980.9340820312</ele>
        <time>2012-05-17T09:24:01Z</time>
      </trkpt>
      <trkpt lat="42.81008" lon="1.76756">
        <ele>1982.8564453125</ele>
        <time>2012-05-17T09:24:07Z</time>
      </trkpt>
      <trkpt lat="42.81009" lon="1.76759">
        <ele>1983.8178710938</ele>
        <time>2012-05-17T09:24:12Z</time>
      </trkpt>
      <trkpt lat="42.81011" lon="1.76761">
        <ele>1983.8178710938</ele>
        <time>2012-05-17T09:24:17Z</time>
      </trkpt>
      <trkpt lat="42.81014" lon="1.76761">
        <ele>1984.2985839844</ele>
        <time>2012-05-17T09:24:22Z</time>
      </trkpt>
      <trkpt lat="42.81016" lon="1.76762">
        <ele>1985.259765625</ele>
        <time>2012-05-17T09:24:26Z</time>
      </trkpt>
      <trkpt lat="42.81018" lon="1.76765">
        <ele>1985.7404785156</ele>
        <time>2012-05-17T09:24:32Z</time>
      </trkpt>
      <trkpt lat="42.81022" lon="1.76766">
        <ele>1987.6630859375</ele>
        <time>2012-05-17T09:24:40Z</time>
      </trkpt>
      <trkpt lat="42.81025" lon="1.76766">
        <ele>1989.1049804688</ele>
        <time>2012-05-17T09:24:46Z</time>
      </trkpt>
      <trkpt lat="42.81028" lon="1.76766">
        <ele>1990.06640625</ele>
        <time>2012-05-17T09:24:51Z</time>
      </trkpt>
      <trkpt lat="42.81031" lon="1.76765">
        <ele>1991.9890136719</ele>
        <time>2012-05-17T09:24:57Z</time>
      </trkpt>
      <trkpt lat="42.81034" lon="1.76764">
        <ele>1993.4309082031</ele>
        <time>2012-05-17T09:25:03Z</time>
      </trkpt>
      <trkpt lat="42.81037" lon="1.76766">
        <ele>1993.9116210938</ele>
        <time>2012-05-17T09:25:09Z</time>
      </trkpt>
      <trkpt lat="42.81039" lon="1.76766">
        <ele>1994.8728027344</ele>
        <time>2012-05-17T09:25:14Z</time>
      </trkpt>
      <trkpt lat="42.81042" lon="1.76764">
        <ele>1996.3151855469</ele>
        <time>2012-05-17T09:25:21Z</time>
      </trkpt>
      <trkpt lat="42.81045" lon="1.76762">
        <ele>1997.7570800781</ele>
        <time>2012-05-17T09:25:27Z</time>
      </trkpt>
      <trkpt lat="42.81049" lon="1.76763">
        <ele>1999.1989746094</ele>
        <time>2012-05-17T09:25:35Z</time>
      </trkpt>
      <trkpt lat="42.81051" lon="1.76765">
        <ele>2000.1604003906</ele>
        <time>2012-05-17T09:25:41Z</time>
      </trkpt>
      <trkpt lat="42.81053" lon="1.76766">
        <ele>2001.1215820312</ele>
        <time>2012-05-17T09:25:47Z</time>
      </trkpt>
      <trkpt lat="42.81055" lon="1.76766">
        <ele>2001.6022949219</ele>
        <time>2012-05-17T09:25:52Z</time>
      </trkpt>
      <trkpt lat="42.81058" lon="1.76768">
        <ele>2002.5634765625</ele>
        <time>2012-05-17T09:25:58Z</time>
      </trkpt>
      <trkpt lat="42.8106" lon="1.76769">
        <ele>2003.5249023438</ele>
        <time>2012-05-17T09:26:04Z</time>
      </trkpt>
      <trkpt lat="42.81062" lon="1.76771">
        <ele>2004.0056152344</ele>
        <time>2012-05-17T09:26:09Z</time>
      </trkpt>
      <trkpt lat="42.81065" lon="1.76768">
        <ele>2006.4086914062</ele>
        <time>2012-05-17T09:26:17Z</time>
      </trkpt>
      <trkpt lat="42.81067" lon="1.76765">
        <ele>2007.3701171875</ele>
        <time>2012-05-17T09:26:22Z</time>
      </trkpt>
      <trkpt lat="42.81069" lon="1.76767">
        <ele>2007.8508300781</ele>
        <time>2012-05-17T09:26:27Z</time>
      </trkpt>
      <trkpt lat="42.81071" lon="1.76772">
        <ele>2008.8120117188</ele>
        <time>2012-05-17T09:26:33Z</time>
      </trkpt>
      <trkpt lat="42.81074" lon="1.76772">
        <ele>2010.25390625</ele>
        <time>2012-05-17T09:26:39Z</time>
      </trkpt>
      <trkpt lat="42.81075" lon="1.7677">
        <ele>2011.2153320312</ele>
        <time>2012-05-17T09:26:43Z</time>
      </trkpt>
      <trkpt lat="42.81077" lon="1.76771">
        <ele>2012.1767578125</ele>
        <time>2012-05-17T09:26:48Z</time>
      </trkpt>
      <trkpt lat="42.81079" lon="1.76775">
        <ele>2013.6186523438</ele>
        <time>2012-05-17T09:26:55Z</time>
      </trkpt>
      <trkpt lat="42.81081" lon="1.76778">
        <ele>2015.0607910156</ele>
        <time>2012-05-17T09:27:01Z</time>
      </trkpt>
      <trkpt lat="42.81082" lon="1.76782">
        <ele>2016.5026855469</ele>
        <time>2012-05-17T09:27:07Z</time>
      </trkpt>
      <trkpt lat="42.81083" lon="1.76784">
        <ele>2017.4638671875</ele>
        <time>2012-05-17T09:27:12Z</time>
      </trkpt>
      <trkpt lat="42.81084" lon="1.76785">
        <ele>2018.4252929688</ele>
        <time>2012-05-17T09:27:18Z</time>
      </trkpt>
      <trkpt lat="42.81086" lon="1.76787">
        <ele>2019.8671875</ele>
        <time>2012-05-17T09:27:24Z</time>
      </trkpt>
      <trkpt lat="42.81089" lon="1.76788">
        <ele>2021.3090820312</ele>
        <time>2012-05-17T09:27:30Z</time>
      </trkpt>
      <trkpt lat="42.81091" lon="1.76789">
        <ele>2023.7124023438</ele>
        <time>2012-05-17T09:27:37Z</time>
      </trkpt>
      <trkpt lat="42.81094" lon="1.76791">
        <ele>2024.673828125</ele>
        <time>2012-05-17T09:27:43Z</time>
      </trkpt>
      <trkpt lat="42.81096" lon="1.7679">
        <ele>2026.5964355469</ele>
        <time>2012-05-17T09:27:50Z</time>
      </trkpt>
      <trkpt lat="42.81099" lon="1.76793">
        <ele>2027.5576171875</ele>
        <time>2012-05-17T09:27:56Z</time>
      </trkpt>
      <trkpt lat="42.81099" lon="1.76797">
        <ele>2028.5192871094</ele>
        <time>2012-05-17T09:28:02Z</time>
      </trkpt>
      <trkpt lat="42.811" lon="1.76802">
        <ele>2030.4418945312</ele>
        <time>2012-05-17T09:28:11Z</time>
      </trkpt>
      <trkpt lat="42.81101" lon="1.76805">
        <ele>2031.4030761719</ele>
        <time>2012-05-17T09:28:18Z</time>
      </trkpt>
      <trkpt lat="42.81104" lon="1.76804">
        <ele>2032.3645019531</ele>
        <time>2012-05-17T09:28:24Z</time>
      </trkpt>
      <trkpt lat="42.81105" lon="1.76806">
        <ele>2032.8449707031</ele>
        <time>2012-05-17T09:28:28Z</time>
      </trkpt>
      <trkpt lat="42.81106" lon="1.76806">
        <ele>2033.8063964844</ele>
        <time>2012-05-17T09:28:33Z</time>
      </trkpt>
      <trkpt lat="42.81109" lon="1.76804">
        <ele>2035.2482910156</ele>
        <time>2012-05-17T09:28:39Z</time>
      </trkpt>
      <trkpt lat="42.81112" lon="1.76803">
        <ele>2036.2097167969</ele>
        <time>2012-05-17T09:28:46Z</time>
      </trkpt>
      <trkpt lat="42.81115" lon="1.76802">
        <ele>2037.1708984375</ele>
        <time>2012-05-17T09:28:51Z</time>
      </trkpt>
      <trkpt lat="42.81117" lon="1.76802">
        <ele>2038.6130371094</ele>
        <time>2012-05-17T09:28:56Z</time>
      </trkpt>
      <trkpt lat="42.8112" lon="1.768">
        <ele>2040.0549316406</ele>
        <time>2012-05-17T09:29:02Z</time>
      </trkpt>
      <trkpt lat="42.81122" lon="1.76799">
        <ele>2041.0161132812</ele>
        <time>2012-05-17T09:29:07Z</time>
      </trkpt>
      <trkpt lat="42.81124" lon="1.76799">
        <ele>2041.9775390625</ele>
        <time>2012-05-17T09:29:12Z</time>
      </trkpt>
      <trkpt lat="42.81127" lon="1.76799">
        <ele>2042.4582519531</ele>
        <time>2012-05-17T09:29:17Z</time>
      </trkpt>
      <trkpt lat="42.81127" lon="1.76803">
        <ele>2043.4194335938</ele>
        <time>2012-05-17T09:29:23Z</time>
      </trkpt>
      <trkpt lat="42.81128" lon="1.76805">
        <ele>2044.380859375</ele>
        <time>2012-05-17T09:29:28Z</time>
      </trkpt>
      <trkpt lat="42.81128" lon="1.76807">
        <ele>2045.8229980469</ele>
        <time>2012-05-17T09:29:34Z</time>
      </trkpt>
      <trkpt lat="42.8113" lon="1.76806">
        <ele>2046.7841796875</ele>
        <time>2012-05-17T09:29:39Z</time>
      </trkpt>
      <trkpt lat="42.81133" lon="1.76806">
        <ele>2047.7456054688</ele>
        <time>2012-05-17T09:29:44Z</time>
      </trkpt>
      <trkpt lat="42.81133" lon="1.76809">
        <ele>2048.7067871094</ele>
        <time>2012-05-17T09:29:49Z</time>
      </trkpt>
      <trkpt lat="42.81134" lon="1.76812">
        <ele>2049.6682128906</ele>
        <time>2012-05-17T09:29:54Z</time>
      </trkpt>
      <trkpt lat="42.81135" lon="1.76815">
        <ele>2050.6293945312</ele>
        <time>2012-05-17T09:29:59Z</time>
      </trkpt>
      <trkpt lat="42.81135" lon="1.76819">
        <ele>2052.0712890625</ele>
        <time>2012-05-17T09:30:06Z</time>
      </trkpt>
      <trkpt lat="42.81134" lon="1.76821">
        <ele>2053.0327148438</ele>
        <time>2012-05-17T09:30:10Z</time>
      </trkpt>
      <trkpt lat="42.81134" lon="1.76824">
        <ele>2053.994140625</ele>
        <time>2012-05-17T09:30:15Z</time>
      </trkpt>
      <trkpt lat="42.81134" lon="1.76826">
        <ele>2054.474609375</ele>
        <time>2012-05-17T09:30:21Z</time>
      </trkpt>
      <trkpt lat="42.81134" lon="1.76832">
        <ele>2055.9165039062</ele>
        <time>2012-05-17T09:30:29Z</time>
      </trkpt>
      <trkpt lat="42.81134" lon="1.76833">
        <ele>2056.3972167969</ele>
        <time>2012-05-17T09:30:36Z</time>
      </trkpt>
      <trkpt lat="42.81136" lon="1.76834">
        <ele>2057.3586425781</ele>
        <time>2012-05-17T09:30:41Z</time>
      </trkpt>
      <trkpt lat="42.81139" lon="1.76834">
        <ele>2058.8005371094</ele>
        <time>2012-05-17T09:30:48Z</time>
      </trkpt>
      <trkpt lat="42.81141" lon="1.76839">
        <ele>2061.6848144531</ele>
        <time>2012-05-17T09:30:55Z</time>
      </trkpt>
      <trkpt lat="42.81142" lon="1.76842">
        <ele>2062.1652832031</ele>
        <time>2012-05-17T09:30:59Z</time>
      </trkpt>
      <trkpt lat="42.81143" lon="1.76843">
        <ele>2063.1267089844</ele>
        <time>2012-05-17T09:31:04Z</time>
      </trkpt>
      <trkpt lat="42.81145" lon="1.76841">
        <ele>2064.087890625</ele>
        <time>2012-05-17T09:31:11Z</time>
      </trkpt>
      <trkpt lat="42.81146" lon="1.76844">
        <ele>2065.0493164062</ele>
        <time>2012-05-17T09:31:16Z</time>
      </trkpt>
      <trkpt lat="42.81147" lon="1.76847">
        <ele>2066.0104980469</ele>
        <time>2012-05-17T09:31:22Z</time>
      </trkpt>
      <trkpt lat="42.81149" lon="1.76849">
        <ele>2066.9719238281</ele>
        <time>2012-05-17T09:31:27Z</time>
      </trkpt>
      <trkpt lat="42.81149" lon="1.76853">
        <ele>2068.89453125</ele>
        <time>2012-05-17T09:31:33Z</time>
      </trkpt>
      <trkpt lat="42.81151" lon="1.76854">
        <ele>2070.8171386719</ele>
        <time>2012-05-17T09:31:39Z</time>
      </trkpt>
      <trkpt lat="42.81153" lon="1.76857">
        <ele>2071.2976074219</ele>
        <time>2012-05-17T09:31:44Z</time>
      </trkpt>
      <trkpt lat="42.81155" lon="1.76858">
        <ele>2073.2204589844</ele>
        <time>2012-05-17T09:31:51Z</time>
      </trkpt>
      <trkpt lat="42.81157" lon="1.76859">
        <ele>2073.7009277344</ele>
        <time>2012-05-17T09:31:57Z</time>
      </trkpt>
      <trkpt lat="42.8116" lon="1.76858">
        <ele>2075.1428222656</ele>
        <time>2012-05-17T09:32:03Z</time>
      </trkpt>
      <trkpt lat="42.81162" lon="1.76858">
        <ele>2076.5852050781</ele>
        <time>2012-05-17T09:32:09Z</time>
      </trkpt>
      <trkpt lat="42.81163" lon="1.76858">
        <ele>2077.5463867188</ele>
        <time>2012-05-17T09:32:16Z</time>
      </trkpt>
      <trkpt lat="42.81165" lon="1.76857">
        <ele>2078.98828125</ele>
        <time>2012-05-17T09:32:31Z</time>
      </trkpt>
      <trkpt lat="42.81166" lon="1.7686">
        <ele>2079.4689941406</ele>
        <time>2012-05-17T09:32:36Z</time>
      </trkpt>
      <trkpt lat="42.81167" lon="1.76864">
        <ele>2080.4304199219</ele>
        <time>2012-05-17T09:32:42Z</time>
      </trkpt>
      <trkpt lat="42.81169" lon="1.76869">
        <ele>2081.3916015625</ele>
        <time>2012-05-17T09:32:48Z</time>
      </trkpt>
      <trkpt lat="42.81171" lon="1.76874">
        <ele>2082.3530273438</ele>
        <time>2012-05-17T09:32:56Z</time>
      </trkpt>
      <trkpt lat="42.81173" lon="1.76879">
        <ele>2084.2756347656</ele>
        <time>2012-05-17T09:33:04Z</time>
      </trkpt>
      <trkpt lat="42.81175" lon="1.76881">
        <ele>2085.7175292969</ele>
        <time>2012-05-17T09:33:10Z</time>
      </trkpt>
      <trkpt lat="42.81177" lon="1.76885">
        <ele>2087.1594238281</ele>
        <time>2012-05-17T09:33:17Z</time>
      </trkpt>
      <trkpt lat="42.81178" lon="1.76888">
        <ele>2088.6015625</ele>
        <time>2012-05-17T09:33:23Z</time>
      </trkpt>
      <trkpt lat="42.81181" lon="1.7689">
        <ele>2089.5627441406</ele>
        <time>2012-05-17T09:33:29Z</time>
      </trkpt>
      <trkpt lat="42.81182" lon="1.76894">
        <ele>2090.5239257812</ele>
        <time>2012-05-17T09:33:36Z</time>
      </trkpt>
      <trkpt lat="42.81184" lon="1.76897">
        <ele>2091.4853515625</ele>
        <time>2012-05-17T09:33:41Z</time>
      </trkpt>
      <trkpt lat="42.81186" lon="1.76897">
        <ele>2092.4470214844</ele>
        <time>2012-05-17T09:33:48Z</time>
      </trkpt>
      <trkpt lat="42.81188" lon="1.76895">
        <ele>2094.3693847656</ele>
        <time>2012-05-17T09:33:54Z</time>
      </trkpt>
      <trkpt lat="42.8119" lon="1.76893">
        <ele>2094.8500976562</ele>
        <time>2012-05-17T09:33:59Z</time>
      </trkpt>
      <trkpt lat="42.81192" lon="1.76892">
        <ele>2095.8115234375</ele>
        <time>2012-05-17T09:34:03Z</time>
      </trkpt>
      <trkpt lat="42.81195" lon="1.76891">
        <ele>2096.2922363281</ele>
        <time>2012-05-17T09:34:08Z</time>
      </trkpt>
      <trkpt lat="42.81197" lon="1.76891">
        <ele>2096.2922363281</ele>
        <time>2012-05-17T09:34:12Z</time>
      </trkpt>
      <trkpt lat="42.81199" lon="1.76894">
        <ele>2097.2534179688</ele>
        <time>2012-05-17T09:34:19Z</time>
      </trkpt>
      <trkpt lat="42.812" lon="1.76893">
        <ele>2097.7341308594</ele>
        <time>2012-05-17T09:34:25Z</time>
      </trkpt>
      <trkpt lat="42.812" lon="1.76893">
        <ele>2097.7341308594</ele>
        <time>2012-05-17T09:34:31Z</time>
      </trkpt>
      <trkpt lat="42.81202" lon="1.76897">
        <ele>2098.6953125</ele>
        <time>2012-05-17T09:34:38Z</time>
      </trkpt>
      <trkpt lat="42.81204" lon="1.769">
        <ele>2100.1374511719</ele>
        <time>2012-05-17T09:34:45Z</time>
      </trkpt>
      <trkpt lat="42.81207" lon="1.76904">
        <ele>2101.5793457031</ele>
        <time>2012-05-17T09:34:52Z</time>
      </trkpt>
      <trkpt lat="42.81209" lon="1.76905">
        <ele>2102.5405273438</ele>
        <time>2012-05-17T09:34:57Z</time>
      </trkpt>
      <trkpt lat="42.81211" lon="1.76907">
        <ele>2103.501953125</ele>
        <time>2012-05-17T09:35:03Z</time>
      </trkpt>
      <trkpt lat="42.81212" lon="1.76908">
        <ele>2104.4631347656</ele>
        <time>2012-05-17T09:35:07Z</time>
      </trkpt>
      <trkpt lat="42.81213" lon="1.76909">
        <ele>2105.4245605469</ele>
        <time>2012-05-17T09:35:19Z</time>
      </trkpt>
      <trkpt lat="42.81216" lon="1.76906">
        <ele>2107.3471679688</ele>
        <time>2012-05-17T09:35:25Z</time>
      </trkpt>
      <trkpt lat="42.81218" lon="1.76908">
        <ele>2107.8278808594</ele>
        <time>2012-05-17T09:35:30Z</time>
      </trkpt>
      <trkpt lat="42.81219" lon="1.76906">
        <ele>2108.7893066406</ele>
        <time>2012-05-17T09:35:35Z</time>
      </trkpt>
      <trkpt lat="42.81221" lon="1.7691">
        <ele>2109.2700195312</ele>
        <time>2012-05-17T09:35:40Z</time>
      </trkpt>
      <trkpt lat="42.81223" lon="1.76911">
        <ele>2110.2312011719</ele>
        <time>2012-05-17T09:35:45Z</time>
      </trkpt>
      <trkpt lat="42.81224" lon="1.76914">
        <ele>2111.6733398438</ele>
        <time>2012-05-17T09:35:50Z</time>
      </trkpt>
      <trkpt lat="42.81226" lon="1.76916">
        <ele>2113.115234375</ele>
        <time>2012-05-17T09:35:57Z</time>
      </trkpt>
      <trkpt lat="42.81226" lon="1.76917">
        <ele>2113.115234375</ele>
        <time>2012-05-17T09:36:04Z</time>
      </trkpt>
      <trkpt lat="42.81228" lon="1.76916">
        <ele>2114.0764160156</ele>
        <time>2012-05-17T09:36:21Z</time>
      </trkpt>
      <trkpt lat="42.81228" lon="1.7692">
        <ele>2114.5571289062</ele>
        <time>2012-05-17T09:36:26Z</time>
      </trkpt>
      <trkpt lat="42.81229" lon="1.76927">
        <ele>2115.5185546875</ele>
        <time>2012-05-17T09:36:33Z</time>
      </trkpt>
      <trkpt lat="42.8123" lon="1.76929">
        <ele>2116.9604492188</ele>
        <time>2012-05-17T09:36:39Z</time>
      </trkpt>
      <trkpt lat="42.81232" lon="1.76931">
        <ele>2117.9216308594</ele>
        <time>2012-05-17T09:36:44Z</time>
      </trkpt>
      <trkpt lat="42.81234" lon="1.76932">
        <ele>2119.3637695312</ele>
        <time>2012-05-17T09:36:50Z</time>
      </trkpt>
      <trkpt lat="42.81236" lon="1.76933">
        <ele>2120.8056640625</ele>
        <time>2012-05-17T09:36:58Z</time>
      </trkpt>
      <trkpt lat="42.81238" lon="1.76936">
        <ele>2122.2475585938</ele>
        <time>2012-05-17T09:37:05Z</time>
      </trkpt>
      <trkpt lat="42.81239" lon="1.76938">
        <ele>2123.208984375</ele>
        <time>2012-05-17T09:37:11Z</time>
      </trkpt>
      <trkpt lat="42.81241" lon="1.76939">
        <ele>2123.689453125</ele>
        <time>2012-05-17T09:37:17Z</time>
      </trkpt>
      <trkpt lat="42.81244" lon="1.76938">
        <ele>2125.1315917969</ele>
        <time>2012-05-17T09:37:23Z</time>
      </trkpt>
      <trkpt lat="42.81246" lon="1.76938">
        <ele>2126.5737304688</ele>
        <time>2012-05-17T09:37:29Z</time>
      </trkpt>
      <trkpt lat="42.81247" lon="1.7694">
        <ele>2128.015625</ele>
        <time>2012-05-17T09:37:35Z</time>
      </trkpt>
      <trkpt lat="42.81249" lon="1.76942">
        <ele>2129.4575195312</ele>
        <time>2012-05-17T09:37:40Z</time>
      </trkpt>
      <trkpt lat="42.81251" lon="1.76945">
        <ele>2130.4189453125</ele>
        <time>2012-05-17T09:37:46Z</time>
      </trkpt>
      <trkpt lat="42.81252" lon="1.76946">
        <ele>2130.4189453125</ele>
        <time>2012-05-17T09:37:55Z</time>
      </trkpt>
      <trkpt lat="42.81253" lon="1.76945">
        <ele>2131.8608398438</ele>
        <time>2012-05-17T09:38:00Z</time>
      </trkpt>
      <trkpt lat="42.81256" lon="1.76944">
        <ele>2133.7834472656</ele>
        <time>2012-05-17T09:38:06Z</time>
      </trkpt>
      <trkpt lat="42.81257" lon="1.76951">
        <ele>2134.7448730469</ele>
        <time>2012-05-17T09:38:14Z</time>
      </trkpt>
      <trkpt lat="42.81258" lon="1.76957">
        <ele>2136.1867675781</ele>
        <time>2012-05-17T09:38:21Z</time>
      </trkpt>
      <trkpt lat="42.8126" lon="1.7696">
        <ele>2137.6286621094</ele>
        <time>2012-05-17T09:38:28Z</time>
      </trkpt>
      <trkpt lat="42.8126" lon="1.76963">
        <ele>2138.109375</ele>
        <time>2012-05-17T09:38:32Z</time>
      </trkpt>
      <trkpt lat="42.81261" lon="1.76969">
        <ele>2140.0322265625</ele>
        <time>2012-05-17T09:38:39Z</time>
      </trkpt>
      <trkpt lat="42.81263" lon="1.76973">
        <ele>2141.4741210938</ele>
        <time>2012-05-17T09:38:47Z</time>
      </trkpt>
      <trkpt lat="42.81264" lon="1.76977">
        <ele>2143.3967285156</ele>
        <time>2012-05-17T09:38:55Z</time>
      </trkpt>
      <trkpt lat="42.81266" lon="1.76981">
        <ele>2145.3193359375</ele>
        <time>2012-05-17T09:39:02Z</time>
      </trkpt>
      <trkpt lat="42.81267" lon="1.76983">
        <ele>2145.8000488281</ele>
        <time>2012-05-17T09:39:07Z</time>
      </trkpt>
      <trkpt lat="42.81268" lon="1.76986">
        <ele>2146.7612304688</ele>
        <time>2012-05-17T09:39:11Z</time>
      </trkpt>
      <trkpt lat="42.81269" lon="1.76989">
        <ele>2147.72265625</ele>
        <time>2012-05-17T09:39:16Z</time>
      </trkpt>
      <trkpt lat="42.81269" lon="1.76992">
        <ele>2148.6838378906</ele>
        <time>2012-05-17T09:39:21Z</time>
      </trkpt>
      <trkpt lat="42.81269" lon="1.76996">
        <ele>2149.6452636719</ele>
        <time>2012-05-17T09:39:27Z</time>
      </trkpt>
      <trkpt lat="42.81271" lon="1.76999">
        <ele>2150.6064453125</ele>
        <time>2012-05-17T09:39:33Z</time>
      </trkpt>
      <trkpt lat="42.81271" lon="1.77004">
        <ele>2151.5678710938</ele>
        <time>2012-05-17T09:39:39Z</time>
      </trkpt>
      <trkpt lat="42.81273" lon="1.77008">
        <ele>2153.009765625</ele>
        <time>2012-05-17T09:39:46Z</time>
      </trkpt>
      <trkpt lat="42.81273" lon="1.77013">
        <ele>2153.9711914062</ele>
        <time>2012-05-17T09:39:52Z</time>
      </trkpt>
      <trkpt lat="42.81274" lon="1.77016">
        <ele>2155.4130859375</ele>
        <time>2012-05-17T09:39:59Z</time>
      </trkpt>
      <trkpt lat="42.81276" lon="1.77021">
        <ele>2156.3745117188</ele>
        <time>2012-05-17T09:40:05Z</time>
      </trkpt>
      <trkpt lat="42.81276" lon="1.77026">
        <ele>2157.8166503906</ele>
        <time>2012-05-17T09:40:11Z</time>
      </trkpt>
      <trkpt lat="42.81277" lon="1.77032">
        <ele>2158.2971191406</ele>
        <time>2012-05-17T09:40:17Z</time>
      </trkpt>
      <trkpt lat="42.81277" lon="1.77037">
        <ele>2159.7390136719</ele>
        <time>2012-05-17T09:40:24Z</time>
      </trkpt>
      <trkpt lat="42.81279" lon="1.77042">
        <ele>2161.6618652344</ele>
        <time>2012-05-17T09:40:31Z</time>
      </trkpt>
      <trkpt lat="42.8128" lon="1.77045">
        <ele>2162.623046875</ele>
        <time>2012-05-17T09:40:36Z</time>
      </trkpt>
      <trkpt lat="42.8128" lon="1.77046">
        <ele>2163.1037597656</ele>
        <time>2012-05-17T09:40:41Z</time>
      </trkpt>
      <trkpt lat="42.81279" lon="1.77047">
        <ele>2162.623046875</ele>
        <time>2012-05-17T09:40:52Z</time>
      </trkpt>
      <trkpt lat="42.81281" lon="1.77048">
        <ele>2162.623046875</ele>
        <time>2012-05-17T09:41:08Z</time>
      </trkpt>
      <trkpt lat="42.81281" lon="1.7705">
        <ele>2163.1037597656</ele>
        <time>2012-05-17T09:41:13Z</time>
      </trkpt>
      <trkpt lat="42.81282" lon="1.77047">
        <ele>2164.0649414062</ele>
        <time>2012-05-17T09:41:21Z</time>
      </trkpt>
      <trkpt lat="42.81285" lon="1.77043">
        <ele>2164.5456542969</ele>
        <time>2012-05-17T09:41:27Z</time>
      </trkpt>
      <trkpt lat="42.81288" lon="1.77043">
        <ele>2165.5070800781</ele>
        <time>2012-05-17T09:41:32Z</time>
      </trkpt>
      <trkpt lat="42.81292" lon="1.77041">
        <ele>2166.9489746094</ele>
        <time>2012-05-17T09:41:38Z</time>
      </trkpt>
      <trkpt lat="42.81294" lon="1.77041">
        <ele>2167.4294433594</ele>
        <time>2012-05-17T09:41:44Z</time>
      </trkpt>
      <trkpt lat="42.81297" lon="1.77041">
        <ele>2168.3908691406</ele>
        <time>2012-05-17T09:41:50Z</time>
      </trkpt>
      <trkpt lat="42.813" lon="1.77039">
        <ele>2169.3522949219</ele>
        <time>2012-05-17T09:41:56Z</time>
      </trkpt>
      <trkpt lat="42.81302" lon="1.77037">
        <ele>2170.7941894531</ele>
        <time>2012-05-17T09:42:02Z</time>
      </trkpt>
      <trkpt lat="42.81304" lon="1.77038">
        <ele>2171.7553710938</ele>
        <time>2012-05-17T09:42:08Z</time>
      </trkpt>
      <trkpt lat="42.81306" lon="1.77037">
        <ele>2173.1977539062</ele>
        <time>2012-05-17T09:42:15Z</time>
      </trkpt>
      <trkpt lat="42.81308" lon="1.77036">
        <ele>2175.1201171875</ele>
        <time>2012-05-17T09:42:21Z</time>
      </trkpt>
      <trkpt lat="42.81311" lon="1.77034">
        <ele>2176.5622558594</ele>
        <time>2012-05-17T09:42:27Z</time>
      </trkpt>
      <trkpt lat="42.81314" lon="1.77034">
        <ele>2178.0041503906</ele>
        <time>2012-05-17T09:42:32Z</time>
      </trkpt>
      <trkpt lat="42.81314" lon="1.77036">
        <ele>2178.9653320312</ele>
        <time>2012-05-17T09:42:38Z</time>
      </trkpt>
      <trkpt lat="42.81314" lon="1.77035">
        <ele>2180.4074707031</ele>
        <time>2012-05-17T09:43:00Z</time>
      </trkpt>
      <trkpt lat="42.81315" lon="1.77038">
        <ele>2180.4074707031</ele>
        <time>2012-05-17T09:43:15Z</time>
      </trkpt>
      <trkpt lat="42.81315" lon="1.77043">
        <ele>2181.8493652344</ele>
        <time>2012-05-17T09:43:21Z</time>
      </trkpt>
      <trkpt lat="42.81314" lon="1.77049">
        <ele>2183.7719726562</ele>
        <time>2012-05-17T09:43:28Z</time>
      </trkpt>
      <trkpt lat="42.81315" lon="1.77053">
        <ele>2186.1752929688</ele>
        <time>2012-05-17T09:43:35Z</time>
      </trkpt>
      <trkpt lat="42.81316" lon="1.77057">
        <ele>2187.1364746094</ele>
        <time>2012-05-17T09:43:40Z</time>
      </trkpt>
      <trkpt lat="42.81315" lon="1.77061">
        <ele>2188.0981445312</ele>
        <time>2012-05-17T09:43:45Z</time>
      </trkpt>
      <trkpt lat="42.81314" lon="1.77067">
        <ele>2189.5400390625</ele>
        <time>2012-05-17T09:43:54Z</time>
      </trkpt>
      <trkpt lat="42.81314" lon="1.7707">
        <ele>2190.9819335938</ele>
        <time>2012-05-17T09:44:00Z</time>
      </trkpt>
      <trkpt lat="42.81314" lon="1.77073">
        <ele>2191.4626464844</ele>
        <time>2012-05-17T09:44:06Z</time>
      </trkpt>
      <trkpt lat="42.81314" lon="1.77076">
        <ele>2191.943359375</ele>
        <time>2012-05-17T09:44:13Z</time>
      </trkpt>
      <trkpt lat="42.81316" lon="1.77077">
        <ele>2192.9045410156</ele>
        <time>2012-05-17T09:44:19Z</time>
      </trkpt>
      <trkpt lat="42.81319" lon="1.77082">
        <ele>2193.3852539062</ele>
        <time>2012-05-17T09:44:26Z</time>
      </trkpt>
      <trkpt lat="42.8132" lon="1.77084">
        <ele>2193.8659667969</ele>
        <time>2012-05-17T09:44:31Z</time>
      </trkpt>
      <trkpt lat="42.8132" lon="1.77088">
        <ele>2194.8271484375</ele>
        <time>2012-05-17T09:44:38Z</time>
      </trkpt>
      <trkpt lat="42.8132" lon="1.77091">
        <ele>2195.3078613281</ele>
        <time>2012-05-17T09:44:46Z</time>
      </trkpt>
      <trkpt lat="42.81321" lon="1.77094">
        <ele>2196.2692871094</ele>
        <time>2012-05-17T09:44:51Z</time>
      </trkpt>
      <trkpt lat="42.81323" lon="1.77094">
        <ele>2197.23046875</ele>
        <time>2012-05-17T09:44:57Z</time>
      </trkpt>
      <trkpt lat="42.81326" lon="1.77096">
        <ele>2198.6723632812</ele>
        <time>2012-05-17T09:45:05Z</time>
      </trkpt>
      <trkpt lat="42.81327" lon="1.77097">
        <ele>2199.1530761719</ele>
        <time>2012-05-17T09:45:11Z</time>
      </trkpt>
      <trkpt lat="42.81327" lon="1.77097">
        <ele>2199.1530761719</ele>
        <time>2012-05-17T09:45:21Z</time>
      </trkpt>
      <trkpt lat="42.81329" lon="1.77095">
        <ele>2200.1145019531</ele>
        <time>2012-05-17T09:45:46Z</time>
      </trkpt>
      <trkpt lat="42.81334" lon="1.77093">
        <ele>2200.5949707031</ele>
        <time>2012-05-17T09:45:52Z</time>
      </trkpt>
      <trkpt lat="42.81337" lon="1.77095">
        <ele>2201.5563964844</ele>
        <time>2012-05-17T09:45:57Z</time>
      </trkpt>
      <trkpt lat="42.8134" lon="1.77098">
        <ele>2202.9982910156</ele>
        <time>2012-05-17T09:46:02Z</time>
      </trkpt>
      <trkpt lat="42.81343" lon="1.77105">
        <ele>2204.9211425781</ele>
        <time>2012-05-17T09:46:10Z</time>
      </trkpt>
      <trkpt lat="42.81347" lon="1.7711">
        <ele>2205.8823242188</ele>
        <time>2012-05-17T09:46:16Z</time>
      </trkpt>
      <trkpt lat="42.81351" lon="1.77115">
        <ele>2206.84375</ele>
        <time>2012-05-17T09:46:21Z</time>
      </trkpt>
      <trkpt lat="42.81357" lon="1.77123">
        <ele>2208.2856445312</ele>
        <time>2012-05-17T09:46:30Z</time>
      </trkpt>
      <trkpt lat="42.81359" lon="1.77125">
        <ele>2208.7663574219</ele>
        <time>2012-05-17T09:46:33Z</time>
      </trkpt>
      <trkpt lat="42.8137" lon="1.77131">
        <ele>2209.7275390625</ele>
        <time>2012-05-17T09:46:43Z</time>
      </trkpt>
      <trkpt lat="42.81378" lon="1.77136">
        <ele>2211.1696777344</ele>
        <time>2012-05-17T09:46:51Z</time>
      </trkpt>
      <trkpt lat="42.81386" lon="1.7714">
        <ele>2212.6115722656</ele>
        <time>2012-05-17T09:47:00Z</time>
      </trkpt>
      <trkpt lat="42.81393" lon="1.7714">
        <ele>2213.0922851562</ele>
        <time>2012-05-17T09:47:07Z</time>
      </trkpt>
      <trkpt lat="42.81402" lon="1.77142">
        <ele>2215.4956054688</ele>
        <time>2012-05-17T09:47:17Z</time>
      </trkpt>
      <trkpt lat="42.81408" lon="1.77142">
        <ele>2216.9375</ele>
        <time>2012-05-17T09:47:25Z</time>
      </trkpt>
      <trkpt lat="42.81415" lon="1.7714">
        <ele>2218.3793945312</ele>
        <time>2012-05-17T09:47:33Z</time>
      </trkpt>
      <trkpt lat="42.81423" lon="1.77137">
        <ele>2219.8212890625</ele>
        <time>2012-05-17T09:47:42Z</time>
      </trkpt>
      <trkpt lat="42.8143" lon="1.77136">
        <ele>2221.2634277344</ele>
        <time>2012-05-17T09:47:51Z</time>
      </trkpt>
      <trkpt lat="42.81437" lon="1.77135">
        <ele>2223.1862792969</ele>
        <time>2012-05-17T09:48:00Z</time>
      </trkpt>
      <trkpt lat="42.81441" lon="1.77133">
        <ele>2223.6667480469</ele>
        <time>2012-05-17T09:48:06Z</time>
      </trkpt>
      <trkpt lat="42.81448" lon="1.77131">
        <ele>2224.1474609375</ele>
        <time>2012-05-17T09:48:13Z</time>
      </trkpt>
      <trkpt lat="42.81454" lon="1.77132">
        <ele>2224.6281738281</ele>
        <time>2012-05-17T09:48:20Z</time>
      </trkpt>
      <trkpt lat="42.8146" lon="1.77131">
        <ele>2224.6281738281</ele>
        <time>2012-05-17T09:48:26Z</time>
      </trkpt>
      <trkpt lat="42.81465" lon="1.7713">
        <ele>2225.1086425781</ele>
        <time>2012-05-17T09:48:31Z</time>
      </trkpt>
      <trkpt lat="42.81476" lon="1.77127">
        <ele>2225.5893554688</ele>
        <time>2012-05-17T09:48:41Z</time>
      </trkpt>
      <trkpt lat="42.81485" lon="1.77125">
        <ele>2226.0700683594</ele>
        <time>2012-05-17T09:48:49Z</time>
      </trkpt>
      <trkpt lat="42.8149" lon="1.77121">
        <ele>2226.0700683594</ele>
        <time>2012-05-17T09:48:54Z</time>
      </trkpt>
      <trkpt lat="42.81498" lon="1.77118">
        <ele>2224.1474609375</ele>
        <time>2012-05-17T09:49:00Z</time>
      </trkpt>
      <trkpt lat="42.81507" lon="1.77118">
        <ele>2224.1474609375</ele>
        <time>2012-05-17T09:49:08Z</time>
      </trkpt>
      <trkpt lat="42.81512" lon="1.77117">
        <ele>2224.6281738281</ele>
        <time>2012-05-17T09:49:12Z</time>
      </trkpt>
      <trkpt lat="42.81519" lon="1.77115">
        <ele>2225.5893554688</ele>
        <time>2012-05-17T09:49:19Z</time>
      </trkpt>
      <trkpt lat="42.8152" lon="1.77115">
        <ele>2226.0700683594</ele>
        <time>2012-05-17T09:49:20Z</time>
      </trkpt>
      <trkpt lat="42.81531" lon="1.77111">
        <ele>2227.5119628906</ele>
        <time>2012-05-17T09:49:29Z</time>
      </trkpt>
      <trkpt lat="42.81536" lon="1.77109">
        <ele>2227.9926757812</ele>
        <time>2012-05-17T09:49:34Z</time>
      </trkpt>
      <trkpt lat="42.81541" lon="1.77109">
        <ele>2228.9538574219</ele>
        <time>2012-05-17T09:49:39Z</time>
      </trkpt>
      <trkpt lat="42.81551" lon="1.77104">
        <ele>2229.4345703125</ele>
        <time>2012-05-17T09:49:48Z</time>
      </trkpt>
      <trkpt lat="42.81555" lon="1.77102">
        <ele>2229.9152832031</ele>
        <time>2012-05-17T09:49:52Z</time>
      </trkpt>
      <trkpt lat="42.81562" lon="1.77102">
        <ele>2230.3959960938</ele>
        <time>2012-05-17T09:49:59Z</time>
      </trkpt>
      <trkpt lat="42.81563" lon="1.77101">
        <ele>2230.8767089844</ele>
        <time>2012-05-17T09:50:00Z</time>
      </trkpt>
      <trkpt lat="42.81572" lon="1.77098">
        <ele>2231.837890625</ele>
        <time>2012-05-17T09:50:08Z</time>
      </trkpt>
      <trkpt lat="42.8158" lon="1.77094">
        <ele>2232.7990722656</ele>
        <time>2012-05-17T09:50:15Z</time>
      </trkpt>
      <trkpt lat="42.81587" lon="1.7709">
        <ele>2233.2797851562</ele>
        <time>2012-05-17T09:50:22Z</time>
      </trkpt>
      <trkpt lat="42.81588" lon="1.7709">
        <ele>2233.7604980469</ele>
        <time>2012-05-17T09:50:23Z</time>
      </trkpt>
      <trkpt lat="42.81597" lon="1.77086">
        <ele>2232.7990722656</ele>
        <time>2012-05-17T09:50:30Z</time>
      </trkpt>
      <trkpt lat="42.81601" lon="1.77083">
        <ele>2234.2412109375</ele>
        <time>2012-05-17T09:50:34Z</time>
      </trkpt>
      <trkpt lat="42.8161" lon="1.7708">
        <ele>2234.2412109375</ele>
        <time>2012-05-17T09:50:42Z</time>
      </trkpt>
      <trkpt lat="42.81615" lon="1.77078">
        <ele>2234.7219238281</ele>
        <time>2012-05-17T09:50:49Z</time>
      </trkpt>
      <trkpt lat="42.81619" lon="1.77075">
        <ele>2235.2023925781</ele>
        <time>2012-05-17T09:50:57Z</time>
      </trkpt>
      <trkpt lat="42.81622" lon="1.7707">
        <ele>2235.6831054688</ele>
        <time>2012-05-17T09:51:04Z</time>
      </trkpt>
      <trkpt lat="42.81626" lon="1.77068">
        <ele>2236.1640625</ele>
        <time>2012-05-17T09:51:10Z</time>
      </trkpt>
      <trkpt lat="42.8163" lon="1.77065">
        <ele>2236.64453125</ele>
        <time>2012-05-17T09:51:16Z</time>
      </trkpt>
      <trkpt lat="42.81635" lon="1.77063">
        <ele>2237.1252441406</ele>
        <time>2012-05-17T09:51:21Z</time>
      </trkpt>
      <trkpt lat="42.81639" lon="1.77061">
        <ele>2237.1252441406</ele>
        <time>2012-05-17T09:51:27Z</time>
      </trkpt>
      <trkpt lat="42.81643" lon="1.77059">
        <ele>2237.6059570312</ele>
        <time>2012-05-17T09:51:32Z</time>
      </trkpt>
      <trkpt lat="42.81647" lon="1.77057">
        <ele>2238.0866699219</ele>
        <time>2012-05-17T09:51:36Z</time>
      </trkpt>
      <trkpt lat="42.8165" lon="1.77059">
        <ele>2238.0866699219</ele>
        <time>2012-05-17T09:51:42Z</time>
      </trkpt>
      <trkpt lat="42.81655" lon="1.77058">
        <ele>2239.5285644531</ele>
        <time>2012-05-17T09:51:49Z</time>
      </trkpt>
      <trkpt lat="42.81659" lon="1.77058">
        <ele>2240.4897460938</ele>
        <time>2012-05-17T09:51:55Z</time>
      </trkpt>
      <trkpt lat="42.81665" lon="1.7706">
        <ele>2241.9318847656</ele>
        <time>2012-05-17T09:52:03Z</time>
      </trkpt>
      <trkpt lat="42.81669" lon="1.77061">
        <ele>2242.4125976562</ele>
        <time>2012-05-17T09:52:08Z</time>
      </trkpt>
      <trkpt lat="42.81673" lon="1.7706">
        <ele>2242.8930664062</ele>
        <time>2012-05-17T09:52:13Z</time>
      </trkpt>
      <trkpt lat="42.81676" lon="1.77059">
        <ele>2243.8544921875</ele>
        <time>2012-05-17T09:52:18Z</time>
      </trkpt>
      <trkpt lat="42.81681" lon="1.77058">
        <ele>2244.3349609375</ele>
        <time>2012-05-17T09:52:24Z</time>
      </trkpt>
      <trkpt lat="42.81684" lon="1.77057">
        <ele>2245.7770996094</ele>
        <time>2012-05-17T09:52:30Z</time>
      </trkpt>
      <trkpt lat="42.81688" lon="1.77057">
        <ele>2247.2189941406</ele>
        <time>2012-05-17T09:52:36Z</time>
      </trkpt>
      <trkpt lat="42.81691" lon="1.77057">
        <ele>2248.1801757812</ele>
        <time>2012-05-17T09:52:42Z</time>
      </trkpt>
      <trkpt lat="42.81694" lon="1.77057">
        <ele>2250.1030273438</ele>
        <time>2012-05-17T09:52:48Z</time>
      </trkpt>
      <trkpt lat="42.81696" lon="1.77057">
        <ele>2250.5834960938</ele>
        <time>2012-05-17T09:52:53Z</time>
      </trkpt>
      <trkpt lat="42.817" lon="1.77056">
        <ele>2252.0256347656</ele>
        <time>2012-05-17T09:53:00Z</time>
      </trkpt>
      <trkpt lat="42.81702" lon="1.77059">
        <ele>2252.5063476562</ele>
        <time>2012-05-17T09:53:05Z</time>
      </trkpt>
      <trkpt lat="42.81704" lon="1.77062">
        <ele>2253.4677734375</ele>
        <time>2012-05-17T09:53:10Z</time>
      </trkpt>
      <trkpt lat="42.81705" lon="1.77065">
        <ele>2254.9096679688</ele>
        <time>2012-05-17T09:53:15Z</time>
      </trkpt>
      <trkpt lat="42.81707" lon="1.77068">
        <ele>2255.3903808594</ele>
        <time>2012-05-17T09:53:20Z</time>
      </trkpt>
      <trkpt lat="42.81709" lon="1.77074">
        <ele>2256.8322753906</ele>
        <time>2012-05-17T09:53:27Z</time>
      </trkpt>
      <trkpt lat="42.81711" lon="1.7708">
        <ele>2258.2741699219</ele>
        <time>2012-05-17T09:53:34Z</time>
      </trkpt>
      <trkpt lat="42.81712" lon="1.77085">
        <ele>2259.2355957031</ele>
        <time>2012-05-17T09:53:39Z</time>
      </trkpt>
      <trkpt lat="42.81712" lon="1.7709">
        <ele>2259.7160644531</ele>
        <time>2012-05-17T09:53:45Z</time>
      </trkpt>
      <trkpt lat="42.81712" lon="1.77095">
        <ele>2260.6774902344</ele>
        <time>2012-05-17T09:53:50Z</time>
      </trkpt>
      <trkpt lat="42.81712" lon="1.77104">
        <ele>2260.6774902344</ele>
        <time>2012-05-17T09:53:58Z</time>
      </trkpt>
      <trkpt lat="42.81715" lon="1.7711">
        <ele>2260.6774902344</ele>
        <time>2012-05-17T09:54:05Z</time>
      </trkpt>
      <trkpt lat="42.81715" lon="1.77115">
        <ele>2261.6389160156</ele>
        <time>2012-05-17T09:54:12Z</time>
      </trkpt>
      <trkpt lat="42.81717" lon="1.77117">
        <ele>2262.6000976562</ele>
        <time>2012-05-17T09:54:17Z</time>
      </trkpt>
      <trkpt lat="42.81721" lon="1.77118">
        <ele>2264.0419921875</ele>
        <time>2012-05-17T09:54:23Z</time>
      </trkpt>
      <trkpt lat="42.81723" lon="1.7712">
        <ele>2265.4841308594</ele>
        <time>2012-05-17T09:54:28Z</time>
      </trkpt>
      <trkpt lat="42.81726" lon="1.77121">
        <ele>2266.4453125</ele>
        <time>2012-05-17T09:54:35Z</time>
      </trkpt>
      <trkpt lat="42.8173" lon="1.7712">
        <ele>2267.8872070312</ele>
        <time>2012-05-17T09:54:43Z</time>
      </trkpt>
      <trkpt lat="42.81733" lon="1.77118">
        <ele>2268.8488769531</ele>
        <time>2012-05-17T09:54:48Z</time>
      </trkpt>
      <trkpt lat="42.81738" lon="1.77116">
        <ele>2270.2907714844</ele>
        <time>2012-05-17T09:54:55Z</time>
      </trkpt>
      <trkpt lat="42.8174" lon="1.77114">
        <ele>2271.251953125</ele>
        <time>2012-05-17T09:55:00Z</time>
      </trkpt>
      <trkpt lat="42.81743" lon="1.77113">
        <ele>2272.6940917969</ele>
        <time>2012-05-17T09:55:05Z</time>
      </trkpt>
      <trkpt lat="42.81747" lon="1.7711">
        <ele>2273.6552734375</ele>
        <time>2012-05-17T09:55:11Z</time>
      </trkpt>
      <trkpt lat="42.8175" lon="1.77107">
        <ele>2275.0971679688</ele>
        <time>2012-05-17T09:55:17Z</time>
      </trkpt>
      <trkpt lat="42.81752" lon="1.77106">
        <ele>2276.05859375</ele>
        <time>2012-05-17T09:55:21Z</time>
      </trkpt>
      <trkpt lat="42.81754" lon="1.77104">
        <ele>2277.9812011719</ele>
        <time>2012-05-17T09:55:25Z</time>
      </trkpt>
      <trkpt lat="42.81756" lon="1.77101">
        <ele>2279.4230957031</ele>
        <time>2012-05-17T09:55:32Z</time>
      </trkpt>
      <trkpt lat="42.81756" lon="1.771">
        <ele>2279.9038085938</ele>
        <time>2012-05-17T09:55:43Z</time>
      </trkpt>
      <trkpt lat="42.81759" lon="1.77098">
        <ele>2280.3845214844</ele>
        <time>2012-05-17T09:55:48Z</time>
      </trkpt>
      <trkpt lat="42.81763" lon="1.77095">
        <ele>2280.865234375</ele>
        <time>2012-05-17T09:55:54Z</time>
      </trkpt>
      <trkpt lat="42.81766" lon="1.77092">
        <ele>2281.8264160156</ele>
        <time>2012-05-17T09:56:00Z</time>
      </trkpt>
      <trkpt lat="42.81769" lon="1.7709">
        <ele>2283.2683105469</ele>
        <time>2012-05-17T09:56:05Z</time>
      </trkpt>
      <trkpt lat="42.81771" lon="1.77086">
        <ele>2284.7106933594</ele>
        <time>2012-05-17T09:56:12Z</time>
      </trkpt>
      <trkpt lat="42.81775" lon="1.77083">
        <ele>2285.671875</ele>
        <time>2012-05-17T09:56:18Z</time>
      </trkpt>
      <trkpt lat="42.81777" lon="1.77082">
        <ele>2286.1525878906</ele>
        <time>2012-05-17T09:56:23Z</time>
      </trkpt>
      <trkpt lat="42.81779" lon="1.7708">
        <ele>2287.1137695312</ele>
        <time>2012-05-17T09:56:28Z</time>
      </trkpt>
      <trkpt lat="42.81781" lon="1.77078">
        <ele>2287.5944824219</ele>
        <time>2012-05-17T09:56:33Z</time>
      </trkpt>
      <trkpt lat="42.81784" lon="1.7708">
        <ele>2288.5559082031</ele>
        <time>2012-05-17T09:56:40Z</time>
      </trkpt>
      <trkpt lat="42.81785" lon="1.77078">
        <ele>2288.5559082031</ele>
        <time>2012-05-17T09:56:47Z</time>
      </trkpt>
      <trkpt lat="42.81786" lon="1.77076">
        <ele>2289.0363769531</ele>
        <time>2012-05-17T09:56:53Z</time>
      </trkpt>
      <trkpt lat="42.81787" lon="1.77076">
        <ele>2289.5170898438</ele>
        <time>2012-05-17T09:57:01Z</time>
      </trkpt>
      <trkpt lat="42.81787" lon="1.77076">
        <ele>2289.5170898438</ele>
        <time>2012-05-17T09:57:10Z</time>
      </trkpt>
      <trkpt lat="42.81789" lon="1.77076">
        <ele>2289.9978027344</ele>
        <time>2012-05-17T09:57:16Z</time>
      </trkpt>
      <trkpt lat="42.81791" lon="1.77077">
        <ele>2291.4396972656</ele>
        <time>2012-05-17T09:57:20Z</time>
      </trkpt>
      <trkpt lat="42.81792" lon="1.77081">
        <ele>2292.8815917969</ele>
        <time>2012-05-17T09:57:25Z</time>
      </trkpt>
      <trkpt lat="42.81794" lon="1.77084">
        <ele>2294.3234863281</ele>
        <time>2012-05-17T09:57:30Z</time>
      </trkpt>
      <trkpt lat="42.81797" lon="1.77088">
        <ele>2295.765625</ele>
        <time>2012-05-17T09:57:37Z</time>
      </trkpt>
      <trkpt lat="42.81798" lon="1.77089">
        <ele>2296.7268066406</ele>
        <time>2012-05-17T09:57:42Z</time>
      </trkpt>
      <trkpt lat="42.818" lon="1.77089">
        <ele>2297.6882324219</ele>
        <time>2012-05-17T09:57:47Z</time>
      </trkpt>
      <trkpt lat="42.81804" lon="1.77092">
        <ele>2299.1301269531</ele>
        <time>2012-05-17T09:57:54Z</time>
      </trkpt>
      <trkpt lat="42.81806" lon="1.77092">
        <ele>2300.572265625</ele>
        <time>2012-05-17T09:57:59Z</time>
      </trkpt>
      <trkpt lat="42.81807" lon="1.77093">
        <ele>2302.0141601562</ele>
        <time>2012-05-17T09:58:04Z</time>
      </trkpt>
      <trkpt lat="42.81809" lon="1.77096">
        <ele>2302.4948730469</ele>
        <time>2012-05-17T09:58:10Z</time>
      </trkpt>
      <trkpt lat="42.81811" lon="1.77098">
        <ele>2303.4562988281</ele>
        <time>2012-05-17T09:58:15Z</time>
      </trkpt>
      <trkpt lat="42.81813" lon="1.77098">
        <ele>2304.4174804688</ele>
        <time>2012-05-17T09:58:20Z</time>
      </trkpt>
      <trkpt lat="42.81814" lon="1.77094">
        <ele>2305.37890625</ele>
        <time>2012-05-17T09:58:25Z</time>
      </trkpt>
      <trkpt lat="42.81816" lon="1.77092">
        <ele>2306.8208007812</ele>
        <time>2012-05-17T09:58:31Z</time>
      </trkpt>
      <trkpt lat="42.81818" lon="1.7709">
        <ele>2307.7822265625</ele>
        <time>2012-05-17T09:58:36Z</time>
      </trkpt>
      <trkpt lat="42.81818" lon="1.7709">
        <ele>2308.2626953125</ele>
        <time>2012-05-17T09:58:42Z</time>
      </trkpt>
      <trkpt lat="42.81821" lon="1.77091">
        <ele>2309.2241210938</ele>
        <time>2012-05-17T09:58:48Z</time>
      </trkpt>
      <trkpt lat="42.81823" lon="1.77089">
        <ele>2310.666015625</ele>
        <time>2012-05-17T09:58:54Z</time>
      </trkpt>
      <trkpt lat="42.81825" lon="1.77087">
        <ele>2312.5886230469</ele>
        <time>2012-05-17T09:59:00Z</time>
      </trkpt>
      <trkpt lat="42.81828" lon="1.77089">
        <ele>2313.5498046875</ele>
        <time>2012-05-17T09:59:05Z</time>
      </trkpt>
      <trkpt lat="42.8183" lon="1.77091">
        <ele>2314.5112304688</ele>
        <time>2012-05-17T09:59:10Z</time>
      </trkpt>
      <trkpt lat="42.81833" lon="1.7709">
        <ele>2314.9919433594</ele>
        <time>2012-05-17T09:59:16Z</time>
      </trkpt>
      <trkpt lat="42.81835" lon="1.77089">
        <ele>2315.953125</ele>
        <time>2012-05-17T09:59:21Z</time>
      </trkpt>
      <trkpt lat="42.81839" lon="1.7709">
        <ele>2316.9147949219</ele>
        <time>2012-05-17T09:59:27Z</time>
      </trkpt>
      <trkpt lat="42.81842" lon="1.77088">
        <ele>2317.8759765625</ele>
        <time>2012-05-17T09:59:33Z</time>
      </trkpt>
      <trkpt lat="42.81845" lon="1.77088">
        <ele>2318.8374023438</ele>
        <time>2012-05-17T09:59:39Z</time>
      </trkpt>
      <trkpt lat="42.81849" lon="1.7709">
        <ele>2320.7600097656</ele>
        <time>2012-05-17T09:59:47Z</time>
      </trkpt>
      <trkpt lat="42.81849" lon="1.7709">
        <ele>2321.2404785156</ele>
        <time>2012-05-17T09:59:56Z</time>
      </trkpt>
      <trkpt lat="42.81849" lon="1.7709">
        <ele>2321.7211914062</ele>
        <time>2012-05-17T10:00:12Z</time>
      </trkpt>
      <trkpt lat="42.81849" lon="1.77087">
        <ele>2323.1633300781</ele>
        <time>2012-05-17T10:00:28Z</time>
      </trkpt>
      <trkpt lat="42.81852" lon="1.77085">
        <ele>2324.6052246094</ele>
        <time>2012-05-17T10:00:34Z</time>
      </trkpt>
      <trkpt lat="42.81856" lon="1.77083">
        <ele>2325.56640625</ele>
        <time>2012-05-17T10:00:40Z</time>
      </trkpt>
      <trkpt lat="42.8186" lon="1.77082">
        <ele>2326.0471191406</ele>
        <time>2012-05-17T10:00:46Z</time>
      </trkpt>
      <trkpt lat="42.81864" lon="1.77086">
        <ele>2326.5278320312</ele>
        <time>2012-05-17T10:00:53Z</time>
      </trkpt>
      <trkpt lat="42.81866" lon="1.77089">
        <ele>2327.0085449219</ele>
        <time>2012-05-17T10:00:58Z</time>
      </trkpt>
      <trkpt lat="42.81868" lon="1.77088">
        <ele>2327.9697265625</ele>
        <time>2012-05-17T10:01:06Z</time>
      </trkpt>
      <trkpt lat="42.8187" lon="1.77084">
        <ele>2329.8923339844</ele>
        <time>2012-05-17T10:01:12Z</time>
      </trkpt>
      <trkpt lat="42.81873" lon="1.77081">
        <ele>2331.3342285156</ele>
        <time>2012-05-17T10:01:18Z</time>
      </trkpt>
      <trkpt lat="42.81876" lon="1.7708">
        <ele>2332.2958984375</ele>
        <time>2012-05-17T10:01:24Z</time>
      </trkpt>
      <trkpt lat="42.81878" lon="1.77083">
        <ele>2332.2958984375</ele>
        <time>2012-05-17T10:01:30Z</time>
      </trkpt>
      <trkpt lat="42.81879" lon="1.77084">
        <ele>2332.7763671875</ele>
        <time>2012-05-17T10:01:36Z</time>
      </trkpt>
      <trkpt lat="42.81881" lon="1.77086">
        <ele>2333.7377929688</ele>
        <time>2012-05-17T10:01:41Z</time>
      </trkpt>
      <trkpt lat="42.81881" lon="1.77088">
        <ele>2333.7377929688</ele>
        <time>2012-05-17T10:01:47Z</time>
      </trkpt>
      <trkpt lat="42.81882" lon="1.77087">
        <ele>2334.2185058594</ele>
        <time>2012-05-17T10:01:55Z</time>
      </trkpt>
      <trkpt lat="42.81884" lon="1.77087">
        <ele>2334.69921875</ele>
        <time>2012-05-17T10:02:01Z</time>
      </trkpt>
      <trkpt lat="42.81886" lon="1.77086">
        <ele>2335.6604003906</ele>
        <time>2012-05-17T10:02:06Z</time>
      </trkpt>
      <trkpt lat="42.81887" lon="1.77086">
        <ele>2337.1022949219</ele>
        <time>2012-05-17T10:02:11Z</time>
      </trkpt>
      <trkpt lat="42.8189" lon="1.77086">
        <ele>2338.0637207031</ele>
        <time>2012-05-17T10:02:17Z</time>
      </trkpt>
      <trkpt lat="42.81892" lon="1.77089">
        <ele>2338.5444335938</ele>
        <time>2012-05-17T10:02:23Z</time>
      </trkpt>
      <trkpt lat="42.81895" lon="1.77091">
        <ele>2339.5056152344</ele>
        <time>2012-05-17T10:02:29Z</time>
      </trkpt>
      <trkpt lat="42.81897" lon="1.77095">
        <ele>2340.9475097656</ele>
        <time>2012-05-17T10:02:37Z</time>
      </trkpt>
      <trkpt lat="42.81896" lon="1.77095">
        <ele>2340.9475097656</ele>
        <time>2012-05-17T10:02:43Z</time>
      </trkpt>
      <trkpt lat="42.81896" lon="1.77095">
        <ele>2341.4282226562</ele>
        <time>2012-05-17T10:02:51Z</time>
      </trkpt>
      <trkpt lat="42.81896" lon="1.77095">
        <ele>2341.9089355469</ele>
        <time>2012-05-17T10:02:58Z</time>
      </trkpt>
      <trkpt lat="42.81896" lon="1.77095">
        <ele>2341.9089355469</ele>
        <time>2012-05-17T10:03:04Z</time>
      </trkpt>
      <trkpt lat="42.81895" lon="1.77096">
        <ele>2341.9089355469</ele>
        <time>2012-05-17T10:03:13Z</time>
      </trkpt>
      <trkpt lat="42.81898" lon="1.77097">
        <ele>2342.8701171875</ele>
        <time>2012-05-17T10:03:20Z</time>
      </trkpt>
      <trkpt lat="42.819" lon="1.77099">
        <ele>2343.8315429688</ele>
        <time>2012-05-17T10:03:27Z</time>
      </trkpt>
      <trkpt lat="42.81905" lon="1.77097">
        <ele>2344.7927246094</ele>
        <time>2012-05-17T10:03:34Z</time>
      </trkpt>
      <trkpt lat="42.81907" lon="1.77101">
        <ele>2345.7541503906</ele>
        <time>2012-05-17T10:03:39Z</time>
      </trkpt>
      <trkpt lat="42.81909" lon="1.77106">
        <ele>2347.1960449219</ele>
        <time>2012-05-17T10:03:45Z</time>
      </trkpt>
      <trkpt lat="42.8191" lon="1.7711">
        <ele>2349.1188964844</ele>
        <time>2012-05-17T10:03:51Z</time>
      </trkpt>
      <trkpt lat="42.81912" lon="1.77113">
        <ele>2350.5607910156</ele>
        <time>2012-05-17T10:03:56Z</time>
      </trkpt>
      <trkpt lat="42.81915" lon="1.77103">
        <ele>2353.4448242188</ele>
        <time>2012-05-17T10:07:06Z</time>
      </trkpt>
      <trkpt lat="42.81915" lon="1.77103">
        <ele>2353.4448242188</ele>
        <time>2012-05-17T10:07:07Z</time>
      </trkpt>
      <trkpt lat="42.81914" lon="1.77101">
        <ele>2352.0026855469</ele>
        <time>2012-05-17T10:07:11Z</time>
      </trkpt>
      <trkpt lat="42.81913" lon="1.77099">
        <ele>2350.0803222656</ele>
        <time>2012-05-17T10:07:17Z</time>
      </trkpt>
      <trkpt lat="42.81913" lon="1.77091">
        <ele>2349.599609375</ele>
        <time>2012-05-17T10:07:23Z</time>
      </trkpt>
      <trkpt lat="42.81913" lon="1.77083">
        <ele>2347.1960449219</ele>
        <time>2012-05-17T10:07:29Z</time>
      </trkpt>
      <trkpt lat="42.81911" lon="1.77076">
        <ele>2346.2348632812</ele>
        <time>2012-05-17T10:07:35Z</time>
      </trkpt>
      <trkpt lat="42.8191" lon="1.77065">
        <ele>2344.7927246094</ele>
        <time>2012-05-17T10:07:41Z</time>
      </trkpt>
      <trkpt lat="42.8191" lon="1.77062">
        <ele>2343.3508300781</ele>
        <time>2012-05-17T10:07:43Z</time>
      </trkpt>
      <trkpt lat="42.8191" lon="1.77052">
        <ele>2341.4282226562</ele>
        <time>2012-05-17T10:07:50Z</time>
      </trkpt>
      <trkpt lat="42.8191" lon="1.77042">
        <ele>2339.986328125</ele>
        <time>2012-05-17T10:07:56Z</time>
      </trkpt>
      <trkpt lat="42.8191" lon="1.77034">
        <ele>2339.5056152344</ele>
        <time>2012-05-17T10:08:01Z</time>
      </trkpt>
      <trkpt lat="42.81913" lon="1.7703">
        <ele>2338.0637207031</ele>
        <time>2012-05-17T10:08:07Z</time>
      </trkpt>
      <trkpt lat="42.81913" lon="1.7703">
        <ele>2337.5830078125</ele>
        <time>2012-05-17T10:08:26Z</time>
      </trkpt>
      <trkpt lat="42.81914" lon="1.77025">
        <ele>2337.1022949219</ele>
        <time>2012-05-17T10:08:33Z</time>
      </trkpt>
      <trkpt lat="42.81915" lon="1.77016">
        <ele>2333.7377929688</ele>
        <time>2012-05-17T10:08:40Z</time>
      </trkpt>
      <trkpt lat="42.81915" lon="1.77014">
        <ele>2333.7377929688</ele>
        <time>2012-05-17T10:08:41Z</time>
      </trkpt>
      <trkpt lat="42.81916" lon="1.77">
        <ele>2331.3342285156</ele>
        <time>2012-05-17T10:08:50Z</time>
      </trkpt>
      <trkpt lat="42.81916" lon="1.76997">
        <ele>2331.3342285156</ele>
        <time>2012-05-17T10:08:53Z</time>
      </trkpt>
      <trkpt lat="42.81917" lon="1.76994">
        <ele>2330.373046875</ele>
        <time>2012-05-17T10:09:01Z</time>
      </trkpt>
      <trkpt lat="42.81916" lon="1.76992">
        <ele>2329.4116210938</ele>
        <time>2012-05-17T10:09:15Z</time>
      </trkpt>
      <trkpt lat="42.81916" lon="1.76987">
        <ele>2327.0085449219</ele>
        <time>2012-05-17T10:09:21Z</time>
      </trkpt>
      <trkpt lat="42.81919" lon="1.7698">
        <ele>2324.6052246094</ele>
        <time>2012-05-17T10:09:28Z</time>
      </trkpt>
      <trkpt lat="42.81919" lon="1.76977">
        <ele>2322.6826171875</ele>
        <time>2012-05-17T10:09:33Z</time>
      </trkpt>
      <trkpt lat="42.81916" lon="1.76972">
        <ele>2320.279296875</ele>
        <time>2012-05-17T10:09:39Z</time>
      </trkpt>
      <trkpt lat="42.81915" lon="1.76967">
        <ele>2318.3566894531</ele>
        <time>2012-05-17T10:09:44Z</time>
      </trkpt>
      <trkpt lat="42.81916" lon="1.76959">
        <ele>2316.4340820312</ele>
        <time>2012-05-17T10:09:50Z</time>
      </trkpt>
      <trkpt lat="42.81918" lon="1.76956">
        <ele>2315.47265625</ele>
        <time>2012-05-17T10:09:52Z</time>
      </trkpt>
      <trkpt lat="42.81919" lon="1.76953">
        <ele>2314.9919433594</ele>
        <time>2012-05-17T10:09:55Z</time>
      </trkpt>
      <trkpt lat="42.81919" lon="1.76949">
        <ele>2314.0305175781</ele>
        <time>2012-05-17T10:09:59Z</time>
      </trkpt>
      <trkpt lat="42.81922" lon="1.76938">
        <ele>2313.0693359375</ele>
        <time>2012-05-17T10:10:06Z</time>
      </trkpt>
      <trkpt lat="42.81924" lon="1.76934">
        <ele>2312.5886230469</ele>
        <time>2012-05-17T10:10:09Z</time>
      </trkpt>
      <trkpt lat="42.81927" lon="1.76928">
        <ele>2310.1853027344</ele>
        <time>2012-05-17T10:10:14Z</time>
      </trkpt>
      <trkpt lat="42.8193" lon="1.76919">
        <ele>2308.2626953125</ele>
        <time>2012-05-17T10:10:20Z</time>
      </trkpt>
      <trkpt lat="42.81931" lon="1.76911">
        <ele>2305.37890625</ele>
        <time>2012-05-17T10:10:26Z</time>
      </trkpt>
      <trkpt lat="42.81934" lon="1.76904">
        <ele>2303.4562988281</ele>
        <time>2012-05-17T10:10:31Z</time>
      </trkpt>
      <trkpt lat="42.81936" lon="1.769">
        <ele>2302.0141601562</ele>
        <time>2012-05-17T10:10:35Z</time>
      </trkpt>
      <trkpt lat="42.81936" lon="1.76898">
        <ele>2301.0529785156</ele>
        <time>2012-05-17T10:10:37Z</time>
      </trkpt>
      <trkpt lat="42.8194" lon="1.7689">
        <ele>2299.1301269531</ele>
        <time>2012-05-17T10:10:43Z</time>
      </trkpt>
      <trkpt lat="42.8194" lon="1.76883">
        <ele>2297.2075195312</ele>
        <time>2012-05-17T10:10:48Z</time>
      </trkpt>
      <trkpt lat="42.81941" lon="1.7688">
        <ele>2295.765625</ele>
        <time>2012-05-17T10:10:51Z</time>
      </trkpt>
      <trkpt lat="42.8194" lon="1.76875">
        <ele>2294.3234863281</ele>
        <time>2012-05-17T10:10:54Z</time>
      </trkpt>
      <trkpt lat="42.81942" lon="1.7687">
        <ele>2291.4396972656</ele>
        <time>2012-05-17T10:10:59Z</time>
      </trkpt>
      <trkpt lat="42.81944" lon="1.76866">
        <ele>2289.9978027344</ele>
        <time>2012-05-17T10:11:04Z</time>
      </trkpt>
      <trkpt lat="42.81942" lon="1.76861">
        <ele>2288.5559082031</ele>
        <time>2012-05-17T10:11:09Z</time>
      </trkpt>
      <trkpt lat="42.81946" lon="1.76858">
        <ele>2287.1137695312</ele>
        <time>2012-05-17T10:11:14Z</time>
      </trkpt>
      <trkpt lat="42.81947" lon="1.76854">
        <ele>2286.1525878906</ele>
        <time>2012-05-17T10:11:19Z</time>
      </trkpt>
      <trkpt lat="42.81945" lon="1.76849">
        <ele>2285.671875</ele>
        <time>2012-05-17T10:11:23Z</time>
      </trkpt>
      <trkpt lat="42.81946" lon="1.76844">
        <ele>2285.1911621094</ele>
        <time>2012-05-17T10:11:27Z</time>
      </trkpt>
      <trkpt lat="42.81948" lon="1.76839">
        <ele>2284.7106933594</ele>
        <time>2012-05-17T10:11:33Z</time>
      </trkpt>
      <trkpt lat="42.81948" lon="1.76833">
        <ele>2283.2683105469</ele>
        <time>2012-05-17T10:11:38Z</time>
      </trkpt>
      <trkpt lat="42.81947" lon="1.76827">
        <ele>2281.345703125</ele>
        <time>2012-05-17T10:11:42Z</time>
      </trkpt>
      <trkpt lat="42.81949" lon="1.76824">
        <ele>2279.9038085938</ele>
        <time>2012-05-17T10:11:46Z</time>
      </trkpt>
      <trkpt lat="42.81948" lon="1.76821">
        <ele>2279.9038085938</ele>
        <time>2012-05-17T10:11:48Z</time>
      </trkpt>
      <trkpt lat="42.81952" lon="1.76817">
        <ele>2277.0200195312</ele>
        <time>2012-05-17T10:11:53Z</time>
      </trkpt>
      <trkpt lat="42.81953" lon="1.7681">
        <ele>2275.5778808594</ele>
        <time>2012-05-17T10:11:57Z</time>
      </trkpt>
      <trkpt lat="42.81958" lon="1.76808">
        <ele>2273.1748046875</ele>
        <time>2012-05-17T10:12:01Z</time>
      </trkpt>
      <trkpt lat="42.81958" lon="1.76807">
        <ele>2273.1748046875</ele>
        <time>2012-05-17T10:12:02Z</time>
      </trkpt>
      <trkpt lat="42.81959" lon="1.76795">
        <ele>2269.8100585938</ele>
        <time>2012-05-17T10:12:09Z</time>
      </trkpt>
      <trkpt lat="42.81964" lon="1.76787">
        <ele>2267.4064941406</ele>
        <time>2012-05-17T10:12:16Z</time>
      </trkpt>
      <trkpt lat="42.81965" lon="1.76776">
        <ele>2264.5227050781</ele>
        <time>2012-05-17T10:12:23Z</time>
      </trkpt>
      <trkpt lat="42.81966" lon="1.76775">
        <ele>2264.0419921875</ele>
        <time>2012-05-17T10:12:24Z</time>
      </trkpt>
      <trkpt lat="42.81966" lon="1.76771">
        <ele>2263.5612792969</ele>
        <time>2012-05-17T10:12:26Z</time>
      </trkpt>
      <trkpt lat="42.81969" lon="1.76763">
        <ele>2262.6000976562</ele>
        <time>2012-05-17T10:12:32Z</time>
      </trkpt>
      <trkpt lat="42.81977" lon="1.76761">
        <ele>2258.2741699219</ele>
        <time>2012-05-17T10:12:38Z</time>
      </trkpt>
      <trkpt lat="42.81982" lon="1.76756">
        <ele>2256.3515625</ele>
        <time>2012-05-17T10:12:43Z</time>
      </trkpt>
      <trkpt lat="42.81983" lon="1.76756">
        <ele>2255.8708496094</ele>
        <time>2012-05-17T10:12:44Z</time>
      </trkpt>
      <trkpt lat="42.81987" lon="1.76751">
        <ele>2253.4677734375</ele>
        <time>2012-05-17T10:12:51Z</time>
      </trkpt>
      <trkpt lat="42.81989" lon="1.76743">
        <ele>2252.0256347656</ele>
        <time>2012-05-17T10:12:56Z</time>
      </trkpt>
      <trkpt lat="42.8199" lon="1.76736">
        <ele>2250.1030273438</ele>
        <time>2012-05-17T10:13:02Z</time>
      </trkpt>
      <trkpt lat="42.81993" lon="1.76736">
        <ele>2249.6223144531</ele>
        <time>2012-05-17T10:13:04Z</time>
      </trkpt>
      <trkpt lat="42.81996" lon="1.76727">
        <ele>2247.6997070312</ele>
        <time>2012-05-17T10:13:12Z</time>
      </trkpt>
      <trkpt lat="42.81996" lon="1.7672">
        <ele>2245.7770996094</ele>
        <time>2012-05-17T10:13:18Z</time>
      </trkpt>
      <trkpt lat="42.81994" lon="1.76711">
        <ele>2243.8544921875</ele>
        <time>2012-05-17T10:13:25Z</time>
      </trkpt>
      <trkpt lat="42.81992" lon="1.76707">
        <ele>2243.3737792969</ele>
        <time>2012-05-17T10:13:27Z</time>
      </trkpt>
      <trkpt lat="42.81989" lon="1.76701">
        <ele>2240.9704589844</ele>
        <time>2012-05-17T10:13:33Z</time>
      </trkpt>
      <trkpt lat="42.8199" lon="1.76696">
        <ele>2237.6059570312</ele>
        <time>2012-05-17T10:13:38Z</time>
      </trkpt>
      <trkpt lat="42.81991" lon="1.76695">
        <ele>2235.2023925781</ele>
        <time>2012-05-17T10:13:43Z</time>
      </trkpt>
      <trkpt lat="42.81987" lon="1.76689">
        <ele>2232.3186035156</ele>
        <time>2012-05-17T10:13:49Z</time>
      </trkpt>
      <trkpt lat="42.81989" lon="1.76686">
        <ele>2230.8767089844</ele>
        <time>2012-05-17T10:13:53Z</time>
      </trkpt>
      <trkpt lat="42.81993" lon="1.76684">
        <ele>2228.9538574219</ele>
        <time>2012-05-17T10:13:58Z</time>
      </trkpt>
      <trkpt lat="42.81992" lon="1.76682">
        <ele>2227.9926757812</ele>
        <time>2012-05-17T10:14:04Z</time>
      </trkpt>
      <trkpt lat="42.81991" lon="1.76678">
        <ele>2226.0700683594</ele>
        <time>2012-05-17T10:14:09Z</time>
      </trkpt>
      <trkpt lat="42.81994" lon="1.76673">
        <ele>2223.6667480469</ele>
        <time>2012-05-17T10:14:15Z</time>
      </trkpt>
      <trkpt lat="42.81993" lon="1.76669">
        <ele>2221.744140625</ele>
        <time>2012-05-17T10:14:21Z</time>
      </trkpt>
      <trkpt lat="42.81993" lon="1.76664">
        <ele>2220.3022460938</ele>
        <time>2012-05-17T10:14:26Z</time>
      </trkpt>
      <trkpt lat="42.81997" lon="1.76661">
        <ele>2218.3793945312</ele>
        <time>2012-05-17T10:14:31Z</time>
      </trkpt>
      <trkpt lat="42.81995" lon="1.76658">
        <ele>2216.9375</ele>
        <time>2012-05-17T10:14:36Z</time>
      </trkpt>
      <trkpt lat="42.81995" lon="1.76652">
        <ele>2215.9760742188</ele>
        <time>2012-05-17T10:14:42Z</time>
      </trkpt>
      <trkpt lat="42.81998" lon="1.76651">
        <ele>2214.0534667969</ele>
        <time>2012-05-17T10:14:49Z</time>
      </trkpt>
      <trkpt lat="42.81998" lon="1.76647">
        <ele>2212.6115722656</ele>
        <time>2012-05-17T10:14:54Z</time>
      </trkpt>
      <trkpt lat="42.81996" lon="1.76645">
        <ele>2210.2082519531</ele>
        <time>2012-05-17T10:15:00Z</time>
      </trkpt>
      <trkpt lat="42.81997" lon="1.76642">
        <ele>2208.7663574219</ele>
        <time>2012-05-17T10:15:05Z</time>
      </trkpt>
      <trkpt lat="42.81993" lon="1.76639">
        <ele>2205.8823242188</ele>
        <time>2012-05-17T10:15:10Z</time>
      </trkpt>
      <trkpt lat="42.81992" lon="1.76634">
        <ele>2204.4404296875</ele>
        <time>2012-05-17T10:15:15Z</time>
      </trkpt>
      <trkpt lat="42.81997" lon="1.76631">
        <ele>2203.4790039062</ele>
        <time>2012-05-17T10:15:20Z</time>
      </trkpt>
      <trkpt lat="42.82001" lon="1.76625">
        <ele>2200.5949707031</ele>
        <time>2012-05-17T10:15:28Z</time>
      </trkpt>
      <trkpt lat="42.82004" lon="1.76623">
        <ele>2198.6723632812</ele>
        <time>2012-05-17T10:15:34Z</time>
      </trkpt>
      <trkpt lat="42.82006" lon="1.7662">
        <ele>2197.7111816406</ele>
        <time>2012-05-17T10:15:38Z</time>
      </trkpt>
      <trkpt lat="42.82006" lon="1.76619">
        <ele>2195.3078613281</ele>
        <time>2012-05-17T10:15:45Z</time>
      </trkpt>
      <trkpt lat="42.82006" lon="1.76616">
        <ele>2193.8659667969</ele>
        <time>2012-05-17T10:15:52Z</time>
      </trkpt>
      <trkpt lat="42.82008" lon="1.7661">
        <ele>2191.943359375</ele>
        <time>2012-05-17T10:15:59Z</time>
      </trkpt>
      <trkpt lat="42.82011" lon="1.76609">
        <ele>2190.5012207031</ele>
        <time>2012-05-17T10:16:04Z</time>
      </trkpt>
      <trkpt lat="42.82009" lon="1.76604">
        <ele>2189.0593261719</ele>
        <time>2012-05-17T10:16:10Z</time>
      </trkpt>
      <trkpt lat="42.82014" lon="1.76601">
        <ele>2186.6557617188</ele>
        <time>2012-05-17T10:16:16Z</time>
      </trkpt>
      <trkpt lat="42.82015" lon="1.76599">
        <ele>2185.2138671875</ele>
        <time>2012-05-17T10:16:20Z</time>
      </trkpt>
      <trkpt lat="42.82016" lon="1.76593">
        <ele>2183.7719726562</ele>
        <time>2012-05-17T10:16:25Z</time>
      </trkpt>
      <trkpt lat="42.82018" lon="1.76592">
        <ele>2183.2912597656</ele>
        <time>2012-05-17T10:16:27Z</time>
      </trkpt>
      <trkpt lat="42.8202" lon="1.76587">
        <ele>2181.3686523438</ele>
        <time>2012-05-17T10:16:31Z</time>
      </trkpt>
      <trkpt lat="42.82023" lon="1.76585">
        <ele>2179.9267578125</ele>
        <time>2012-05-17T10:16:34Z</time>
      </trkpt>
      <trkpt lat="42.82027" lon="1.76583">
        <ele>2177.04296875</ele>
        <time>2012-05-17T10:16:42Z</time>
      </trkpt>
      <trkpt lat="42.82026" lon="1.76577">
        <ele>2175.6008300781</ele>
        <time>2012-05-17T10:16:46Z</time>
      </trkpt>
      <trkpt lat="42.82032" lon="1.76574">
        <ele>2173.6782226562</ele>
        <time>2012-05-17T10:16:50Z</time>
      </trkpt>
      <trkpt lat="42.82037" lon="1.76574">
        <ele>2171.7553710938</ele>
        <time>2012-05-17T10:16:55Z</time>
      </trkpt>
      <trkpt lat="42.82034" lon="1.76567">
        <ele>2170.7941894531</ele>
        <time>2012-05-17T10:17:01Z</time>
      </trkpt>
      <trkpt lat="42.82032" lon="1.76561">
        <ele>2167.91015625</ele>
        <time>2012-05-17T10:17:07Z</time>
      </trkpt>
      <trkpt lat="42.8203" lon="1.76557">
        <ele>2166.9489746094</ele>
        <time>2012-05-17T10:17:13Z</time>
      </trkpt>
      <trkpt lat="42.82031" lon="1.76553">
        <ele>2165.0263671875</ele>
        <time>2012-05-17T10:17:19Z</time>
      </trkpt>
      <trkpt lat="42.82032" lon="1.7655">
        <ele>2163.5842285156</ele>
        <time>2012-05-17T10:17:25Z</time>
      </trkpt>
      <trkpt lat="42.82033" lon="1.76546">
        <ele>2162.623046875</ele>
        <time>2012-05-17T10:17:31Z</time>
      </trkpt>
      <trkpt lat="42.82032" lon="1.76544">
        <ele>2162.623046875</ele>
        <time>2012-05-17T10:17:37Z</time>
      </trkpt>
      <trkpt lat="42.82032" lon="1.76539">
        <ele>2161.1811523438</ele>
        <time>2012-05-17T10:17:42Z</time>
      </trkpt>
      <trkpt lat="42.82035" lon="1.76537">
        <ele>2159.7390136719</ele>
        <time>2012-05-17T10:17:47Z</time>
      </trkpt>
      <trkpt lat="42.82037" lon="1.76533">
        <ele>2157.8166503906</ele>
        <time>2012-05-17T10:17:53Z</time>
      </trkpt>
      <trkpt lat="42.82038" lon="1.76528">
        <ele>2155.8935546875</ele>
        <time>2012-05-17T10:17:59Z</time>
      </trkpt>
      <trkpt lat="42.82038" lon="1.76523">
        <ele>2154.4516601562</ele>
        <time>2012-05-17T10:18:05Z</time>
      </trkpt>
      <trkpt lat="42.82036" lon="1.76519">
        <ele>2153.4904785156</ele>
        <time>2012-05-17T10:18:08Z</time>
      </trkpt>
      <trkpt lat="42.82036" lon="1.76513">
        <ele>2150.6064453125</ele>
        <time>2012-05-17T10:18:13Z</time>
      </trkpt>
      <trkpt lat="42.82038" lon="1.76512">
        <ele>2149.6452636719</ele>
        <time>2012-05-17T10:18:15Z</time>
      </trkpt>
      <trkpt lat="42.82043" lon="1.76509">
        <ele>2146.7612304688</ele>
        <time>2012-05-17T10:18:22Z</time>
      </trkpt>
      <trkpt lat="42.82043" lon="1.76502">
        <ele>2145.8000488281</ele>
        <time>2012-05-17T10:18:27Z</time>
      </trkpt>
      <trkpt lat="42.82044" lon="1.76492">
        <ele>2143.3967285156</ele>
        <time>2012-05-17T10:18:33Z</time>
      </trkpt>
      <trkpt lat="42.82045" lon="1.7649">
        <ele>2143.3967285156</ele>
        <time>2012-05-17T10:18:34Z</time>
      </trkpt>
      <trkpt lat="42.82048" lon="1.76488">
        <ele>2141.9548339844</ele>
        <time>2012-05-17T10:18:36Z</time>
      </trkpt>
      <trkpt lat="42.82051" lon="1.7648">
        <ele>2139.5512695312</ele>
        <time>2012-05-17T10:18:41Z</time>
      </trkpt>
      <trkpt lat="42.82053" lon="1.76473">
        <ele>2137.6286621094</ele>
        <time>2012-05-17T10:18:46Z</time>
      </trkpt>
      <trkpt lat="42.82055" lon="1.76466">
        <ele>2134.2641601562</ele>
        <time>2012-05-17T10:18:51Z</time>
      </trkpt>
      <trkpt lat="42.82053" lon="1.76464">
        <ele>2131.8608398438</ele>
        <time>2012-05-17T10:18:55Z</time>
      </trkpt>
      <trkpt lat="42.8205" lon="1.76461">
        <ele>2129.9382324219</ele>
        <time>2012-05-17T10:18:59Z</time>
      </trkpt>
      <trkpt lat="42.82047" lon="1.76458">
        <ele>2128.015625</ele>
        <time>2012-05-17T10:19:02Z</time>
      </trkpt>
      <trkpt lat="42.82043" lon="1.76444">
        <ele>2125.1315917969</ele>
        <time>2012-05-17T10:19:09Z</time>
      </trkpt>
      <trkpt lat="42.82044" lon="1.76437">
        <ele>2123.208984375</ele>
        <time>2012-05-17T10:19:13Z</time>
      </trkpt>
      <trkpt lat="42.82044" lon="1.76436">
        <ele>2122.2475585938</ele>
        <time>2012-05-17T10:19:17Z</time>
      </trkpt>
      <trkpt lat="42.82046" lon="1.76434">
        <ele>2120.8056640625</ele>
        <time>2012-05-17T10:19:21Z</time>
      </trkpt>
      <trkpt lat="42.82047" lon="1.76431">
        <ele>2120.3249511719</ele>
        <time>2012-05-17T10:19:27Z</time>
      </trkpt>
      <trkpt lat="42.82048" lon="1.76425">
        <ele>2118.8830566406</ele>
        <time>2012-05-17T10:19:33Z</time>
      </trkpt>
      <trkpt lat="42.82048" lon="1.7642">
        <ele>2116.9604492188</ele>
        <time>2012-05-17T10:19:39Z</time>
      </trkpt>
      <trkpt lat="42.8205" lon="1.76418">
        <ele>2115.5185546875</ele>
        <time>2012-05-17T10:19:44Z</time>
      </trkpt>
      <trkpt lat="42.82051" lon="1.76414">
        <ele>2114.5571289062</ele>
        <time>2012-05-17T10:19:51Z</time>
      </trkpt>
      <trkpt lat="42.82053" lon="1.76412">
        <ele>2113.595703125</ele>
        <time>2012-05-17T10:19:57Z</time>
      </trkpt>
      <trkpt lat="42.82055" lon="1.76412">
        <ele>2110.7119140625</ele>
        <time>2012-05-17T10:20:28Z</time>
      </trkpt>
      <trkpt lat="42.82055" lon="1.76408">
        <ele>2109.2700195312</ele>
        <time>2012-05-17T10:20:34Z</time>
      </trkpt>
      <trkpt lat="42.82054" lon="1.76406">
        <ele>2107.8278808594</ele>
        <time>2012-05-17T10:20:40Z</time>
      </trkpt>
      <trkpt lat="42.82051" lon="1.76404">
        <ele>2105.4245605469</ele>
        <time>2012-05-17T10:20:45Z</time>
      </trkpt>
      <trkpt lat="42.82049" lon="1.764">
        <ele>2104.9438476562</ele>
        <time>2012-05-17T10:20:49Z</time>
      </trkpt>
      <trkpt lat="42.8205" lon="1.76396">
        <ele>2103.501953125</ele>
        <time>2012-05-17T10:20:53Z</time>
      </trkpt>
      <trkpt lat="42.8205" lon="1.76392">
        <ele>2101.5793457031</ele>
        <time>2012-05-17T10:20:59Z</time>
      </trkpt>
      <trkpt lat="42.82049" lon="1.76389">
        <ele>2099.6567382812</ele>
        <time>2012-05-17T10:21:04Z</time>
      </trkpt>
      <trkpt lat="42.8205" lon="1.76387">
        <ele>2097.7341308594</ele>
        <time>2012-05-17T10:21:09Z</time>
      </trkpt>
      <trkpt lat="42.82051" lon="1.76382">
        <ele>2095.8115234375</ele>
        <time>2012-05-17T10:21:14Z</time>
      </trkpt>
      <trkpt lat="42.82052" lon="1.76379">
        <ele>2094.8500976562</ele>
        <time>2012-05-17T10:21:19Z</time>
      </trkpt>
      <trkpt lat="42.82054" lon="1.76373">
        <ele>2092.4470214844</ele>
        <time>2012-05-17T10:21:27Z</time>
      </trkpt>
      <trkpt lat="42.8205" lon="1.76374">
        <ele>2090.5239257812</ele>
        <time>2012-05-17T10:21:32Z</time>
      </trkpt>
      <trkpt lat="42.82048" lon="1.76372">
        <ele>2089.08203125</ele>
        <time>2012-05-17T10:21:38Z</time>
      </trkpt>
      <trkpt lat="42.8205" lon="1.76367">
        <ele>2086.6787109375</ele>
        <time>2012-05-17T10:21:44Z</time>
      </trkpt>
      <trkpt lat="42.82052" lon="1.76363">
        <ele>2085.2368164062</ele>
        <time>2012-05-17T10:21:50Z</time>
      </trkpt>
      <trkpt lat="42.8205" lon="1.7636">
        <ele>2083.794921875</ele>
        <time>2012-05-17T10:21:56Z</time>
      </trkpt>
      <trkpt lat="42.82048" lon="1.76356">
        <ele>2082.3530273438</ele>
        <time>2012-05-17T10:22:02Z</time>
      </trkpt>
      <trkpt lat="42.82044" lon="1.76354">
        <ele>2080.9111328125</ele>
        <time>2012-05-17T10:22:08Z</time>
      </trkpt>
      <trkpt lat="42.82045" lon="1.7635">
        <ele>2079.4689941406</ele>
        <time>2012-05-17T10:22:13Z</time>
      </trkpt>
      <trkpt lat="42.82043" lon="1.76349">
        <ele>2077.0659179688</ele>
        <time>2012-05-17T10:22:19Z</time>
      </trkpt>
      <trkpt lat="42.82043" lon="1.76347">
        <ele>2075.6235351562</ele>
        <time>2012-05-17T10:22:24Z</time>
      </trkpt>
      <trkpt lat="42.82043" lon="1.76342">
        <ele>2073.7009277344</ele>
        <time>2012-05-17T10:22:29Z</time>
      </trkpt>
      <trkpt lat="42.82046" lon="1.76341">
        <ele>2071.2976074219</ele>
        <time>2012-05-17T10:22:35Z</time>
      </trkpt>
      <trkpt lat="42.82043" lon="1.76337">
        <ele>2068.89453125</ele>
        <time>2012-05-17T10:22:41Z</time>
      </trkpt>
      <trkpt lat="42.82044" lon="1.76335">
        <ele>2066.9719238281</ele>
        <time>2012-05-17T10:22:47Z</time>
      </trkpt>
      <trkpt lat="42.82042" lon="1.76334">
        <ele>2065.0493164062</ele>
        <time>2012-05-17T10:22:53Z</time>
      </trkpt>
      <trkpt lat="42.82041" lon="1.76332">
        <ele>2063.6071777344</ele>
        <time>2012-05-17T10:22:59Z</time>
      </trkpt>
      <trkpt lat="42.82043" lon="1.76331">
        <ele>2061.6848144531</ele>
        <time>2012-05-17T10:23:07Z</time>
      </trkpt>
      <trkpt lat="42.82043" lon="1.76328">
        <ele>2060.7233886719</ele>
        <time>2012-05-17T10:23:14Z</time>
      </trkpt>
      <trkpt lat="42.82042" lon="1.76324">
        <ele>2060.2426757812</ele>
        <time>2012-05-17T10:23:19Z</time>
      </trkpt>
      <trkpt lat="42.82039" lon="1.7632">
        <ele>2057.8393554688</ele>
        <time>2012-05-17T10:23:26Z</time>
      </trkpt>
      <trkpt lat="42.82035" lon="1.76318">
        <ele>2056.3972167969</ele>
        <time>2012-05-17T10:23:32Z</time>
      </trkpt>
      <trkpt lat="42.82036" lon="1.76315">
        <ele>2054.9553222656</ele>
        <time>2012-05-17T10:23:36Z</time>
      </trkpt>
      <trkpt lat="42.82034" lon="1.76309">
        <ele>2053.5134277344</ele>
        <time>2012-05-17T10:23:42Z</time>
      </trkpt>
      <trkpt lat="42.82035" lon="1.76306">
        <ele>2052.0712890625</ele>
        <time>2012-05-17T10:23:47Z</time>
      </trkpt>
      <trkpt lat="42.82036" lon="1.76301">
        <ele>2050.6293945312</ele>
        <time>2012-05-17T10:23:52Z</time>
      </trkpt>
      <trkpt lat="42.82035" lon="1.76297">
        <ele>2048.7067871094</ele>
        <time>2012-05-17T10:23:57Z</time>
      </trkpt>
      <trkpt lat="42.82032" lon="1.76292">
        <ele>2046.7841796875</ele>
        <time>2012-05-17T10:24:02Z</time>
      </trkpt>
      <trkpt lat="42.82034" lon="1.76288">
        <ele>2045.3422851562</ele>
        <time>2012-05-17T10:24:07Z</time>
      </trkpt>
      <trkpt lat="42.82031" lon="1.76283">
        <ele>2043.4194335938</ele>
        <time>2012-05-17T10:24:13Z</time>
      </trkpt>
      <trkpt lat="42.82033" lon="1.76277">
        <ele>2041.9775390625</ele>
        <time>2012-05-17T10:24:18Z</time>
      </trkpt>
      <trkpt lat="42.82034" lon="1.76273">
        <ele>2040.5354003906</ele>
        <time>2012-05-17T10:24:23Z</time>
      </trkpt>
      <trkpt lat="42.82034" lon="1.76269">
        <ele>2038.6130371094</ele>
        <time>2012-05-17T10:24:27Z</time>
      </trkpt>
      <trkpt lat="42.82034" lon="1.76265">
        <ele>2037.6516113281</ele>
        <time>2012-05-17T10:24:32Z</time>
      </trkpt>
      <trkpt lat="42.82036" lon="1.76261">
        <ele>2035.7290039062</ele>
        <time>2012-05-17T10:24:37Z</time>
      </trkpt>
      <trkpt lat="42.82034" lon="1.76256">
        <ele>2033.8063964844</ele>
        <time>2012-05-17T10:24:44Z</time>
      </trkpt>
      <trkpt lat="42.82034" lon="1.76254">
        <ele>2033.3256835938</ele>
        <time>2012-05-17T10:24:49Z</time>
      </trkpt>
      <trkpt lat="42.82032" lon="1.76251">
        <ele>2030.9226074219</ele>
        <time>2012-05-17T10:24:55Z</time>
      </trkpt>
      <trkpt lat="42.82031" lon="1.76247">
        <ele>2029.9611816406</ele>
        <time>2012-05-17T10:24:59Z</time>
      </trkpt>
      <trkpt lat="42.82031" lon="1.7624">
        <ele>2028.0385742188</ele>
        <time>2012-05-17T10:25:05Z</time>
      </trkpt>
      <trkpt lat="42.82032" lon="1.76235">
        <ele>2025.154296875</ele>
        <time>2012-05-17T10:25:11Z</time>
      </trkpt>
      <trkpt lat="42.82031" lon="1.76231">
        <ele>2024.1931152344</ele>
        <time>2012-05-17T10:25:16Z</time>
      </trkpt>
      <trkpt lat="42.82033" lon="1.76227">
        <ele>2022.2705078125</ele>
        <time>2012-05-17T10:25:22Z</time>
      </trkpt>
      <trkpt lat="42.82036" lon="1.76217">
        <ele>2020.3479003906</ele>
        <time>2012-05-17T10:25:31Z</time>
      </trkpt>
      <trkpt lat="42.82037" lon="1.76207">
        <ele>2018.9060058594</ele>
        <time>2012-05-17T10:25:39Z</time>
      </trkpt>
      <trkpt lat="42.82038" lon="1.76199">
        <ele>2018.4252929688</ele>
        <time>2012-05-17T10:25:46Z</time>
      </trkpt>
      <trkpt lat="42.82037" lon="1.76195">
        <ele>2016.9833984375</ele>
        <time>2012-05-17T10:25:49Z</time>
      </trkpt>
      <trkpt lat="42.82036" lon="1.7618">
        <ele>2016.0219726562</ele>
        <time>2012-05-17T10:25:56Z</time>
      </trkpt>
      <trkpt lat="42.82038" lon="1.7617">
        <ele>2015.0607910156</ele>
        <time>2012-05-17T10:26:02Z</time>
      </trkpt>
      <trkpt lat="42.8204" lon="1.76161">
        <ele>2014.580078125</ele>
        <time>2012-05-17T10:26:08Z</time>
      </trkpt>
      <trkpt lat="42.82039" lon="1.76159">
        <ele>2014.0993652344</ele>
        <time>2012-05-17T10:26:10Z</time>
      </trkpt>
      <trkpt lat="42.82036" lon="1.76154">
        <ele>2010.7346191406</ele>
        <time>2012-05-17T10:26:18Z</time>
      </trkpt>
      <trkpt lat="42.82036" lon="1.7615">
        <ele>2009.7731933594</ele>
        <time>2012-05-17T10:26:23Z</time>
      </trkpt>
      <trkpt lat="42.82037" lon="1.76149">
        <ele>2008.8120117188</ele>
        <time>2012-05-17T10:26:29Z</time>
      </trkpt>
      <trkpt lat="42.82038" lon="1.76145">
        <ele>2007.8508300781</ele>
        <time>2012-05-17T10:26:36Z</time>
      </trkpt>
      <trkpt lat="42.82038" lon="1.76145">
        <ele>2007.3701171875</ele>
        <time>2012-05-17T10:26:42Z</time>
      </trkpt>
      <trkpt lat="42.82038" lon="1.76144">
        <ele>2007.8508300781</ele>
        <time>2012-05-17T10:26:51Z</time>
      </trkpt>
      <trkpt lat="42.82038" lon="1.76142">
        <ele>2008.3312988281</ele>
        <time>2012-05-17T10:26:57Z</time>
      </trkpt>
      <trkpt lat="42.82039" lon="1.76135">
        <ele>2009.2927246094</ele>
        <time>2012-05-17T10:27:04Z</time>
      </trkpt>
      <trkpt lat="42.82038" lon="1.76132">
        <ele>2010.25390625</ele>
        <time>2012-05-17T10:27:10Z</time>
      </trkpt>
      <trkpt lat="42.82037" lon="1.76131">
        <ele>2011.6960449219</ele>
        <time>2012-05-17T10:27:27Z</time>
      </trkpt>
      <trkpt lat="42.82037" lon="1.76124">
        <ele>2011.6960449219</ele>
        <time>2012-05-17T10:27:32Z</time>
      </trkpt>
      <trkpt lat="42.82035" lon="1.7612">
        <ele>2011.2153320312</ele>
        <time>2012-05-17T10:27:37Z</time>
      </trkpt>
      <trkpt lat="42.82034" lon="1.76116">
        <ele>2010.7346191406</ele>
        <time>2012-05-17T10:27:43Z</time>
      </trkpt>
      <trkpt lat="42.82032" lon="1.76115">
        <ele>2010.7346191406</ele>
        <time>2012-05-17T10:27:48Z</time>
      </trkpt>
      <trkpt lat="42.8203" lon="1.76107">
        <ele>2011.2153320312</ele>
        <time>2012-05-17T10:27:55Z</time>
      </trkpt>
      <trkpt lat="42.82024" lon="1.761">
        <ele>2011.2153320312</ele>
        <time>2012-05-17T10:28:03Z</time>
      </trkpt>
      <trkpt lat="42.8202" lon="1.76093">
        <ele>2011.2153320312</ele>
        <time>2012-05-17T10:28:09Z</time>
      </trkpt>
      <trkpt lat="42.82018" lon="1.76088">
        <ele>2012.6574707031</ele>
        <time>2012-05-17T10:28:15Z</time>
      </trkpt>
      <trkpt lat="42.82017" lon="1.76084">
        <ele>2012.6574707031</ele>
        <time>2012-05-17T10:28:20Z</time>
      </trkpt>
      <trkpt lat="42.82015" lon="1.76081">
        <ele>2013.1381835938</ele>
        <time>2012-05-17T10:28:26Z</time>
      </trkpt>
      <trkpt lat="42.82018" lon="1.76075">
        <ele>2013.1381835938</ele>
        <time>2012-05-17T10:28:32Z</time>
      </trkpt>
      <trkpt lat="42.82016" lon="1.76072">
        <ele>2014.580078125</ele>
        <time>2012-05-17T10:28:40Z</time>
      </trkpt>
      <trkpt lat="42.82016" lon="1.76071">
        <ele>2015.5415039062</ele>
        <time>2012-05-17T10:28:48Z</time>
      </trkpt>
      <trkpt lat="42.82014" lon="1.76067">
        <ele>2017.9445800781</ele>
        <time>2012-05-17T10:28:56Z</time>
      </trkpt>
      <trkpt lat="42.82012" lon="1.76066">
        <ele>2018.9060058594</ele>
        <time>2012-05-17T10:29:01Z</time>
      </trkpt>
      <trkpt lat="42.82011" lon="1.76067">
        <ele>2019.38671875</ele>
        <time>2012-05-17T10:29:06Z</time>
      </trkpt>
      <trkpt lat="42.8201" lon="1.76067">
        <ele>2018.9060058594</ele>
        <time>2012-05-17T10:29:15Z</time>
      </trkpt>
      <trkpt lat="42.82006" lon="1.76064">
        <ele>2018.4252929688</ele>
        <time>2012-05-17T10:29:23Z</time>
      </trkpt>
      <trkpt lat="42.82004" lon="1.76061">
        <ele>2016.5026855469</ele>
        <time>2012-05-17T10:29:32Z</time>
      </trkpt>
      <trkpt lat="42.82003" lon="1.76059">
        <ele>2016.0219726562</ele>
        <time>2012-05-17T10:29:38Z</time>
      </trkpt>
      <trkpt lat="42.82" lon="1.76057">
        <ele>2016.0219726562</ele>
        <time>2012-05-17T10:29:44Z</time>
      </trkpt>
      <trkpt lat="42.81997" lon="1.76056">
        <ele>2016.0219726562</ele>
        <time>2012-05-17T10:29:50Z</time>
      </trkpt>
      <trkpt lat="42.81993" lon="1.76054">
        <ele>2015.5415039062</ele>
        <time>2012-05-17T10:29:57Z</time>
      </trkpt>
      <trkpt lat="42.81991" lon="1.7605">
        <ele>2016.5026855469</ele>
        <time>2012-05-17T10:30:02Z</time>
      </trkpt>
      <trkpt lat="42.81991" lon="1.76046">
        <ele>2017.9445800781</ele>
        <time>2012-05-17T10:30:07Z</time>
      </trkpt>
      <trkpt lat="42.81993" lon="1.76042">
        <ele>2019.38671875</ele>
        <time>2012-05-17T10:30:13Z</time>
      </trkpt>
      <trkpt lat="42.81994" lon="1.76038">
        <ele>2021.3090820312</ele>
        <time>2012-05-17T10:30:19Z</time>
      </trkpt>
      <trkpt lat="42.81995" lon="1.76036">
        <ele>2022.7512207031</ele>
        <time>2012-05-17T10:30:25Z</time>
      </trkpt>
      <trkpt lat="42.81995" lon="1.76033">
        <ele>2023.7124023438</ele>
        <time>2012-05-17T10:30:30Z</time>
      </trkpt>
      <trkpt lat="42.81998" lon="1.76034">
        <ele>2025.6350097656</ele>
        <time>2012-05-17T10:30:38Z</time>
      </trkpt>
      <trkpt lat="42.82" lon="1.76035">
        <ele>2025.6350097656</ele>
        <time>2012-05-17T10:30:45Z</time>
      </trkpt>
      <trkpt lat="42.82002" lon="1.76037">
        <ele>2026.5964355469</ele>
        <time>2012-05-17T10:30:51Z</time>
      </trkpt>
      <trkpt lat="42.82005" lon="1.76038">
        <ele>2027.5576171875</ele>
        <time>2012-05-17T10:30:57Z</time>
      </trkpt>
      <trkpt lat="42.82005" lon="1.76036">
        <ele>2028.5192871094</ele>
        <time>2012-05-17T10:31:02Z</time>
      </trkpt>
      <trkpt lat="42.82005" lon="1.76032">
        <ele>2029.48046875</ele>
        <time>2012-05-17T10:31:08Z</time>
      </trkpt>
      <trkpt lat="42.82004" lon="1.76027">
        <ele>2031.4030761719</ele>
        <time>2012-05-17T10:31:15Z</time>
      </trkpt>
      <trkpt lat="42.82003" lon="1.76023">
        <ele>2033.8063964844</ele>
        <time>2012-05-17T10:31:21Z</time>
      </trkpt>
      <trkpt lat="42.82001" lon="1.7602">
        <ele>2035.2482910156</ele>
        <time>2012-05-17T10:31:28Z</time>
      </trkpt>
      <trkpt lat="42.82" lon="1.76018">
        <ele>2036.2097167969</ele>
        <time>2012-05-17T10:31:35Z</time>
      </trkpt>
      <trkpt lat="42.82001" lon="1.76014">
        <ele>2037.1708984375</ele>
        <time>2012-05-17T10:31:41Z</time>
      </trkpt>
      <trkpt lat="42.82001" lon="1.7601">
        <ele>2039.57421875</ele>
        <time>2012-05-17T10:31:47Z</time>
      </trkpt>
      <trkpt lat="42.82" lon="1.76007">
        <ele>2040.5354003906</ele>
        <time>2012-05-17T10:31:53Z</time>
      </trkpt>
      <trkpt lat="42.82" lon="1.76005">
        <ele>2041.0161132812</ele>
        <time>2012-05-17T10:32:01Z</time>
      </trkpt>
      <trkpt lat="42.82" lon="1.76004">
        <ele>2041.0161132812</ele>
        <time>2012-05-17T10:32:15Z</time>
      </trkpt>
      <trkpt lat="42.81999" lon="1.76001">
        <ele>2041.4968261719</ele>
        <time>2012-05-17T10:32:20Z</time>
      </trkpt>
      <trkpt lat="42.81998" lon="1.76002">
        <ele>2042.9387207031</ele>
        <time>2012-05-17T10:32:26Z</time>
      </trkpt>
      <trkpt lat="42.81995" lon="1.76001">
        <ele>2044.380859375</ele>
        <time>2012-05-17T10:32:32Z</time>
      </trkpt>
      <trkpt lat="42.81995" lon="1.75997">
        <ele>2046.3037109375</ele>
        <time>2012-05-17T10:32:38Z</time>
      </trkpt>
      <trkpt lat="42.81994" lon="1.75995">
        <ele>2047.7456054688</ele>
        <time>2012-05-17T10:32:43Z</time>
      </trkpt>
      <trkpt lat="42.81991" lon="1.75992">
        <ele>2049.1875</ele>
        <time>2012-05-17T10:32:50Z</time>
      </trkpt>
      <trkpt lat="42.81989" lon="1.75991">
        <ele>2050.1489257812</ele>
        <time>2012-05-17T10:32:57Z</time>
      </trkpt>
      <trkpt lat="42.81989" lon="1.75987">
        <ele>2051.5908203125</ele>
        <time>2012-05-17T10:33:02Z</time>
      </trkpt>
      <trkpt lat="42.81989" lon="1.75983">
        <ele>2052.0712890625</ele>
        <time>2012-05-17T10:33:08Z</time>
      </trkpt>
      <trkpt lat="42.81987" lon="1.7598">
        <ele>2052.5520019531</ele>
        <time>2012-05-17T10:33:14Z</time>
      </trkpt>
      <trkpt lat="42.81986" lon="1.75977">
        <ele>2053.5134277344</ele>
        <time>2012-05-17T10:33:21Z</time>
      </trkpt>
      <trkpt lat="42.81983" lon="1.75978">
        <ele>2053.994140625</ele>
        <time>2012-05-17T10:33:26Z</time>
      </trkpt>
      <trkpt lat="42.81981" lon="1.75976">
        <ele>2055.4360351562</ele>
        <time>2012-05-17T10:33:31Z</time>
      </trkpt>
      <trkpt lat="42.81979" lon="1.75974">
        <ele>2056.8779296875</ele>
        <time>2012-05-17T10:33:36Z</time>
      </trkpt>
      <trkpt lat="42.81978" lon="1.7597">
        <ele>2057.3586425781</ele>
        <time>2012-05-17T10:33:42Z</time>
      </trkpt>
      <trkpt lat="42.81978" lon="1.75967">
        <ele>2057.8393554688</ele>
        <time>2012-05-17T10:33:49Z</time>
      </trkpt>
      <trkpt lat="42.81977" lon="1.75965">
        <ele>2058.3198242188</ele>
        <time>2012-05-17T10:33:54Z</time>
      </trkpt>
      <trkpt lat="42.81975" lon="1.75963">
        <ele>2061.6848144531</ele>
        <time>2012-05-17T10:34:01Z</time>
      </trkpt>
      <trkpt lat="42.81976" lon="1.75959">
        <ele>2063.1267089844</ele>
        <time>2012-05-17T10:34:06Z</time>
      </trkpt>
      <trkpt lat="42.81974" lon="1.75956">
        <ele>2064.087890625</ele>
        <time>2012-05-17T10:34:13Z</time>
      </trkpt>
      <trkpt lat="42.81972" lon="1.75953">
        <ele>2065.5300292969</ele>
        <time>2012-05-17T10:34:18Z</time>
      </trkpt>
      <trkpt lat="42.81972" lon="1.75951">
        <ele>2066.9719238281</ele>
        <time>2012-05-17T10:34:24Z</time>
      </trkpt>
      <trkpt lat="42.81973" lon="1.7595">
        <ele>2068.4138183594</ele>
        <time>2012-05-17T10:34:32Z</time>
      </trkpt>
      <trkpt lat="42.81973" lon="1.7595">
        <ele>2068.89453125</ele>
        <time>2012-05-17T10:34:45Z</time>
      </trkpt>
      <trkpt lat="42.81972" lon="1.75949">
        <ele>2069.3752441406</ele>
        <time>2012-05-17T10:34:55Z</time>
      </trkpt>
      <trkpt lat="42.81971" lon="1.75946">
        <ele>2070.3364257812</ele>
        <time>2012-05-17T10:35:00Z</time>
      </trkpt>
      <trkpt lat="42.81971" lon="1.75943">
        <ele>2071.2976074219</ele>
        <time>2012-05-17T10:35:06Z</time>
      </trkpt>
      <trkpt lat="42.81973" lon="1.75941">
        <ele>2071.7783203125</ele>
        <time>2012-05-17T10:35:12Z</time>
      </trkpt>
      <trkpt lat="42.81975" lon="1.75939">
        <ele>2072.7397460938</ele>
        <time>2012-05-17T10:35:19Z</time>
      </trkpt>
      <trkpt lat="42.81973" lon="1.75935">
        <ele>2075.1428222656</ele>
        <time>2012-05-17T10:35:25Z</time>
      </trkpt>
      <trkpt lat="42.81975" lon="1.75933">
        <ele>2076.1044921875</ele>
        <time>2012-05-17T10:35:33Z</time>
      </trkpt>
      <trkpt lat="42.81976" lon="1.7593">
        <ele>2077.0659179688</ele>
        <time>2012-05-17T10:35:39Z</time>
      </trkpt>
      <trkpt lat="42.81975" lon="1.75927">
        <ele>2079.9497070312</ele>
        <time>2012-05-17T10:35:45Z</time>
      </trkpt>
      <trkpt lat="42.81976" lon="1.75923">
        <ele>2080.9111328125</ele>
        <time>2012-05-17T10:35:53Z</time>
      </trkpt>
      <trkpt lat="42.81973" lon="1.75922">
        <ele>2081.8723144531</ele>
        <time>2012-05-17T10:36:00Z</time>
      </trkpt>
      <trkpt lat="42.81972" lon="1.75921">
        <ele>2081.3916015625</ele>
        <time>2012-05-17T10:36:09Z</time>
      </trkpt>
      <trkpt lat="42.81973" lon="1.75917">
        <ele>2082.3530273438</ele>
        <time>2012-05-17T10:36:17Z</time>
      </trkpt>
      <trkpt lat="42.81973" lon="1.75916">
        <ele>2083.3142089844</ele>
        <time>2012-05-17T10:36:22Z</time>
      </trkpt>
      <trkpt lat="42.81974" lon="1.75913">
        <ele>2084.7563476562</ele>
        <time>2012-05-17T10:36:28Z</time>
      </trkpt>
      <trkpt lat="42.81974" lon="1.75912">
        <ele>2085.7175292969</ele>
        <time>2012-05-17T10:36:33Z</time>
      </trkpt>
      <trkpt lat="42.81974" lon="1.75909">
        <ele>2087.6401367188</ele>
        <time>2012-05-17T10:36:40Z</time>
      </trkpt>
      <trkpt lat="42.81973" lon="1.75906">
        <ele>2087.6401367188</ele>
        <time>2012-05-17T10:36:47Z</time>
      </trkpt>
      <trkpt lat="42.81972" lon="1.75903">
        <ele>2088.6015625</ele>
        <time>2012-05-17T10:36:53Z</time>
      </trkpt>
      <trkpt lat="42.81971" lon="1.75901">
        <ele>2089.08203125</ele>
        <time>2012-05-17T10:36:59Z</time>
      </trkpt>
      <trkpt lat="42.81972" lon="1.75899">
        <ele>2090.0434570312</ele>
        <time>2012-05-17T10:37:04Z</time>
      </trkpt>
      <trkpt lat="42.81973" lon="1.75899">
        <ele>2090.0434570312</ele>
        <time>2012-05-17T10:37:08Z</time>
      </trkpt>
      <trkpt lat="42.81975" lon="1.75899">
        <ele>2091.4853515625</ele>
        <time>2012-05-17T10:37:14Z</time>
      </trkpt>
      <trkpt lat="42.81976" lon="1.75901">
        <ele>2091.9660644531</ele>
        <time>2012-05-17T10:37:21Z</time>
      </trkpt>
      <trkpt lat="42.81977" lon="1.75899">
        <ele>2091.4853515625</ele>
        <time>2012-05-17T10:37:32Z</time>
      </trkpt>
      <trkpt lat="42.81979" lon="1.75898">
        <ele>2091.9660644531</ele>
        <time>2012-05-17T10:37:39Z</time>
      </trkpt>
      <trkpt lat="42.81977" lon="1.75895">
        <ele>2093.8889160156</ele>
        <time>2012-05-17T10:37:45Z</time>
      </trkpt>
      <trkpt lat="42.81979" lon="1.75893">
        <ele>2096.2922363281</ele>
        <time>2012-05-17T10:37:51Z</time>
      </trkpt>
      <trkpt lat="42.81979" lon="1.7589">
        <ele>2097.7341308594</ele>
        <time>2012-05-17T10:37:56Z</time>
      </trkpt>
      <trkpt lat="42.8198" lon="1.75888">
        <ele>2099.1760253906</ele>
        <time>2012-05-17T10:38:01Z</time>
      </trkpt>
      <trkpt lat="42.81979" lon="1.75886">
        <ele>2100.1374511719</ele>
        <time>2012-05-17T10:38:06Z</time>
      </trkpt>
      <trkpt lat="42.81979" lon="1.75886">
        <ele>2101.5793457031</ele>
        <time>2012-05-17T10:38:13Z</time>
      </trkpt>
      <trkpt lat="42.81978" lon="1.75885">
        <ele>2102.0598144531</ele>
        <time>2012-05-17T10:38:21Z</time>
      </trkpt>
      <trkpt lat="42.81978" lon="1.75884">
        <ele>2101.5793457031</ele>
        <time>2012-05-17T10:38:27Z</time>
      </trkpt>
      <trkpt lat="42.81979" lon="1.75883">
        <ele>2102.5405273438</ele>
        <time>2012-05-17T10:38:35Z</time>
      </trkpt>
      <trkpt lat="42.81979" lon="1.75881">
        <ele>2103.0212402344</ele>
        <time>2012-05-17T10:38:44Z</time>
      </trkpt>
      <trkpt lat="42.81978" lon="1.75881">
        <ele>2103.501953125</ele>
        <time>2012-05-17T10:38:51Z</time>
      </trkpt>
      <trkpt lat="42.81976" lon="1.75879">
        <ele>2103.9826660156</ele>
        <time>2012-05-17T10:38:58Z</time>
      </trkpt>
      <trkpt lat="42.81977" lon="1.75879">
        <ele>2103.9826660156</ele>
        <time>2012-05-17T10:39:04Z</time>
      </trkpt>
      <trkpt lat="42.81976" lon="1.75879">
        <ele>2104.9438476562</ele>
        <time>2012-05-17T10:39:19Z</time>
      </trkpt>
      <trkpt lat="42.81976" lon="1.75876">
        <ele>2105.9050292969</ele>
        <time>2012-05-17T10:39:25Z</time>
      </trkpt>
      <trkpt lat="42.81976" lon="1.75874">
        <ele>2106.8664550781</ele>
        <time>2012-05-17T10:39:31Z</time>
      </trkpt>
      <trkpt lat="42.81976" lon="1.75872">
        <ele>2108.30859375</ele>
        <time>2012-05-17T10:39:37Z</time>
      </trkpt>
      <trkpt lat="42.81974" lon="1.7587">
        <ele>2109.7504882812</ele>
        <time>2012-05-17T10:39:45Z</time>
      </trkpt>
      <trkpt lat="42.81974" lon="1.75866">
        <ele>2111.6733398438</ele>
        <time>2012-05-17T10:39:51Z</time>
      </trkpt>
      <trkpt lat="42.81973" lon="1.75863">
        <ele>2113.595703125</ele>
        <time>2012-05-17T10:39:58Z</time>
      </trkpt>
      <trkpt lat="42.81972" lon="1.75861">
        <ele>2114.5571289062</ele>
        <time>2012-05-17T10:40:05Z</time>
      </trkpt>
      <trkpt lat="42.81971" lon="1.75857">
        <ele>2115.9990234375</ele>
        <time>2012-05-17T10:40:12Z</time>
      </trkpt>
      <trkpt lat="42.81972" lon="1.75854">
        <ele>2117.4409179688</ele>
        <time>2012-05-17T10:40:18Z</time>
      </trkpt>
      <trkpt lat="42.81971" lon="1.7585">
        <ele>2119.3637695312</ele>
        <time>2012-05-17T10:40:26Z</time>
      </trkpt>
      <trkpt lat="42.81971" lon="1.75849">
        <ele>2119.3637695312</ele>
        <time>2012-05-17T10:40:32Z</time>
      </trkpt>
      <trkpt lat="42.81971" lon="1.75849">
        <ele>2119.3637695312</ele>
        <time>2012-05-17T10:40:41Z</time>
      </trkpt>
      <trkpt lat="42.81971" lon="1.75849">
        <ele>2119.3637695312</ele>
        <time>2012-05-17T10:40:54Z</time>
      </trkpt>
      <trkpt lat="42.8197" lon="1.75846">
        <ele>2119.8442382812</ele>
        <time>2012-05-17T10:41:00Z</time>
      </trkpt>
      <trkpt lat="42.81968" lon="1.75842">
        <ele>2120.8056640625</ele>
        <time>2012-05-17T10:41:07Z</time>
      </trkpt>
      <trkpt lat="42.81965" lon="1.75837">
        <ele>2121.2861328125</ele>
        <time>2012-05-17T10:41:13Z</time>
      </trkpt>
      <trkpt lat="42.81965" lon="1.75833">
        <ele>2123.208984375</ele>
        <time>2012-05-17T10:41:20Z</time>
      </trkpt>
      <trkpt lat="42.81964" lon="1.75829">
        <ele>2124.6511230469</ele>
        <time>2012-05-17T10:41:26Z</time>
      </trkpt>
      <trkpt lat="42.81964" lon="1.75822">
        <ele>2126.5737304688</ele>
        <time>2012-05-17T10:41:34Z</time>
      </trkpt>
      <trkpt lat="42.81963" lon="1.75816">
        <ele>2128.4963378906</ele>
        <time>2012-05-17T10:41:41Z</time>
      </trkpt>
      <trkpt lat="42.81963" lon="1.7581">
        <ele>2130.4189453125</ele>
        <time>2012-05-17T10:41:49Z</time>
      </trkpt>
      <trkpt lat="42.81964" lon="1.75807">
        <ele>2131.3801269531</ele>
        <time>2012-05-17T10:41:56Z</time>
      </trkpt>
      <trkpt lat="42.81963" lon="1.75802">
        <ele>2133.302734375</ele>
        <time>2012-05-17T10:42:03Z</time>
      </trkpt>
      <trkpt lat="42.81963" lon="1.75799">
        <ele>2134.7448730469</ele>
        <time>2012-05-17T10:42:09Z</time>
      </trkpt>
      <trkpt lat="42.81963" lon="1.75799">
        <ele>2135.2253417969</ele>
        <time>2012-05-17T10:42:19Z</time>
      </trkpt>
      <trkpt lat="42.81963" lon="1.75797">
        <ele>2136.6672363281</ele>
        <time>2012-05-17T10:42:36Z</time>
      </trkpt>
      <trkpt lat="42.81964" lon="1.75798">
        <ele>2136.6672363281</ele>
        <time>2012-05-17T10:42:48Z</time>
      </trkpt>
      <trkpt lat="42.81963" lon="1.75796">
        <ele>2135.7060546875</ele>
        <time>2012-05-17T10:43:15Z</time>
      </trkpt>
      <trkpt lat="42.81963" lon="1.75792">
        <ele>2135.7060546875</ele>
        <time>2012-05-17T10:43:20Z</time>
      </trkpt>
      <trkpt lat="42.81963" lon="1.75786">
        <ele>2137.1479492188</ele>
        <time>2012-05-17T10:43:27Z</time>
      </trkpt>
      <trkpt lat="42.81961" lon="1.75781">
        <ele>2138.109375</ele>
        <time>2012-05-17T10:43:33Z</time>
      </trkpt>
      <trkpt lat="42.81959" lon="1.75775">
        <ele>2139.0705566406</ele>
        <time>2012-05-17T10:43:41Z</time>
      </trkpt>
      <trkpt lat="42.81958" lon="1.75771">
        <ele>2140.5126953125</ele>
        <time>2012-05-17T10:43:47Z</time>
      </trkpt>
      <trkpt lat="42.81958" lon="1.75768">
        <ele>2141.9548339844</ele>
        <time>2012-05-17T10:43:52Z</time>
      </trkpt>
      <trkpt lat="42.81957" lon="1.75766">
        <ele>2143.3967285156</ele>
        <time>2012-05-17T10:43:58Z</time>
      </trkpt>
      <trkpt lat="42.81956" lon="1.75763">
        <ele>2144.8386230469</ele>
        <time>2012-05-17T10:44:04Z</time>
      </trkpt>
      <trkpt lat="42.81955" lon="1.75761">
        <ele>2145.8000488281</ele>
        <time>2012-05-17T10:44:09Z</time>
      </trkpt>
      <trkpt lat="42.81955" lon="1.75757">
        <ele>2147.2419433594</ele>
        <time>2012-05-17T10:44:15Z</time>
      </trkpt>
      <trkpt lat="42.81955" lon="1.75755">
        <ele>2147.2419433594</ele>
        <time>2012-05-17T10:44:21Z</time>
      </trkpt>
      <trkpt lat="42.81952" lon="1.75752">
        <ele>2147.72265625</ele>
        <time>2012-05-17T10:44:29Z</time>
      </trkpt>
      <trkpt lat="42.8195" lon="1.75747">
        <ele>2149.1645507812</ele>
        <time>2012-05-17T10:44:36Z</time>
      </trkpt>
      <trkpt lat="42.81949" lon="1.75744">
        <ele>2150.1259765625</ele>
        <time>2012-05-17T10:44:42Z</time>
      </trkpt>
      <trkpt lat="42.81947" lon="1.7574">
        <ele>2151.5678710938</ele>
        <time>2012-05-17T10:44:48Z</time>
      </trkpt>
      <trkpt lat="42.81945" lon="1.75736">
        <ele>2153.009765625</ele>
        <time>2012-05-17T10:44:54Z</time>
      </trkpt>
      <trkpt lat="42.81945" lon="1.75733">
        <ele>2153.4904785156</ele>
        <time>2012-05-17T10:45:01Z</time>
      </trkpt>
      <trkpt lat="42.81943" lon="1.75729">
        <ele>2153.9711914062</ele>
        <time>2012-05-17T10:45:08Z</time>
      </trkpt>
      <trkpt lat="42.81941" lon="1.75725">
        <ele>2154.9323730469</ele>
        <time>2012-05-17T10:45:14Z</time>
      </trkpt>
      <trkpt lat="42.8194" lon="1.75721">
        <ele>2156.3745117188</ele>
        <time>2012-05-17T10:45:21Z</time>
      </trkpt>
      <trkpt lat="42.81939" lon="1.75718">
        <ele>2156.8552246094</ele>
        <time>2012-05-17T10:45:27Z</time>
      </trkpt>
      <trkpt lat="42.81938" lon="1.75715">
        <ele>2157.8166503906</ele>
        <time>2012-05-17T10:45:33Z</time>
      </trkpt>
      <trkpt lat="42.81935" lon="1.75712">
        <ele>2157.8166503906</ele>
        <time>2012-05-17T10:45:39Z</time>
      </trkpt>
      <trkpt lat="42.81934" lon="1.75708">
        <ele>2158.7778320312</ele>
        <time>2012-05-17T10:45:46Z</time>
      </trkpt>
      <trkpt lat="42.81935" lon="1.75704">
        <ele>2159.7390136719</ele>
        <time>2012-05-17T10:45:51Z</time>
      </trkpt>
      <trkpt lat="42.81933" lon="1.75698">
        <ele>2161.6618652344</ele>
        <time>2012-05-17T10:45:58Z</time>
      </trkpt>
      <trkpt lat="42.81934" lon="1.75693">
        <ele>2163.1037597656</ele>
        <time>2012-05-17T10:46:05Z</time>
      </trkpt>
      <trkpt lat="42.81934" lon="1.75692">
        <ele>2163.5842285156</ele>
        <time>2012-05-17T10:46:11Z</time>
      </trkpt>
      <trkpt lat="42.81934" lon="1.75688">
        <ele>2164.5456542969</ele>
        <time>2012-05-17T10:46:19Z</time>
      </trkpt>
      <trkpt lat="42.81934" lon="1.75681">
        <ele>2165.9875488281</ele>
        <time>2012-05-17T10:46:27Z</time>
      </trkpt>
      <trkpt lat="42.81933" lon="1.75675">
        <ele>2167.4294433594</ele>
        <time>2012-05-17T10:46:34Z</time>
      </trkpt>
      <trkpt lat="42.81934" lon="1.75669">
        <ele>2168.3908691406</ele>
        <time>2012-05-17T10:46:40Z</time>
      </trkpt>
      <trkpt lat="42.81934" lon="1.75663">
        <ele>2169.3522949219</ele>
        <time>2012-05-17T10:46:46Z</time>
      </trkpt>
      <trkpt lat="42.81936" lon="1.75655">
        <ele>2170.7941894531</ele>
        <time>2012-05-17T10:46:53Z</time>
      </trkpt>
      <trkpt lat="42.81936" lon="1.75647">
        <ele>2172.236328125</ele>
        <time>2012-05-17T10:47:00Z</time>
      </trkpt>
      <trkpt lat="42.81938" lon="1.75642">
        <ele>2173.6782226562</ele>
        <time>2012-05-17T10:47:07Z</time>
      </trkpt>
      <trkpt lat="42.81938" lon="1.75634">
        <ele>2173.1977539062</ele>
        <time>2012-05-17T10:47:15Z</time>
      </trkpt>
      <trkpt lat="42.81938" lon="1.75625">
        <ele>2173.6782226562</ele>
        <time>2012-05-17T10:47:21Z</time>
      </trkpt>
      <trkpt lat="42.81938" lon="1.75622">
        <ele>2174.1589355469</ele>
        <time>2012-05-17T10:47:23Z</time>
      </trkpt>
      <trkpt lat="42.8194" lon="1.75612">
        <ele>2173.6782226562</ele>
        <time>2012-05-17T10:47:29Z</time>
      </trkpt>
      <trkpt lat="42.81947" lon="1.75602">
        <ele>2172.7170410156</ele>
        <time>2012-05-17T10:47:37Z</time>
      </trkpt>
      <trkpt lat="42.81951" lon="1.75592">
        <ele>2172.7170410156</ele>
        <time>2012-05-17T10:47:44Z</time>
      </trkpt>
      <trkpt lat="42.81953" lon="1.75588">
        <ele>2172.7170410156</ele>
        <time>2012-05-17T10:47:47Z</time>
      </trkpt>
      <trkpt lat="42.81956" lon="1.75576">
        <ele>2174.1589355469</ele>
        <time>2012-05-17T10:47:56Z</time>
      </trkpt>
      <trkpt lat="42.81958" lon="1.7557">
        <ele>2174.6396484375</ele>
        <time>2012-05-17T10:48:00Z</time>
      </trkpt>
      <trkpt lat="42.81958" lon="1.75565">
        <ele>2174.1589355469</ele>
        <time>2012-05-17T10:48:04Z</time>
      </trkpt>
      <trkpt lat="42.81962" lon="1.7555">
        <ele>2173.6782226562</ele>
        <time>2012-05-17T10:48:13Z</time>
      </trkpt>
      <trkpt lat="42.81964" lon="1.75541">
        <ele>2173.1977539062</ele>
        <time>2012-05-17T10:48:19Z</time>
      </trkpt>
      <trkpt lat="42.81966" lon="1.75531">
        <ele>2172.7170410156</ele>
        <time>2012-05-17T10:48:25Z</time>
      </trkpt>
      <trkpt lat="42.81969" lon="1.75518">
        <ele>2172.236328125</ele>
        <time>2012-05-17T10:48:33Z</time>
      </trkpt>
      <trkpt lat="42.81971" lon="1.75512">
        <ele>2171.7553710938</ele>
        <time>2012-05-17T10:48:37Z</time>
      </trkpt>
      <trkpt lat="42.81977" lon="1.75502">
        <ele>2171.7553710938</ele>
        <time>2012-05-17T10:48:46Z</time>
      </trkpt>
      <trkpt lat="42.81978" lon="1.755">
        <ele>2171.7553710938</ele>
        <time>2012-05-17T10:48:48Z</time>
      </trkpt>
      <trkpt lat="42.81977" lon="1.75493">
        <ele>2173.6782226562</ele>
        <time>2012-05-17T10:48:56Z</time>
      </trkpt>
      <trkpt lat="42.81976" lon="1.75486">
        <ele>2174.1589355469</ele>
        <time>2012-05-17T10:49:01Z</time>
      </trkpt>
      <trkpt lat="42.81976" lon="1.75478">
        <ele>2175.1201171875</ele>
        <time>2012-05-17T10:49:07Z</time>
      </trkpt>
      <trkpt lat="42.81977" lon="1.75473">
        <ele>2175.1201171875</ele>
        <time>2012-05-17T10:49:14Z</time>
      </trkpt>
      <trkpt lat="42.81977" lon="1.75471">
        <ele>2174.6396484375</ele>
        <time>2012-05-17T10:49:22Z</time>
      </trkpt>
      <trkpt lat="42.81975" lon="1.75468">
        <ele>2173.1977539062</ele>
        <time>2012-05-17T10:49:29Z</time>
      </trkpt>
      <trkpt lat="42.81975" lon="1.75466">
        <ele>2172.7170410156</ele>
        <time>2012-05-17T10:49:34Z</time>
      </trkpt>
      <trkpt lat="42.81978" lon="1.75468">
        <ele>2173.1977539062</ele>
        <time>2012-05-17T10:49:42Z</time>
      </trkpt>
      <trkpt lat="42.81982" lon="1.75465">
        <ele>2172.7170410156</ele>
        <time>2012-05-17T10:49:49Z</time>
      </trkpt>
      <trkpt lat="42.81986" lon="1.75466">
        <ele>2172.236328125</ele>
        <time>2012-05-17T10:49:56Z</time>
      </trkpt>
      <trkpt lat="42.81991" lon="1.75468">
        <ele>2172.7170410156</ele>
        <time>2012-05-17T10:50:03Z</time>
      </trkpt>
      <trkpt lat="42.81996" lon="1.75469">
        <ele>2172.7170410156</ele>
        <time>2012-05-17T10:50:10Z</time>
      </trkpt>
      <trkpt lat="42.81999" lon="1.75469">
        <ele>2172.236328125</ele>
        <time>2012-05-17T10:50:16Z</time>
      </trkpt>
      <trkpt lat="42.82001" lon="1.75469">
        <ele>2171.7553710938</ele>
        <time>2012-05-17T10:50:23Z</time>
      </trkpt>
      <trkpt lat="42.82001" lon="1.75469">
        <ele>2172.236328125</ele>
        <time>2012-05-17T10:50:24Z</time>
      </trkpt>
      <trkpt lat="42.82001" lon="1.75465">
        <ele>2171.7553710938</ele>
        <time>2012-05-17T11:20:32Z</time>
      </trkpt>
      <trkpt lat="42.82001" lon="1.75465">
        <ele>2171.7553710938</ele>
        <time>2012-05-17T11:20:33Z</time>
      </trkpt>
      <trkpt lat="42.81999" lon="1.75463">
        <ele>2172.236328125</ele>
        <time>2012-05-17T11:20:38Z</time>
      </trkpt>
      <trkpt lat="42.81999" lon="1.75462">
        <ele>2171.7553710938</ele>
        <time>2012-05-17T11:20:44Z</time>
      </trkpt>
      <trkpt lat="42.82001" lon="1.75459">
        <ele>2170.3134765625</ele>
        <time>2012-05-17T11:20:50Z</time>
      </trkpt>
      <trkpt lat="42.82005" lon="1.75457">
        <ele>2168.8715820312</ele>
        <time>2012-05-17T11:20:55Z</time>
      </trkpt>
      <trkpt lat="42.82009" lon="1.75456">
        <ele>2168.3908691406</ele>
        <time>2012-05-17T11:21:01Z</time>
      </trkpt>
      <trkpt lat="42.82013" lon="1.75455">
        <ele>2167.91015625</ele>
        <time>2012-05-17T11:21:06Z</time>
      </trkpt>
      <trkpt lat="42.82017" lon="1.75451">
        <ele>2166.4682617188</ele>
        <time>2012-05-17T11:21:13Z</time>
      </trkpt>
      <trkpt lat="42.82019" lon="1.75449">
        <ele>2165.9875488281</ele>
        <time>2012-05-17T11:21:19Z</time>
      </trkpt>
      <trkpt lat="42.82021" lon="1.75448">
        <ele>2165.5070800781</ele>
        <time>2012-05-17T11:21:24Z</time>
      </trkpt>
      <trkpt lat="42.82025" lon="1.75447">
        <ele>2165.0263671875</ele>
        <time>2012-05-17T11:21:31Z</time>
      </trkpt>
      <trkpt lat="42.82029" lon="1.75449">
        <ele>2165.0263671875</ele>
        <time>2012-05-17T11:21:36Z</time>
      </trkpt>
      <trkpt lat="42.82035" lon="1.75446">
        <ele>2163.1037597656</ele>
        <time>2012-05-17T11:21:43Z</time>
      </trkpt>
      <trkpt lat="42.82037" lon="1.75445">
        <ele>2162.623046875</ele>
        <time>2012-05-17T11:21:45Z</time>
      </trkpt>
      <trkpt lat="42.82044" lon="1.75441">
        <ele>2159.7390136719</ele>
        <time>2012-05-17T11:21:52Z</time>
      </trkpt>
      <trkpt lat="42.82046" lon="1.7544">
        <ele>2159.7390136719</ele>
        <time>2012-05-17T11:21:53Z</time>
      </trkpt>
      <trkpt lat="42.82054" lon="1.75437">
        <ele>2157.3359375</ele>
        <time>2012-05-17T11:22:00Z</time>
      </trkpt>
      <trkpt lat="42.82059" lon="1.75433">
        <ele>2155.4130859375</ele>
        <time>2012-05-17T11:22:06Z</time>
      </trkpt>
      <trkpt lat="42.82064" lon="1.75432">
        <ele>2153.4904785156</ele>
        <time>2012-05-17T11:22:12Z</time>
      </trkpt>
      <trkpt lat="42.8207" lon="1.75434">
        <ele>2151.5678710938</ele>
        <time>2012-05-17T11:22:17Z</time>
      </trkpt>
      <trkpt lat="42.82072" lon="1.75436">
        <ele>2150.6064453125</ele>
        <time>2012-05-17T11:22:22Z</time>
      </trkpt>
      <trkpt lat="42.82076" lon="1.75433">
        <ele>2149.1645507812</ele>
        <time>2012-05-17T11:22:27Z</time>
      </trkpt>
      <trkpt lat="42.8208" lon="1.75427">
        <ele>2146.2807617188</ele>
        <time>2012-05-17T11:22:34Z</time>
      </trkpt>
      <trkpt lat="42.82084" lon="1.75425">
        <ele>2144.8386230469</ele>
        <time>2012-05-17T11:22:39Z</time>
      </trkpt>
      <trkpt lat="42.82087" lon="1.75423">
        <ele>2143.3967285156</ele>
        <time>2012-05-17T11:22:44Z</time>
      </trkpt>
      <trkpt lat="42.8209" lon="1.7542">
        <ele>2140.9934082031</ele>
        <time>2012-05-17T11:22:48Z</time>
      </trkpt>
      <trkpt lat="42.82095" lon="1.75418">
        <ele>2139.0705566406</ele>
        <time>2012-05-17T11:22:52Z</time>
      </trkpt>
      <trkpt lat="42.82098" lon="1.75417">
        <ele>2138.109375</ele>
        <time>2012-05-17T11:22:54Z</time>
      </trkpt>
      <trkpt lat="42.82101" lon="1.75415">
        <ele>2136.6672363281</ele>
        <time>2012-05-17T11:22:58Z</time>
      </trkpt>
      <trkpt lat="42.82104" lon="1.75411">
        <ele>2134.2641601562</ele>
        <time>2012-05-17T11:23:04Z</time>
      </trkpt>
      <trkpt lat="42.82108" lon="1.75407">
        <ele>2132.3415527344</ele>
        <time>2012-05-17T11:23:09Z</time>
      </trkpt>
      <trkpt lat="42.82113" lon="1.75399">
        <ele>2129.9382324219</ele>
        <time>2012-05-17T11:23:17Z</time>
      </trkpt>
      <trkpt lat="42.82116" lon="1.75396">
        <ele>2128.9768066406</ele>
        <time>2012-05-17T11:23:22Z</time>
      </trkpt>
      <trkpt lat="42.82118" lon="1.75388">
        <ele>2126.5737304688</ele>
        <time>2012-05-17T11:23:29Z</time>
      </trkpt>
      <trkpt lat="42.82119" lon="1.75383">
        <ele>2125.1315917969</ele>
        <time>2012-05-17T11:23:34Z</time>
      </trkpt>
      <trkpt lat="42.82122" lon="1.7538">
        <ele>2123.689453125</ele>
        <time>2012-05-17T11:23:38Z</time>
      </trkpt>
      <trkpt lat="42.8213" lon="1.75372">
        <ele>2121.2861328125</ele>
        <time>2012-05-17T11:23:46Z</time>
      </trkpt>
      <trkpt lat="42.82133" lon="1.7537">
        <ele>2119.3637695312</ele>
        <time>2012-05-17T11:23:51Z</time>
      </trkpt>
      <trkpt lat="42.82132" lon="1.75364">
        <ele>2117.9216308594</ele>
        <time>2012-05-17T11:23:57Z</time>
      </trkpt>
      <trkpt lat="42.82132" lon="1.75361">
        <ele>2116.9604492188</ele>
        <time>2012-05-17T11:24:01Z</time>
      </trkpt>
      <trkpt lat="42.82136" lon="1.75359">
        <ele>2114.0764160156</ele>
        <time>2012-05-17T11:24:07Z</time>
      </trkpt>
      <trkpt lat="42.82139" lon="1.75354">
        <ele>2113.115234375</ele>
        <time>2012-05-17T11:24:13Z</time>
      </trkpt>
      <trkpt lat="42.8214" lon="1.7535">
        <ele>2111.1926269531</ele>
        <time>2012-05-17T11:24:20Z</time>
      </trkpt>
      <trkpt lat="42.82142" lon="1.75348">
        <ele>2109.7504882812</ele>
        <time>2012-05-17T11:24:25Z</time>
      </trkpt>
      <trkpt lat="42.82148" lon="1.75343">
        <ele>2108.30859375</ele>
        <time>2012-05-17T11:24:31Z</time>
      </trkpt>
      <trkpt lat="42.82151" lon="1.75339">
        <ele>2106.8664550781</ele>
        <time>2012-05-17T11:24:36Z</time>
      </trkpt>
      <trkpt lat="42.82154" lon="1.75332">
        <ele>2103.9826660156</ele>
        <time>2012-05-17T11:24:44Z</time>
      </trkpt>
      <trkpt lat="42.82155" lon="1.75328">
        <ele>2102.5405273438</ele>
        <time>2012-05-17T11:24:50Z</time>
      </trkpt>
      <trkpt lat="42.82156" lon="1.75323">
        <ele>2102.0598144531</ele>
        <time>2012-05-17T11:24:55Z</time>
      </trkpt>
      <trkpt lat="42.82161" lon="1.75317">
        <ele>2100.1374511719</ele>
        <time>2012-05-17T11:25:02Z</time>
      </trkpt>
      <trkpt lat="42.82164" lon="1.75313">
        <ele>2098.2145996094</ele>
        <time>2012-05-17T11:25:07Z</time>
      </trkpt>
      <trkpt lat="42.82167" lon="1.7531">
        <ele>2095.8115234375</ele>
        <time>2012-05-17T11:25:12Z</time>
      </trkpt>
      <trkpt lat="42.8217" lon="1.75305">
        <ele>2094.3693847656</ele>
        <time>2012-05-17T11:25:19Z</time>
      </trkpt>
      <trkpt lat="42.8217" lon="1.75303">
        <ele>2092.9274902344</ele>
        <time>2012-05-17T11:25:24Z</time>
      </trkpt>
      <trkpt lat="42.8217" lon="1.75299">
        <ele>2091.4853515625</ele>
        <time>2012-05-17T11:25:30Z</time>
      </trkpt>
      <trkpt lat="42.82171" lon="1.75296">
        <ele>2089.5627441406</ele>
        <time>2012-05-17T11:25:35Z</time>
      </trkpt>
      <trkpt lat="42.82172" lon="1.75296">
        <ele>2088.6015625</ele>
        <time>2012-05-17T11:25:45Z</time>
      </trkpt>
      <trkpt lat="42.82174" lon="1.75294">
        <ele>2087.1594238281</ele>
        <time>2012-05-17T11:25:52Z</time>
      </trkpt>
      <trkpt lat="42.82175" lon="1.75292">
        <ele>2086.6787109375</ele>
        <time>2012-05-17T11:26:03Z</time>
      </trkpt>
      <trkpt lat="42.82178" lon="1.7529">
        <ele>2084.7563476562</ele>
        <time>2012-05-17T11:26:09Z</time>
      </trkpt>
      <trkpt lat="42.82183" lon="1.75287">
        <ele>2081.8723144531</ele>
        <time>2012-05-17T11:26:16Z</time>
      </trkpt>
      <trkpt lat="42.82187" lon="1.75284">
        <ele>2079.9497070312</ele>
        <time>2012-05-17T11:26:22Z</time>
      </trkpt>
      <trkpt lat="42.82191" lon="1.7528">
        <ele>2078.5078125</ele>
        <time>2012-05-17T11:26:29Z</time>
      </trkpt>
      <trkpt lat="42.82193" lon="1.75276">
        <ele>2076.1044921875</ele>
        <time>2012-05-17T11:26:34Z</time>
      </trkpt>
      <trkpt lat="42.82196" lon="1.75272">
        <ele>2074.6623535156</ele>
        <time>2012-05-17T11:26:39Z</time>
      </trkpt>
      <trkpt lat="42.822" lon="1.75268">
        <ele>2071.7783203125</ele>
        <time>2012-05-17T11:26:46Z</time>
      </trkpt>
      <trkpt lat="42.82201" lon="1.75262">
        <ele>2071.2976074219</ele>
        <time>2012-05-17T11:26:52Z</time>
      </trkpt>
      <trkpt lat="42.82204" lon="1.75256">
        <ele>2069.3752441406</ele>
        <time>2012-05-17T11:26:59Z</time>
      </trkpt>
      <trkpt lat="42.82208" lon="1.75255">
        <ele>2069.3752441406</ele>
        <time>2012-05-17T11:27:05Z</time>
      </trkpt>
      <trkpt lat="42.8221" lon="1.75254">
        <ele>2068.89453125</ele>
        <time>2012-05-17T11:27:13Z</time>
      </trkpt>
      <trkpt lat="42.82213" lon="1.75251">
        <ele>2068.4138183594</ele>
        <time>2012-05-17T11:27:20Z</time>
      </trkpt>
      <trkpt lat="42.82217" lon="1.75251">
        <ele>2066.9719238281</ele>
        <time>2012-05-17T11:27:26Z</time>
      </trkpt>
      <trkpt lat="42.8222" lon="1.75249">
        <ele>2065.5300292969</ele>
        <time>2012-05-17T11:27:31Z</time>
      </trkpt>
      <trkpt lat="42.8222" lon="1.75245">
        <ele>2064.087890625</ele>
        <time>2012-05-17T11:27:36Z</time>
      </trkpt>
      <trkpt lat="42.82221" lon="1.75244">
        <ele>2064.087890625</ele>
        <time>2012-05-17T11:27:41Z</time>
      </trkpt>
      <trkpt lat="42.82224" lon="1.75243">
        <ele>2063.6071777344</ele>
        <time>2012-05-17T11:27:49Z</time>
      </trkpt>
      <trkpt lat="42.82226" lon="1.75243">
        <ele>2062.1652832031</ele>
        <time>2012-05-17T11:27:55Z</time>
      </trkpt>
      <trkpt lat="42.82228" lon="1.75243">
        <ele>2060.7233886719</ele>
        <time>2012-05-17T11:28:01Z</time>
      </trkpt>
      <trkpt lat="42.82228" lon="1.75243">
        <ele>2060.7233886719</ele>
        <time>2012-05-17T11:28:07Z</time>
      </trkpt>
      <trkpt lat="42.82231" lon="1.7524">
        <ele>2059.76171875</ele>
        <time>2012-05-17T11:28:14Z</time>
      </trkpt>
      <trkpt lat="42.82235" lon="1.75235">
        <ele>2057.3586425781</ele>
        <time>2012-05-17T11:28:22Z</time>
      </trkpt>
      <trkpt lat="42.82237" lon="1.7523">
        <ele>2055.4360351562</ele>
        <time>2012-05-17T11:28:30Z</time>
      </trkpt>
      <trkpt lat="42.82239" lon="1.75227">
        <ele>2054.474609375</ele>
        <time>2012-05-17T11:28:37Z</time>
      </trkpt>
      <trkpt lat="42.8224" lon="1.75225">
        <ele>2053.994140625</ele>
        <time>2012-05-17T11:28:43Z</time>
      </trkpt>
      <trkpt lat="42.82241" lon="1.7522">
        <ele>2053.0327148438</ele>
        <time>2012-05-17T11:28:49Z</time>
      </trkpt>
      <trkpt lat="42.82239" lon="1.75214">
        <ele>2052.5520019531</ele>
        <time>2012-05-17T11:28:55Z</time>
      </trkpt>
      <trkpt lat="42.82241" lon="1.75209">
        <ele>2051.5908203125</ele>
        <time>2012-05-17T11:29:00Z</time>
      </trkpt>
      <trkpt lat="42.82246" lon="1.75207">
        <ele>2049.1875</ele>
        <time>2012-05-17T11:29:06Z</time>
      </trkpt>
      <trkpt lat="42.82249" lon="1.75203">
        <ele>2047.7456054688</ele>
        <time>2012-05-17T11:29:11Z</time>
      </trkpt>
      <trkpt lat="42.82253" lon="1.75199">
        <ele>2046.7841796875</ele>
        <time>2012-05-17T11:29:16Z</time>
      </trkpt>
      <trkpt lat="42.82257" lon="1.75193">
        <ele>2045.8229980469</ele>
        <time>2012-05-17T11:29:23Z</time>
      </trkpt>
      <trkpt lat="42.8226" lon="1.75192">
        <ele>2044.380859375</ele>
        <time>2012-05-17T11:29:30Z</time>
      </trkpt>
      <trkpt lat="42.8226" lon="1.7519">
        <ele>2044.8615722656</ele>
        <time>2012-05-17T11:29:40Z</time>
      </trkpt>
      <trkpt lat="42.82261" lon="1.75188">
        <ele>2044.8615722656</ele>
        <time>2012-05-17T11:29:55Z</time>
      </trkpt>
      <trkpt lat="42.82261" lon="1.75189">
        <ele>2043.4194335938</ele>
        <time>2012-05-17T11:30:06Z</time>
      </trkpt>
      <trkpt lat="42.82265" lon="1.75188">
        <ele>2033.8063964844</ele>
        <time>2012-05-17T11:31:53Z</time>
      </trkpt>
      <trkpt lat="42.82265" lon="1.75188">
        <ele>2033.8063964844</ele>
        <time>2012-05-17T11:31:54Z</time>
      </trkpt>
      <trkpt lat="42.82265" lon="1.75188">
        <ele>2034.287109375</ele>
        <time>2012-05-17T11:32:02Z</time>
      </trkpt>
      <trkpt lat="42.82265" lon="1.75183">
        <ele>2035.2482910156</ele>
        <time>2012-05-17T11:32:11Z</time>
      </trkpt>
      <trkpt lat="42.82267" lon="1.75176">
        <ele>2035.7290039062</ele>
        <time>2012-05-17T11:32:18Z</time>
      </trkpt>
      <trkpt lat="42.82271" lon="1.7517">
        <ele>2036.2097167969</ele>
        <time>2012-05-17T11:32:24Z</time>
      </trkpt>
      <trkpt lat="42.82274" lon="1.75165">
        <ele>2036.2097167969</ele>
        <time>2012-05-17T11:32:30Z</time>
      </trkpt>
      <trkpt lat="42.82278" lon="1.75159">
        <ele>2037.6516113281</ele>
        <time>2012-05-17T11:32:37Z</time>
      </trkpt>
      <trkpt lat="42.8228" lon="1.75156">
        <ele>2039.57421875</ele>
        <time>2012-05-17T11:32:42Z</time>
      </trkpt>
      <trkpt lat="42.82282" lon="1.75153">
        <ele>2040.5354003906</ele>
        <time>2012-05-17T11:32:47Z</time>
      </trkpt>
      <trkpt lat="42.82286" lon="1.75147">
        <ele>2041.0161132812</ele>
        <time>2012-05-17T11:32:54Z</time>
      </trkpt>
      <trkpt lat="42.82291" lon="1.75141">
        <ele>2041.4968261719</ele>
        <time>2012-05-17T11:33:01Z</time>
      </trkpt>
      <trkpt lat="42.82296" lon="1.75136">
        <ele>2043.4194335938</ele>
        <time>2012-05-17T11:33:08Z</time>
      </trkpt>
      <trkpt lat="42.82299" lon="1.75132">
        <ele>2044.8615722656</ele>
        <time>2012-05-17T11:33:14Z</time>
      </trkpt>
      <trkpt lat="42.82301" lon="1.75125">
        <ele>2045.8229980469</ele>
        <time>2012-05-17T11:33:21Z</time>
      </trkpt>
      <trkpt lat="42.82301" lon="1.7512">
        <ele>2046.7841796875</ele>
        <time>2012-05-17T11:33:28Z</time>
      </trkpt>
      <trkpt lat="42.82302" lon="1.7512">
        <ele>2047.2648925781</ele>
        <time>2012-05-17T11:33:34Z</time>
      </trkpt>
      <trkpt lat="42.82301" lon="1.75118">
        <ele>2048.2260742188</ele>
        <time>2012-05-17T11:33:39Z</time>
      </trkpt>
      <trkpt lat="42.82301" lon="1.75117">
        <ele>2048.2260742188</ele>
        <time>2012-05-17T11:33:45Z</time>
      </trkpt>
      <trkpt lat="42.823" lon="1.75114">
        <ele>2047.7456054688</ele>
        <time>2012-05-17T11:33:50Z</time>
      </trkpt>
      <trkpt lat="42.82299" lon="1.75109">
        <ele>2048.2260742188</ele>
        <time>2012-05-17T11:33:57Z</time>
      </trkpt>
      <trkpt lat="42.82298" lon="1.75107">
        <ele>2049.6682128906</ele>
        <time>2012-05-17T11:34:14Z</time>
      </trkpt>
      <trkpt lat="42.82298" lon="1.75105">
        <ele>2049.6682128906</ele>
        <time>2012-05-17T11:34:19Z</time>
      </trkpt>
      <trkpt lat="42.82297" lon="1.75102">
        <ele>2050.1489257812</ele>
        <time>2012-05-17T11:34:23Z</time>
      </trkpt>
      <trkpt lat="42.82298" lon="1.751">
        <ele>2050.6293945312</ele>
        <time>2012-05-17T11:34:30Z</time>
      </trkpt>
      <trkpt lat="42.82298" lon="1.75095">
        <ele>2051.1101074219</ele>
        <time>2012-05-17T11:34:36Z</time>
      </trkpt>
      <trkpt lat="42.82298" lon="1.75091">
        <ele>2051.5908203125</ele>
        <time>2012-05-17T11:34:42Z</time>
      </trkpt>
      <trkpt lat="42.82299" lon="1.75088">
        <ele>2053.0327148438</ele>
        <time>2012-05-17T11:34:47Z</time>
      </trkpt>
      <trkpt lat="42.82301" lon="1.75084">
        <ele>2053.5134277344</ele>
        <time>2012-05-17T11:34:55Z</time>
      </trkpt>
      <trkpt lat="42.82302" lon="1.75081">
        <ele>2053.0327148438</ele>
        <time>2012-05-17T11:35:00Z</time>
      </trkpt>
      <trkpt lat="42.82303" lon="1.75075">
        <ele>2052.5520019531</ele>
        <time>2012-05-17T11:35:07Z</time>
      </trkpt>
      <trkpt lat="42.82305" lon="1.75072">
        <ele>2052.0712890625</ele>
        <time>2012-05-17T11:35:13Z</time>
      </trkpt>
      <trkpt lat="42.82306" lon="1.7507">
        <ele>2051.5908203125</ele>
        <time>2012-05-17T11:35:19Z</time>
      </trkpt>
      <trkpt lat="42.82309" lon="1.75071">
        <ele>2052.0712890625</ele>
        <time>2012-05-17T11:35:30Z</time>
      </trkpt>
      <trkpt lat="42.82311" lon="1.75073">
        <ele>2053.0327148438</ele>
        <time>2012-05-17T11:35:35Z</time>
      </trkpt>
      <trkpt lat="42.82312" lon="1.75076">
        <ele>2054.474609375</ele>
        <time>2012-05-17T11:35:41Z</time>
      </trkpt>
      <trkpt lat="42.82314" lon="1.75074">
        <ele>2054.9553222656</ele>
        <time>2012-05-17T11:35:47Z</time>
      </trkpt>
      <trkpt lat="42.82317" lon="1.7507">
        <ele>2055.4360351562</ele>
        <time>2012-05-17T11:35:53Z</time>
      </trkpt>
      <trkpt lat="42.82319" lon="1.75065">
        <ele>2056.8779296875</ele>
        <time>2012-05-17T11:35:58Z</time>
      </trkpt>
      <trkpt lat="42.82323" lon="1.75059">
        <ele>2056.8779296875</ele>
        <time>2012-05-17T11:36:05Z</time>
      </trkpt>
      <trkpt lat="42.82327" lon="1.75052">
        <ele>2056.8779296875</ele>
        <time>2012-05-17T11:36:12Z</time>
      </trkpt>
      <trkpt lat="42.8233" lon="1.75047">
        <ele>2056.8779296875</ele>
        <time>2012-05-17T11:36:18Z</time>
      </trkpt>
      <trkpt lat="42.82334" lon="1.75041">
        <ele>2056.8779296875</ele>
        <time>2012-05-17T11:36:25Z</time>
      </trkpt>
      <trkpt lat="42.82336" lon="1.75035">
        <ele>2057.8393554688</ele>
        <time>2012-05-17T11:36:31Z</time>
      </trkpt>
      <trkpt lat="42.82338" lon="1.75031">
        <ele>2057.8393554688</ele>
        <time>2012-05-17T11:36:36Z</time>
      </trkpt>
      <trkpt lat="42.8234" lon="1.75027">
        <ele>2057.8393554688</ele>
        <time>2012-05-17T11:36:41Z</time>
      </trkpt>
      <trkpt lat="42.82343" lon="1.75022">
        <ele>2058.3198242188</ele>
        <time>2012-05-17T11:36:47Z</time>
      </trkpt>
      <trkpt lat="42.82346" lon="1.75018">
        <ele>2058.3198242188</ele>
        <time>2012-05-17T11:36:53Z</time>
      </trkpt>
      <trkpt lat="42.82348" lon="1.75013">
        <ele>2057.8393554688</ele>
        <time>2012-05-17T11:37:00Z</time>
      </trkpt>
      <trkpt lat="42.82351" lon="1.75007">
        <ele>2057.3586425781</ele>
        <time>2012-05-17T11:37:06Z</time>
      </trkpt>
      <trkpt lat="42.82352" lon="1.75003">
        <ele>2057.3586425781</ele>
        <time>2012-05-17T11:37:11Z</time>
      </trkpt>
      <trkpt lat="42.82354" lon="1.74998">
        <ele>2057.3586425781</ele>
        <time>2012-05-17T11:37:16Z</time>
      </trkpt>
      <trkpt lat="42.82356" lon="1.7499">
        <ele>2057.3586425781</ele>
        <time>2012-05-17T11:37:22Z</time>
      </trkpt>
      <trkpt lat="42.82359" lon="1.74981">
        <ele>2057.3586425781</ele>
        <time>2012-05-17T11:37:29Z</time>
      </trkpt>
      <trkpt lat="42.82362" lon="1.7497">
        <ele>2057.3586425781</ele>
        <time>2012-05-17T11:37:37Z</time>
      </trkpt>
      <trkpt lat="42.82364" lon="1.74962">
        <ele>2057.3586425781</ele>
        <time>2012-05-17T11:37:44Z</time>
      </trkpt>
      <trkpt lat="42.82364" lon="1.74957">
        <ele>2058.8005371094</ele>
        <time>2012-05-17T11:37:49Z</time>
      </trkpt>
      <trkpt lat="42.82367" lon="1.7495">
        <ele>2058.3198242188</ele>
        <time>2012-05-17T11:37:54Z</time>
      </trkpt>
      <trkpt lat="42.8237" lon="1.74944">
        <ele>2058.3198242188</ele>
        <time>2012-05-17T11:38:00Z</time>
      </trkpt>
      <trkpt lat="42.8237" lon="1.74942">
        <ele>2057.8393554688</ele>
        <time>2012-05-17T11:38:07Z</time>
      </trkpt>
      <trkpt lat="42.82372" lon="1.74935">
        <ele>2057.8393554688</ele>
        <time>2012-05-17T11:38:14Z</time>
      </trkpt>
      <trkpt lat="42.82373" lon="1.74926">
        <ele>2057.3586425781</ele>
        <time>2012-05-17T11:38:21Z</time>
      </trkpt>
      <trkpt lat="42.82374" lon="1.7492">
        <ele>2058.3198242188</ele>
        <time>2012-05-17T11:38:28Z</time>
      </trkpt>
      <trkpt lat="42.82375" lon="1.74916">
        <ele>2057.8393554688</ele>
        <time>2012-05-17T11:38:34Z</time>
      </trkpt>
      <trkpt lat="42.82375" lon="1.74914">
        <ele>2057.8393554688</ele>
        <time>2012-05-17T11:38:41Z</time>
      </trkpt>
      <trkpt lat="42.82376" lon="1.74911">
        <ele>2058.3198242188</ele>
        <time>2012-05-17T11:38:46Z</time>
      </trkpt>
      <trkpt lat="42.82377" lon="1.74905">
        <ele>2058.8005371094</ele>
        <time>2012-05-17T11:38:52Z</time>
      </trkpt>
      <trkpt lat="42.82378" lon="1.74898">
        <ele>2058.3198242188</ele>
        <time>2012-05-17T11:38:58Z</time>
      </trkpt>
      <trkpt lat="42.82379" lon="1.74891">
        <ele>2058.3198242188</ele>
        <time>2012-05-17T11:39:05Z</time>
      </trkpt>
      <trkpt lat="42.82381" lon="1.74886">
        <ele>2057.3586425781</ele>
        <time>2012-05-17T11:39:12Z</time>
      </trkpt>
      <trkpt lat="42.82382" lon="1.7488">
        <ele>2057.8393554688</ele>
        <time>2012-05-17T11:39:19Z</time>
      </trkpt>
      <trkpt lat="42.82382" lon="1.74874">
        <ele>2058.3198242188</ele>
        <time>2012-05-17T11:39:25Z</time>
      </trkpt>
      <trkpt lat="42.82384" lon="1.74865">
        <ele>2058.3198242188</ele>
        <time>2012-05-17T11:39:32Z</time>
      </trkpt>
      <trkpt lat="42.82385" lon="1.74862">
        <ele>2058.3198242188</ele>
        <time>2012-05-17T11:39:37Z</time>
      </trkpt>
      <trkpt lat="42.82386" lon="1.74856">
        <ele>2058.3198242188</ele>
        <time>2012-05-17T11:39:42Z</time>
      </trkpt>
      <trkpt lat="42.82386" lon="1.74853">
        <ele>2058.8005371094</ele>
        <time>2012-05-17T11:39:47Z</time>
      </trkpt>
      <trkpt lat="42.8239" lon="1.74845">
        <ele>2058.3198242188</ele>
        <time>2012-05-17T11:39:55Z</time>
      </trkpt>
      <trkpt lat="42.82393" lon="1.7484">
        <ele>2058.8005371094</ele>
        <time>2012-05-17T11:40:02Z</time>
      </trkpt>
      <trkpt lat="42.82396" lon="1.74836">
        <ele>2058.3198242188</ele>
        <time>2012-05-17T11:40:09Z</time>
      </trkpt>
      <trkpt lat="42.82399" lon="1.74834">
        <ele>2058.8005371094</ele>
        <time>2012-05-17T11:40:13Z</time>
      </trkpt>
      <trkpt lat="42.82401" lon="1.7483">
        <ele>2058.8005371094</ele>
        <time>2012-05-17T11:40:18Z</time>
      </trkpt>
      <trkpt lat="42.82402" lon="1.74827">
        <ele>2059.76171875</ele>
        <time>2012-05-17T11:40:30Z</time>
      </trkpt>
      <trkpt lat="42.82404" lon="1.74821">
        <ele>2060.2426757812</ele>
        <time>2012-05-17T11:40:37Z</time>
      </trkpt>
      <trkpt lat="42.82406" lon="1.74816">
        <ele>2060.7233886719</ele>
        <time>2012-05-17T11:40:43Z</time>
      </trkpt>
      <trkpt lat="42.82409" lon="1.74812">
        <ele>2061.2041015625</ele>
        <time>2012-05-17T11:40:49Z</time>
      </trkpt>
      <trkpt lat="42.8241" lon="1.74808">
        <ele>2060.7233886719</ele>
        <time>2012-05-17T11:40:54Z</time>
      </trkpt>
      <trkpt lat="42.82415" lon="1.74802">
        <ele>2059.28125</ele>
        <time>2012-05-17T11:41:00Z</time>
      </trkpt>
      <trkpt lat="42.82418" lon="1.74799">
        <ele>2059.28125</ele>
        <time>2012-05-17T11:41:04Z</time>
      </trkpt>
      <trkpt lat="42.82423" lon="1.74792">
        <ele>2059.28125</ele>
        <time>2012-05-17T11:41:11Z</time>
      </trkpt>
      <trkpt lat="42.82429" lon="1.74784">
        <ele>2058.8005371094</ele>
        <time>2012-05-17T11:41:20Z</time>
      </trkpt>
      <trkpt lat="42.82432" lon="1.74778">
        <ele>2059.28125</ele>
        <time>2012-05-17T11:41:26Z</time>
      </trkpt>
      <trkpt lat="42.82436" lon="1.74773">
        <ele>2059.28125</ele>
        <time>2012-05-17T11:41:33Z</time>
      </trkpt>
      <trkpt lat="42.82438" lon="1.74768">
        <ele>2059.76171875</ele>
        <time>2012-05-17T11:41:38Z</time>
      </trkpt>
      <trkpt lat="42.82441" lon="1.74765">
        <ele>2059.76171875</ele>
        <time>2012-05-17T11:41:44Z</time>
      </trkpt>
      <trkpt lat="42.82442" lon="1.74761">
        <ele>2059.76171875</ele>
        <time>2012-05-17T11:41:49Z</time>
      </trkpt>
      <trkpt lat="42.82444" lon="1.74756">
        <ele>2060.2426757812</ele>
        <time>2012-05-17T11:41:55Z</time>
      </trkpt>
      <trkpt lat="42.82447" lon="1.74751">
        <ele>2059.76171875</ele>
        <time>2012-05-17T11:42:02Z</time>
      </trkpt>
      <trkpt lat="42.82448" lon="1.74746">
        <ele>2060.2426757812</ele>
        <time>2012-05-17T11:42:08Z</time>
      </trkpt>
      <trkpt lat="42.8245" lon="1.74742">
        <ele>2060.2426757812</ele>
        <time>2012-05-17T11:42:15Z</time>
      </trkpt>
      <trkpt lat="42.8245" lon="1.74738">
        <ele>2059.76171875</ele>
        <time>2012-05-17T11:42:21Z</time>
      </trkpt>
      <trkpt lat="42.8245" lon="1.74735">
        <ele>2059.28125</ele>
        <time>2012-05-17T11:42:26Z</time>
      </trkpt>
      <trkpt lat="42.82451" lon="1.74731">
        <ele>2058.8005371094</ele>
        <time>2012-05-17T11:42:32Z</time>
      </trkpt>
      <trkpt lat="42.8245" lon="1.74728">
        <ele>2058.8005371094</ele>
        <time>2012-05-17T11:42:37Z</time>
      </trkpt>
      <trkpt lat="42.82452" lon="1.74724">
        <ele>2057.8393554688</ele>
        <time>2012-05-17T11:42:41Z</time>
      </trkpt>
      <trkpt lat="42.82453" lon="1.7472">
        <ele>2057.3586425781</ele>
        <time>2012-05-17T11:42:45Z</time>
      </trkpt>
      <trkpt lat="42.82455" lon="1.74713">
        <ele>2056.8779296875</ele>
        <time>2012-05-17T11:42:51Z</time>
      </trkpt>
      <trkpt lat="42.82455" lon="1.74707">
        <ele>2058.3198242188</ele>
        <time>2012-05-17T11:42:57Z</time>
      </trkpt>
      <trkpt lat="42.82455" lon="1.74703">
        <ele>2059.28125</ele>
        <time>2012-05-17T11:43:06Z</time>
      </trkpt>
      <trkpt lat="42.82456" lon="1.747">
        <ele>2060.2426757812</ele>
        <time>2012-05-17T11:43:11Z</time>
      </trkpt>
      <trkpt lat="42.82456" lon="1.74698">
        <ele>2060.2426757812</ele>
        <time>2012-05-17T11:43:15Z</time>
      </trkpt>
      <trkpt lat="42.82456" lon="1.74696">
        <ele>2059.76171875</ele>
        <time>2012-05-17T11:43:19Z</time>
      </trkpt>
      <trkpt lat="42.82455" lon="1.74694">
        <ele>2061.6848144531</ele>
        <time>2012-05-17T11:43:23Z</time>
      </trkpt>
      <trkpt lat="42.82455" lon="1.74692">
        <ele>2061.2041015625</ele>
        <time>2012-05-17T11:43:29Z</time>
      </trkpt>
      <trkpt lat="42.82455" lon="1.74687">
        <ele>2062.1652832031</ele>
        <time>2012-05-17T11:43:39Z</time>
      </trkpt>
      <trkpt lat="42.82454" lon="1.74685">
        <ele>2067.4523925781</ele>
        <time>2012-05-17T11:43:45Z</time>
      </trkpt>
      <trkpt lat="42.82452" lon="1.74684">
        <ele>2067.9331054688</ele>
        <time>2012-05-17T11:43:51Z</time>
      </trkpt>
      <trkpt lat="42.8245" lon="1.74683">
        <ele>2063.1267089844</ele>
        <time>2012-05-17T11:43:59Z</time>
      </trkpt>
      <trkpt lat="42.8245" lon="1.74681">
        <ele>2061.6848144531</ele>
        <time>2012-05-17T11:44:06Z</time>
      </trkpt>
      <trkpt lat="42.8245" lon="1.74679">
        <ele>2061.6848144531</ele>
        <time>2012-05-17T11:44:19Z</time>
      </trkpt>
      <trkpt lat="42.82449" lon="1.74675">
        <ele>2060.7233886719</ele>
        <time>2012-05-17T11:44:25Z</time>
      </trkpt>
      <trkpt lat="42.8245" lon="1.74673">
        <ele>2059.28125</ele>
        <time>2012-05-17T11:44:31Z</time>
      </trkpt>
      <trkpt lat="42.8245" lon="1.74671">
        <ele>2058.8005371094</ele>
        <time>2012-05-17T11:44:35Z</time>
      </trkpt>
      <trkpt lat="42.82451" lon="1.74667">
        <ele>2059.76171875</ele>
        <time>2012-05-17T11:44:41Z</time>
      </trkpt>
      <trkpt lat="42.82452" lon="1.74664">
        <ele>2060.7233886719</ele>
        <time>2012-05-17T11:44:47Z</time>
      </trkpt>
      <trkpt lat="42.82452" lon="1.74663">
        <ele>2061.2041015625</ele>
        <time>2012-05-17T11:44:52Z</time>
      </trkpt>
      <trkpt lat="42.82452" lon="1.74661">
        <ele>2061.2041015625</ele>
        <time>2012-05-17T11:44:58Z</time>
      </trkpt>
      <trkpt lat="42.82454" lon="1.74657">
        <ele>2061.6848144531</ele>
        <time>2012-05-17T11:45:05Z</time>
      </trkpt>
      <trkpt lat="42.82455" lon="1.74653">
        <ele>2062.1652832031</ele>
        <time>2012-05-17T11:45:11Z</time>
      </trkpt>
      <trkpt lat="42.82457" lon="1.7465">
        <ele>2061.2041015625</ele>
        <time>2012-05-17T11:45:18Z</time>
      </trkpt>
      <trkpt lat="42.82458" lon="1.74647">
        <ele>2061.6848144531</ele>
        <time>2012-05-17T11:45:23Z</time>
      </trkpt>
      <trkpt lat="42.82457" lon="1.74643">
        <ele>2062.6459960938</ele>
        <time>2012-05-17T11:45:29Z</time>
      </trkpt>
      <trkpt lat="42.82458" lon="1.74641">
        <ele>2061.6848144531</ele>
        <time>2012-05-17T11:45:35Z</time>
      </trkpt>
      <trkpt lat="42.82457" lon="1.7464">
        <ele>2060.7233886719</ele>
        <time>2012-05-17T11:45:42Z</time>
      </trkpt>
      <trkpt lat="42.82458" lon="1.74636">
        <ele>2060.2426757812</ele>
        <time>2012-05-17T11:45:48Z</time>
      </trkpt>
      <trkpt lat="42.8246" lon="1.74634">
        <ele>2059.76171875</ele>
        <time>2012-05-17T11:45:54Z</time>
      </trkpt>
      <trkpt lat="42.82461" lon="1.74633">
        <ele>2059.28125</ele>
        <time>2012-05-17T11:46:01Z</time>
      </trkpt>
      <trkpt lat="42.82462" lon="1.74628">
        <ele>2059.76171875</ele>
        <time>2012-05-17T11:46:08Z</time>
      </trkpt>
      <trkpt lat="42.82464" lon="1.74625">
        <ele>2060.2426757812</ele>
        <time>2012-05-17T11:46:14Z</time>
      </trkpt>
      <trkpt lat="42.82467" lon="1.7462">
        <ele>2059.76171875</ele>
        <time>2012-05-17T11:46:20Z</time>
      </trkpt>
      <trkpt lat="42.82472" lon="1.74614">
        <ele>2060.2426757812</ele>
        <time>2012-05-17T11:46:28Z</time>
      </trkpt>
      <trkpt lat="42.82476" lon="1.7461">
        <ele>2061.6848144531</ele>
        <time>2012-05-17T11:46:34Z</time>
      </trkpt>
      <trkpt lat="42.82479" lon="1.74606">
        <ele>2062.6459960938</ele>
        <time>2012-05-17T11:46:40Z</time>
      </trkpt>
      <trkpt lat="42.82479" lon="1.74602">
        <ele>2066.4912109375</ele>
        <time>2012-05-17T11:46:50Z</time>
      </trkpt>
      <trkpt lat="42.82482" lon="1.74604">
        <ele>2064.087890625</ele>
        <time>2012-05-17T11:46:55Z</time>
      </trkpt>
      <trkpt lat="42.82484" lon="1.74604">
        <ele>2065.5300292969</ele>
        <time>2012-05-17T11:47:01Z</time>
      </trkpt>
      <trkpt lat="42.82486" lon="1.74604">
        <ele>2066.9719238281</ele>
        <time>2012-05-17T11:47:06Z</time>
      </trkpt>
      <trkpt lat="42.82489" lon="1.74604">
        <ele>2066.9719238281</ele>
        <time>2012-05-17T11:47:12Z</time>
      </trkpt>
      <trkpt lat="42.82492" lon="1.74605">
        <ele>2065.5300292969</ele>
        <time>2012-05-17T11:47:21Z</time>
      </trkpt>
      <trkpt lat="42.82493" lon="1.74604">
        <ele>2066.4912109375</ele>
        <time>2012-05-17T11:47:27Z</time>
      </trkpt>
      <trkpt lat="42.82497" lon="1.74605">
        <ele>2066.0104980469</ele>
        <time>2012-05-17T11:47:32Z</time>
      </trkpt>
      <trkpt lat="42.825" lon="1.74606">
        <ele>2065.0493164062</ele>
        <time>2012-05-17T11:47:37Z</time>
      </trkpt>
      <trkpt lat="42.82503" lon="1.74605">
        <ele>2065.5300292969</ele>
        <time>2012-05-17T11:47:42Z</time>
      </trkpt>
      <trkpt lat="42.82505" lon="1.74602">
        <ele>2065.0493164062</ele>
        <time>2012-05-17T11:47:47Z</time>
      </trkpt>
      <trkpt lat="42.82508" lon="1.74601">
        <ele>2066.9719238281</ele>
        <time>2012-05-17T11:47:52Z</time>
      </trkpt>
      <trkpt lat="42.8251" lon="1.746">
        <ele>2066.9719238281</ele>
        <time>2012-05-17T11:47:56Z</time>
      </trkpt>
      <trkpt lat="42.82514" lon="1.74596">
        <ele>2069.3752441406</ele>
        <time>2012-05-17T11:48:02Z</time>
      </trkpt>
      <trkpt lat="42.82515" lon="1.74594">
        <ele>2071.2976074219</ele>
        <time>2012-05-17T11:48:08Z</time>
      </trkpt>
      <trkpt lat="42.82516" lon="1.74592">
        <ele>2072.7397460938</ele>
        <time>2012-05-17T11:48:14Z</time>
      </trkpt>
      <trkpt lat="42.82518" lon="1.7459">
        <ele>2071.7783203125</ele>
        <time>2012-05-17T11:48:20Z</time>
      </trkpt>
      <trkpt lat="42.8252" lon="1.74593">
        <ele>2069.8557128906</ele>
        <time>2012-05-17T11:48:25Z</time>
      </trkpt>
      <trkpt lat="42.82521" lon="1.74595">
        <ele>2068.89453125</ele>
        <time>2012-05-17T11:48:32Z</time>
      </trkpt>
      <trkpt lat="42.82523" lon="1.74594">
        <ele>2068.89453125</ele>
        <time>2012-05-17T11:48:36Z</time>
      </trkpt>
      <trkpt lat="42.82526" lon="1.74594">
        <ele>2069.3752441406</ele>
        <time>2012-05-17T11:48:42Z</time>
      </trkpt>
      <trkpt lat="42.82526" lon="1.74595">
        <ele>2069.8557128906</ele>
        <time>2012-05-17T11:48:47Z</time>
      </trkpt>
      <trkpt lat="42.82527" lon="1.74598">
        <ele>2069.8557128906</ele>
        <time>2012-05-17T11:48:57Z</time>
      </trkpt>
      <trkpt lat="42.82528" lon="1.74601">
        <ele>2070.8171386719</ele>
        <time>2012-05-17T11:49:03Z</time>
      </trkpt>
      <trkpt lat="42.82528" lon="1.74603">
        <ele>2070.3364257812</ele>
        <time>2012-05-17T11:49:09Z</time>
      </trkpt>
      <trkpt lat="42.82528" lon="1.74607">
        <ele>2070.3364257812</ele>
        <time>2012-05-17T11:49:15Z</time>
      </trkpt>
      <trkpt lat="42.82529" lon="1.74607">
        <ele>2071.2976074219</ele>
        <time>2012-05-17T11:49:22Z</time>
      </trkpt>
      <trkpt lat="42.82531" lon="1.74607">
        <ele>2071.2976074219</ele>
        <time>2012-05-17T11:49:28Z</time>
      </trkpt>
      <trkpt lat="42.82533" lon="1.74606">
        <ele>2072.2590332031</ele>
        <time>2012-05-17T11:49:33Z</time>
      </trkpt>
      <trkpt lat="42.82536" lon="1.74603">
        <ele>2072.7397460938</ele>
        <time>2012-05-17T11:49:39Z</time>
      </trkpt>
      <trkpt lat="42.8254" lon="1.746">
        <ele>2073.2204589844</ele>
        <time>2012-05-17T11:49:45Z</time>
      </trkpt>
      <trkpt lat="42.82543" lon="1.74596">
        <ele>2073.7009277344</ele>
        <time>2012-05-17T11:49:50Z</time>
      </trkpt>
      <trkpt lat="42.82543" lon="1.74591">
        <ele>2074.6623535156</ele>
        <time>2012-05-17T11:49:56Z</time>
      </trkpt>
      <trkpt lat="42.82544" lon="1.74587">
        <ele>2075.6235351562</ele>
        <time>2012-05-17T11:50:02Z</time>
      </trkpt>
      <trkpt lat="42.82542" lon="1.74585">
        <ele>2075.6235351562</ele>
        <time>2012-05-17T11:50:08Z</time>
      </trkpt>
      <trkpt lat="42.82542" lon="1.74581">
        <ele>2076.1044921875</ele>
        <time>2012-05-17T11:50:12Z</time>
      </trkpt>
      <trkpt lat="42.82542" lon="1.74579">
        <ele>2076.1044921875</ele>
        <time>2012-05-17T11:50:17Z</time>
      </trkpt>
      <trkpt lat="42.82544" lon="1.74577">
        <ele>2077.5463867188</ele>
        <time>2012-05-17T11:50:21Z</time>
      </trkpt>
      <trkpt lat="42.82544" lon="1.74574">
        <ele>2078.98828125</ele>
        <time>2012-05-17T11:50:27Z</time>
      </trkpt>
      <trkpt lat="42.82543" lon="1.7457">
        <ele>2080.9111328125</ele>
        <time>2012-05-17T11:50:34Z</time>
      </trkpt>
      <trkpt lat="42.82545" lon="1.74568">
        <ele>2082.3530273438</ele>
        <time>2012-05-17T11:50:46Z</time>
      </trkpt>
      <trkpt lat="42.82549" lon="1.74565">
        <ele>2081.8723144531</ele>
        <time>2012-05-17T11:50:52Z</time>
      </trkpt>
      <trkpt lat="42.82552" lon="1.74561">
        <ele>2082.3530273438</ele>
        <time>2012-05-17T11:50:58Z</time>
      </trkpt>
      <trkpt lat="42.82553" lon="1.74559">
        <ele>2082.8334960938</ele>
        <time>2012-05-17T11:51:03Z</time>
      </trkpt>
      <trkpt lat="42.82556" lon="1.74554">
        <ele>2083.794921875</ele>
        <time>2012-05-17T11:51:09Z</time>
      </trkpt>
      <trkpt lat="42.82557" lon="1.74551">
        <ele>2084.2756347656</ele>
        <time>2012-05-17T11:51:15Z</time>
      </trkpt>
      <trkpt lat="42.82558" lon="1.7455">
        <ele>2084.2756347656</ele>
        <time>2012-05-17T11:51:20Z</time>
      </trkpt>
      <trkpt lat="42.8256" lon="1.74547">
        <ele>2084.2756347656</ele>
        <time>2012-05-17T11:51:26Z</time>
      </trkpt>
      <trkpt lat="42.82562" lon="1.74545">
        <ele>2083.794921875</ele>
        <time>2012-05-17T11:51:31Z</time>
      </trkpt>
      <trkpt lat="42.82564" lon="1.74543">
        <ele>2084.2756347656</ele>
        <time>2012-05-17T11:51:42Z</time>
      </trkpt>
      <trkpt lat="42.82565" lon="1.7454">
        <ele>2085.7175292969</ele>
        <time>2012-05-17T11:51:47Z</time>
      </trkpt>
      <trkpt lat="42.82568" lon="1.74536">
        <ele>2086.6787109375</ele>
        <time>2012-05-17T11:51:54Z</time>
      </trkpt>
      <trkpt lat="42.82569" lon="1.74534">
        <ele>2087.1594238281</ele>
        <time>2012-05-17T11:51:59Z</time>
      </trkpt>
      <trkpt lat="42.8257" lon="1.7453">
        <ele>2087.6401367188</ele>
        <time>2012-05-17T11:52:04Z</time>
      </trkpt>
      <trkpt lat="42.82571" lon="1.74526">
        <ele>2089.08203125</ele>
        <time>2012-05-17T11:52:09Z</time>
      </trkpt>
      <trkpt lat="42.82572" lon="1.74522">
        <ele>2090.0434570312</ele>
        <time>2012-05-17T11:52:15Z</time>
      </trkpt>
      <trkpt lat="42.82571" lon="1.7452">
        <ele>2091.0046386719</ele>
        <time>2012-05-17T11:52:22Z</time>
      </trkpt>
      <trkpt lat="42.82571" lon="1.74518">
        <ele>2090.5239257812</ele>
        <time>2012-05-17T11:52:29Z</time>
      </trkpt>
      <trkpt lat="42.82572" lon="1.74516">
        <ele>2091.0046386719</ele>
        <time>2012-05-17T11:52:34Z</time>
      </trkpt>
      <trkpt lat="42.82574" lon="1.74516">
        <ele>2091.0046386719</ele>
        <time>2012-05-17T11:52:41Z</time>
      </trkpt>
      <trkpt lat="42.82577" lon="1.74515">
        <ele>2091.0046386719</ele>
        <time>2012-05-17T11:52:47Z</time>
      </trkpt>
      <trkpt lat="42.82578" lon="1.74513">
        <ele>2090.5239257812</ele>
        <time>2012-05-17T11:52:52Z</time>
      </trkpt>
      <trkpt lat="42.8258" lon="1.74512">
        <ele>2091.0046386719</ele>
        <time>2012-05-17T11:53:00Z</time>
      </trkpt>
      <trkpt lat="42.82579" lon="1.74509">
        <ele>2090.0434570312</ele>
        <time>2012-05-17T11:53:07Z</time>
      </trkpt>
      <trkpt lat="42.82579" lon="1.74506">
        <ele>2089.08203125</ele>
        <time>2012-05-17T11:53:12Z</time>
      </trkpt>
      <trkpt lat="42.8258" lon="1.74503">
        <ele>2089.08203125</ele>
        <time>2012-05-17T11:53:17Z</time>
      </trkpt>
      <trkpt lat="42.82581" lon="1.745">
        <ele>2089.08203125</ele>
        <time>2012-05-17T11:53:21Z</time>
      </trkpt>
      <trkpt lat="42.82582" lon="1.74497">
        <ele>2090.5239257812</ele>
        <time>2012-05-17T11:53:25Z</time>
      </trkpt>
      <trkpt lat="42.82582" lon="1.74493">
        <ele>2091.9660644531</ele>
        <time>2012-05-17T11:53:31Z</time>
      </trkpt>
      <trkpt lat="42.82581" lon="1.74491">
        <ele>2093.408203125</ele>
        <time>2012-05-17T11:53:37Z</time>
      </trkpt>
      <trkpt lat="42.8258" lon="1.74487">
        <ele>2094.8500976562</ele>
        <time>2012-05-17T11:53:46Z</time>
      </trkpt>
      <trkpt lat="42.82579" lon="1.74484">
        <ele>2095.8115234375</ele>
        <time>2012-05-17T11:53:50Z</time>
      </trkpt>
      <trkpt lat="42.82577" lon="1.74479">
        <ele>2097.7341308594</ele>
        <time>2012-05-17T11:53:57Z</time>
      </trkpt>
      <trkpt lat="42.82576" lon="1.74474">
        <ele>2099.6567382812</ele>
        <time>2012-05-17T11:54:04Z</time>
      </trkpt>
      <trkpt lat="42.82578" lon="1.7447">
        <ele>2101.5793457031</ele>
        <time>2012-05-17T11:54:10Z</time>
      </trkpt>
      <trkpt lat="42.82578" lon="1.74467">
        <ele>2102.5405273438</ele>
        <time>2012-05-17T11:54:16Z</time>
      </trkpt>
      <trkpt lat="42.82578" lon="1.74467">
        <ele>2102.0598144531</ele>
        <time>2012-05-17T11:54:24Z</time>
      </trkpt>
      <trkpt lat="42.82578" lon="1.74467">
        <ele>2102.5405273438</ele>
        <time>2012-05-17T11:54:44Z</time>
      </trkpt>
      <trkpt lat="42.82578" lon="1.74464">
        <ele>2103.501953125</ele>
        <time>2012-05-17T11:54:54Z</time>
      </trkpt>
      <trkpt lat="42.82579" lon="1.74461">
        <ele>2104.4631347656</ele>
        <time>2012-05-17T11:54:58Z</time>
      </trkpt>
      <trkpt lat="42.82581" lon="1.74456">
        <ele>2104.4631347656</ele>
        <time>2012-05-17T11:55:05Z</time>
      </trkpt>
      <trkpt lat="42.8258" lon="1.74453">
        <ele>2105.9050292969</ele>
        <time>2012-05-17T11:55:10Z</time>
      </trkpt>
      <trkpt lat="42.8258" lon="1.74448">
        <ele>2107.3471679688</ele>
        <time>2012-05-17T11:55:17Z</time>
      </trkpt>
      <trkpt lat="42.82579" lon="1.74446">
        <ele>2109.2700195312</ele>
        <time>2012-05-17T11:55:24Z</time>
      </trkpt>
      <trkpt lat="42.82581" lon="1.74443">
        <ele>2111.1926269531</ele>
        <time>2012-05-17T11:55:32Z</time>
      </trkpt>
      <trkpt lat="42.82583" lon="1.7444">
        <ele>2111.1926269531</ele>
        <time>2012-05-17T11:55:39Z</time>
      </trkpt>
      <trkpt lat="42.82582" lon="1.74437">
        <ele>2113.115234375</ele>
        <time>2012-05-17T11:55:45Z</time>
      </trkpt>
      <trkpt lat="42.82584" lon="1.74433">
        <ele>2113.595703125</ele>
        <time>2012-05-17T11:55:52Z</time>
      </trkpt>
      <trkpt lat="42.82586" lon="1.7443">
        <ele>2113.595703125</ele>
        <time>2012-05-17T11:55:58Z</time>
      </trkpt>
      <trkpt lat="42.82589" lon="1.74425">
        <ele>2114.5571289062</ele>
        <time>2012-05-17T11:56:07Z</time>
      </trkpt>
      <trkpt lat="42.82588" lon="1.74422">
        <ele>2115.9990234375</ele>
        <time>2012-05-17T11:56:14Z</time>
      </trkpt>
      <trkpt lat="42.82589" lon="1.74419">
        <ele>2117.4409179688</ele>
        <time>2012-05-17T11:56:19Z</time>
      </trkpt>
      <trkpt lat="42.82589" lon="1.74416">
        <ele>2118.40234375</ele>
        <time>2012-05-17T11:56:24Z</time>
      </trkpt>
      <trkpt lat="42.82594" lon="1.7441">
        <ele>2119.3637695312</ele>
        <time>2012-05-17T11:56:32Z</time>
      </trkpt>
      <trkpt lat="42.82598" lon="1.74404">
        <ele>2119.3637695312</ele>
        <time>2012-05-17T11:56:39Z</time>
      </trkpt>
      <trkpt lat="42.82598" lon="1.74403">
        <ele>2119.8442382812</ele>
        <time>2012-05-17T11:56:45Z</time>
      </trkpt>
      <trkpt lat="42.82599" lon="1.74402">
        <ele>2120.3249511719</ele>
        <time>2012-05-17T11:56:51Z</time>
      </trkpt>
      <trkpt lat="42.826" lon="1.74403">
        <ele>2120.8056640625</ele>
        <time>2012-05-17T11:56:59Z</time>
      </trkpt>
      <trkpt lat="42.82599" lon="1.74402">
        <ele>2120.3249511719</ele>
        <time>2012-05-17T11:57:04Z</time>
      </trkpt>
      <trkpt lat="42.82599" lon="1.74402">
        <ele>2119.3637695312</ele>
        <time>2012-05-17T11:57:10Z</time>
      </trkpt>
      <trkpt lat="42.82599" lon="1.74403">
        <ele>2119.3637695312</ele>
        <time>2012-05-17T11:57:19Z</time>
      </trkpt>
      <trkpt lat="42.82599" lon="1.74403">
        <ele>2119.3637695312</ele>
        <time>2012-05-17T11:57:26Z</time>
      </trkpt>
      <trkpt lat="42.826" lon="1.74402">
        <ele>2119.3637695312</ele>
        <time>2012-05-17T11:57:32Z</time>
      </trkpt>
      <trkpt lat="42.826" lon="1.74402">
        <ele>2119.3637695312</ele>
        <time>2012-05-17T11:57:44Z</time>
      </trkpt>
      <trkpt lat="42.826" lon="1.74401">
        <ele>2119.8442382812</ele>
        <time>2012-05-17T11:57:56Z</time>
      </trkpt>
      <trkpt lat="42.82601" lon="1.74401">
        <ele>2120.3249511719</ele>
        <time>2012-05-17T11:58:01Z</time>
      </trkpt>
      <trkpt lat="42.82606" lon="1.74398">
        <ele>2120.3249511719</ele>
        <time>2012-05-17T11:58:09Z</time>
      </trkpt>
      <trkpt lat="42.82615" lon="1.74395">
        <ele>2118.8830566406</ele>
        <time>2012-05-17T11:58:17Z</time>
      </trkpt>
      <trkpt lat="42.82623" lon="1.74395">
        <ele>2118.40234375</ele>
        <time>2012-05-17T11:58:25Z</time>
      </trkpt>
      <trkpt lat="42.82624" lon="1.74395">
        <ele>2117.9216308594</ele>
        <time>2012-05-17T11:58:26Z</time>
      </trkpt>
      <trkpt lat="42.82627" lon="1.74395">
        <ele>2117.4409179688</ele>
        <time>2012-05-17T11:58:28Z</time>
      </trkpt>
      <trkpt lat="42.82634" lon="1.74391">
        <ele>2115.5185546875</ele>
        <time>2012-05-17T11:58:35Z</time>
      </trkpt>
      <trkpt lat="42.82638" lon="1.74389">
        <ele>2114.0764160156</ele>
        <time>2012-05-17T11:58:39Z</time>
      </trkpt>
      <trkpt lat="42.82645" lon="1.74384">
        <ele>2112.1538085938</ele>
        <time>2012-05-17T11:58:48Z</time>
      </trkpt>
      <trkpt lat="42.82648" lon="1.74379">
        <ele>2111.1926269531</ele>
        <time>2012-05-17T11:58:53Z</time>
      </trkpt>
      <trkpt lat="42.8265" lon="1.74377">
        <ele>2110.2312011719</ele>
        <time>2012-05-17T11:58:55Z</time>
      </trkpt>
      <trkpt lat="42.82654" lon="1.74371">
        <ele>2109.2700195312</ele>
        <time>2012-05-17T11:59:01Z</time>
      </trkpt>
      <trkpt lat="42.8266" lon="1.74364">
        <ele>2105.9050292969</ele>
        <time>2012-05-17T11:59:09Z</time>
      </trkpt>
      <trkpt lat="42.82664" lon="1.7436">
        <ele>2105.4245605469</ele>
        <time>2012-05-17T11:59:13Z</time>
      </trkpt>
      <trkpt lat="42.8267" lon="1.74352">
        <ele>2104.9438476562</ele>
        <time>2012-05-17T11:59:20Z</time>
      </trkpt>
      <trkpt lat="42.82674" lon="1.74348">
        <ele>2103.501953125</ele>
        <time>2012-05-17T11:59:25Z</time>
      </trkpt>
      <trkpt lat="42.8268" lon="1.74341">
        <ele>2102.5405273438</ele>
        <time>2012-05-17T11:59:32Z</time>
      </trkpt>
      <trkpt lat="42.82684" lon="1.74336">
        <ele>2100.6179199219</ele>
        <time>2012-05-17T11:59:38Z</time>
      </trkpt>
      <trkpt lat="42.82688" lon="1.74331">
        <ele>2098.6953125</ele>
        <time>2012-05-17T11:59:44Z</time>
      </trkpt>
      <trkpt lat="42.82694" lon="1.74326">
        <ele>2096.2922363281</ele>
        <time>2012-05-17T11:59:51Z</time>
      </trkpt>
      <trkpt lat="42.82699" lon="1.74322">
        <ele>2095.8115234375</ele>
        <time>2012-05-17T11:59:55Z</time>
      </trkpt>
      <trkpt lat="42.82703" lon="1.74318">
        <ele>2094.8500976562</ele>
        <time>2012-05-17T11:59:59Z</time>
      </trkpt>
      <trkpt lat="42.8271" lon="1.74313">
        <ele>2092.4470214844</ele>
        <time>2012-05-17T12:00:04Z</time>
      </trkpt>
      <trkpt lat="42.82715" lon="1.74309">
        <ele>2091.4853515625</ele>
        <time>2012-05-17T12:00:10Z</time>
      </trkpt>
      <trkpt lat="42.82719" lon="1.74306">
        <ele>2090.5239257812</ele>
        <time>2012-05-17T12:00:14Z</time>
      </trkpt>
      <trkpt lat="42.82723" lon="1.743">
        <ele>2088.6015625</ele>
        <time>2012-05-17T12:00:21Z</time>
      </trkpt>
      <trkpt lat="42.82729" lon="1.74297">
        <ele>2086.6787109375</ele>
        <time>2012-05-17T12:00:26Z</time>
      </trkpt>
      <trkpt lat="42.82735" lon="1.74292">
        <ele>2085.2368164062</ele>
        <time>2012-05-17T12:00:32Z</time>
      </trkpt>
      <trkpt lat="42.82741" lon="1.74288">
        <ele>2084.2756347656</ele>
        <time>2012-05-17T12:00:37Z</time>
      </trkpt>
      <trkpt lat="42.82747" lon="1.74282">
        <ele>2083.3142089844</ele>
        <time>2012-05-17T12:00:42Z</time>
      </trkpt>
      <trkpt lat="42.82754" lon="1.74272">
        <ele>2080.9111328125</ele>
        <time>2012-05-17T12:00:47Z</time>
      </trkpt>
      <trkpt lat="42.82759" lon="1.74261">
        <ele>2079.4689941406</ele>
        <time>2012-05-17T12:00:54Z</time>
      </trkpt>
      <trkpt lat="42.82764" lon="1.74253">
        <ele>2078.0270996094</ele>
        <time>2012-05-17T12:00:59Z</time>
      </trkpt>
      <trkpt lat="42.8277" lon="1.74242">
        <ele>2074.6623535156</ele>
        <time>2012-05-17T12:01:07Z</time>
      </trkpt>
      <trkpt lat="42.82775" lon="1.74231">
        <ele>2071.7783203125</ele>
        <time>2012-05-17T12:01:15Z</time>
      </trkpt>
      <trkpt lat="42.82779" lon="1.74223">
        <ele>2069.3752441406</ele>
        <time>2012-05-17T12:01:21Z</time>
      </trkpt>
      <trkpt lat="42.82781" lon="1.74214">
        <ele>2066.9719238281</ele>
        <time>2012-05-17T12:01:28Z</time>
      </trkpt>
      <trkpt lat="42.82783" lon="1.74209">
        <ele>2066.0104980469</ele>
        <time>2012-05-17T12:01:31Z</time>
      </trkpt>
      <trkpt lat="42.82785" lon="1.74203">
        <ele>2064.5686035156</ele>
        <time>2012-05-17T12:01:36Z</time>
      </trkpt>
      <trkpt lat="42.82791" lon="1.74192">
        <ele>2062.1652832031</ele>
        <time>2012-05-17T12:01:44Z</time>
      </trkpt>
      <trkpt lat="42.82794" lon="1.74184">
        <ele>2060.7233886719</ele>
        <time>2012-05-17T12:01:49Z</time>
      </trkpt>
      <trkpt lat="42.82798" lon="1.74176">
        <ele>2057.8393554688</ele>
        <time>2012-05-17T12:01:56Z</time>
      </trkpt>
      <trkpt lat="42.82801" lon="1.74167">
        <ele>2054.9553222656</ele>
        <time>2012-05-17T12:02:03Z</time>
      </trkpt>
      <trkpt lat="42.82803" lon="1.74162">
        <ele>2052.5520019531</ele>
        <time>2012-05-17T12:02:09Z</time>
      </trkpt>
      <trkpt lat="42.82806" lon="1.74158">
        <ele>2050.1489257812</ele>
        <time>2012-05-17T12:02:14Z</time>
      </trkpt>
      <trkpt lat="42.8281" lon="1.74155">
        <ele>2048.2260742188</ele>
        <time>2012-05-17T12:02:19Z</time>
      </trkpt>
      <trkpt lat="42.82812" lon="1.74147">
        <ele>2046.3037109375</ele>
        <time>2012-05-17T12:02:25Z</time>
      </trkpt>
      <trkpt lat="42.82816" lon="1.7414">
        <ele>2042.9387207031</ele>
        <time>2012-05-17T12:02:32Z</time>
      </trkpt>
      <trkpt lat="42.82817" lon="1.74129">
        <ele>2041.0161132812</ele>
        <time>2012-05-17T12:02:38Z</time>
      </trkpt>
      <trkpt lat="42.82818" lon="1.74122">
        <ele>2039.57421875</ele>
        <time>2012-05-17T12:02:42Z</time>
      </trkpt>
      <trkpt lat="42.82822" lon="1.74117">
        <ele>2038.6130371094</ele>
        <time>2012-05-17T12:02:47Z</time>
      </trkpt>
      <trkpt lat="42.82823" lon="1.7411">
        <ele>2037.1708984375</ele>
        <time>2012-05-17T12:02:52Z</time>
      </trkpt>
      <trkpt lat="42.82826" lon="1.74106">
        <ele>2036.2097167969</ele>
        <time>2012-05-17T12:02:56Z</time>
      </trkpt>
      <trkpt lat="42.82829" lon="1.74101">
        <ele>2034.287109375</ele>
        <time>2012-05-17T12:03:02Z</time>
      </trkpt>
      <trkpt lat="42.82832" lon="1.74096">
        <ele>2031.8837890625</ele>
        <time>2012-05-17T12:03:09Z</time>
      </trkpt>
      <trkpt lat="42.82835" lon="1.74092">
        <ele>2029.9611816406</ele>
        <time>2012-05-17T12:03:15Z</time>
      </trkpt>
      <trkpt lat="42.82837" lon="1.74088">
        <ele>2028.5192871094</ele>
        <time>2012-05-17T12:03:24Z</time>
      </trkpt>
      <trkpt lat="42.8284" lon="1.74082">
        <ele>2027.0771484375</ele>
        <time>2012-05-17T12:03:31Z</time>
      </trkpt>
      <trkpt lat="42.82843" lon="1.74075">
        <ele>2025.154296875</ele>
        <time>2012-05-17T12:03:39Z</time>
      </trkpt>
      <trkpt lat="42.82846" lon="1.74068">
        <ele>2022.7512207031</ele>
        <time>2012-05-17T12:03:44Z</time>
      </trkpt>
      <trkpt lat="42.82853" lon="1.7406">
        <ele>2020.8286132812</ele>
        <time>2012-05-17T12:03:49Z</time>
      </trkpt>
      <trkpt lat="42.82853" lon="1.74057">
        <ele>2019.8671875</ele>
        <time>2012-05-17T12:03:51Z</time>
      </trkpt>
      <trkpt lat="42.82856" lon="1.7405">
        <ele>2018.9060058594</ele>
        <time>2012-05-17T12:03:55Z</time>
      </trkpt>
      <trkpt lat="42.82862" lon="1.74041">
        <ele>2016.5026855469</ele>
        <time>2012-05-17T12:04:00Z</time>
      </trkpt>
      <trkpt lat="42.82866" lon="1.7403">
        <ele>2014.580078125</ele>
        <time>2012-05-17T12:04:06Z</time>
      </trkpt>
      <trkpt lat="42.82866" lon="1.74027">
        <ele>2014.0993652344</ele>
        <time>2012-05-17T12:04:08Z</time>
      </trkpt>
      <trkpt lat="42.8287" lon="1.74014">
        <ele>2013.6186523438</ele>
        <time>2012-05-17T12:04:16Z</time>
      </trkpt>
      <trkpt lat="42.82874" lon="1.74007">
        <ele>2012.1767578125</ele>
        <time>2012-05-17T12:04:22Z</time>
      </trkpt>
      <trkpt lat="42.82879" lon="1.73999">
        <ele>2009.7731933594</ele>
        <time>2012-05-17T12:04:28Z</time>
      </trkpt>
      <trkpt lat="42.8288" lon="1.73997">
        <ele>2009.2927246094</ele>
        <time>2012-05-17T12:04:29Z</time>
      </trkpt>
      <trkpt lat="42.82885" lon="1.73987">
        <ele>2007.8508300781</ele>
        <time>2012-05-17T12:04:36Z</time>
      </trkpt>
      <trkpt lat="42.82886" lon="1.73984">
        <ele>2007.3701171875</ele>
        <time>2012-05-17T12:04:38Z</time>
      </trkpt>
      <trkpt lat="42.8289" lon="1.73974">
        <ele>2006.4086914062</ele>
        <time>2012-05-17T12:04:44Z</time>
      </trkpt>
      <trkpt lat="42.82892" lon="1.73965">
        <ele>2005.4475097656</ele>
        <time>2012-05-17T12:04:50Z</time>
      </trkpt>
      <trkpt lat="42.82893" lon="1.73954">
        <ele>2005.9279785156</ele>
        <time>2012-05-17T12:04:58Z</time>
      </trkpt>
      <trkpt lat="42.82894" lon="1.73945">
        <ele>2006.4086914062</ele>
        <time>2012-05-17T12:05:06Z</time>
      </trkpt>
      <trkpt lat="42.82896" lon="1.73938">
        <ele>2006.4086914062</ele>
        <time>2012-05-17T12:05:11Z</time>
      </trkpt>
      <trkpt lat="42.82897" lon="1.73936">
        <ele>2006.4086914062</ele>
        <time>2012-05-17T12:05:12Z</time>
      </trkpt>
      <trkpt lat="42.82899" lon="1.73926">
        <ele>2007.8508300781</ele>
        <time>2012-05-17T12:05:19Z</time>
      </trkpt>
      <trkpt lat="42.82901" lon="1.73921">
        <ele>2007.8508300781</ele>
        <time>2012-05-17T12:05:23Z</time>
      </trkpt>
      <trkpt lat="42.82902" lon="1.73913">
        <ele>2009.7731933594</ele>
        <time>2012-05-17T12:05:29Z</time>
      </trkpt>
      <trkpt lat="42.82902" lon="1.73911">
        <ele>2009.7731933594</ele>
        <time>2012-05-17T12:05:30Z</time>
      </trkpt>
      <trkpt lat="42.82902" lon="1.73907">
        <ele>2010.7346191406</ele>
        <time>2012-05-17T12:05:33Z</time>
      </trkpt>
      <trkpt lat="42.82903" lon="1.73897">
        <ele>2011.2153320312</ele>
        <time>2012-05-17T12:05:40Z</time>
      </trkpt>
      <trkpt lat="42.82905" lon="1.73889">
        <ele>2011.6960449219</ele>
        <time>2012-05-17T12:05:47Z</time>
      </trkpt>
      <trkpt lat="42.82908" lon="1.73882">
        <ele>2012.6574707031</ele>
        <time>2012-05-17T12:05:54Z</time>
      </trkpt>
      <trkpt lat="42.82912" lon="1.73876">
        <ele>2013.1381835938</ele>
        <time>2012-05-17T12:06:00Z</time>
      </trkpt>
      <trkpt lat="42.82914" lon="1.73873">
        <ele>2013.1381835938</ele>
        <time>2012-05-17T12:06:02Z</time>
      </trkpt>
      <trkpt lat="42.82917" lon="1.73867">
        <ele>2012.6574707031</ele>
        <time>2012-05-17T12:06:06Z</time>
      </trkpt>
      <trkpt lat="42.82924" lon="1.73857">
        <ele>2011.6960449219</ele>
        <time>2012-05-17T12:06:14Z</time>
      </trkpt>
      <trkpt lat="42.8293" lon="1.73846">
        <ele>2010.25390625</ele>
        <time>2012-05-17T12:06:22Z</time>
      </trkpt>
      <trkpt lat="42.82935" lon="1.73838">
        <ele>2008.8120117188</ele>
        <time>2012-05-17T12:06:28Z</time>
      </trkpt>
      <trkpt lat="42.82938" lon="1.73829">
        <ele>2007.8508300781</ele>
        <time>2012-05-17T12:06:34Z</time>
      </trkpt>
      <trkpt lat="42.82941" lon="1.73816">
        <ele>2006.8894042969</ele>
        <time>2012-05-17T12:06:42Z</time>
      </trkpt>
      <trkpt lat="42.82946" lon="1.73805">
        <ele>2006.4086914062</ele>
        <time>2012-05-17T12:06:50Z</time>
      </trkpt>
      <trkpt lat="42.8295" lon="1.73796">
        <ele>2006.4086914062</ele>
        <time>2012-05-17T12:06:56Z</time>
      </trkpt>
      <trkpt lat="42.82952" lon="1.73786">
        <ele>2006.4086914062</ele>
        <time>2012-05-17T12:07:03Z</time>
      </trkpt>
      <trkpt lat="42.82955" lon="1.73777">
        <ele>2004.966796875</ele>
        <time>2012-05-17T12:07:11Z</time>
      </trkpt>
      <trkpt lat="42.82956" lon="1.73768">
        <ele>2004.4860839844</ele>
        <time>2012-05-17T12:07:18Z</time>
      </trkpt>
      <trkpt lat="42.82957" lon="1.73764">
        <ele>2004.0056152344</ele>
        <time>2012-05-17T12:07:24Z</time>
      </trkpt>
      <trkpt lat="42.82958" lon="1.7376">
        <ele>2002.5634765625</ele>
        <time>2012-05-17T12:07:30Z</time>
      </trkpt>
      <trkpt lat="42.82959" lon="1.73755">
        <ele>2001.6022949219</ele>
        <time>2012-05-17T12:07:35Z</time>
      </trkpt>
      <trkpt lat="42.82961" lon="1.7375">
        <ele>2001.1215820312</ele>
        <time>2012-05-17T12:07:41Z</time>
      </trkpt>
      <trkpt lat="42.82963" lon="1.73743">
        <ele>1998.7182617188</ele>
        <time>2012-05-17T12:07:48Z</time>
      </trkpt>
      <trkpt lat="42.82967" lon="1.73736">
        <ele>1997.7570800781</ele>
        <time>2012-05-17T12:07:54Z</time>
      </trkpt>
      <trkpt lat="42.82967" lon="1.73733">
        <ele>1996.7956542969</ele>
        <time>2012-05-17T12:07:57Z</time>
      </trkpt>
      <trkpt lat="42.82972" lon="1.73728">
        <ele>1995.8342285156</ele>
        <time>2012-05-17T12:08:03Z</time>
      </trkpt>
      <trkpt lat="42.82976" lon="1.73724">
        <ele>1994.3920898438</ele>
        <time>2012-05-17T12:08:08Z</time>
      </trkpt>
      <trkpt lat="42.82978" lon="1.73719">
        <ele>1992.4697265625</ele>
        <time>2012-05-17T12:08:14Z</time>
      </trkpt>
      <trkpt lat="42.82981" lon="1.73713">
        <ele>1991.0275878906</ele>
        <time>2012-05-17T12:08:20Z</time>
      </trkpt>
      <trkpt lat="42.82985" lon="1.73708">
        <ele>1989.5856933594</ele>
        <time>2012-05-17T12:08:27Z</time>
      </trkpt>
      <trkpt lat="42.82987" lon="1.73704">
        <ele>1988.1437988281</ele>
        <time>2012-05-17T12:08:32Z</time>
      </trkpt>
      <trkpt lat="42.82986" lon="1.737">
        <ele>1987.1823730469</ele>
        <time>2012-05-17T12:08:38Z</time>
      </trkpt>
      <trkpt lat="42.82989" lon="1.73695">
        <ele>1985.7404785156</ele>
        <time>2012-05-17T12:08:43Z</time>
      </trkpt>
      <trkpt lat="42.82991" lon="1.73693">
        <ele>1985.7404785156</ele>
        <time>2012-05-17T12:08:45Z</time>
      </trkpt>
      <trkpt lat="42.82993" lon="1.73688">
        <ele>1984.2985839844</ele>
        <time>2012-05-17T12:08:49Z</time>
      </trkpt>
      <trkpt lat="42.82994" lon="1.73681">
        <ele>1982.8564453125</ele>
        <time>2012-05-17T12:08:56Z</time>
      </trkpt>
      <trkpt lat="42.82996" lon="1.73674">
        <ele>1980.9340820312</ele>
        <time>2012-05-17T12:09:03Z</time>
      </trkpt>
      <trkpt lat="42.83" lon="1.73668">
        <ele>1978.5305175781</ele>
        <time>2012-05-17T12:09:10Z</time>
      </trkpt>
      <trkpt lat="42.83001" lon="1.73664">
        <ele>1977.5690917969</ele>
        <time>2012-05-17T12:09:16Z</time>
      </trkpt>
      <trkpt lat="42.83002" lon="1.73662">
        <ele>1975.646484375</ele>
        <time>2012-05-17T12:09:23Z</time>
      </trkpt>
      <trkpt lat="42.83001" lon="1.73663">
        <ele>1975.1657714844</ele>
        <time>2012-05-17T12:09:29Z</time>
      </trkpt>
      <trkpt lat="42.83001" lon="1.7366">
        <ele>1974.2045898438</ele>
        <time>2012-05-17T12:09:37Z</time>
      </trkpt>
      <trkpt lat="42.83001" lon="1.73658">
        <ele>1973.2434082031</ele>
        <time>2012-05-17T12:09:43Z</time>
      </trkpt>
      <trkpt lat="42.83002" lon="1.73658">
        <ele>1971.8012695312</ele>
        <time>2012-05-17T12:09:50Z</time>
      </trkpt>
      <trkpt lat="42.83002" lon="1.73655">
        <ele>1970.359375</ele>
        <time>2012-05-17T12:09:56Z</time>
      </trkpt>
      <trkpt lat="42.83003" lon="1.73652">
        <ele>1967.9560546875</ele>
        <time>2012-05-17T12:10:03Z</time>
      </trkpt>
      <trkpt lat="42.83003" lon="1.7365">
        <ele>1966.5141601562</ele>
        <time>2012-05-17T12:10:10Z</time>
      </trkpt>
      <trkpt lat="42.83005" lon="1.73648">
        <ele>1965.072265625</ele>
        <time>2012-05-17T12:10:16Z</time>
      </trkpt>
      <trkpt lat="42.83006" lon="1.73648">
        <ele>1963.6298828125</ele>
        <time>2012-05-17T12:10:23Z</time>
      </trkpt>
      <trkpt lat="42.83004" lon="1.73647">
        <ele>1963.1494140625</ele>
        <time>2012-05-17T12:10:31Z</time>
      </trkpt>
      <trkpt lat="42.83002" lon="1.73648">
        <ele>1961.7075195312</ele>
        <time>2012-05-17T12:10:39Z</time>
      </trkpt>
      <trkpt lat="42.83001" lon="1.73648">
        <ele>1960.2653808594</ele>
        <time>2012-05-17T12:10:47Z</time>
      </trkpt>
      <trkpt lat="42.82999" lon="1.73648">
        <ele>1960.2653808594</ele>
        <time>2012-05-17T12:10:52Z</time>
      </trkpt>
      <trkpt lat="42.82998" lon="1.73648">
        <ele>1960.74609375</ele>
        <time>2012-05-17T12:11:01Z</time>
      </trkpt>
      <trkpt lat="42.82998" lon="1.73646">
        <ele>1959.7846679688</ele>
        <time>2012-05-17T12:11:13Z</time>
      </trkpt>
      <trkpt lat="42.82999" lon="1.73646">
        <ele>1959.3041992188</ele>
        <time>2012-05-17T12:11:19Z</time>
      </trkpt>
      <trkpt lat="42.82999" lon="1.73644">
        <ele>1958.8234863281</ele>
        <time>2012-05-17T12:11:31Z</time>
      </trkpt>
      <trkpt lat="42.82998" lon="1.73642">
        <ele>1957.3815917969</ele>
        <time>2012-05-17T12:11:38Z</time>
      </trkpt>
      <trkpt lat="42.82998" lon="1.73634">
        <ele>1956.4201660156</ele>
        <time>2012-05-17T12:11:46Z</time>
      </trkpt>
      <trkpt lat="42.82997" lon="1.73634">
        <ele>1955.939453125</ele>
        <time>2012-05-17T12:11:53Z</time>
      </trkpt>
      <trkpt lat="42.82994" lon="1.73639">
        <ele>1954.9782714844</ele>
        <time>2012-05-17T12:12:01Z</time>
      </trkpt>
      <trkpt lat="42.82991" lon="1.73641">
        <ele>1954.9782714844</ele>
        <time>2012-05-17T12:12:10Z</time>
      </trkpt>
      <trkpt lat="42.82989" lon="1.73642">
        <ele>1954.4975585938</ele>
        <time>2012-05-17T12:12:12Z</time>
      </trkpt>
      <trkpt lat="42.82985" lon="1.73642">
        <ele>1954.9782714844</ele>
        <time>2012-05-17T12:12:15Z</time>
      </trkpt>
      <trkpt lat="42.82982" lon="1.73644">
        <ele>1952.5749511719</ele>
        <time>2012-05-17T12:12:19Z</time>
      </trkpt>
      <trkpt lat="42.82974" lon="1.73646">
        <ele>1952.0942382812</ele>
        <time>2012-05-17T12:12:25Z</time>
      </trkpt>
      <trkpt lat="42.82965" lon="1.73651">
        <ele>1950.171875</ele>
        <time>2012-05-17T12:12:31Z</time>
      </trkpt>
      <trkpt lat="42.82958" lon="1.73653">
        <ele>1948.2490234375</ele>
        <time>2012-05-17T12:12:36Z</time>
      </trkpt>
      <trkpt lat="42.82955" lon="1.73654">
        <ele>1946.8068847656</ele>
        <time>2012-05-17T12:12:38Z</time>
      </trkpt>
      <trkpt lat="42.82947" lon="1.73658">
        <ele>1942.4812011719</ele>
        <time>2012-05-17T12:12:44Z</time>
      </trkpt>
      <trkpt lat="42.82941" lon="1.7366">
        <ele>1939.5971679688</ele>
        <time>2012-05-17T12:12:50Z</time>
      </trkpt>
      <trkpt lat="42.82933" lon="1.73662">
        <ele>1936.7131347656</ele>
        <time>2012-05-17T12:12:56Z</time>
      </trkpt>
      <trkpt lat="42.82929" lon="1.73664">
        <ele>1933.3486328125</ele>
        <time>2012-05-17T12:13:00Z</time>
      </trkpt>
      <trkpt lat="42.82925" lon="1.73667">
        <ele>1932.3874511719</ele>
        <time>2012-05-17T12:13:04Z</time>
      </trkpt>
      <trkpt lat="42.82915" lon="1.73672">
        <ele>1928.0612792969</ele>
        <time>2012-05-17T12:13:13Z</time>
      </trkpt>
      <trkpt lat="42.82908" lon="1.73675">
        <ele>1924.2160644531</ele>
        <time>2012-05-17T12:13:19Z</time>
      </trkpt>
      <trkpt lat="42.82902" lon="1.7368">
        <ele>1922.2934570312</ele>
        <time>2012-05-17T12:13:24Z</time>
      </trkpt>
      <trkpt lat="42.82896" lon="1.73682">
        <ele>1921.33203125</ele>
        <time>2012-05-17T12:13:28Z</time>
      </trkpt>
      <trkpt lat="42.8289" lon="1.73687">
        <ele>1921.33203125</ele>
        <time>2012-05-17T12:13:33Z</time>
      </trkpt>
      <trkpt lat="42.82886" lon="1.73688">
        <ele>1920.3708496094</ele>
        <time>2012-05-17T12:13:37Z</time>
      </trkpt>
      <trkpt lat="42.82883" lon="1.73684">
        <ele>1917.9675292969</ele>
        <time>2012-05-17T12:13:43Z</time>
      </trkpt>
      <trkpt lat="42.82882" lon="1.73685">
        <ele>1916.5256347656</ele>
        <time>2012-05-17T12:13:45Z</time>
      </trkpt>
      <trkpt lat="42.82874" lon="1.73691">
        <ele>1913.1608886719</ele>
        <time>2012-05-17T12:13:52Z</time>
      </trkpt>
      <trkpt lat="42.82872" lon="1.73694">
        <ele>1911.23828125</ele>
        <time>2012-05-17T12:13:55Z</time>
      </trkpt>
      <trkpt lat="42.8287" lon="1.73698">
        <ele>1910.2768554688</ele>
        <time>2012-05-17T12:13:58Z</time>
      </trkpt>
      <trkpt lat="42.82866" lon="1.73701">
        <ele>1907.8737792969</ele>
        <time>2012-05-17T12:14:01Z</time>
      </trkpt>
      <trkpt lat="42.82858" lon="1.73708">
        <ele>1905.9509277344</ele>
        <time>2012-05-17T12:14:06Z</time>
      </trkpt>
      <trkpt lat="42.8285" lon="1.73715">
        <ele>1904.9897460938</ele>
        <time>2012-05-17T12:14:10Z</time>
      </trkpt>
      <trkpt lat="42.8284" lon="1.73724">
        <ele>1906.431640625</ele>
        <time>2012-05-17T12:14:16Z</time>
      </trkpt>
      <trkpt lat="42.82833" lon="1.7373">
        <ele>1905.9509277344</ele>
        <time>2012-05-17T12:14:19Z</time>
      </trkpt>
      <trkpt lat="42.82827" lon="1.73734">
        <ele>1905.9509277344</ele>
        <time>2012-05-17T12:14:24Z</time>
      </trkpt>
      <trkpt lat="42.82817" lon="1.73741">
        <ele>1904.9897460938</ele>
        <time>2012-05-17T12:14:31Z</time>
      </trkpt>
      <trkpt lat="42.82813" lon="1.73744">
        <ele>1904.0285644531</ele>
        <time>2012-05-17T12:14:35Z</time>
      </trkpt>
      <trkpt lat="42.82811" lon="1.73744">
        <ele>1903.5478515625</ele>
        <time>2012-05-17T12:14:36Z</time>
      </trkpt>
      <trkpt lat="42.82803" lon="1.7375">
        <ele>1902.1057128906</ele>
        <time>2012-05-17T12:14:41Z</time>
      </trkpt>
      <trkpt lat="42.82792" lon="1.73755">
        <ele>1900.1833496094</ele>
        <time>2012-05-17T12:14:47Z</time>
      </trkpt>
      <trkpt lat="42.82784" lon="1.7376">
        <ele>1897.7797851562</ele>
        <time>2012-05-17T12:14:52Z</time>
      </trkpt>
      <trkpt lat="42.82777" lon="1.73767">
        <ele>1895.3764648438</ele>
        <time>2012-05-17T12:14:56Z</time>
      </trkpt>
      <trkpt lat="42.82767" lon="1.73773">
        <ele>1892.0119628906</ele>
        <time>2012-05-17T12:15:01Z</time>
      </trkpt>
      <trkpt lat="42.82759" lon="1.73777">
        <ele>1890.5698242188</ele>
        <time>2012-05-17T12:15:06Z</time>
      </trkpt>
      <trkpt lat="42.82755" lon="1.73779">
        <ele>1891.0505371094</ele>
        <time>2012-05-17T12:15:08Z</time>
      </trkpt>
      <trkpt lat="42.82744" lon="1.73784">
        <ele>1888.6474609375</ele>
        <time>2012-05-17T12:15:14Z</time>
      </trkpt>
      <trkpt lat="42.82736" lon="1.73787">
        <ele>1887.6860351562</ele>
        <time>2012-05-17T12:15:19Z</time>
      </trkpt>
      <trkpt lat="42.82732" lon="1.73788">
        <ele>1885.7634277344</ele>
        <time>2012-05-17T12:15:21Z</time>
      </trkpt>
      <trkpt lat="42.82722" lon="1.7379">
        <ele>1884.8022460938</ele>
        <time>2012-05-17T12:15:26Z</time>
      </trkpt>
      <trkpt lat="42.82718" lon="1.7379">
        <ele>1884.3215332031</ele>
        <time>2012-05-17T12:15:28Z</time>
      </trkpt>
      <trkpt lat="42.82703" lon="1.7379">
        <ele>1881.4372558594</ele>
        <time>2012-05-17T12:15:35Z</time>
      </trkpt>
      <trkpt lat="42.8269" lon="1.73787">
        <ele>1881.4372558594</ele>
        <time>2012-05-17T12:15:41Z</time>
      </trkpt>
      <trkpt lat="42.8268" lon="1.73788">
        <ele>1880.9567871094</ele>
        <time>2012-05-17T12:15:48Z</time>
      </trkpt>
      <trkpt lat="42.82669" lon="1.73788">
        <ele>1881.91796875</ele>
        <time>2012-05-17T12:15:56Z</time>
      </trkpt>
      <trkpt lat="42.82663" lon="1.73788">
        <ele>1881.91796875</ele>
        <time>2012-05-17T12:16:02Z</time>
      </trkpt>
      <trkpt lat="42.82651" lon="1.73789">
        <ele>1881.91796875</ele>
        <time>2012-05-17T12:16:08Z</time>
      </trkpt>
      <trkpt lat="42.82639" lon="1.7379">
        <ele>1881.91796875</ele>
        <time>2012-05-17T12:16:13Z</time>
      </trkpt>
      <trkpt lat="42.82632" lon="1.73794">
        <ele>1881.4372558594</ele>
        <time>2012-05-17T12:16:19Z</time>
      </trkpt>
      <trkpt lat="42.82622" lon="1.73797">
        <ele>1880.4760742188</ele>
        <time>2012-05-17T12:16:27Z</time>
      </trkpt>
      <trkpt lat="42.82617" lon="1.73796">
        <ele>1880.9567871094</ele>
        <time>2012-05-17T12:16:29Z</time>
      </trkpt>
      <trkpt lat="42.82604" lon="1.73799">
        <ele>1879.9953613281</ele>
        <time>2012-05-17T12:16:34Z</time>
      </trkpt>
      <trkpt lat="42.82595" lon="1.73798">
        <ele>1877.1115722656</ele>
        <time>2012-05-17T12:16:38Z</time>
      </trkpt>
      <trkpt lat="42.8259" lon="1.73799">
        <ele>1876.1501464844</ele>
        <time>2012-05-17T12:16:40Z</time>
      </trkpt>
      <trkpt lat="42.8258" lon="1.73798">
        <ele>1874.7082519531</ele>
        <time>2012-05-17T12:16:45Z</time>
      </trkpt>
      <trkpt lat="42.82577" lon="1.73797">
        <ele>1874.2275390625</ele>
        <time>2012-05-17T12:16:47Z</time>
      </trkpt>
      <trkpt lat="42.82566" lon="1.73796">
        <ele>1872.3049316406</ele>
        <time>2012-05-17T12:16:53Z</time>
      </trkpt>
      <trkpt lat="42.82561" lon="1.73796">
        <ele>1872.3049316406</ele>
        <time>2012-05-17T12:16:57Z</time>
      </trkpt>
      <trkpt lat="42.82556" lon="1.73797">
        <ele>1871.3435058594</ele>
        <time>2012-05-17T12:17:02Z</time>
      </trkpt>
      <trkpt lat="42.82549" lon="1.73799">
        <ele>1871.3435058594</ele>
        <time>2012-05-17T12:17:08Z</time>
      </trkpt>
      <trkpt lat="42.82542" lon="1.73801">
        <ele>1872.3049316406</ele>
        <time>2012-05-17T12:17:14Z</time>
      </trkpt>
      <trkpt lat="42.82535" lon="1.73801">
        <ele>1870.8630371094</ele>
        <time>2012-05-17T12:17:21Z</time>
      </trkpt>
      <trkpt lat="42.82528" lon="1.73803">
        <ele>1869.9016113281</ele>
        <time>2012-05-17T12:17:24Z</time>
      </trkpt>
      <trkpt lat="42.82515" lon="1.73807">
        <ele>1869.4211425781</ele>
        <time>2012-05-17T12:17:31Z</time>
      </trkpt>
      <trkpt lat="42.8251" lon="1.73807">
        <ele>1867.498046875</ele>
        <time>2012-05-17T12:17:36Z</time>
      </trkpt>
      <trkpt lat="42.82508" lon="1.73804">
        <ele>1864.1335449219</ele>
        <time>2012-05-17T12:17:42Z</time>
      </trkpt>
      <trkpt lat="42.82505" lon="1.73804">
        <ele>1862.2109375</ele>
        <time>2012-05-17T12:17:47Z</time>
      </trkpt>
      <trkpt lat="42.825" lon="1.73802">
        <ele>1860.7690429688</ele>
        <time>2012-05-17T12:17:53Z</time>
      </trkpt>
      <trkpt lat="42.82496" lon="1.738">
        <ele>1858.8464355469</ele>
        <time>2012-05-17T12:18:00Z</time>
      </trkpt>
      <trkpt lat="42.82493" lon="1.73796">
        <ele>1857.4045410156</ele>
        <time>2012-05-17T12:18:06Z</time>
      </trkpt>
      <trkpt lat="42.8249" lon="1.73794">
        <ele>1855.4819335938</ele>
        <time>2012-05-17T12:18:11Z</time>
      </trkpt>
      <trkpt lat="42.82483" lon="1.73795">
        <ele>1855.4819335938</ele>
        <time>2012-05-17T12:18:17Z</time>
      </trkpt>
      <trkpt lat="42.82481" lon="1.73795">
        <ele>1854.5205078125</ele>
        <time>2012-05-17T12:18:19Z</time>
      </trkpt>
      <trkpt lat="42.82475" lon="1.73796">
        <ele>1855.0012207031</ele>
        <time>2012-05-17T12:18:25Z</time>
      </trkpt>
      <trkpt lat="42.82468" lon="1.73793">
        <ele>1855.0012207031</ele>
        <time>2012-05-17T12:18:31Z</time>
      </trkpt>
      <trkpt lat="42.82465" lon="1.73793">
        <ele>1855.4819335938</ele>
        <time>2012-05-17T12:18:34Z</time>
      </trkpt>
      <trkpt lat="42.82461" lon="1.73793">
        <ele>1855.9624023438</ele>
        <time>2012-05-17T12:18:38Z</time>
      </trkpt>
      <trkpt lat="42.82455" lon="1.73789">
        <ele>1855.0012207031</ele>
        <time>2012-05-17T12:18:44Z</time>
      </trkpt>
      <trkpt lat="42.82452" lon="1.73787">
        <ele>1855.0012207031</ele>
        <time>2012-05-17T12:18:47Z</time>
      </trkpt>
      <trkpt lat="42.82445" lon="1.73784">
        <ele>1855.4819335938</ele>
        <time>2012-05-17T12:18:54Z</time>
      </trkpt>
      <trkpt lat="42.82438" lon="1.73774">
        <ele>1854.0400390625</ele>
        <time>2012-05-17T12:19:00Z</time>
      </trkpt>
      <trkpt lat="42.82427" lon="1.73769">
        <ele>1854.5205078125</ele>
        <time>2012-05-17T12:19:05Z</time>
      </trkpt>
      <trkpt lat="42.82417" lon="1.73763">
        <ele>1854.5205078125</ele>
        <time>2012-05-17T12:19:10Z</time>
      </trkpt>
      <trkpt lat="42.82408" lon="1.7376">
        <ele>1854.5205078125</ele>
        <time>2012-05-17T12:19:15Z</time>
      </trkpt>
      <trkpt lat="42.82398" lon="1.73761">
        <ele>1854.0400390625</ele>
        <time>2012-05-17T12:19:20Z</time>
      </trkpt>
      <trkpt lat="42.82385" lon="1.73766">
        <ele>1852.5979003906</ele>
        <time>2012-05-17T12:19:25Z</time>
      </trkpt>
      <trkpt lat="42.82374" lon="1.73766">
        <ele>1852.1171875</ele>
        <time>2012-05-17T12:19:31Z</time>
      </trkpt>
      <trkpt lat="42.82366" lon="1.7377">
        <ele>1849.7138671875</ele>
        <time>2012-05-17T12:19:38Z</time>
      </trkpt>
      <trkpt lat="42.82357" lon="1.73774">
        <ele>1849.2331542969</ele>
        <time>2012-05-17T12:19:46Z</time>
      </trkpt>
      <trkpt lat="42.82354" lon="1.73775">
        <ele>1848.2717285156</ele>
        <time>2012-05-17T12:19:49Z</time>
      </trkpt>
      <trkpt lat="42.82342" lon="1.73773">
        <ele>1848.7524414062</ele>
        <time>2012-05-17T12:19:55Z</time>
      </trkpt>
      <trkpt lat="42.82331" lon="1.73771">
        <ele>1848.7524414062</ele>
        <time>2012-05-17T12:20:00Z</time>
      </trkpt>
      <trkpt lat="42.82322" lon="1.7377">
        <ele>1846.8298339844</ele>
        <time>2012-05-17T12:20:04Z</time>
      </trkpt>
      <trkpt lat="42.82315" lon="1.73769">
        <ele>1845.8686523438</ele>
        <time>2012-05-17T12:20:09Z</time>
      </trkpt>
      <trkpt lat="42.82307" lon="1.73769">
        <ele>1845.8686523438</ele>
        <time>2012-05-17T12:20:15Z</time>
      </trkpt>
      <trkpt lat="42.82299" lon="1.73771">
        <ele>1846.3493652344</ele>
        <time>2012-05-17T12:20:21Z</time>
      </trkpt>
      <trkpt lat="42.8229" lon="1.73773">
        <ele>1846.3493652344</ele>
        <time>2012-05-17T12:20:28Z</time>
      </trkpt>
      <trkpt lat="42.82281" lon="1.73772">
        <ele>1846.3493652344</ele>
        <time>2012-05-17T12:20:33Z</time>
      </trkpt>
      <trkpt lat="42.8227" lon="1.73774">
        <ele>1846.3493652344</ele>
        <time>2012-05-17T12:20:38Z</time>
      </trkpt>
      <trkpt lat="42.82259" lon="1.73775">
        <ele>1844.9072265625</ele>
        <time>2012-05-17T12:20:43Z</time>
      </trkpt>
      <trkpt lat="42.82247" lon="1.73779">
        <ele>1843.4653320312</ele>
        <time>2012-05-17T12:20:49Z</time>
      </trkpt>
      <trkpt lat="42.82236" lon="1.73782">
        <ele>1842.0234375</ele>
        <time>2012-05-17T12:20:54Z</time>
      </trkpt>
      <trkpt lat="42.82228" lon="1.73788">
        <ele>1842.0234375</ele>
        <time>2012-05-17T12:21:02Z</time>
      </trkpt>
      <trkpt lat="42.82226" lon="1.7379">
        <ele>1842.0234375</ele>
        <time>2012-05-17T12:21:05Z</time>
      </trkpt>
      <trkpt lat="42.82222" lon="1.73795">
        <ele>1842.5041503906</ele>
        <time>2012-05-17T12:21:11Z</time>
      </trkpt>
      <trkpt lat="42.82215" lon="1.73798">
        <ele>1843.4653320312</ele>
        <time>2012-05-17T12:21:18Z</time>
      </trkpt>
      <trkpt lat="42.82214" lon="1.73799">
        <ele>1843.9460449219</ele>
        <time>2012-05-17T12:21:19Z</time>
      </trkpt>
      <trkpt lat="42.82206" lon="1.73801">
        <ele>1845.3879394531</ele>
        <time>2012-05-17T12:21:27Z</time>
      </trkpt>
      <trkpt lat="42.82205" lon="1.73801">
        <ele>1845.8686523438</ele>
        <time>2012-05-17T12:21:28Z</time>
      </trkpt>
      <trkpt lat="42.82194" lon="1.73806">
        <ele>1846.3493652344</ele>
        <time>2012-05-17T12:21:37Z</time>
      </trkpt>
      <trkpt lat="42.82184" lon="1.73809">
        <ele>1846.3493652344</ele>
        <time>2012-05-17T12:21:44Z</time>
      </trkpt>
      <trkpt lat="42.82176" lon="1.73813">
        <ele>1847.310546875</ele>
        <time>2012-05-17T12:21:51Z</time>
      </trkpt>
      <trkpt lat="42.82172" lon="1.73815">
        <ele>1848.7524414062</ele>
        <time>2012-05-17T12:21:55Z</time>
      </trkpt>
      <trkpt lat="42.82161" lon="1.73821">
        <ele>1850.1945800781</ele>
        <time>2012-05-17T12:22:04Z</time>
      </trkpt>
      <trkpt lat="42.82154" lon="1.73826">
        <ele>1852.5979003906</ele>
        <time>2012-05-17T12:22:11Z</time>
      </trkpt>
      <trkpt lat="42.82147" lon="1.73833">
        <ele>1854.0400390625</ele>
        <time>2012-05-17T12:22:19Z</time>
      </trkpt>
      <trkpt lat="42.82143" lon="1.73839">
        <ele>1854.5205078125</ele>
        <time>2012-05-17T12:22:25Z</time>
      </trkpt>
      <trkpt lat="42.82139" lon="1.73843">
        <ele>1855.0012207031</ele>
        <time>2012-05-17T12:22:30Z</time>
      </trkpt>
      <trkpt lat="42.82133" lon="1.73845">
        <ele>1855.4819335938</ele>
        <time>2012-05-17T12:22:35Z</time>
      </trkpt>
      <trkpt lat="42.82124" lon="1.73845">
        <ele>1855.9624023438</ele>
        <time>2012-05-17T12:22:44Z</time>
      </trkpt>
      <trkpt lat="42.82117" lon="1.73846">
        <ele>1856.4431152344</ele>
        <time>2012-05-17T12:22:51Z</time>
      </trkpt>
      <trkpt lat="42.82109" lon="1.73849">
        <ele>1856.923828125</ele>
        <time>2012-05-17T12:22:59Z</time>
      </trkpt>
      <trkpt lat="42.82102" lon="1.73853">
        <ele>1858.3657226562</ele>
        <time>2012-05-17T12:23:07Z</time>
      </trkpt>
      <trkpt lat="42.82093" lon="1.73856">
        <ele>1858.8464355469</ele>
        <time>2012-05-17T12:23:16Z</time>
      </trkpt>
      <trkpt lat="42.8209" lon="1.73856">
        <ele>1859.3271484375</ele>
        <time>2012-05-17T12:23:18Z</time>
      </trkpt>
      <trkpt lat="42.82084" lon="1.73858">
        <ele>1859.3271484375</ele>
        <time>2012-05-17T12:23:24Z</time>
      </trkpt>
      <trkpt lat="42.82072" lon="1.73861">
        <ele>1859.3271484375</ele>
        <time>2012-05-17T12:23:34Z</time>
      </trkpt>
      <trkpt lat="42.82064" lon="1.73861">
        <ele>1858.3657226562</ele>
        <time>2012-05-17T12:23:41Z</time>
      </trkpt>
      <trkpt lat="42.82061" lon="1.73862">
        <ele>1858.8464355469</ele>
        <time>2012-05-17T12:23:44Z</time>
      </trkpt>
      <trkpt lat="42.82055" lon="1.73863">
        <ele>1859.8076171875</ele>
        <time>2012-05-17T12:23:53Z</time>
      </trkpt>
      <trkpt lat="42.82049" lon="1.73862">
        <ele>1860.7690429688</ele>
        <time>2012-05-17T12:23:59Z</time>
      </trkpt>
      <trkpt lat="42.82037" lon="1.7386">
        <ele>1861.2497558594</ele>
        <time>2012-05-17T12:24:09Z</time>
      </trkpt>
      <trkpt lat="42.82026" lon="1.73857">
        <ele>1860.7690429688</ele>
        <time>2012-05-17T12:24:15Z</time>
      </trkpt>
      <trkpt lat="42.82013" lon="1.73855">
        <ele>1860.7690429688</ele>
        <time>2012-05-17T12:24:20Z</time>
      </trkpt>
      <trkpt lat="42.82001" lon="1.73853">
        <ele>1860.7690429688</ele>
        <time>2012-05-17T12:24:25Z</time>
      </trkpt>
      <trkpt lat="42.81986" lon="1.73852">
        <ele>1859.8076171875</ele>
        <time>2012-05-17T12:24:31Z</time>
      </trkpt>
      <trkpt lat="42.81981" lon="1.73854">
        <ele>1860.2883300781</ele>
        <time>2012-05-17T12:24:35Z</time>
      </trkpt>
      <trkpt lat="42.81972" lon="1.73854">
        <ele>1861.2497558594</ele>
        <time>2012-05-17T12:24:42Z</time>
      </trkpt>
      <trkpt lat="42.81964" lon="1.73855">
        <ele>1861.2497558594</ele>
        <time>2012-05-17T12:24:50Z</time>
      </trkpt>
      <trkpt lat="42.81954" lon="1.73856">
        <ele>1861.73046875</ele>
        <time>2012-05-17T12:24:58Z</time>
      </trkpt>
      <trkpt lat="42.81949" lon="1.73856">
        <ele>1862.2109375</ele>
        <time>2012-05-17T12:25:02Z</time>
      </trkpt>
      <trkpt lat="42.8194" lon="1.73861">
        <ele>1862.2109375</ele>
        <time>2012-05-17T12:25:10Z</time>
      </trkpt>
      <trkpt lat="42.81928" lon="1.73863">
        <ele>1861.73046875</ele>
        <time>2012-05-17T12:25:18Z</time>
      </trkpt>
      <trkpt lat="42.81916" lon="1.73864">
        <ele>1861.2497558594</ele>
        <time>2012-05-17T12:25:26Z</time>
      </trkpt>
      <trkpt lat="42.81909" lon="1.73869">
        <ele>1861.73046875</ele>
        <time>2012-05-17T12:25:32Z</time>
      </trkpt>
      <trkpt lat="42.81903" lon="1.73873">
        <ele>1862.6916503906</ele>
        <time>2012-05-17T12:25:38Z</time>
      </trkpt>
      <trkpt lat="42.81895" lon="1.73878">
        <ele>1863.1723632812</ele>
        <time>2012-05-17T12:25:45Z</time>
      </trkpt>
      <trkpt lat="42.8189" lon="1.73882">
        <ele>1863.6528320312</ele>
        <time>2012-05-17T12:25:50Z</time>
      </trkpt>
      <trkpt lat="42.81881" lon="1.73888">
        <ele>1863.6528320312</ele>
        <time>2012-05-17T12:25:58Z</time>
      </trkpt>
      <trkpt lat="42.81871" lon="1.73896">
        <ele>1864.6142578125</ele>
        <time>2012-05-17T12:26:07Z</time>
      </trkpt>
      <trkpt lat="42.81863" lon="1.73902">
        <ele>1864.6142578125</ele>
        <time>2012-05-17T12:26:14Z</time>
      </trkpt>
      <trkpt lat="42.81854" lon="1.73908">
        <ele>1864.6142578125</ele>
        <time>2012-05-17T12:26:21Z</time>
      </trkpt>
      <trkpt lat="42.81848" lon="1.7392">
        <ele>1865.0949707031</ele>
        <time>2012-05-17T12:26:29Z</time>
      </trkpt>
      <trkpt lat="42.81842" lon="1.7393">
        <ele>1864.6142578125</ele>
        <time>2012-05-17T12:26:36Z</time>
      </trkpt>
      <trkpt lat="42.81836" lon="1.7394">
        <ele>1864.6142578125</ele>
        <time>2012-05-17T12:26:43Z</time>
      </trkpt>
      <trkpt lat="42.81831" lon="1.73951">
        <ele>1865.5756835938</ele>
        <time>2012-05-17T12:26:50Z</time>
      </trkpt>
      <trkpt lat="42.81829" lon="1.73958">
        <ele>1866.0561523438</ele>
        <time>2012-05-17T12:26:54Z</time>
      </trkpt>
      <trkpt lat="42.81824" lon="1.73966">
        <ele>1867.017578125</ele>
        <time>2012-05-17T12:27:00Z</time>
      </trkpt>
      <trkpt lat="42.81818" lon="1.73978">
        <ele>1867.9787597656</ele>
        <time>2012-05-17T12:27:09Z</time>
      </trkpt>
      <trkpt lat="42.81811" lon="1.73981">
        <ele>1868.4597167969</ele>
        <time>2012-05-17T12:27:15Z</time>
      </trkpt>
      <trkpt lat="42.81808" lon="1.73984">
        <ele>1868.9404296875</ele>
        <time>2012-05-17T12:27:19Z</time>
      </trkpt>
      <trkpt lat="42.81803" lon="1.73986">
        <ele>1869.4211425781</ele>
        <time>2012-05-17T12:27:24Z</time>
      </trkpt>
      <trkpt lat="42.81799" lon="1.73989">
        <ele>1870.8630371094</ele>
        <time>2012-05-17T12:27:28Z</time>
      </trkpt>
      <trkpt lat="42.81794" lon="1.74001">
        <ele>1870.8630371094</ele>
        <time>2012-05-17T12:27:38Z</time>
      </trkpt>
      <trkpt lat="42.81794" lon="1.74003">
        <ele>1870.8630371094</ele>
        <time>2012-05-17T12:27:40Z</time>
      </trkpt>
      <trkpt lat="42.81796" lon="1.74004">
        <ele>1870.8630371094</ele>
        <time>2012-05-17T12:27:50Z</time>
      </trkpt>
      <trkpt lat="42.81795" lon="1.74007">
        <ele>1869.9016113281</ele>
        <time>2012-05-17T12:27:57Z</time>
      </trkpt>
      <trkpt lat="42.81795" lon="1.74007">
        <ele>1869.9016113281</ele>
        <time>2012-05-17T12:28:08Z</time>
      </trkpt>
      <trkpt lat="42.81796" lon="1.74011">
        <ele>1868.4597167969</ele>
        <time>2012-05-17T12:28:19Z</time>
      </trkpt>
      <trkpt lat="42.81797" lon="1.74016">
        <ele>1866.5368652344</ele>
        <time>2012-05-17T12:28:25Z</time>
      </trkpt>
      <trkpt lat="42.818" lon="1.74023">
        <ele>1864.6142578125</ele>
        <time>2012-05-17T12:28:32Z</time>
      </trkpt>
      <trkpt lat="42.81802" lon="1.74029">
        <ele>1862.2109375</ele>
        <time>2012-05-17T12:28:37Z</time>
      </trkpt>
      <trkpt lat="42.81803" lon="1.74033">
        <ele>1860.7690429688</ele>
        <time>2012-05-17T12:28:42Z</time>
      </trkpt>
      <trkpt lat="42.81806" lon="1.74038">
        <ele>1858.3657226562</ele>
        <time>2012-05-17T12:28:47Z</time>
      </trkpt>
      <trkpt lat="42.81812" lon="1.74043">
        <ele>1855.4819335938</ele>
        <time>2012-05-17T12:28:53Z</time>
      </trkpt>
      <trkpt lat="42.81815" lon="1.74046">
        <ele>1854.0400390625</ele>
        <time>2012-05-17T12:28:56Z</time>
      </trkpt>
      <trkpt lat="42.8182" lon="1.74048">
        <ele>1852.5979003906</ele>
        <time>2012-05-17T12:29:01Z</time>
      </trkpt>
      <trkpt lat="42.81827" lon="1.7405">
        <ele>1849.7138671875</ele>
        <time>2012-05-17T12:29:08Z</time>
      </trkpt>
      <trkpt lat="42.81831" lon="1.74049">
        <ele>1848.2717285156</ele>
        <time>2012-05-17T12:29:11Z</time>
      </trkpt>
      <trkpt lat="42.81837" lon="1.74052">
        <ele>1845.8686523438</ele>
        <time>2012-05-17T12:29:17Z</time>
      </trkpt>
      <trkpt lat="42.8184" lon="1.74054">
        <ele>1844.4265136719</ele>
        <time>2012-05-17T12:29:20Z</time>
      </trkpt>
      <trkpt lat="42.81839" lon="1.74058">
        <ele>1842.0234375</ele>
        <time>2012-05-17T12:29:26Z</time>
      </trkpt>
      <trkpt lat="42.81838" lon="1.74061">
        <ele>1840.1008300781</ele>
        <time>2012-05-17T12:29:31Z</time>
      </trkpt>
      <trkpt lat="42.81839" lon="1.74066">
        <ele>1838.1782226562</ele>
        <time>2012-05-17T12:29:35Z</time>
      </trkpt>
      <trkpt lat="42.8184" lon="1.74072">
        <ele>1835.2939453125</ele>
        <time>2012-05-17T12:29:41Z</time>
      </trkpt>
      <trkpt lat="42.81844" lon="1.74078">
        <ele>1832.41015625</ele>
        <time>2012-05-17T12:29:46Z</time>
      </trkpt>
      <trkpt lat="42.81847" lon="1.74082">
        <ele>1831.4487304688</ele>
        <time>2012-05-17T12:29:50Z</time>
      </trkpt>
      <trkpt lat="42.8185" lon="1.74091">
        <ele>1829.0454101562</ele>
        <time>2012-05-17T12:29:56Z</time>
      </trkpt>
      <trkpt lat="42.81852" lon="1.74096">
        <ele>1826.6423339844</ele>
        <time>2012-05-17T12:30:01Z</time>
      </trkpt>
      <trkpt lat="42.81852" lon="1.74101">
        <ele>1824.7197265625</ele>
        <time>2012-05-17T12:30:07Z</time>
      </trkpt>
      <trkpt lat="42.81853" lon="1.74107">
        <ele>1821.8356933594</ele>
        <time>2012-05-17T12:30:12Z</time>
      </trkpt>
      <trkpt lat="42.81854" lon="1.7411">
        <ele>1820.3937988281</ele>
        <time>2012-05-17T12:30:14Z</time>
      </trkpt>
      <trkpt lat="42.8186" lon="1.74118">
        <ele>1818.4709472656</ele>
        <time>2012-05-17T12:30:20Z</time>
      </trkpt>
      <trkpt lat="42.81863" lon="1.74124">
        <ele>1817.0290527344</ele>
        <time>2012-05-17T12:30:26Z</time>
      </trkpt>
      <trkpt lat="42.81864" lon="1.74127">
        <ele>1816.0676269531</ele>
        <time>2012-05-17T12:30:28Z</time>
      </trkpt>
      <trkpt lat="42.81867" lon="1.74136">
        <ele>1813.6643066406</ele>
        <time>2012-05-17T12:30:35Z</time>
      </trkpt>
      <trkpt lat="42.8187" lon="1.74145">
        <ele>1811.2612304688</ele>
        <time>2012-05-17T12:30:40Z</time>
      </trkpt>
      <trkpt lat="42.81871" lon="1.74155">
        <ele>1808.3771972656</ele>
        <time>2012-05-17T12:30:46Z</time>
      </trkpt>
      <trkpt lat="42.81873" lon="1.74166">
        <ele>1806.4545898438</ele>
        <time>2012-05-17T12:30:51Z</time>
      </trkpt>
      <trkpt lat="42.81873" lon="1.74169">
        <ele>1805.9738769531</ele>
        <time>2012-05-17T12:30:53Z</time>
      </trkpt>
      <trkpt lat="42.81873" lon="1.74176">
        <ele>1805.0126953125</ele>
        <time>2012-05-17T12:30:59Z</time>
      </trkpt>
      <trkpt lat="42.81871" lon="1.74183">
        <ele>1804.5319824219</ele>
        <time>2012-05-17T12:31:04Z</time>
      </trkpt>
      <trkpt lat="42.81866" lon="1.74192">
        <ele>1804.0515136719</ele>
        <time>2012-05-17T12:31:11Z</time>
      </trkpt>
      <trkpt lat="42.81866" lon="1.74197">
        <ele>1803.5705566406</ele>
        <time>2012-05-17T12:31:14Z</time>
      </trkpt>
      <trkpt lat="42.81865" lon="1.74201">
        <ele>1803.08984375</ele>
        <time>2012-05-17T12:31:16Z</time>
      </trkpt>
      <trkpt lat="42.81865" lon="1.74213">
        <ele>1802.6091308594</ele>
        <time>2012-05-17T12:31:23Z</time>
      </trkpt>
      <trkpt lat="42.81865" lon="1.74222">
        <ele>1802.6091308594</ele>
        <time>2012-05-17T12:31:28Z</time>
      </trkpt>
      <trkpt lat="42.81864" lon="1.74236">
        <ele>1803.5705566406</ele>
        <time>2012-05-17T12:31:36Z</time>
      </trkpt>
      <trkpt lat="42.81868" lon="1.74241">
        <ele>1802.6091308594</ele>
        <time>2012-05-17T12:31:43Z</time>
      </trkpt>
      <trkpt lat="42.81877" lon="1.74244">
        <ele>1800.2060546875</ele>
        <time>2012-05-17T12:31:52Z</time>
      </trkpt>
      <trkpt lat="42.81879" lon="1.74245">
        <ele>1799.7253417969</ele>
        <time>2012-05-17T12:31:54Z</time>
      </trkpt>
      <trkpt lat="42.81879" lon="1.74253">
        <ele>1797.802734375</ele>
        <time>2012-05-17T12:32:00Z</time>
      </trkpt>
      <trkpt lat="42.81879" lon="1.74262">
        <ele>1794.9187011719</ele>
        <time>2012-05-17T12:32:06Z</time>
      </trkpt>
      <trkpt lat="42.8188" lon="1.74264">
        <ele>1794.4379882812</ele>
        <time>2012-05-17T12:32:07Z</time>
      </trkpt>
      <trkpt lat="42.81881" lon="1.74273">
        <ele>1792.0349121094</ele>
        <time>2012-05-17T12:32:14Z</time>
      </trkpt>
      <trkpt lat="42.81884" lon="1.74277">
        <ele>1790.1123046875</ele>
        <time>2012-05-17T12:32:18Z</time>
      </trkpt>
      <trkpt lat="42.81887" lon="1.7428">
        <ele>1789.6315917969</ele>
        <time>2012-05-17T12:32:21Z</time>
      </trkpt>
      <trkpt lat="42.81885" lon="1.74285">
        <ele>1788.1896972656</ele>
        <time>2012-05-17T12:32:27Z</time>
      </trkpt>
      <trkpt lat="42.81883" lon="1.74293">
        <ele>1785.7861328125</ele>
        <time>2012-05-17T12:32:33Z</time>
      </trkpt>
      <trkpt lat="42.81882" lon="1.74301">
        <ele>1782.4216308594</ele>
        <time>2012-05-17T12:32:40Z</time>
      </trkpt>
      <trkpt lat="42.81882" lon="1.74308">
        <ele>1780.0183105469</ele>
        <time>2012-05-17T12:32:46Z</time>
      </trkpt>
      <trkpt lat="42.81883" lon="1.74316">
        <ele>1777.6149902344</ele>
        <time>2012-05-17T12:32:51Z</time>
      </trkpt>
      <trkpt lat="42.81882" lon="1.74322">
        <ele>1777.1345214844</ele>
        <time>2012-05-17T12:32:55Z</time>
      </trkpt>
      <trkpt lat="42.81877" lon="1.7433">
        <ele>1778.095703125</ele>
        <time>2012-05-17T12:33:04Z</time>
      </trkpt>
      <trkpt lat="42.81874" lon="1.74338">
        <ele>1778.095703125</ele>
        <time>2012-05-17T12:33:11Z</time>
      </trkpt>
      <trkpt lat="42.8187" lon="1.74345">
        <ele>1777.6149902344</ele>
        <time>2012-05-17T12:33:17Z</time>
      </trkpt>
      <trkpt lat="42.81868" lon="1.74349">
        <ele>1776.6538085938</ele>
        <time>2012-05-17T12:33:21Z</time>
      </trkpt>
      <trkpt lat="42.81867" lon="1.74359">
        <ele>1774.7312011719</ele>
        <time>2012-05-17T12:33:27Z</time>
      </trkpt>
      <trkpt lat="42.81866" lon="1.74367">
        <ele>1772.80859375</ele>
        <time>2012-05-17T12:33:32Z</time>
      </trkpt>
      <trkpt lat="42.81865" lon="1.74375">
        <ele>1771.3662109375</ele>
        <time>2012-05-17T12:33:37Z</time>
      </trkpt>
      <trkpt lat="42.81864" lon="1.74377">
        <ele>1770.8857421875</ele>
        <time>2012-05-17T12:33:39Z</time>
      </trkpt>
      <trkpt lat="42.81857" lon="1.74382">
        <ele>1769.4438476562</ele>
        <time>2012-05-17T12:33:46Z</time>
      </trkpt>
      <trkpt lat="42.81852" lon="1.74388">
        <ele>1768.0017089844</ele>
        <time>2012-05-17T12:33:52Z</time>
      </trkpt>
      <trkpt lat="42.81852" lon="1.74391">
        <ele>1767.5209960938</ele>
        <time>2012-05-17T12:33:54Z</time>
      </trkpt>
      <trkpt lat="42.81851" lon="1.74393">
        <ele>1766.5598144531</ele>
        <time>2012-05-17T12:34:02Z</time>
      </trkpt>
      <trkpt lat="42.81845" lon="1.74395">
        <ele>1764.6372070312</ele>
        <time>2012-05-17T12:34:08Z</time>
      </trkpt>
      <trkpt lat="42.81836" lon="1.74396">
        <ele>1761.7534179688</ele>
        <time>2012-05-17T12:34:15Z</time>
      </trkpt>
      <trkpt lat="42.81825" lon="1.74396">
        <ele>1758.388671875</ele>
        <time>2012-05-17T12:34:21Z</time>
      </trkpt>
      <trkpt lat="42.81818" lon="1.74396">
        <ele>1756.9467773438</ele>
        <time>2012-05-17T12:34:26Z</time>
      </trkpt>
      <trkpt lat="42.81809" lon="1.74394">
        <ele>1755.0239257812</ele>
        <time>2012-05-17T12:34:32Z</time>
      </trkpt>
      <trkpt lat="42.81809" lon="1.74395">
        <ele>1754.5432128906</ele>
        <time>2012-05-17T12:34:36Z</time>
      </trkpt>
      <trkpt lat="42.81811" lon="1.74401">
        <ele>1753.58203125</ele>
        <time>2012-05-17T12:34:41Z</time>
      </trkpt>
      <trkpt lat="42.81815" lon="1.74409">
        <ele>1753.1013183594</ele>
        <time>2012-05-17T12:34:49Z</time>
      </trkpt>
      <trkpt lat="42.81815" lon="1.74411">
        <ele>1753.1013183594</ele>
        <time>2012-05-17T12:34:50Z</time>
      </trkpt>
      <trkpt lat="42.81813" lon="1.74418">
        <ele>1751.6594238281</ele>
        <time>2012-05-17T12:34:57Z</time>
      </trkpt>
      <trkpt lat="42.81808" lon="1.74416">
        <ele>1748.775390625</ele>
        <time>2012-05-17T12:35:03Z</time>
      </trkpt>
      <trkpt lat="42.81802" lon="1.74417">
        <ele>1748.2946777344</ele>
        <time>2012-05-17T12:35:08Z</time>
      </trkpt>
      <trkpt lat="42.818" lon="1.74418">
        <ele>1748.2946777344</ele>
        <time>2012-05-17T12:35:10Z</time>
      </trkpt>
      <trkpt lat="42.81796" lon="1.74418">
        <ele>1749.2561035156</ele>
        <time>2012-05-17T12:35:15Z</time>
      </trkpt>
      <trkpt lat="42.8179" lon="1.7442">
        <ele>1748.2946777344</ele>
        <time>2012-05-17T12:35:21Z</time>
      </trkpt>
      <trkpt lat="42.81786" lon="1.7442">
        <ele>1748.775390625</ele>
        <time>2012-05-17T12:35:24Z</time>
      </trkpt>
      <trkpt lat="42.81779" lon="1.74422">
        <ele>1747.8142089844</ele>
        <time>2012-05-17T12:35:30Z</time>
      </trkpt>
      <trkpt lat="42.81777" lon="1.74421">
        <ele>1748.2946777344</ele>
        <time>2012-05-17T12:35:32Z</time>
      </trkpt>
      <trkpt lat="42.81767" lon="1.74422">
        <ele>1746.3723144531</ele>
        <time>2012-05-17T12:35:40Z</time>
      </trkpt>
      <trkpt lat="42.81766" lon="1.74422">
        <ele>1746.3723144531</ele>
        <time>2012-05-17T12:35:46Z</time>
      </trkpt>
      <trkpt lat="42.81764" lon="1.74423">
        <ele>1746.8527832031</ele>
        <time>2012-05-17T12:35:48Z</time>
      </trkpt>
      <trkpt lat="42.8176" lon="1.74425">
        <ele>1746.3723144531</ele>
        <time>2012-05-17T12:35:52Z</time>
      </trkpt>
      <trkpt lat="42.81754" lon="1.74429">
        <ele>1746.3723144531</ele>
        <time>2012-05-17T12:35:58Z</time>
      </trkpt>
      <trkpt lat="42.81747" lon="1.74433">
        <ele>1745.8916015625</ele>
        <time>2012-05-17T12:36:03Z</time>
      </trkpt>
      <trkpt lat="42.81743" lon="1.74438">
        <ele>1743.48828125</ele>
        <time>2012-05-17T12:36:08Z</time>
      </trkpt>
      <trkpt lat="42.81742" lon="1.7444">
        <ele>1741.5656738281</ele>
        <time>2012-05-17T12:36:10Z</time>
      </trkpt>
      <trkpt lat="42.81737" lon="1.74443">
        <ele>1741.5656738281</ele>
        <time>2012-05-17T12:36:16Z</time>
      </trkpt>
      <trkpt lat="42.81734" lon="1.74447">
        <ele>1740.1237792969</ele>
        <time>2012-05-17T12:36:21Z</time>
      </trkpt>
      <trkpt lat="42.81733" lon="1.7445">
        <ele>1739.6428222656</ele>
        <time>2012-05-17T12:36:25Z</time>
      </trkpt>
      <trkpt lat="42.81731" lon="1.74449">
        <ele>1739.162109375</ele>
        <time>2012-05-17T12:36:32Z</time>
      </trkpt>
      <trkpt lat="42.81731" lon="1.74449">
        <ele>1740.1237792969</ele>
        <time>2012-05-17T12:36:41Z</time>
      </trkpt>
      <trkpt lat="42.81731" lon="1.74453">
        <ele>1739.6428222656</ele>
        <time>2012-05-17T12:36:45Z</time>
      </trkpt>
      <trkpt lat="42.81726" lon="1.74454">
        <ele>1739.162109375</ele>
        <time>2012-05-17T12:36:50Z</time>
      </trkpt>
      <trkpt lat="42.81726" lon="1.74455">
        <ele>1740.1237792969</ele>
        <time>2012-05-17T12:36:56Z</time>
      </trkpt>
      <trkpt lat="42.81726" lon="1.74453">
        <ele>1739.162109375</ele>
        <time>2012-05-17T12:37:03Z</time>
      </trkpt>
      <trkpt lat="42.81723" lon="1.74454">
        <ele>1738.2009277344</ele>
        <time>2012-05-17T12:37:08Z</time>
      </trkpt>
      <trkpt lat="42.81717" lon="1.74454">
        <ele>1738.681640625</ele>
        <time>2012-05-17T12:37:15Z</time>
      </trkpt>
      <trkpt lat="42.81713" lon="1.74455">
        <ele>1738.681640625</ele>
        <time>2012-05-17T12:37:18Z</time>
      </trkpt>
      <trkpt lat="42.8171" lon="1.74451">
        <ele>1738.681640625</ele>
        <time>2012-05-17T12:37:24Z</time>
      </trkpt>
      <trkpt lat="42.81707" lon="1.74446">
        <ele>1738.2009277344</ele>
        <time>2012-05-17T12:37:28Z</time>
      </trkpt>
      <trkpt lat="42.81705" lon="1.74444">
        <ele>1738.681640625</ele>
        <time>2012-05-17T12:37:31Z</time>
      </trkpt>
      <trkpt lat="42.81699" lon="1.7444">
        <ele>1739.162109375</ele>
        <time>2012-05-17T12:37:36Z</time>
      </trkpt>
      <trkpt lat="42.81694" lon="1.74438">
        <ele>1739.6428222656</ele>
        <time>2012-05-17T12:37:40Z</time>
      </trkpt>
      <trkpt lat="42.81687" lon="1.74435">
        <ele>1739.6428222656</ele>
        <time>2012-05-17T12:37:46Z</time>
      </trkpt>
      <trkpt lat="42.81686" lon="1.74435">
        <ele>1739.162109375</ele>
        <time>2012-05-17T12:37:47Z</time>
      </trkpt>
      <trkpt lat="42.81676" lon="1.74431">
        <ele>1739.162109375</ele>
        <time>2012-05-17T12:37:55Z</time>
      </trkpt>
      <trkpt lat="42.8167" lon="1.74424">
        <ele>1738.2009277344</ele>
        <time>2012-05-17T12:38:01Z</time>
      </trkpt>
      <trkpt lat="42.81669" lon="1.74423">
        <ele>1738.2009277344</ele>
        <time>2012-05-17T12:38:03Z</time>
      </trkpt>
      <trkpt lat="42.81664" lon="1.74423">
        <ele>1740.6042480469</ele>
        <time>2012-05-17T12:38:08Z</time>
      </trkpt>
      <trkpt lat="42.81658" lon="1.74419">
        <ele>1741.0849609375</ele>
        <time>2012-05-17T12:38:16Z</time>
      </trkpt>
      <trkpt lat="42.81652" lon="1.74413">
        <ele>1740.6042480469</ele>
        <time>2012-05-17T12:38:24Z</time>
      </trkpt>
      <trkpt lat="42.81645" lon="1.74407">
        <ele>1740.6042480469</ele>
        <time>2012-05-17T12:38:32Z</time>
      </trkpt>
      <trkpt lat="42.81644" lon="1.74405">
        <ele>1740.6042480469</ele>
        <time>2012-05-17T12:38:34Z</time>
      </trkpt>
      <trkpt lat="42.81641" lon="1.74402">
        <ele>1741.5656738281</ele>
        <time>2012-05-17T12:38:41Z</time>
      </trkpt>
      <trkpt lat="42.81637" lon="1.74399">
        <ele>1743.48828125</ele>
        <time>2012-05-17T12:38:48Z</time>
      </trkpt>
      <trkpt lat="42.81633" lon="1.74398">
        <ele>1743.48828125</ele>
        <time>2012-05-17T12:38:52Z</time>
      </trkpt>
      <trkpt lat="42.81626" lon="1.74395">
        <ele>1743.9689941406</ele>
        <time>2012-05-17T12:38:58Z</time>
      </trkpt>
      <trkpt lat="42.81618" lon="1.74388">
        <ele>1744.9301757812</ele>
        <time>2012-05-17T12:39:06Z</time>
      </trkpt>
      <trkpt lat="42.81609" lon="1.74382">
        <ele>1746.8527832031</ele>
        <time>2012-05-17T12:39:14Z</time>
      </trkpt>
      <trkpt lat="42.81604" lon="1.7438">
        <ele>1747.8142089844</ele>
        <time>2012-05-17T12:39:18Z</time>
      </trkpt>
      <trkpt lat="42.81597" lon="1.74373">
        <ele>1748.775390625</ele>
        <time>2012-05-17T12:39:25Z</time>
      </trkpt>
      <trkpt lat="42.81596" lon="1.74372">
        <ele>1748.775390625</ele>
        <time>2012-05-17T12:39:26Z</time>
      </trkpt>
      <trkpt lat="42.81588" lon="1.74369">
        <ele>1750.2175292969</ele>
        <time>2012-05-17T12:39:33Z</time>
      </trkpt>
      <trkpt lat="42.81586" lon="1.74368">
        <ele>1750.2175292969</ele>
        <time>2012-05-17T12:39:35Z</time>
      </trkpt>
      <trkpt lat="42.81578" lon="1.74363">
        <ele>1749.7368164062</ele>
        <time>2012-05-17T12:39:42Z</time>
      </trkpt>
      <trkpt lat="42.81574" lon="1.74358">
        <ele>1749.7368164062</ele>
        <time>2012-05-17T12:39:47Z</time>
      </trkpt>
      <trkpt lat="42.81567" lon="1.74354">
        <ele>1750.2175292969</ele>
        <time>2012-05-17T12:39:53Z</time>
      </trkpt>
      <trkpt lat="42.81565" lon="1.74354">
        <ele>1750.2175292969</ele>
        <time>2012-05-17T12:39:54Z</time>
      </trkpt>
      <trkpt lat="42.81558" lon="1.74349">
        <ele>1751.1787109375</ele>
        <time>2012-05-17T12:40:01Z</time>
      </trkpt>
      <trkpt lat="42.81557" lon="1.74349">
        <ele>1751.1787109375</ele>
        <time>2012-05-17T12:40:02Z</time>
      </trkpt>
      <trkpt lat="42.81553" lon="1.74347">
        <ele>1751.1787109375</ele>
        <time>2012-05-17T12:40:06Z</time>
      </trkpt>
      <trkpt lat="42.81541" lon="1.74341">
        <ele>1750.2175292969</ele>
        <time>2012-05-17T12:40:16Z</time>
      </trkpt>
      <trkpt lat="42.81535" lon="1.74337">
        <ele>1751.6594238281</ele>
        <time>2012-05-17T12:40:22Z</time>
      </trkpt>
      <trkpt lat="42.81534" lon="1.74336">
        <ele>1751.6594238281</ele>
        <time>2012-05-17T12:40:23Z</time>
      </trkpt>
      <trkpt lat="42.81527" lon="1.74336">
        <ele>1751.1787109375</ele>
        <time>2012-05-17T12:40:29Z</time>
      </trkpt>
      <trkpt lat="42.8152" lon="1.74334">
        <ele>1751.1787109375</ele>
        <time>2012-05-17T12:40:34Z</time>
      </trkpt>
      <trkpt lat="42.81517" lon="1.74332">
        <ele>1750.2175292969</ele>
        <time>2012-05-17T12:40:37Z</time>
      </trkpt>
      <trkpt lat="42.81512" lon="1.74329">
        <ele>1750.2175292969</ele>
        <time>2012-05-17T12:40:40Z</time>
      </trkpt>
      <trkpt lat="42.81501" lon="1.74324">
        <ele>1748.2946777344</ele>
        <time>2012-05-17T12:40:48Z</time>
      </trkpt>
      <trkpt lat="42.81491" lon="1.74318">
        <ele>1746.3723144531</ele>
        <time>2012-05-17T12:40:56Z</time>
      </trkpt>
      <trkpt lat="42.81482" lon="1.74314">
        <ele>1745.8916015625</ele>
        <time>2012-05-17T12:41:02Z</time>
      </trkpt>
      <trkpt lat="42.81476" lon="1.74312">
        <ele>1745.8916015625</ele>
        <time>2012-05-17T12:41:06Z</time>
      </trkpt>
      <trkpt lat="42.81463" lon="1.74311">
        <ele>1744.9301757812</ele>
        <time>2012-05-17T12:41:16Z</time>
      </trkpt>
      <trkpt lat="42.81456" lon="1.74311">
        <ele>1743.9689941406</ele>
        <time>2012-05-17T12:41:21Z</time>
      </trkpt>
      <trkpt lat="42.8145" lon="1.74307">
        <ele>1743.9689941406</ele>
        <time>2012-05-17T12:41:26Z</time>
      </trkpt>
      <trkpt lat="42.81442" lon="1.74303">
        <ele>1745.8916015625</ele>
        <time>2012-05-17T12:41:32Z</time>
      </trkpt>
      <trkpt lat="42.81435" lon="1.74299">
        <ele>1745.8916015625</ele>
        <time>2012-05-17T12:41:38Z</time>
      </trkpt>
      <trkpt lat="42.81424" lon="1.74296">
        <ele>1746.3723144531</ele>
        <time>2012-05-17T12:41:46Z</time>
      </trkpt>
      <trkpt lat="42.81417" lon="1.74296">
        <ele>1747.3334960938</ele>
        <time>2012-05-17T12:41:51Z</time>
      </trkpt>
      <trkpt lat="42.81407" lon="1.74293">
        <ele>1749.2561035156</ele>
        <time>2012-05-17T12:41:59Z</time>
      </trkpt>
      <trkpt lat="42.81403" lon="1.74292">
        <ele>1749.2561035156</ele>
        <time>2012-05-17T12:42:03Z</time>
      </trkpt>
      <trkpt lat="42.814" lon="1.7429">
        <ele>1747.8142089844</ele>
        <time>2012-05-17T12:42:09Z</time>
      </trkpt>
      <trkpt lat="42.81398" lon="1.74289">
        <ele>1747.3334960938</ele>
        <time>2012-05-17T12:42:10Z</time>
      </trkpt>
      <trkpt lat="42.81396" lon="1.74286">
        <ele>1746.8527832031</ele>
        <time>2012-05-17T12:42:13Z</time>
      </trkpt>
      <trkpt lat="42.81391" lon="1.7428">
        <ele>1745.8916015625</ele>
        <time>2012-05-17T12:42:17Z</time>
      </trkpt>
      <trkpt lat="42.81379" lon="1.7427">
        <ele>1743.9689941406</ele>
        <time>2012-05-17T12:42:22Z</time>
      </trkpt>
      <trkpt lat="42.81368" lon="1.74269">
        <ele>1743.0075683594</ele>
        <time>2012-05-17T12:42:27Z</time>
      </trkpt>
      <trkpt lat="42.8136" lon="1.74265">
        <ele>1741.5656738281</ele>
        <time>2012-05-17T12:42:31Z</time>
      </trkpt>
      <trkpt lat="42.81353" lon="1.74259">
        <ele>1740.6042480469</ele>
        <time>2012-05-17T12:42:35Z</time>
      </trkpt>
      <trkpt lat="42.81346" lon="1.74258">
        <ele>1739.162109375</ele>
        <time>2012-05-17T12:42:39Z</time>
      </trkpt>
      <trkpt lat="42.81337" lon="1.74252">
        <ele>1736.2783203125</ele>
        <time>2012-05-17T12:42:45Z</time>
      </trkpt>
      <trkpt lat="42.8133" lon="1.74248">
        <ele>1734.8364257812</ele>
        <time>2012-05-17T12:42:48Z</time>
      </trkpt>
      <trkpt lat="42.81321" lon="1.74241">
        <ele>1734.3557128906</ele>
        <time>2012-05-17T12:42:53Z</time>
      </trkpt>
      <trkpt lat="42.81318" lon="1.74234">
        <ele>1733.875</ele>
        <time>2012-05-17T12:42:59Z</time>
      </trkpt>
      <trkpt lat="42.81316" lon="1.74228">
        <ele>1734.8364257812</ele>
        <time>2012-05-17T12:43:05Z</time>
      </trkpt>
      <trkpt lat="42.81312" lon="1.74228">
        <ele>1735.7976074219</ele>
        <time>2012-05-17T12:43:09Z</time>
      </trkpt>
      <trkpt lat="42.81308" lon="1.74228">
        <ele>1732.9135742188</ele>
        <time>2012-05-17T12:43:14Z</time>
      </trkpt>
      <trkpt lat="42.81304" lon="1.74226">
        <ele>1730.9912109375</ele>
        <time>2012-05-17T12:43:19Z</time>
      </trkpt>
      <trkpt lat="42.81301" lon="1.74226">
        <ele>1729.068359375</ele>
        <time>2012-05-17T12:43:22Z</time>
      </trkpt>
      <trkpt lat="42.81295" lon="1.74221">
        <ele>1727.1459960938</ele>
        <time>2012-05-17T12:43:26Z</time>
      </trkpt>
      <trkpt lat="42.81287" lon="1.74216">
        <ele>1724.2619628906</ele>
        <time>2012-05-17T12:43:32Z</time>
      </trkpt>
      <trkpt lat="42.81284" lon="1.74214">
        <ele>1723.3005371094</ele>
        <time>2012-05-17T12:43:34Z</time>
      </trkpt>
      <trkpt lat="42.81277" lon="1.74212">
        <ele>1722.3391113281</ele>
        <time>2012-05-17T12:43:38Z</time>
      </trkpt>
      <trkpt lat="42.81262" lon="1.7421">
        <ele>1723.3005371094</ele>
        <time>2012-05-17T12:43:45Z</time>
      </trkpt>
      <trkpt lat="42.81255" lon="1.7421">
        <ele>1724.7426757812</ele>
        <time>2012-05-17T12:43:52Z</time>
      </trkpt>
      <trkpt lat="42.81253" lon="1.7421">
        <ele>1725.2231445312</ele>
        <time>2012-05-17T12:43:54Z</time>
      </trkpt>
      <trkpt lat="42.81248" lon="1.7421">
        <ele>1727.6264648438</ele>
        <time>2012-05-17T12:44:02Z</time>
      </trkpt>
      <trkpt lat="42.81245" lon="1.74209">
        <ele>1730.0297851562</ele>
        <time>2012-05-17T12:44:08Z</time>
      </trkpt>
      <trkpt lat="42.81243" lon="1.74206">
        <ele>1730.5104980469</ele>
        <time>2012-05-17T12:44:13Z</time>
      </trkpt>
      <trkpt lat="42.81239" lon="1.74203">
        <ele>1731.9523925781</ele>
        <time>2012-05-17T12:44:19Z</time>
      </trkpt>
      <trkpt lat="42.81235" lon="1.74199">
        <ele>1732.4331054688</ele>
        <time>2012-05-17T12:44:25Z</time>
      </trkpt>
      <trkpt lat="42.81231" lon="1.74196">
        <ele>1732.4331054688</ele>
        <time>2012-05-17T12:44:30Z</time>
      </trkpt>
      <trkpt lat="42.81227" lon="1.74192">
        <ele>1732.4331054688</ele>
        <time>2012-05-17T12:44:35Z</time>
      </trkpt>
      <trkpt lat="42.81224" lon="1.74186">
        <ele>1730.9912109375</ele>
        <time>2012-05-17T12:44:41Z</time>
      </trkpt>
      <trkpt lat="42.81219" lon="1.74185">
        <ele>1730.5104980469</ele>
        <time>2012-05-17T12:44:46Z</time>
      </trkpt>
      <trkpt lat="42.81216" lon="1.74182">
        <ele>1729.068359375</ele>
        <time>2012-05-17T12:44:50Z</time>
      </trkpt>
      <trkpt lat="42.81209" lon="1.74179">
        <ele>1728.587890625</ele>
        <time>2012-05-17T12:44:55Z</time>
      </trkpt>
      <trkpt lat="42.81203" lon="1.74178">
        <ele>1728.1071777344</ele>
        <time>2012-05-17T12:44:58Z</time>
      </trkpt>
      <trkpt lat="42.81199" lon="1.74178">
        <ele>1728.587890625</ele>
        <time>2012-05-17T12:45:03Z</time>
      </trkpt>
      <trkpt lat="42.81198" lon="1.74177">
        <ele>1728.587890625</ele>
        <time>2012-05-17T12:45:04Z</time>
      </trkpt>
      <trkpt lat="42.81193" lon="1.74171">
        <ele>1727.6264648438</ele>
        <time>2012-05-17T12:45:11Z</time>
      </trkpt>
      <trkpt lat="42.8119" lon="1.7417">
        <ele>1727.6264648438</ele>
        <time>2012-05-17T12:45:14Z</time>
      </trkpt>
      <trkpt lat="42.81188" lon="1.74163">
        <ele>1726.6652832031</ele>
        <time>2012-05-17T12:45:18Z</time>
      </trkpt>
      <trkpt lat="42.81181" lon="1.74159">
        <ele>1725.7038574219</ele>
        <time>2012-05-17T12:45:26Z</time>
      </trkpt>
      <trkpt lat="42.81176" lon="1.74156">
        <ele>1723.7810058594</ele>
        <time>2012-05-17T12:45:31Z</time>
      </trkpt>
      <trkpt lat="42.81169" lon="1.74152">
        <ele>1722.8198242188</ele>
        <time>2012-05-17T12:45:35Z</time>
      </trkpt>
      <trkpt lat="42.81162" lon="1.74148">
        <ele>1722.3391113281</ele>
        <time>2012-05-17T12:45:42Z</time>
      </trkpt>
      <trkpt lat="42.8116" lon="1.74145">
        <ele>1721.8583984375</ele>
        <time>2012-05-17T12:45:44Z</time>
      </trkpt>
      <trkpt lat="42.81155" lon="1.74143">
        <ele>1722.3391113281</ele>
        <time>2012-05-17T12:45:49Z</time>
      </trkpt>
      <trkpt lat="42.81148" lon="1.74138">
        <ele>1722.3391113281</ele>
        <time>2012-05-17T12:45:57Z</time>
      </trkpt>
      <trkpt lat="42.81146" lon="1.74134">
        <ele>1721.8583984375</ele>
        <time>2012-05-17T12:46:01Z</time>
      </trkpt>
      <trkpt lat="42.81137" lon="1.74131">
        <ele>1721.8583984375</ele>
        <time>2012-05-17T12:46:08Z</time>
      </trkpt>
      <trkpt lat="42.81135" lon="1.7413">
        <ele>1721.8583984375</ele>
        <time>2012-05-17T12:46:09Z</time>
      </trkpt>
      <trkpt lat="42.81131" lon="1.74127">
        <ele>1722.3391113281</ele>
        <time>2012-05-17T12:46:13Z</time>
      </trkpt>
      <trkpt lat="42.81124" lon="1.74123">
        <ele>1724.2619628906</ele>
        <time>2012-05-17T12:46:20Z</time>
      </trkpt>
      <trkpt lat="42.81121" lon="1.74123">
        <ele>1725.2231445312</ele>
        <time>2012-05-17T12:46:23Z</time>
      </trkpt>
      <trkpt lat="42.81112" lon="1.74126">
        <ele>1726.1845703125</ele>
        <time>2012-05-17T12:46:31Z</time>
      </trkpt>
      <trkpt lat="42.81105" lon="1.74125">
        <ele>1725.7038574219</ele>
        <time>2012-05-17T12:46:37Z</time>
      </trkpt>
      <trkpt lat="42.81102" lon="1.74123">
        <ele>1725.2231445312</ele>
        <time>2012-05-17T12:46:39Z</time>
      </trkpt>
      <trkpt lat="42.811" lon="1.7412">
        <ele>1723.7810058594</ele>
        <time>2012-05-17T12:46:41Z</time>
      </trkpt>
      <trkpt lat="42.81091" lon="1.74116">
        <ele>1720.8972167969</ele>
        <time>2012-05-17T12:46:49Z</time>
      </trkpt>
      <trkpt lat="42.81088" lon="1.74113">
        <ele>1719.9357910156</ele>
        <time>2012-05-17T12:46:52Z</time>
      </trkpt>
      <trkpt lat="42.8108" lon="1.74111">
        <ele>1719.4553222656</ele>
        <time>2012-05-17T12:46:56Z</time>
      </trkpt>
      <trkpt lat="42.81069" lon="1.74109">
        <ele>1718.974609375</ele>
        <time>2012-05-17T12:47:01Z</time>
      </trkpt>
      <trkpt lat="42.81059" lon="1.74108">
        <ele>1718.0131835938</ele>
        <time>2012-05-17T12:47:06Z</time>
      </trkpt>
      <trkpt lat="42.81045" lon="1.74105">
        <ele>1716.0905761719</ele>
        <time>2012-05-17T12:47:12Z</time>
      </trkpt>
      <trkpt lat="42.81033" lon="1.74103">
        <ele>1714.6486816406</ele>
        <time>2012-05-17T12:47:17Z</time>
      </trkpt>
      <trkpt lat="42.81021" lon="1.74101">
        <ele>1713.6872558594</ele>
        <time>2012-05-17T12:47:22Z</time>
      </trkpt>
      <trkpt lat="42.81019" lon="1.74101">
        <ele>1713.6872558594</ele>
        <time>2012-05-17T12:47:23Z</time>
      </trkpt>
      <trkpt lat="42.81009" lon="1.74095">
        <ele>1713.2067871094</ele>
        <time>2012-05-17T12:47:28Z</time>
      </trkpt>
      <trkpt lat="42.80998" lon="1.74093">
        <ele>1711.7648925781</ele>
        <time>2012-05-17T12:47:34Z</time>
      </trkpt>
      <trkpt lat="42.80988" lon="1.74089">
        <ele>1711.2841796875</ele>
        <time>2012-05-17T12:47:39Z</time>
      </trkpt>
      <trkpt lat="42.80978" lon="1.74082">
        <ele>1709.8420410156</ele>
        <time>2012-05-17T12:47:44Z</time>
      </trkpt>
      <trkpt lat="42.80975" lon="1.74081">
        <ele>1709.8420410156</ele>
        <time>2012-05-17T12:47:45Z</time>
      </trkpt>
      <trkpt lat="42.8096" lon="1.74071">
        <ele>1707.9194335938</ele>
        <time>2012-05-17T12:47:52Z</time>
      </trkpt>
      <trkpt lat="42.80949" lon="1.74069">
        <ele>1707.4387207031</ele>
        <time>2012-05-17T12:47:57Z</time>
      </trkpt>
      <trkpt lat="42.80939" lon="1.74064">
        <ele>1706.4772949219</ele>
        <time>2012-05-17T12:48:02Z</time>
      </trkpt>
      <trkpt lat="42.80928" lon="1.7406">
        <ele>1705.5161132812</ele>
        <time>2012-05-17T12:48:07Z</time>
      </trkpt>
      <trkpt lat="42.80927" lon="1.74058">
        <ele>1705.0354003906</ele>
        <time>2012-05-17T12:48:09Z</time>
      </trkpt>
      <trkpt lat="42.80923" lon="1.74057">
        <ele>1704.5546875</ele>
        <time>2012-05-17T12:48:13Z</time>
      </trkpt>
      <trkpt lat="42.80916" lon="1.74056">
        <ele>1703.1127929688</ele>
        <time>2012-05-17T12:48:19Z</time>
      </trkpt>
      <trkpt lat="42.80906" lon="1.74051">
        <ele>1701.1901855469</ele>
        <time>2012-05-17T12:48:24Z</time>
      </trkpt>
      <trkpt lat="42.80891" lon="1.74043">
        <ele>1699.7482910156</ele>
        <time>2012-05-17T12:48:30Z</time>
      </trkpt>
      <trkpt lat="42.80876" lon="1.74039">
        <ele>1699.267578125</ele>
        <time>2012-05-17T12:48:36Z</time>
      </trkpt>
      <trkpt lat="42.80869" lon="1.74038">
        <ele>1699.267578125</ele>
        <time>2012-05-17T12:48:39Z</time>
      </trkpt>
      <trkpt lat="42.80854" lon="1.74029">
        <ele>1698.3061523438</ele>
        <time>2012-05-17T12:48:46Z</time>
      </trkpt>
      <trkpt lat="42.80853" lon="1.74028">
        <ele>1698.3061523438</ele>
        <time>2012-05-17T12:48:48Z</time>
      </trkpt>
      <trkpt lat="42.80852" lon="1.74026">
        <ele>1696.8642578125</ele>
        <time>2012-05-17T12:48:54Z</time>
      </trkpt>
      <trkpt lat="42.80847" lon="1.74023">
        <ele>1695.4223632812</ele>
        <time>2012-05-17T12:49:01Z</time>
      </trkpt>
      <trkpt lat="42.8084" lon="1.74024">
        <ele>1693.98046875</ele>
        <time>2012-05-17T12:49:07Z</time>
      </trkpt>
      <trkpt lat="42.80839" lon="1.74023">
        <ele>1693.4997558594</ele>
        <time>2012-05-17T12:49:08Z</time>
      </trkpt>
      <trkpt lat="42.8083" lon="1.74023">
        <ele>1692.0578613281</ele>
        <time>2012-05-17T12:49:15Z</time>
      </trkpt>
      <trkpt lat="42.80823" lon="1.74025">
        <ele>1690.6154785156</ele>
        <time>2012-05-17T12:49:21Z</time>
      </trkpt>
      <trkpt lat="42.80817" lon="1.74026">
        <ele>1688.6931152344</ele>
        <time>2012-05-17T12:49:27Z</time>
      </trkpt>
      <trkpt lat="42.80814" lon="1.74024">
        <ele>1687.2509765625</ele>
        <time>2012-05-17T12:49:34Z</time>
      </trkpt>
      <trkpt lat="42.80811" lon="1.74026">
        <ele>1685.3283691406</ele>
        <time>2012-05-17T12:49:40Z</time>
      </trkpt>
      <trkpt lat="42.80811" lon="1.74035">
        <ele>1682.9250488281</ele>
        <time>2012-05-17T12:49:47Z</time>
      </trkpt>
      <trkpt lat="42.80811" lon="1.74036">
        <ele>1681.9638671875</ele>
        <time>2012-05-17T12:49:53Z</time>
      </trkpt>
      <trkpt lat="42.80811" lon="1.7404">
        <ele>1681.4831542969</ele>
        <time>2012-05-17T12:50:00Z</time>
      </trkpt>
      <trkpt lat="42.8081" lon="1.74047">
        <ele>1679.0798339844</ele>
        <time>2012-05-17T12:50:06Z</time>
      </trkpt>
      <trkpt lat="42.80809" lon="1.74053">
        <ele>1677.1574707031</ele>
        <time>2012-05-17T12:50:12Z</time>
      </trkpt>
      <trkpt lat="42.80809" lon="1.74055">
        <ele>1676.6767578125</ele>
        <time>2012-05-17T12:50:16Z</time>
      </trkpt>
      <trkpt lat="42.80809" lon="1.74058">
        <ele>1673.3120117188</ele>
        <time>2012-05-17T12:51:11Z</time>
      </trkpt>
      <trkpt lat="42.80809" lon="1.74059">
        <ele>1673.3120117188</ele>
        <time>2012-05-17T12:51:12Z</time>
      </trkpt>
      <trkpt lat="42.80808" lon="1.74067">
        <ele>1671.3891601562</ele>
        <time>2012-05-17T12:51:18Z</time>
      </trkpt>
      <trkpt lat="42.80808" lon="1.74074">
        <ele>1670.4279785156</ele>
        <time>2012-05-17T12:51:23Z</time>
      </trkpt>
      <trkpt lat="42.80807" lon="1.74091">
        <ele>1667.0634765625</ele>
        <time>2012-05-17T12:51:31Z</time>
      </trkpt>
      <trkpt lat="42.80807" lon="1.74097">
        <ele>1666.5827636719</ele>
        <time>2012-05-17T12:51:34Z</time>
      </trkpt>
      <trkpt lat="42.80806" lon="1.74108">
        <ele>1664.1794433594</ele>
        <time>2012-05-17T12:51:40Z</time>
      </trkpt>
      <trkpt lat="42.80803" lon="1.74113">
        <ele>1662.2568359375</ele>
        <time>2012-05-17T12:51:45Z</time>
      </trkpt>
      <trkpt lat="42.80803" lon="1.74113">
        <ele>1662.2568359375</ele>
        <time>2012-05-17T12:51:59Z</time>
      </trkpt>
      <trkpt lat="42.80803" lon="1.74114">
        <ele>1662.7375488281</ele>
        <time>2012-05-17T12:52:17Z</time>
      </trkpt>
      <trkpt lat="42.80802" lon="1.74116">
        <ele>1662.2568359375</ele>
        <time>2012-05-17T12:52:24Z</time>
      </trkpt>
      <trkpt lat="42.80799" lon="1.74122">
        <ele>1660.3342285156</ele>
        <time>2012-05-17T12:52:31Z</time>
      </trkpt>
      <trkpt lat="42.80797" lon="1.7413">
        <ele>1658.8920898438</ele>
        <time>2012-05-17T12:52:37Z</time>
      </trkpt>
      <trkpt lat="42.80796" lon="1.74133">
        <ele>1658.4113769531</ele>
        <time>2012-05-17T12:52:39Z</time>
      </trkpt>
      <trkpt lat="42.80797" lon="1.7414">
        <ele>1656.9694824219</ele>
        <time>2012-05-17T12:52:45Z</time>
      </trkpt>
      <trkpt lat="42.80791" lon="1.74144">
        <ele>1655.046875</ele>
        <time>2012-05-17T12:52:49Z</time>
      </trkpt>
      <trkpt lat="42.80787" lon="1.7415">
        <ele>1652.6435546875</ele>
        <time>2012-05-17T12:52:53Z</time>
      </trkpt>
      <trkpt lat="42.80783" lon="1.74153">
        <ele>1651.2016601562</ele>
        <time>2012-05-17T12:52:56Z</time>
      </trkpt>
      <trkpt lat="42.80783" lon="1.74153">
        <ele>1650.7209472656</ele>
        <time>2012-05-17T12:53:07Z</time>
      </trkpt>
      <trkpt lat="42.80783" lon="1.74153">
        <ele>1650.7209472656</ele>
        <time>2012-05-17T12:53:17Z</time>
      </trkpt>
      <trkpt lat="42.80783" lon="1.74155">
        <ele>1649.759765625</ele>
        <time>2012-05-17T12:53:25Z</time>
      </trkpt>
      <trkpt lat="42.80782" lon="1.74157">
        <ele>1648.7983398438</ele>
        <time>2012-05-17T12:53:29Z</time>
      </trkpt>
      <trkpt lat="42.80782" lon="1.74158">
        <ele>1647.3564453125</ele>
        <time>2012-05-17T12:53:30Z</time>
      </trkpt>
      <trkpt lat="42.80776" lon="1.7417">
        <ele>1643.9916992188</ele>
        <time>2012-05-17T12:53:36Z</time>
      </trkpt>
      <trkpt lat="42.80768" lon="1.7418">
        <ele>1640.626953125</ele>
        <time>2012-05-17T12:53:41Z</time>
      </trkpt>
      <trkpt lat="42.80761" lon="1.74197">
        <ele>1637.7431640625</ele>
        <time>2012-05-17T12:53:47Z</time>
      </trkpt>
      <trkpt lat="42.80754" lon="1.74212">
        <ele>1634.3786621094</ele>
        <time>2012-05-17T12:53:53Z</time>
      </trkpt>
      <trkpt lat="42.80746" lon="1.74225">
        <ele>1632.4560546875</ele>
        <time>2012-05-17T12:53:58Z</time>
      </trkpt>
      <trkpt lat="42.80741" lon="1.74233">
        <ele>1629.0913085938</ele>
        <time>2012-05-17T12:54:02Z</time>
      </trkpt>
      <trkpt lat="42.80738" lon="1.74237">
        <ele>1627.6491699219</ele>
        <time>2012-05-17T12:54:04Z</time>
      </trkpt>
      <trkpt lat="42.80733" lon="1.74242">
        <ele>1625.7265625</ele>
        <time>2012-05-17T12:54:09Z</time>
      </trkpt>
      <trkpt lat="42.80727" lon="1.74245">
        <ele>1623.8039550781</ele>
        <time>2012-05-17T12:54:13Z</time>
      </trkpt>
      <trkpt lat="42.80725" lon="1.74248">
        <ele>1622.8427734375</ele>
        <time>2012-05-17T12:54:16Z</time>
      </trkpt>
      <trkpt lat="42.80721" lon="1.74253">
        <ele>1621.4006347656</ele>
        <time>2012-05-17T12:54:21Z</time>
      </trkpt>
      <trkpt lat="42.80715" lon="1.74256">
        <ele>1619.9587402344</ele>
        <time>2012-05-17T12:54:27Z</time>
      </trkpt>
      <trkpt lat="42.80711" lon="1.74256">
        <ele>1618.5168457031</ele>
        <time>2012-05-17T12:54:30Z</time>
      </trkpt>
      <trkpt lat="42.80702" lon="1.74259">
        <ele>1616.1135253906</ele>
        <time>2012-05-17T12:54:35Z</time>
      </trkpt>
      <trkpt lat="42.80692" lon="1.74268">
        <ele>1612.7490234375</ele>
        <time>2012-05-17T12:54:41Z</time>
      </trkpt>
      <trkpt lat="42.80687" lon="1.74275">
        <ele>1610.826171875</ele>
        <time>2012-05-17T12:54:46Z</time>
      </trkpt>
      <trkpt lat="42.80681" lon="1.74279">
        <ele>1609.3842773438</ele>
        <time>2012-05-17T12:54:50Z</time>
      </trkpt>
      <trkpt lat="42.80674" lon="1.74285">
        <ele>1606.9809570312</ele>
        <time>2012-05-17T12:54:56Z</time>
      </trkpt>
      <trkpt lat="42.80669" lon="1.74289">
        <ele>1605.5390625</ele>
        <time>2012-05-17T12:55:01Z</time>
      </trkpt>
      <trkpt lat="42.80664" lon="1.74296">
        <ele>1604.5776367188</ele>
        <time>2012-05-17T12:55:06Z</time>
      </trkpt>
      <trkpt lat="42.80658" lon="1.74302">
        <ele>1601.6938476562</ele>
        <time>2012-05-17T12:55:11Z</time>
      </trkpt>
      <trkpt lat="42.80656" lon="1.74303">
        <ele>1601.2131347656</ele>
        <time>2012-05-17T12:55:12Z</time>
      </trkpt>
      <trkpt lat="42.80647" lon="1.74312">
        <ele>1597.8486328125</ele>
        <time>2012-05-17T12:55:18Z</time>
      </trkpt>
      <trkpt lat="42.80645" lon="1.74313">
        <ele>1596.8872070312</ele>
        <time>2012-05-17T12:55:19Z</time>
      </trkpt>
      <trkpt lat="42.80636" lon="1.74326">
        <ele>1594.4836425781</ele>
        <time>2012-05-17T12:55:25Z</time>
      </trkpt>
      <trkpt lat="42.80632" lon="1.74335">
        <ele>1592.5612792969</ele>
        <time>2012-05-17T12:55:31Z</time>
      </trkpt>
      <trkpt lat="42.80632" lon="1.74336">
        <ele>1591.5998535156</ele>
        <time>2012-05-17T12:55:34Z</time>
      </trkpt>
      <trkpt lat="42.80632" lon="1.74342">
        <ele>1590.1579589844</ele>
        <time>2012-05-17T12:55:38Z</time>
      </trkpt>
      <trkpt lat="42.80629" lon="1.74345">
        <ele>1589.1965332031</ele>
        <time>2012-05-17T12:55:42Z</time>
      </trkpt>
      <trkpt lat="42.80622" lon="1.7435">
        <ele>1586.7932128906</ele>
        <time>2012-05-17T12:55:47Z</time>
      </trkpt>
      <trkpt lat="42.80624" lon="1.74358">
        <ele>1583.9094238281</ele>
        <time>2012-05-17T12:55:53Z</time>
      </trkpt>
      <trkpt lat="42.80625" lon="1.74361">
        <ele>1583.4287109375</ele>
        <time>2012-05-17T12:55:55Z</time>
      </trkpt>
      <trkpt lat="42.80627" lon="1.74368">
        <ele>1581.0256347656</ele>
        <time>2012-05-17T12:56:02Z</time>
      </trkpt>
      <trkpt lat="42.80628" lon="1.74374">
        <ele>1578.6220703125</ele>
        <time>2012-05-17T12:56:08Z</time>
      </trkpt>
      <trkpt lat="42.80627" lon="1.74378">
        <ele>1577.1801757812</ele>
        <time>2012-05-17T12:56:11Z</time>
      </trkpt>
      <trkpt lat="42.80629" lon="1.74385">
        <ele>1574.7768554688</ele>
        <time>2012-05-17T12:56:15Z</time>
      </trkpt>
      <trkpt lat="42.80629" lon="1.74393">
        <ele>1572.3735351562</ele>
        <time>2012-05-17T12:56:19Z</time>
      </trkpt>
      <trkpt lat="42.8063" lon="1.74403">
        <ele>1569.4897460938</ele>
        <time>2012-05-17T12:56:23Z</time>
      </trkpt>
      <trkpt lat="42.8063" lon="1.74416">
        <ele>1566.125</ele>
        <time>2012-05-17T12:56:28Z</time>
      </trkpt>
      <trkpt lat="42.80634" lon="1.74427">
        <ele>1563.7214355469</ele>
        <time>2012-05-17T12:56:32Z</time>
      </trkpt>
      <trkpt lat="42.80633" lon="1.74433">
        <ele>1562.2795410156</ele>
        <time>2012-05-17T12:56:34Z</time>
      </trkpt>
      <trkpt lat="42.8064" lon="1.74447">
        <ele>1557.9538574219</ele>
        <time>2012-05-17T12:56:40Z</time>
      </trkpt>
      <trkpt lat="42.80642" lon="1.74456">
        <ele>1555.5505371094</ele>
        <time>2012-05-17T12:56:44Z</time>
      </trkpt>
      <trkpt lat="42.80639" lon="1.74466">
        <ele>1552.1857910156</ele>
        <time>2012-05-17T12:56:48Z</time>
      </trkpt>
      <trkpt lat="42.80635" lon="1.74479">
        <ele>1548.8212890625</ele>
        <time>2012-05-17T12:56:53Z</time>
      </trkpt>
      <trkpt lat="42.80629" lon="1.74482">
        <ele>1547.3791503906</ele>
        <time>2012-05-17T12:56:57Z</time>
      </trkpt>
      <trkpt lat="42.80627" lon="1.74482">
        <ele>1546.41796875</ele>
        <time>2012-05-17T12:56:58Z</time>
      </trkpt>
      <trkpt lat="42.80621" lon="1.74483">
        <ele>1544.9758300781</ele>
        <time>2012-05-17T12:57:04Z</time>
      </trkpt>
      <trkpt lat="42.80621" lon="1.74483">
        <ele>1545.4565429688</ele>
        <time>2012-05-17T12:57:05Z</time>
      </trkpt>
      <trkpt lat="42.80616" lon="1.74482">
        <ele>1544.9758300781</ele>
        <time>2012-05-17T12:57:09Z</time>
      </trkpt>
      <trkpt lat="42.80606" lon="1.74478">
        <ele>1541.611328125</ele>
        <time>2012-05-17T12:57:16Z</time>
      </trkpt>
      <trkpt lat="42.80601" lon="1.74474">
        <ele>1539.6887207031</ele>
        <time>2012-05-17T12:57:20Z</time>
      </trkpt>
      <trkpt lat="42.80591" lon="1.74473">
        <ele>1537.7661132812</ele>
        <time>2012-05-17T12:57:26Z</time>
      </trkpt>
      <trkpt lat="42.80587" lon="1.74471">
        <ele>1535.8435058594</ele>
        <time>2012-05-17T12:57:30Z</time>
      </trkpt>
      <trkpt lat="42.80582" lon="1.74467">
        <ele>1534.4016113281</ele>
        <time>2012-05-17T12:57:35Z</time>
      </trkpt>
      <trkpt lat="42.8058" lon="1.74468">
        <ele>1534.4016113281</ele>
        <time>2012-05-17T12:57:37Z</time>
      </trkpt>
      <trkpt lat="42.80576" lon="1.74465">
        <ele>1532.4790039062</ele>
        <time>2012-05-17T12:57:43Z</time>
      </trkpt>
      <trkpt lat="42.80574" lon="1.74467">
        <ele>1531.5173339844</ele>
        <time>2012-05-17T12:57:46Z</time>
      </trkpt>
      <trkpt lat="42.80566" lon="1.74465">
        <ele>1528.6335449219</ele>
        <time>2012-05-17T12:57:53Z</time>
      </trkpt>
      <trkpt lat="42.80552" lon="1.74453">
        <ele>1524.7883300781</ele>
        <time>2012-05-17T12:58:01Z</time>
      </trkpt>
      <trkpt lat="42.80543" lon="1.74443">
        <ele>1522.8657226562</ele>
        <time>2012-05-17T12:58:06Z</time>
      </trkpt>
      <trkpt lat="42.80534" lon="1.74432">
        <ele>1521.4235839844</ele>
        <time>2012-05-17T12:58:11Z</time>
      </trkpt>
      <trkpt lat="42.80529" lon="1.7443">
        <ele>1520.9431152344</ele>
        <time>2012-05-17T12:58:14Z</time>
      </trkpt>
      <trkpt lat="42.80523" lon="1.74427">
        <ele>1519.0205078125</ele>
        <time>2012-05-17T12:58:19Z</time>
      </trkpt>
      <trkpt lat="42.80521" lon="1.74424">
        <ele>1518.5397949219</ele>
        <time>2012-05-17T12:58:22Z</time>
      </trkpt>
      <trkpt lat="42.80516" lon="1.7442">
        <ele>1517.0979003906</ele>
        <time>2012-05-17T12:58:29Z</time>
      </trkpt>
      <trkpt lat="42.80513" lon="1.74417">
        <ele>1516.6171875</ele>
        <time>2012-05-17T12:58:33Z</time>
      </trkpt>
      <trkpt lat="42.80507" lon="1.74412">
        <ele>1516.1364746094</ele>
        <time>2012-05-17T12:58:39Z</time>
      </trkpt>
      <trkpt lat="42.80503" lon="1.74406">
        <ele>1513.7329101562</ele>
        <time>2012-05-17T12:58:44Z</time>
      </trkpt>
      <trkpt lat="42.80499" lon="1.744">
        <ele>1512.291015625</ele>
        <time>2012-05-17T12:58:48Z</time>
      </trkpt>
      <trkpt lat="42.8049" lon="1.74392">
        <ele>1509.4072265625</ele>
        <time>2012-05-17T12:58:57Z</time>
      </trkpt>
      <trkpt lat="42.80489" lon="1.74391">
        <ele>1508.9265136719</ele>
        <time>2012-05-17T12:58:58Z</time>
      </trkpt>
      <trkpt lat="42.80485" lon="1.74385">
        <ele>1506.5231933594</ele>
        <time>2012-05-17T12:59:02Z</time>
      </trkpt>
      <trkpt lat="42.8048" lon="1.74378">
        <ele>1505.0812988281</ele>
        <time>2012-05-17T12:59:07Z</time>
      </trkpt>
      <trkpt lat="42.80475" lon="1.74371">
        <ele>1504.1201171875</ele>
        <time>2012-05-17T12:59:11Z</time>
      </trkpt>
      <trkpt lat="42.80471" lon="1.74366">
        <ele>1502.6779785156</ele>
        <time>2012-05-17T12:59:15Z</time>
      </trkpt>
      <trkpt lat="42.80465" lon="1.74362">
        <ele>1500.2749023438</ele>
        <time>2012-05-17T12:59:21Z</time>
      </trkpt>
      <trkpt lat="42.80461" lon="1.74358">
        <ele>1498.8325195312</ele>
        <time>2012-05-17T12:59:26Z</time>
      </trkpt>
      <trkpt lat="42.80458" lon="1.74355">
        <ele>1497.8713378906</ele>
        <time>2012-05-17T12:59:29Z</time>
      </trkpt>
      <trkpt lat="42.80456" lon="1.74351">
        <ele>1496.9099121094</ele>
        <time>2012-05-17T12:59:32Z</time>
      </trkpt>
      <trkpt lat="42.8045" lon="1.74347">
        <ele>1494.9873046875</ele>
        <time>2012-05-17T12:59:38Z</time>
      </trkpt>
      <trkpt lat="42.80445" lon="1.74343">
        <ele>1493.5454101562</ele>
        <time>2012-05-17T12:59:42Z</time>
      </trkpt>
      <trkpt lat="42.80442" lon="1.74338">
        <ele>1491.6228027344</ele>
        <time>2012-05-17T12:59:47Z</time>
      </trkpt>
      <trkpt lat="42.80437" lon="1.74331">
        <ele>1489.7001953125</ele>
        <time>2012-05-17T12:59:53Z</time>
      </trkpt>
      <trkpt lat="42.80435" lon="1.74329">
        <ele>1488.7390136719</ele>
        <time>2012-05-17T12:59:55Z</time>
      </trkpt>
      <trkpt lat="42.80431" lon="1.74331">
        <ele>1485.8549804688</ele>
        <time>2012-05-17T13:00:02Z</time>
      </trkpt>
      <trkpt lat="42.8043" lon="1.74336">
        <ele>1485.3742675781</ele>
        <time>2012-05-17T13:00:05Z</time>
      </trkpt>
      <trkpt lat="42.80431" lon="1.74339">
        <ele>1484.8937988281</ele>
        <time>2012-05-17T13:00:07Z</time>
      </trkpt>
      <trkpt lat="42.80432" lon="1.74348">
        <ele>1483.9321289062</ele>
        <time>2012-05-17T13:00:11Z</time>
      </trkpt>
      <trkpt lat="42.80432" lon="1.74355">
        <ele>1482.490234375</ele>
        <time>2012-05-17T13:00:15Z</time>
      </trkpt>
      <trkpt lat="42.80432" lon="1.74357">
        <ele>1482.0095214844</ele>
        <time>2012-05-17T13:00:16Z</time>
      </trkpt>
      <trkpt lat="42.80434" lon="1.74371">
        <ele>1480.0869140625</ele>
        <time>2012-05-17T13:00:22Z</time>
      </trkpt>
      <trkpt lat="42.80437" lon="1.74381">
        <ele>1479.6062011719</ele>
        <time>2012-05-17T13:00:26Z</time>
      </trkpt>
      <trkpt lat="42.80437" lon="1.74387">
        <ele>1479.1254882812</ele>
        <time>2012-05-17T13:00:29Z</time>
      </trkpt>
      <trkpt lat="42.80438" lon="1.74393">
        <ele>1478.6450195312</ele>
        <time>2012-05-17T13:00:33Z</time>
      </trkpt>
      <trkpt lat="42.80436" lon="1.74401">
        <ele>1477.203125</ele>
        <time>2012-05-17T13:00:40Z</time>
      </trkpt>
      <trkpt lat="42.80432" lon="1.74397">
        <ele>1476.2416992188</ele>
        <time>2012-05-17T13:00:46Z</time>
      </trkpt>
      <trkpt lat="42.80426" lon="1.74396">
        <ele>1474.7998046875</ele>
        <time>2012-05-17T13:00:52Z</time>
      </trkpt>
      <trkpt lat="42.80423" lon="1.74397">
        <ele>1474.3190917969</ele>
        <time>2012-05-17T13:00:54Z</time>
      </trkpt>
      <trkpt lat="42.80416" lon="1.74392">
        <ele>1471.9157714844</ele>
        <time>2012-05-17T13:01:00Z</time>
      </trkpt>
      <trkpt lat="42.80412" lon="1.74389">
        <ele>1470.4738769531</ele>
        <time>2012-05-17T13:01:05Z</time>
      </trkpt>
      <trkpt lat="42.80407" lon="1.74384">
        <ele>1468.5512695312</ele>
        <time>2012-05-17T13:01:09Z</time>
      </trkpt>
      <trkpt lat="42.80403" lon="1.74383">
        <ele>1466.6284179688</ele>
        <time>2012-05-17T13:01:14Z</time>
      </trkpt>
      <trkpt lat="42.80404" lon="1.7439">
        <ele>1465.1865234375</ele>
        <time>2012-05-17T13:01:17Z</time>
      </trkpt>
      <trkpt lat="42.80403" lon="1.74397">
        <ele>1463.2639160156</ele>
        <time>2012-05-17T13:01:22Z</time>
      </trkpt>
      <trkpt lat="42.80402" lon="1.74405">
        <ele>1461.3413085938</ele>
        <time>2012-05-17T13:01:28Z</time>
      </trkpt>
      <trkpt lat="42.804" lon="1.74414">
        <ele>1458.4572753906</ele>
        <time>2012-05-17T13:01:35Z</time>
      </trkpt>
      <trkpt lat="42.80401" lon="1.74424">
        <ele>1456.5346679688</ele>
        <time>2012-05-17T13:01:40Z</time>
      </trkpt>
      <trkpt lat="42.80402" lon="1.74426">
        <ele>1456.0539550781</ele>
        <time>2012-05-17T13:01:42Z</time>
      </trkpt>
      <trkpt lat="42.80404" lon="1.7443">
        <ele>1455.5734863281</ele>
        <time>2012-05-17T13:01:45Z</time>
      </trkpt>
      <trkpt lat="42.80401" lon="1.74431">
        <ele>1454.1315917969</ele>
        <time>2012-05-17T13:01:50Z</time>
      </trkpt>
      <trkpt lat="42.80397" lon="1.7443">
        <ele>1452.2087402344</ele>
        <time>2012-05-17T13:01:54Z</time>
      </trkpt>
      <trkpt lat="42.80392" lon="1.74424">
        <ele>1450.2861328125</ele>
        <time>2012-05-17T13:02:00Z</time>
      </trkpt>
      <trkpt lat="42.80386" lon="1.74419">
        <ele>1448.8439941406</ele>
        <time>2012-05-17T13:02:06Z</time>
      </trkpt>
      <trkpt lat="42.80381" lon="1.74411">
        <ele>1446.9213867188</ele>
        <time>2012-05-17T13:02:13Z</time>
      </trkpt>
      <trkpt lat="42.80374" lon="1.74405">
        <ele>1445.9602050781</ele>
        <time>2012-05-17T13:02:20Z</time>
      </trkpt>
      <trkpt lat="42.80371" lon="1.74403">
        <ele>1444.5180664062</ele>
        <time>2012-05-17T13:02:24Z</time>
      </trkpt>
      <trkpt lat="42.80365" lon="1.74396">
        <ele>1442.1149902344</ele>
        <time>2012-05-17T13:02:31Z</time>
      </trkpt>
      <trkpt lat="42.8036" lon="1.74393">
        <ele>1441.1535644531</ele>
        <time>2012-05-17T13:02:36Z</time>
      </trkpt>
      <trkpt lat="42.80357" lon="1.74391">
        <ele>1441.1535644531</ele>
        <time>2012-05-17T13:02:39Z</time>
      </trkpt>
      <trkpt lat="42.80354" lon="1.74388">
        <ele>1439.7116699219</ele>
        <time>2012-05-17T13:02:42Z</time>
      </trkpt>
      <trkpt lat="42.8035" lon="1.74382">
        <ele>1437.3083496094</ele>
        <time>2012-05-17T13:02:48Z</time>
      </trkpt>
      <trkpt lat="42.80347" lon="1.74374">
        <ele>1434.9050292969</ele>
        <time>2012-05-17T13:02:54Z</time>
      </trkpt>
      <trkpt lat="42.80347" lon="1.74371">
        <ele>1433.9436035156</ele>
        <time>2012-05-17T13:02:56Z</time>
      </trkpt>
      <trkpt lat="42.80343" lon="1.74364">
        <ele>1432.5017089844</ele>
        <time>2012-05-17T13:03:01Z</time>
      </trkpt>
      <trkpt lat="42.80341" lon="1.74359">
        <ele>1431.0598144531</ele>
        <time>2012-05-17T13:03:06Z</time>
      </trkpt>
      <trkpt lat="42.80336" lon="1.74345">
        <ele>1428.17578125</ele>
        <time>2012-05-17T13:03:15Z</time>
      </trkpt>
      <trkpt lat="42.80334" lon="1.74338">
        <ele>1426.7338867188</ele>
        <time>2012-05-17T13:03:19Z</time>
      </trkpt>
      <trkpt lat="42.8033" lon="1.74324">
        <ele>1423.8498535156</ele>
        <time>2012-05-17T13:03:26Z</time>
      </trkpt>
      <trkpt lat="42.80327" lon="1.74319">
        <ele>1423.3693847656</ele>
        <time>2012-05-17T13:03:29Z</time>
      </trkpt>
      <trkpt lat="42.80326" lon="1.74313">
        <ele>1421.4465332031</ele>
        <time>2012-05-17T13:03:32Z</time>
      </trkpt>
      <trkpt lat="42.80324" lon="1.74302">
        <ele>1419.0432128906</ele>
        <time>2012-05-17T13:03:37Z</time>
      </trkpt>
      <trkpt lat="42.80323" lon="1.74296">
        <ele>1418.5625</ele>
        <time>2012-05-17T13:03:42Z</time>
      </trkpt>
      <trkpt lat="42.80321" lon="1.74286">
        <ele>1417.6010742188</ele>
        <time>2012-05-17T13:03:48Z</time>
      </trkpt>
      <trkpt lat="42.80319" lon="1.74282">
        <ele>1416.1591796875</ele>
        <time>2012-05-17T13:03:50Z</time>
      </trkpt>
      <trkpt lat="42.80312" lon="1.74267">
        <ele>1412.7946777344</ele>
        <time>2012-05-17T13:03:56Z</time>
      </trkpt>
      <trkpt lat="42.80308" lon="1.74252">
        <ele>1410.3913574219</ele>
        <time>2012-05-17T13:04:01Z</time>
      </trkpt>
      <trkpt lat="42.80307" lon="1.7424">
        <ele>1408.46875</ele>
        <time>2012-05-17T13:04:05Z</time>
      </trkpt>
      <trkpt lat="42.80306" lon="1.7423">
        <ele>1407.0268554688</ele>
        <time>2012-05-17T13:04:08Z</time>
      </trkpt>
      <trkpt lat="42.80304" lon="1.74222">
        <ele>1406.0654296875</ele>
        <time>2012-05-17T13:04:11Z</time>
      </trkpt>
      <trkpt lat="42.80302" lon="1.74207">
        <ele>1403.662109375</ele>
        <time>2012-05-17T13:04:16Z</time>
      </trkpt>
      <trkpt lat="42.803" lon="1.7419">
        <ele>1402.2199707031</ele>
        <time>2012-05-17T13:04:22Z</time>
      </trkpt>
      <trkpt lat="42.80299" lon="1.74186">
        <ele>1401.2587890625</ele>
        <time>2012-05-17T13:04:24Z</time>
      </trkpt>
      <trkpt lat="42.80299" lon="1.74183">
        <ele>1400.7780761719</ele>
        <time>2012-05-17T13:04:26Z</time>
      </trkpt>
      <trkpt lat="42.80299" lon="1.74172">
        <ele>1398.85546875</ele>
        <time>2012-05-17T13:04:32Z</time>
      </trkpt>
      <trkpt lat="42.80297" lon="1.74162">
        <ele>1397.4135742188</ele>
        <time>2012-05-17T13:04:37Z</time>
      </trkpt>
      <trkpt lat="42.80296" lon="1.74156">
        <ele>1396.4523925781</ele>
        <time>2012-05-17T13:04:40Z</time>
      </trkpt>
      <trkpt lat="42.80295" lon="1.74146">
        <ele>1394.5295410156</ele>
        <time>2012-05-17T13:04:47Z</time>
      </trkpt>
      <trkpt lat="42.80294" lon="1.74141">
        <ele>1393.568359375</ele>
        <time>2012-05-17T13:04:50Z</time>
      </trkpt>
      <trkpt lat="42.80291" lon="1.74133">
        <ele>1391.6457519531</ele>
        <time>2012-05-17T13:04:56Z</time>
      </trkpt>
      <trkpt lat="42.80289" lon="1.74126">
        <ele>1390.6843261719</ele>
        <time>2012-05-17T13:05:01Z</time>
      </trkpt>
      <trkpt lat="42.80289" lon="1.74103">
        <ele>1387.8002929688</ele>
        <time>2012-05-17T13:05:09Z</time>
      </trkpt>
      <trkpt lat="42.80289" lon="1.74098">
        <ele>1386.3583984375</ele>
        <time>2012-05-17T13:05:11Z</time>
      </trkpt>
      <trkpt lat="42.80291" lon="1.74089">
        <ele>1384.4357910156</ele>
        <time>2012-05-17T13:05:16Z</time>
      </trkpt>
      <trkpt lat="42.80284" lon="1.74071">
        <ele>1381.5517578125</ele>
        <time>2012-05-17T13:05:23Z</time>
      </trkpt>
      <trkpt lat="42.80274" lon="1.74062">
        <ele>1381.0712890625</ele>
        <time>2012-05-17T13:05:28Z</time>
      </trkpt>
      <trkpt lat="42.80263" lon="1.74055">
        <ele>1379.6291503906</ele>
        <time>2012-05-17T13:05:33Z</time>
      </trkpt>
      <trkpt lat="42.80247" lon="1.74044">
        <ele>1378.66796875</ele>
        <time>2012-05-17T13:05:40Z</time>
      </trkpt>
      <trkpt lat="42.80243" lon="1.74042">
        <ele>1378.66796875</ele>
        <time>2012-05-17T13:05:42Z</time>
      </trkpt>
      <trkpt lat="42.80231" lon="1.74036">
        <ele>1379.1484375</ele>
        <time>2012-05-17T13:05:47Z</time>
      </trkpt>
      <trkpt lat="42.80222" lon="1.74032">
        <ele>1377.7065429688</ele>
        <time>2012-05-17T13:05:52Z</time>
      </trkpt>
      <trkpt lat="42.80219" lon="1.74031">
        <ele>1376.7453613281</ele>
        <time>2012-05-17T13:05:55Z</time>
      </trkpt>
      <trkpt lat="42.80218" lon="1.74031">
        <ele>1376.2646484375</ele>
        <time>2012-05-17T13:06:06Z</time>
      </trkpt>
      <trkpt lat="42.80214" lon="1.74033">
        <ele>1374.3420410156</ele>
        <time>2012-05-17T13:06:10Z</time>
      </trkpt>
      <trkpt lat="42.80204" lon="1.74035">
        <ele>1371.9384765625</ele>
        <time>2012-05-17T13:06:16Z</time>
      </trkpt>
      <trkpt lat="42.80195" lon="1.74036">
        <ele>1369.5354003906</ele>
        <time>2012-05-17T13:06:20Z</time>
      </trkpt>
      <trkpt lat="42.80185" lon="1.74034">
        <ele>1367.1320800781</ele>
        <time>2012-05-17T13:06:25Z</time>
      </trkpt>
      <trkpt lat="42.80177" lon="1.74034">
        <ele>1364.7287597656</ele>
        <time>2012-05-17T13:06:29Z</time>
      </trkpt>
      <trkpt lat="42.80167" lon="1.7403">
        <ele>1361.8449707031</ele>
        <time>2012-05-17T13:06:34Z</time>
      </trkpt>
      <trkpt lat="42.80162" lon="1.74028">
        <ele>1360.8835449219</ele>
        <time>2012-05-17T13:06:36Z</time>
      </trkpt>
      <trkpt lat="42.80148" lon="1.74024">
        <ele>1357.0383300781</ele>
        <time>2012-05-17T13:06:43Z</time>
      </trkpt>
      <trkpt lat="42.80144" lon="1.74024">
        <ele>1355.5961914062</ele>
        <time>2012-05-17T13:06:46Z</time>
      </trkpt>
      <trkpt lat="42.80135" lon="1.74027">
        <ele>1352.7121582031</ele>
        <time>2012-05-17T13:06:52Z</time>
      </trkpt>
      <trkpt lat="42.80127" lon="1.7403">
        <ele>1350.7895507812</ele>
        <time>2012-05-17T13:06:58Z</time>
      </trkpt>
      <trkpt lat="42.80124" lon="1.74029">
        <ele>1350.3090820312</ele>
        <time>2012-05-17T13:07:02Z</time>
      </trkpt>
      <trkpt lat="42.80117" lon="1.74033">
        <ele>1348.3862304688</ele>
        <time>2012-05-17T13:07:09Z</time>
      </trkpt>
      <trkpt lat="42.80116" lon="1.74036">
        <ele>1346.4638671875</ele>
        <time>2012-05-17T13:07:14Z</time>
      </trkpt>
      <trkpt lat="42.80116" lon="1.74044">
        <ele>1344.541015625</ele>
        <time>2012-05-17T13:07:20Z</time>
      </trkpt>
      <trkpt lat="42.80112" lon="1.74048">
        <ele>1343.0991210938</ele>
        <time>2012-05-17T13:07:23Z</time>
      </trkpt>
      <trkpt lat="42.80104" lon="1.7405">
        <ele>1340.6958007812</ele>
        <time>2012-05-17T13:07:29Z</time>
      </trkpt>
      <trkpt lat="42.80098" lon="1.7405">
        <ele>1339.734375</ele>
        <time>2012-05-17T13:07:35Z</time>
      </trkpt>
      <trkpt lat="42.80094" lon="1.74051">
        <ele>1337.8117675781</ele>
        <time>2012-05-17T13:07:40Z</time>
      </trkpt>
      <trkpt lat="42.80093" lon="1.74051">
        <ele>1337.3310546875</ele>
        <time>2012-05-17T13:07:41Z</time>
      </trkpt>
      <trkpt lat="42.80089" lon="1.74048">
        <ele>1336.8503417969</ele>
        <time>2012-05-17T13:07:46Z</time>
      </trkpt>
      <trkpt lat="42.80082" lon="1.7405">
        <ele>1333.9665527344</ele>
        <time>2012-05-17T13:07:55Z</time>
      </trkpt>
      <trkpt lat="42.80079" lon="1.74052">
        <ele>1332.0439453125</ele>
        <time>2012-05-17T13:07:59Z</time>
      </trkpt>
      <trkpt lat="42.80073" lon="1.7405">
        <ele>1330.6020507812</ele>
        <time>2012-05-17T13:08:05Z</time>
      </trkpt>
      <trkpt lat="42.80068" lon="1.74048">
        <ele>1328.6794433594</ele>
        <time>2012-05-17T13:08:12Z</time>
      </trkpt>
      <trkpt lat="42.80062" lon="1.74044">
        <ele>1327.7180175781</ele>
        <time>2012-05-17T13:08:18Z</time>
      </trkpt>
      <trkpt lat="42.8006" lon="1.7404">
        <ele>1326.7568359375</ele>
        <time>2012-05-17T13:08:22Z</time>
      </trkpt>
      <trkpt lat="42.80055" lon="1.74036">
        <ele>1325.3146972656</ele>
        <time>2012-05-17T13:08:27Z</time>
      </trkpt>
      <trkpt lat="42.80049" lon="1.7403">
        <ele>1323.3920898438</ele>
        <time>2012-05-17T13:08:35Z</time>
      </trkpt>
      <trkpt lat="42.80046" lon="1.7403">
        <ele>1322.4306640625</ele>
        <time>2012-05-17T13:08:38Z</time>
      </trkpt>
      <trkpt lat="42.80041" lon="1.74029">
        <ele>1321.4692382812</ele>
        <time>2012-05-17T13:08:42Z</time>
      </trkpt>
      <trkpt lat="42.80037" lon="1.74022">
        <ele>1320.02734375</ele>
        <time>2012-05-17T13:08:49Z</time>
      </trkpt>
      <trkpt lat="42.80032" lon="1.74017">
        <ele>1319.0661621094</ele>
        <time>2012-05-17T13:08:55Z</time>
      </trkpt>
      <trkpt lat="42.80027" lon="1.74004">
        <ele>1316.1821289062</ele>
        <time>2012-05-17T13:09:01Z</time>
      </trkpt>
      <trkpt lat="42.80023" lon="1.73993">
        <ele>1314.2595214844</ele>
        <time>2012-05-17T13:09:05Z</time>
      </trkpt>
      <trkpt lat="42.80022" lon="1.73988">
        <ele>1313.7788085938</ele>
        <time>2012-05-17T13:09:08Z</time>
      </trkpt>
      <trkpt lat="42.80018" lon="1.73978">
        <ele>1312.3369140625</ele>
        <time>2012-05-17T13:09:15Z</time>
      </trkpt>
      <trkpt lat="42.80011" lon="1.73969">
        <ele>1311.8564453125</ele>
        <time>2012-05-17T13:09:23Z</time>
      </trkpt>
      <trkpt lat="42.80008" lon="1.73965">
        <ele>1312.3369140625</ele>
        <time>2012-05-17T13:09:26Z</time>
      </trkpt>
      <trkpt lat="42.80001" lon="1.73958">
        <ele>1310.8950195312</ele>
        <time>2012-05-17T13:09:33Z</time>
      </trkpt>
      <trkpt lat="42.79996" lon="1.73954">
        <ele>1309.93359375</ele>
        <time>2012-05-17T13:09:39Z</time>
      </trkpt>
      <trkpt lat="42.79994" lon="1.73954">
        <ele>1309.453125</ele>
        <time>2012-05-17T13:09:40Z</time>
      </trkpt>
      <trkpt lat="42.79988" lon="1.73947">
        <ele>1308.0112304688</ele>
        <time>2012-05-17T13:09:47Z</time>
      </trkpt>
      <trkpt lat="42.79985" lon="1.73943">
        <ele>1306.5688476562</ele>
        <time>2012-05-17T13:09:52Z</time>
      </trkpt>
      <trkpt lat="42.7998" lon="1.73934">
        <ele>1306.0881347656</ele>
        <time>2012-05-17T13:10:00Z</time>
      </trkpt>
      <trkpt lat="42.79974" lon="1.73926">
        <ele>1306.0881347656</ele>
        <time>2012-05-17T13:10:06Z</time>
      </trkpt>
      <trkpt lat="42.7997" lon="1.73917">
        <ele>1305.6076660156</ele>
        <time>2012-05-17T13:10:13Z</time>
      </trkpt>
      <trkpt lat="42.79966" lon="1.73915">
        <ele>1305.6076660156</ele>
        <time>2012-05-17T13:10:16Z</time>
      </trkpt>
      <trkpt lat="42.79961" lon="1.7391">
        <ele>1304.1657714844</ele>
        <time>2012-05-17T13:10:22Z</time>
      </trkpt>
      <trkpt lat="42.7995" lon="1.73905">
        <ele>1301.2817382812</ele>
        <time>2012-05-17T13:10:30Z</time>
      </trkpt>
      <trkpt lat="42.79943" lon="1.73902">
        <ele>1299.3591308594</ele>
        <time>2012-05-17T13:10:36Z</time>
      </trkpt>
      <trkpt lat="42.7994" lon="1.739">
        <ele>1298.8784179688</ele>
        <time>2012-05-17T13:10:39Z</time>
      </trkpt>
      <trkpt lat="42.79932" lon="1.73899">
        <ele>1297.9172363281</ele>
        <time>2012-05-17T13:10:46Z</time>
      </trkpt>
      <trkpt lat="42.79926" lon="1.73896">
        <ele>1295.5139160156</ele>
        <time>2012-05-17T13:10:52Z</time>
      </trkpt>
      <trkpt lat="42.79924" lon="1.73894">
        <ele>1294.0720214844</ele>
        <time>2012-05-17T13:10:54Z</time>
      </trkpt>
      <trkpt lat="42.79915" lon="1.73892">
        <ele>1292.1494140625</ele>
        <time>2012-05-17T13:11:02Z</time>
      </trkpt>
      <trkpt lat="42.79909" lon="1.73895">
        <ele>1293.1105957031</ele>
        <time>2012-05-17T13:11:08Z</time>
      </trkpt>
      <trkpt lat="42.79901" lon="1.73901">
        <ele>1296.4753417969</ele>
        <time>2012-05-17T13:11:16Z</time>
      </trkpt>
      <trkpt lat="42.799" lon="1.73905">
        <ele>1299.83984375</ele>
        <time>2012-05-17T13:11:20Z</time>
      </trkpt>
      <trkpt lat="42.79893" lon="1.7391">
        <ele>1299.83984375</ele>
        <time>2012-05-17T13:11:27Z</time>
      </trkpt>
      <trkpt lat="42.79887" lon="1.73919">
        <ele>1303.2043457031</ele>
        <time>2012-05-17T13:11:33Z</time>
      </trkpt>
      <trkpt lat="42.79887" lon="1.73921">
        <ele>1303.6850585938</ele>
        <time>2012-05-17T13:11:34Z</time>
      </trkpt>
      <trkpt lat="42.79879" lon="1.73927">
        <ele>1304.6462402344</ele>
        <time>2012-05-17T13:11:41Z</time>
      </trkpt>
      <trkpt lat="42.79872" lon="1.73932">
        <ele>1303.6850585938</ele>
        <time>2012-05-17T13:11:47Z</time>
      </trkpt>
      <trkpt lat="42.79868" lon="1.73935">
        <ele>1303.2043457031</ele>
        <time>2012-05-17T13:11:51Z</time>
      </trkpt>
      <trkpt lat="42.79863" lon="1.73941">
        <ele>1301.7624511719</ele>
        <time>2012-05-17T13:11:57Z</time>
      </trkpt>
      <trkpt lat="42.79857" lon="1.73942">
        <ele>1298.8784179688</ele>
        <time>2012-05-17T13:12:01Z</time>
      </trkpt>
      <trkpt lat="42.79847" lon="1.73948">
        <ele>1292.1494140625</ele>
        <time>2012-05-17T13:12:11Z</time>
      </trkpt>
      <trkpt lat="42.79841" lon="1.73953">
        <ele>1289.2651367188</ele>
        <time>2012-05-17T13:12:18Z</time>
      </trkpt>
      <trkpt lat="42.79834" lon="1.73962">
        <ele>1287.3425292969</ele>
        <time>2012-05-17T13:12:25Z</time>
      </trkpt>
      <trkpt lat="42.79826" lon="1.7397">
        <ele>1283.4973144531</ele>
        <time>2012-05-17T13:12:33Z</time>
      </trkpt>
      <trkpt lat="42.79819" lon="1.73977">
        <ele>1278.6909179688</ele>
        <time>2012-05-17T13:12:41Z</time>
      </trkpt>
      <trkpt lat="42.79818" lon="1.73978">
        <ele>1278.2102050781</ele>
        <time>2012-05-17T13:12:42Z</time>
      </trkpt>
      <trkpt lat="42.79813" lon="1.73983">
        <ele>1274.8454589844</ele>
        <time>2012-05-17T13:12:48Z</time>
      </trkpt>
      <trkpt lat="42.79808" lon="1.73989">
        <ele>1271.4807128906</ele>
        <time>2012-05-17T13:12:54Z</time>
      </trkpt>
      <trkpt lat="42.79803" lon="1.73994">
        <ele>1267.6354980469</ele>
        <time>2012-05-17T13:13:01Z</time>
      </trkpt>
      <trkpt lat="42.798" lon="1.73998">
        <ele>1267.1550292969</ele>
        <time>2012-05-17T13:13:04Z</time>
      </trkpt>
      <trkpt lat="42.79794" lon="1.74003">
        <ele>1264.7517089844</ele>
        <time>2012-05-17T13:13:10Z</time>
      </trkpt>
      <trkpt lat="42.79787" lon="1.74009">
        <ele>1262.8291015625</ele>
        <time>2012-05-17T13:13:16Z</time>
      </trkpt>
      <trkpt lat="42.79779" lon="1.74014">
        <ele>1259.9448242188</ele>
        <time>2012-05-17T13:13:23Z</time>
      </trkpt>
      <trkpt lat="42.79773" lon="1.74015">
        <ele>1258.0224609375</ele>
        <time>2012-05-17T13:13:29Z</time>
      </trkpt>
      <trkpt lat="42.79766" lon="1.74016">
        <ele>1256.099609375</ele>
        <time>2012-05-17T13:13:35Z</time>
      </trkpt>
      <trkpt lat="42.79763" lon="1.74016">
        <ele>1255.619140625</ele>
        <time>2012-05-17T13:13:38Z</time>
      </trkpt>
      <trkpt lat="42.79752" lon="1.74016">
        <ele>1253.6965332031</ele>
        <time>2012-05-17T13:13:47Z</time>
      </trkpt>
      <trkpt lat="42.79749" lon="1.74017">
        <ele>1252.7351074219</ele>
        <time>2012-05-17T13:13:50Z</time>
      </trkpt>
      <trkpt lat="42.79745" lon="1.74017">
        <ele>1252.2543945312</ele>
        <time>2012-05-17T13:13:52Z</time>
      </trkpt>
      <trkpt lat="42.79737" lon="1.74014">
        <ele>1249.8513183594</ele>
        <time>2012-05-17T13:14:00Z</time>
      </trkpt>
      <trkpt lat="42.79729" lon="1.74016">
        <ele>1249.3706054688</ele>
        <time>2012-05-17T13:14:06Z</time>
      </trkpt>
      <trkpt lat="42.79721" lon="1.74015">
        <ele>1247.9287109375</ele>
        <time>2012-05-17T13:14:13Z</time>
      </trkpt>
      <trkpt lat="42.79712" lon="1.74014">
        <ele>1246.0061035156</ele>
        <time>2012-05-17T13:14:21Z</time>
      </trkpt>
      <trkpt lat="42.79705" lon="1.74013">
        <ele>1244.5639648438</ele>
        <time>2012-05-17T13:14:28Z</time>
      </trkpt>
      <trkpt lat="42.79697" lon="1.7401">
        <ele>1241.19921875</ele>
        <time>2012-05-17T13:14:36Z</time>
      </trkpt>
      <trkpt lat="42.79692" lon="1.74011">
        <ele>1239.2766113281</ele>
        <time>2012-05-17T13:14:42Z</time>
      </trkpt>
      <trkpt lat="42.79685" lon="1.7401">
        <ele>1237.3540039062</ele>
        <time>2012-05-17T13:14:49Z</time>
      </trkpt>
      <trkpt lat="42.79679" lon="1.74006">
        <ele>1235.4313964844</ele>
        <time>2012-05-17T13:14:55Z</time>
      </trkpt>
      <trkpt lat="42.79674" lon="1.74004">
        <ele>1233.5087890625</ele>
        <time>2012-05-17T13:15:01Z</time>
      </trkpt>
      <trkpt lat="42.7967" lon="1.74003">
        <ele>1232.0668945312</ele>
        <time>2012-05-17T13:15:05Z</time>
      </trkpt>
      <trkpt lat="42.79665" lon="1.74002">
        <ele>1230.625</ele>
        <time>2012-05-17T13:15:09Z</time>
      </trkpt>
      <trkpt lat="42.79663" lon="1.74001">
        <ele>1230.1442871094</ele>
        <time>2012-05-17T13:15:11Z</time>
      </trkpt>
      <trkpt lat="42.79659" lon="1.73999">
        <ele>1228.2216796875</ele>
        <time>2012-05-17T13:15:15Z</time>
      </trkpt>
      <trkpt lat="42.79659" lon="1.73998">
        <ele>1226.298828125</ele>
        <time>2012-05-17T13:15:24Z</time>
      </trkpt>
      <trkpt lat="42.79656" lon="1.73995">
        <ele>1224.8569335938</ele>
        <time>2012-05-17T13:15:46Z</time>
      </trkpt>
      <trkpt lat="42.79651" lon="1.73992">
        <ele>1224.3762207031</ele>
        <time>2012-05-17T13:15:51Z</time>
      </trkpt>
      <trkpt lat="42.79643" lon="1.73989">
        <ele>1222.9343261719</ele>
        <time>2012-05-17T13:15:58Z</time>
      </trkpt>
      <trkpt lat="42.79641" lon="1.73989">
        <ele>1221.9729003906</ele>
        <time>2012-05-17T13:16:00Z</time>
      </trkpt>
      <trkpt lat="42.79634" lon="1.73984">
        <ele>1221.01171875</ele>
        <time>2012-05-17T13:16:07Z</time>
      </trkpt>
      <trkpt lat="42.79631" lon="1.73982">
        <ele>1220.0502929688</ele>
        <time>2012-05-17T13:16:19Z</time>
      </trkpt>
      <trkpt lat="42.79625" lon="1.73977">
        <ele>1219.0891113281</ele>
        <time>2012-05-17T13:16:25Z</time>
      </trkpt>
      <trkpt lat="42.7962" lon="1.73973">
        <ele>1218.1276855469</ele>
        <time>2012-05-17T13:16:30Z</time>
      </trkpt>
      <trkpt lat="42.79617" lon="1.73969">
        <ele>1217.1665039062</ele>
        <time>2012-05-17T13:16:35Z</time>
      </trkpt>
      <trkpt lat="42.79609" lon="1.73967">
        <ele>1215.724609375</ele>
        <time>2012-05-17T13:16:43Z</time>
      </trkpt>
      <trkpt lat="42.79603" lon="1.73967">
        <ele>1215.2438964844</ele>
        <time>2012-05-17T13:16:48Z</time>
      </trkpt>
      <trkpt lat="42.79597" lon="1.73966">
        <ele>1213.3212890625</ele>
        <time>2012-05-17T13:16:54Z</time>
      </trkpt>
      <trkpt lat="42.79593" lon="1.73969">
        <ele>1211.8791503906</ele>
        <time>2012-05-17T13:16:59Z</time>
      </trkpt>
      <trkpt lat="42.79586" lon="1.73967">
        <ele>1210.9177246094</ele>
        <time>2012-05-17T13:17:05Z</time>
      </trkpt>
      <trkpt lat="42.79585" lon="1.73967">
        <ele>1210.9177246094</ele>
        <time>2012-05-17T13:17:06Z</time>
      </trkpt>
      <trkpt lat="42.79582" lon="1.73962">
        <ele>1208.5144042969</ele>
        <time>2012-05-17T13:17:12Z</time>
      </trkpt>
      <trkpt lat="42.79577" lon="1.73956">
        <ele>1206.591796875</ele>
        <time>2012-05-17T13:17:19Z</time>
      </trkpt>
      <trkpt lat="42.79573" lon="1.73947">
        <ele>1204.1887207031</ele>
        <time>2012-05-17T13:17:26Z</time>
      </trkpt>
      <trkpt lat="42.79573" lon="1.73946">
        <ele>1204.1887207031</ele>
        <time>2012-05-17T13:17:27Z</time>
      </trkpt>
      <trkpt lat="42.79567" lon="1.73943">
        <ele>1203.2272949219</ele>
        <time>2012-05-17T13:17:34Z</time>
      </trkpt>
      <trkpt lat="42.79562" lon="1.73943">
        <ele>1202.7465820312</ele>
        <time>2012-05-17T13:17:37Z</time>
      </trkpt>
      <trkpt lat="42.79553" lon="1.73951">
        <ele>1201.3046875</ele>
        <time>2012-05-17T13:17:46Z</time>
      </trkpt>
      <trkpt lat="42.79549" lon="1.73956">
        <ele>1199.3820800781</ele>
        <time>2012-05-17T13:17:52Z</time>
      </trkpt>
      <trkpt lat="42.79545" lon="1.73962">
        <ele>1197.4594726562</ele>
        <time>2012-05-17T13:17:58Z</time>
      </trkpt>
      <trkpt lat="42.7954" lon="1.73969">
        <ele>1196.017578125</ele>
        <time>2012-05-17T13:18:05Z</time>
      </trkpt>
      <trkpt lat="42.79538" lon="1.73972">
        <ele>1195.0559082031</ele>
        <time>2012-05-17T13:18:08Z</time>
      </trkpt>
      <trkpt lat="42.79533" lon="1.73975">
        <ele>1194.0947265625</ele>
        <time>2012-05-17T13:18:15Z</time>
      </trkpt>
      <trkpt lat="42.79528" lon="1.73972">
        <ele>1193.1333007812</ele>
        <time>2012-05-17T13:18:21Z</time>
      </trkpt>
      <trkpt lat="42.79523" lon="1.73968">
        <ele>1192.1721191406</ele>
        <time>2012-05-17T13:18:26Z</time>
      </trkpt>
      <trkpt lat="42.79519" lon="1.73962">
        <ele>1191.2106933594</ele>
        <time>2012-05-17T13:18:31Z</time>
      </trkpt>
      <trkpt lat="42.79517" lon="1.73948">
        <ele>1188.8076171875</ele>
        <time>2012-05-17T13:18:39Z</time>
      </trkpt>
      <trkpt lat="42.79517" lon="1.73939">
        <ele>1187.8461914062</ele>
        <time>2012-05-17T13:18:45Z</time>
      </trkpt>
      <trkpt lat="42.79519" lon="1.73932">
        <ele>1185.9235839844</ele>
        <time>2012-05-17T13:18:51Z</time>
      </trkpt>
      <trkpt lat="42.79522" lon="1.73927">
        <ele>1183.5202636719</ele>
        <time>2012-05-17T13:18:57Z</time>
      </trkpt>
      <trkpt lat="42.79522" lon="1.73921">
        <ele>1182.5590820312</ele>
        <time>2012-05-17T13:19:03Z</time>
      </trkpt>
      <trkpt lat="42.79523" lon="1.73912">
        <ele>1181.59765625</ele>
        <time>2012-05-17T13:19:09Z</time>
      </trkpt>
      <trkpt lat="42.79523" lon="1.73909">
        <ele>1181.1171875</ele>
        <time>2012-05-17T13:19:11Z</time>
      </trkpt>
      <trkpt lat="42.79523" lon="1.73898">
        <ele>1180.6364746094</ele>
        <time>2012-05-17T13:19:18Z</time>
      </trkpt>
      <trkpt lat="42.79527" lon="1.73889">
        <ele>1177.2717285156</ele>
        <time>2012-05-17T13:19:25Z</time>
      </trkpt>
      <trkpt lat="42.79528" lon="1.73887">
        <ele>1176.791015625</ele>
        <time>2012-05-17T13:19:26Z</time>
      </trkpt>
      <trkpt lat="42.79531" lon="1.73874">
        <ele>1173.4265136719</ele>
        <time>2012-05-17T13:19:35Z</time>
      </trkpt>
      <trkpt lat="42.79532" lon="1.73865">
        <ele>1171.5036621094</ele>
        <time>2012-05-17T13:19:41Z</time>
      </trkpt>
      <trkpt lat="42.79533" lon="1.73856">
        <ele>1170.0617675781</ele>
        <time>2012-05-17T13:19:47Z</time>
      </trkpt>
      <trkpt lat="42.79533" lon="1.73855">
        <ele>1169.5812988281</ele>
        <time>2012-05-17T13:19:48Z</time>
      </trkpt>
      <trkpt lat="42.79532" lon="1.73846">
        <ele>1167.6584472656</ele>
        <time>2012-05-17T13:19:55Z</time>
      </trkpt>
      <trkpt lat="42.79531" lon="1.73839">
        <ele>1166.2165527344</ele>
        <time>2012-05-17T13:20:01Z</time>
      </trkpt>
      <trkpt lat="42.79529" lon="1.7383">
        <ele>1164.7746582031</ele>
        <time>2012-05-17T13:20:08Z</time>
      </trkpt>
      <trkpt lat="42.79528" lon="1.73823">
        <ele>1162.37109375</ele>
        <time>2012-05-17T13:20:15Z</time>
      </trkpt>
      <trkpt lat="42.79527" lon="1.73815">
        <ele>1160.9291992188</ele>
        <time>2012-05-17T13:20:22Z</time>
      </trkpt>
      <trkpt lat="42.79524" lon="1.73804">
        <ele>1158.5258789062</ele>
        <time>2012-05-17T13:20:30Z</time>
      </trkpt>
      <trkpt lat="42.79522" lon="1.73797">
        <ele>1156.1225585938</ele>
        <time>2012-05-17T13:20:37Z</time>
      </trkpt>
      <trkpt lat="42.7952" lon="1.73791">
        <ele>1154.6806640625</ele>
        <time>2012-05-17T13:20:43Z</time>
      </trkpt>
      <trkpt lat="42.79521" lon="1.73782">
        <ele>1152.7580566406</ele>
        <time>2012-05-17T13:20:50Z</time>
      </trkpt>
      <trkpt lat="42.79524" lon="1.73774">
        <ele>1151.3161621094</ele>
        <time>2012-05-17T13:20:57Z</time>
      </trkpt>
      <trkpt lat="42.79526" lon="1.73767">
        <ele>1149.8742675781</ele>
        <time>2012-05-17T13:21:03Z</time>
      </trkpt>
      <trkpt lat="42.79528" lon="1.73763">
        <ele>1148.9128417969</ele>
        <time>2012-05-17T13:21:06Z</time>
      </trkpt>
      <trkpt lat="42.7953" lon="1.73757">
        <ele>1146.9899902344</ele>
        <time>2012-05-17T13:21:10Z</time>
      </trkpt>
      <trkpt lat="42.79535" lon="1.73745">
        <ele>1145.0673828125</ele>
        <time>2012-05-17T13:21:17Z</time>
      </trkpt>
      <trkpt lat="42.79539" lon="1.73735">
        <ele>1142.18359375</ele>
        <time>2012-05-17T13:21:25Z</time>
      </trkpt>
      <trkpt lat="42.7954" lon="1.73732">
        <ele>1142.18359375</ele>
        <time>2012-05-17T13:21:27Z</time>
      </trkpt>
      <trkpt lat="42.79543" lon="1.73724">
        <ele>1139.2995605469</ele>
        <time>2012-05-17T13:21:34Z</time>
      </trkpt>
      <trkpt lat="42.79545" lon="1.73715">
        <ele>1136.8962402344</ele>
        <time>2012-05-17T13:21:42Z</time>
      </trkpt>
      <trkpt lat="42.79547" lon="1.7371">
        <ele>1136.4157714844</ele>
        <time>2012-05-17T13:21:48Z</time>
      </trkpt>
      <trkpt lat="42.79548" lon="1.73706">
        <ele>1136.4157714844</ele>
        <time>2012-05-17T13:21:53Z</time>
      </trkpt>
      <trkpt lat="42.7955" lon="1.73701">
        <ele>1135.9350585938</ele>
        <time>2012-05-17T13:21:58Z</time>
      </trkpt>
      <trkpt lat="42.79552" lon="1.7369">
        <ele>1134.9738769531</ele>
        <time>2012-05-17T13:22:06Z</time>
      </trkpt>
      <trkpt lat="42.79554" lon="1.73681">
        <ele>1133.0510253906</ele>
        <time>2012-05-17T13:22:13Z</time>
      </trkpt>
      <trkpt lat="42.79554" lon="1.73678">
        <ele>1132.08984375</ele>
        <time>2012-05-17T13:22:15Z</time>
      </trkpt>
      <trkpt lat="42.79555" lon="1.7367">
        <ele>1131.1284179688</ele>
        <time>2012-05-17T13:22:20Z</time>
      </trkpt>
      <trkpt lat="42.79556" lon="1.73664">
        <ele>1129.6862792969</ele>
        <time>2012-05-17T13:22:26Z</time>
      </trkpt>
      <trkpt lat="42.79556" lon="1.73655">
        <ele>1127.763671875</ele>
        <time>2012-05-17T13:22:32Z</time>
      </trkpt>
      <trkpt lat="42.79559" lon="1.73644">
        <ele>1127.283203125</ele>
        <time>2012-05-17T13:22:39Z</time>
      </trkpt>
      <trkpt lat="42.7956" lon="1.73637">
        <ele>1124.3991699219</ele>
        <time>2012-05-17T13:22:47Z</time>
      </trkpt>
      <trkpt lat="42.79557" lon="1.73632">
        <ele>1125.3603515625</ele>
        <time>2012-05-17T13:22:54Z</time>
      </trkpt>
      <trkpt lat="42.79555" lon="1.73627">
        <ele>1123.9184570312</ele>
        <time>2012-05-17T13:23:00Z</time>
      </trkpt>
      <trkpt lat="42.79554" lon="1.73619">
        <ele>1120.0732421875</ele>
        <time>2012-05-17T13:23:08Z</time>
      </trkpt>
      <trkpt lat="42.79557" lon="1.73612">
        <ele>1117.669921875</ele>
        <time>2012-05-17T13:23:14Z</time>
      </trkpt>
      <trkpt lat="42.79555" lon="1.73603">
        <ele>1117.189453125</ele>
        <time>2012-05-17T13:23:21Z</time>
      </trkpt>
      <trkpt lat="42.79555" lon="1.73599">
        <ele>1116.7087402344</ele>
        <time>2012-05-17T13:23:25Z</time>
      </trkpt>
      <trkpt lat="42.79554" lon="1.73591">
        <ele>1114.3051757812</ele>
        <time>2012-05-17T13:23:32Z</time>
      </trkpt>
      <trkpt lat="42.79552" lon="1.73586">
        <ele>1113.8244628906</ele>
        <time>2012-05-17T13:23:37Z</time>
      </trkpt>
      <trkpt lat="42.79548" lon="1.7358">
        <ele>1112.3825683594</ele>
        <time>2012-05-17T13:23:43Z</time>
      </trkpt>
      <trkpt lat="42.79544" lon="1.73571">
        <ele>1109.9792480469</ele>
        <time>2012-05-17T13:23:49Z</time>
      </trkpt>
      <trkpt lat="42.79541" lon="1.73568">
        <ele>1109.0180664062</ele>
        <time>2012-05-17T13:23:53Z</time>
      </trkpt>
      <trkpt lat="42.7954" lon="1.7357">
        <ele>1108.0568847656</ele>
        <time>2012-05-17T13:23:55Z</time>
      </trkpt>
      <trkpt lat="42.79537" lon="1.73568">
        <ele>1107.0954589844</ele>
        <time>2012-05-17T13:24:00Z</time>
      </trkpt>
      <trkpt lat="42.79537" lon="1.73562">
        <ele>1105.1728515625</ele>
        <time>2012-05-17T13:24:05Z</time>
      </trkpt>
      <trkpt lat="42.79535" lon="1.7355">
        <ele>1103.2502441406</ele>
        <time>2012-05-17T13:24:13Z</time>
      </trkpt>
      <trkpt lat="42.79535" lon="1.73544">
        <ele>1101.3276367188</ele>
        <time>2012-05-17T13:24:19Z</time>
      </trkpt>
      <trkpt lat="42.79533" lon="1.73542">
        <ele>1100.3664550781</ele>
        <time>2012-05-17T13:24:25Z</time>
      </trkpt>
      <trkpt lat="42.79527" lon="1.73546">
        <ele>1098.443359375</ele>
        <time>2012-05-17T13:24:31Z</time>
      </trkpt>
      <trkpt lat="42.79524" lon="1.73549">
        <ele>1097.4821777344</ele>
        <time>2012-05-17T13:24:35Z</time>
      </trkpt>
      <trkpt lat="42.7952" lon="1.73553">
        <ele>1096.5209960938</ele>
        <time>2012-05-17T13:24:39Z</time>
      </trkpt>
      <trkpt lat="42.79513" lon="1.73559">
        <ele>1094.1176757812</ele>
        <time>2012-05-17T13:24:46Z</time>
      </trkpt>
      <trkpt lat="42.7951" lon="1.73556">
        <ele>1093.15625</ele>
        <time>2012-05-17T13:24:50Z</time>
      </trkpt>
      <trkpt lat="42.79505" lon="1.73559">
        <ele>1091.7143554688</ele>
        <time>2012-05-17T13:24:54Z</time>
      </trkpt>
      <trkpt lat="42.79501" lon="1.73566">
        <ele>1090.7529296875</ele>
        <time>2012-05-17T13:24:59Z</time>
      </trkpt>
      <trkpt lat="42.79497" lon="1.73571">
        <ele>1089.3110351562</ele>
        <time>2012-05-17T13:25:04Z</time>
      </trkpt>
      <trkpt lat="42.79493" lon="1.73572">
        <ele>1087.869140625</ele>
        <time>2012-05-17T13:25:09Z</time>
      </trkpt>
      <trkpt lat="42.79491" lon="1.73571">
        <ele>1085.9465332031</ele>
        <time>2012-05-17T13:25:13Z</time>
      </trkpt>
      <trkpt lat="42.79489" lon="1.73573">
        <ele>1085.4658203125</ele>
        <time>2012-05-17T13:25:15Z</time>
      </trkpt>
      <trkpt lat="42.79482" lon="1.73584">
        <ele>1084.0239257812</ele>
        <time>2012-05-17T13:25:21Z</time>
      </trkpt>
      <trkpt lat="42.79482" lon="1.73586">
        <ele>1084.0239257812</ele>
        <time>2012-05-17T13:25:22Z</time>
      </trkpt>
      <trkpt lat="42.79478" lon="1.73586">
        <ele>1083.0622558594</ele>
        <time>2012-05-17T13:25:27Z</time>
      </trkpt>
      <trkpt lat="42.79477" lon="1.73581">
        <ele>1081.1398925781</ele>
        <time>2012-05-17T13:25:31Z</time>
      </trkpt>
      <trkpt lat="42.79475" lon="1.73571">
        <ele>1078.7365722656</ele>
        <time>2012-05-17T13:25:39Z</time>
      </trkpt>
      <trkpt lat="42.79475" lon="1.73569">
        <ele>1078.7365722656</ele>
        <time>2012-05-17T13:25:40Z</time>
      </trkpt>
      <trkpt lat="42.79475" lon="1.7356">
        <ele>1076.8139648438</ele>
        <time>2012-05-17T13:25:46Z</time>
      </trkpt>
      <trkpt lat="42.79476" lon="1.73553">
        <ele>1074.4106445312</ele>
        <time>2012-05-17T13:25:50Z</time>
      </trkpt>
      <trkpt lat="42.79474" lon="1.7354">
        <ele>1072.0073242188</ele>
        <time>2012-05-17T13:25:58Z</time>
      </trkpt>
      <trkpt lat="42.79474" lon="1.73536">
        <ele>1071.0461425781</ele>
        <time>2012-05-17T13:26:01Z</time>
      </trkpt>
      <trkpt lat="42.79473" lon="1.73522">
        <ele>1067.6811523438</ele>
        <time>2012-05-17T13:26:08Z</time>
      </trkpt>
      <trkpt lat="42.79472" lon="1.73512">
        <ele>1065.7587890625</ele>
        <time>2012-05-17T13:26:12Z</time>
      </trkpt>
      <trkpt lat="42.79474" lon="1.73503">
        <ele>1063.8359375</ele>
        <time>2012-05-17T13:26:17Z</time>
      </trkpt>
      <trkpt lat="42.79473" lon="1.735">
        <ele>1063.35546875</ele>
        <time>2012-05-17T13:26:19Z</time>
      </trkpt>
      <trkpt lat="42.7947" lon="1.73489">
        <ele>1061.4328613281</ele>
        <time>2012-05-17T13:26:26Z</time>
      </trkpt>
      <trkpt lat="42.7947" lon="1.73487">
        <ele>1060.4714355469</ele>
        <time>2012-05-17T13:26:27Z</time>
      </trkpt>
      <trkpt lat="42.79467" lon="1.73477">
        <ele>1059.0295410156</ele>
        <time>2012-05-17T13:26:33Z</time>
      </trkpt>
      <trkpt lat="42.79466" lon="1.73471">
        <ele>1058.068359375</ele>
        <time>2012-05-17T13:26:38Z</time>
      </trkpt>
      <trkpt lat="42.79465" lon="1.73467">
        <ele>1056.6262207031</ele>
        <time>2012-05-17T13:26:41Z</time>
      </trkpt>
      <trkpt lat="42.79463" lon="1.73455">
        <ele>1054.7036132812</ele>
        <time>2012-05-17T13:26:48Z</time>
      </trkpt>
      <trkpt lat="42.79462" lon="1.73443">
        <ele>1053.26171875</ele>
        <time>2012-05-17T13:26:55Z</time>
      </trkpt>
      <trkpt lat="42.79461" lon="1.73433">
        <ele>1053.26171875</ele>
        <time>2012-05-17T13:27:01Z</time>
      </trkpt>
      <trkpt lat="42.79462" lon="1.73423">
        <ele>1055.1843261719</ele>
        <time>2012-05-17T13:27:07Z</time>
      </trkpt>
      <trkpt lat="42.79462" lon="1.73415">
        <ele>1055.6650390625</ele>
        <time>2012-05-17T13:27:12Z</time>
      </trkpt>
      <trkpt lat="42.7946" lon="1.73409">
        <ele>1057.5876464844</ele>
        <time>2012-05-17T13:27:17Z</time>
      </trkpt>
      <trkpt lat="42.79457" lon="1.73401">
        <ele>1056.6262207031</ele>
        <time>2012-05-17T13:27:25Z</time>
      </trkpt>
      <trkpt lat="42.79453" lon="1.73396">
        <ele>1055.1843261719</ele>
        <time>2012-05-17T13:27:30Z</time>
      </trkpt>
      <trkpt lat="42.79449" lon="1.73392">
        <ele>1051.3388671875</ele>
        <time>2012-05-17T13:27:35Z</time>
      </trkpt>
      <trkpt lat="42.79445" lon="1.7339">
        <ele>1047.9743652344</ele>
        <time>2012-05-17T13:27:41Z</time>
      </trkpt>
      <trkpt lat="42.79435" lon="1.73393">
        <ele>1046.5324707031</ele>
        <time>2012-05-17T13:27:47Z</time>
      </trkpt>
      <trkpt lat="42.79428" lon="1.73398">
        <ele>1045.0903320312</ele>
        <time>2012-05-17T13:27:50Z</time>
      </trkpt>
      <trkpt lat="42.79418" lon="1.734">
        <ele>1043.1677246094</ele>
        <time>2012-05-17T13:27:55Z</time>
      </trkpt>
      <trkpt lat="42.79407" lon="1.73399">
        <ele>1041.2451171875</ele>
        <time>2012-05-17T13:28:04Z</time>
      </trkpt>
      <trkpt lat="42.79399" lon="1.73399">
        <ele>1040.2839355469</ele>
        <time>2012-05-17T13:28:11Z</time>
      </trkpt>
      <trkpt lat="42.79391" lon="1.73397">
        <ele>1037.8806152344</ele>
        <time>2012-05-17T13:28:17Z</time>
      </trkpt>
      <trkpt lat="42.79383" lon="1.73399">
        <ele>1037.8806152344</ele>
        <time>2012-05-17T13:28:24Z</time>
      </trkpt>
      <trkpt lat="42.79374" lon="1.73399">
        <ele>1037.3999023438</ele>
        <time>2012-05-17T13:28:31Z</time>
      </trkpt>
      <trkpt lat="42.79368" lon="1.73399">
        <ele>1035.9577636719</ele>
        <time>2012-05-17T13:28:36Z</time>
      </trkpt>
      <trkpt lat="42.79362" lon="1.734">
        <ele>1035.4770507812</ele>
        <time>2012-05-17T13:28:41Z</time>
      </trkpt>
      <trkpt lat="42.79357" lon="1.734">
        <ele>1034.03515625</ele>
        <time>2012-05-17T13:28:46Z</time>
      </trkpt>
      <trkpt lat="42.79351" lon="1.73401">
        <ele>1032.5932617188</ele>
        <time>2012-05-17T13:28:52Z</time>
      </trkpt>
      <trkpt lat="42.79344" lon="1.73399">
        <ele>1031.1513671875</ele>
        <time>2012-05-17T13:28:57Z</time>
      </trkpt>
      <trkpt lat="42.7934" lon="1.73396">
        <ele>1029.228515625</ele>
        <time>2012-05-17T13:29:02Z</time>
      </trkpt>
      <trkpt lat="42.79333" lon="1.73394">
        <ele>1026.3447265625</ele>
        <time>2012-05-17T13:29:07Z</time>
      </trkpt>
      <trkpt lat="42.79327" lon="1.73395">
        <ele>1024.9028320312</ele>
        <time>2012-05-17T13:29:13Z</time>
      </trkpt>
      <trkpt lat="42.79324" lon="1.73396">
        <ele>1023.4609375</ele>
        <time>2012-05-17T13:29:16Z</time>
      </trkpt>
      <trkpt lat="42.79317" lon="1.73397">
        <ele>1021.5380859375</ele>
        <time>2012-05-17T13:29:23Z</time>
      </trkpt>
      <trkpt lat="42.79313" lon="1.73398">
        <ele>1019.6154785156</ele>
        <time>2012-05-17T13:29:28Z</time>
      </trkpt>
      <trkpt lat="42.79311" lon="1.73398">
        <ele>1018.6540527344</ele>
        <time>2012-05-17T13:29:30Z</time>
      </trkpt>
      <trkpt lat="42.79303" lon="1.73406">
        <ele>1018.1733398438</ele>
        <time>2012-05-17T13:29:37Z</time>
      </trkpt>
      <trkpt lat="42.79305" lon="1.73415">
        <ele>1016.7314453125</ele>
        <time>2012-05-17T13:29:42Z</time>
      </trkpt>
      <trkpt lat="42.79302" lon="1.73421">
        <ele>1016.2507324219</ele>
        <time>2012-05-17T13:29:46Z</time>
      </trkpt>
      <trkpt lat="42.79295" lon="1.73421">
        <ele>1015.2895507812</ele>
        <time>2012-05-17T13:29:53Z</time>
      </trkpt>
      <trkpt lat="42.79295" lon="1.7342">
        <ele>1014.8088378906</ele>
        <time>2012-05-17T13:29:54Z</time>
      </trkpt>
      <trkpt lat="42.79291" lon="1.73412">
        <ele>1013.8474121094</ele>
        <time>2012-05-17T13:30:01Z</time>
      </trkpt>
      <trkpt lat="42.79286" lon="1.73405">
        <ele>1012.4055175781</ele>
        <time>2012-05-17T13:30:07Z</time>
      </trkpt>
      <trkpt lat="42.79281" lon="1.73401">
        <ele>1010.4829101562</ele>
        <time>2012-05-17T13:30:12Z</time>
      </trkpt>
      <trkpt lat="42.7928" lon="1.734">
        <ele>1010.0021972656</ele>
        <time>2012-05-17T13:30:13Z</time>
      </trkpt>
      <trkpt lat="42.79275" lon="1.734">
        <ele>1007.5991210938</ele>
        <time>2012-05-17T13:30:19Z</time>
      </trkpt>
      <trkpt lat="42.79267" lon="1.73399">
        <ele>1006.6376953125</ele>
        <time>2012-05-17T13:30:26Z</time>
      </trkpt>
      <trkpt lat="42.79259" lon="1.73399">
        <ele>1006.1569824219</ele>
        <time>2012-05-17T13:30:32Z</time>
      </trkpt>
      <trkpt lat="42.79254" lon="1.73397">
        <ele>1005.1958007812</ele>
        <time>2012-05-17T13:30:36Z</time>
      </trkpt>
      <trkpt lat="42.79245" lon="1.73392">
        <ele>1004.7150878906</ele>
        <time>2012-05-17T13:30:43Z</time>
      </trkpt>
      <trkpt lat="42.79242" lon="1.7339">
        <ele>1003.7536621094</ele>
        <time>2012-05-17T13:30:46Z</time>
      </trkpt>
      <trkpt lat="42.79237" lon="1.73385">
        <ele>1002.7922363281</ele>
        <time>2012-05-17T13:30:51Z</time>
      </trkpt>
      <trkpt lat="42.79231" lon="1.73378">
        <ele>1000.8696289062</ele>
        <time>2012-05-17T13:30:57Z</time>
      </trkpt>
      <trkpt lat="42.79226" lon="1.73374">
        <ele>999.90844726562</ele>
        <time>2012-05-17T13:31:01Z</time>
      </trkpt>
      <trkpt lat="42.79219" lon="1.73366">
        <ele>999.427734375</ele>
        <time>2012-05-17T13:31:06Z</time>
      </trkpt>
      <trkpt lat="42.79213" lon="1.73358">
        <ele>997.50512695312</ele>
        <time>2012-05-17T13:31:12Z</time>
      </trkpt>
      <trkpt lat="42.79208" lon="1.73351">
        <ele>997.0244140625</ele>
        <time>2012-05-17T13:31:18Z</time>
      </trkpt>
      <trkpt lat="42.79205" lon="1.73345">
        <ele>997.0244140625</ele>
        <time>2012-05-17T13:31:22Z</time>
      </trkpt>
      <trkpt lat="42.79202" lon="1.7334">
        <ele>997.0244140625</ele>
        <time>2012-05-17T13:31:26Z</time>
      </trkpt>
      <trkpt lat="42.79199" lon="1.73336">
        <ele>997.0244140625</ele>
        <time>2012-05-17T13:31:29Z</time>
      </trkpt>
      <trkpt lat="42.79197" lon="1.7333">
        <ele>997.0244140625</ele>
        <time>2012-05-17T13:31:33Z</time>
      </trkpt>
      <trkpt lat="42.79193" lon="1.73321">
        <ele>996.06323242188</ele>
        <time>2012-05-17T13:31:40Z</time>
      </trkpt>
      <trkpt lat="42.79191" lon="1.7331">
        <ele>996.06323242188</ele>
        <time>2012-05-17T13:31:47Z</time>
      </trkpt>
      <trkpt lat="42.79189" lon="1.73305">
        <ele>995.58251953125</ele>
        <time>2012-05-17T13:31:50Z</time>
      </trkpt>
      <trkpt lat="42.79187" lon="1.733">
        <ele>995.10180664062</ele>
        <time>2012-05-17T13:31:53Z</time>
      </trkpt>
      <trkpt lat="42.79184" lon="1.73292">
        <ele>995.58251953125</ele>
        <time>2012-05-17T13:31:58Z</time>
      </trkpt>
      <trkpt lat="42.79182" lon="1.73288">
        <ele>995.10180664062</ele>
        <time>2012-05-17T13:32:01Z</time>
      </trkpt>
      <trkpt lat="42.79178" lon="1.73283">
        <ele>994.62109375</ele>
        <time>2012-05-17T13:32:05Z</time>
      </trkpt>
    </trkseg>
  </trk>
</gpx>